<?xml version="1.0" encoding="UTF-8" standalone="no" ?>
<gpx xmlns="http://www.topografix.com/GPX/1/1" xmlns:xsi="http://www.w3.org/2001/XMLSchema-instance" xsi:schemaLocation="http://www.topografix.com/GPX/1/1 http://www.topografix.com/GPX/1/1/gpx.xsd" version="1.1" creator="VisuGPX - https://www.visugpx.com">
  <metadata>
    <name>7 June 2009 - Barrage Malpasset</name>
    <desc><![CDATA[7 June 2009 - Barrage Malpasset
-------------------------------------]]></desc>
  </metadata>
  <trk>
    <name><![CDATA[Track 15]]></name>
    <desc><![CDATA[]]></desc>
    <trkseg>
      <trkpt lat="43.57698" lon="6.72645">
        <ele>366</ele>
        <time>2009-06-07T11:43:23Z</time>
      </trkpt>
      <trkpt lat="43.57703" lon="6.72642">
        <ele>369</ele>
        <time>2009-06-07T11:43:24Z</time>
      </trkpt>
      <trkpt lat="43.57698" lon="6.72645">
        <ele>367</ele>
        <time>2009-06-07T11:43:27Z</time>
      </trkpt>
      <trkpt lat="43.57698" lon="6.72646">
        <ele>366</ele>
        <time>2009-06-07T11:43:32Z</time>
      </trkpt>
      <trkpt lat="43.57696" lon="6.72647">
        <ele>361</ele>
        <time>2009-06-07T11:45:26Z</time>
      </trkpt>
      <trkpt lat="43.57691" lon="6.7267">
        <ele>359</ele>
        <time>2009-06-07T11:45:29Z</time>
      </trkpt>
      <trkpt lat="43.57686" lon="6.72681">
        <ele>360</ele>
        <time>2009-06-07T11:45:32Z</time>
      </trkpt>
      <trkpt lat="43.57684" lon="6.72689">
        <ele>360</ele>
        <time>2009-06-07T11:45:33Z</time>
      </trkpt>
      <trkpt lat="43.57662" lon="6.72726">
        <ele>359</ele>
        <time>2009-06-07T11:45:41Z</time>
      </trkpt>
      <trkpt lat="43.57657" lon="6.72737">
        <ele>359</ele>
        <time>2009-06-07T11:45:42Z</time>
      </trkpt>
      <trkpt lat="43.57649" lon="6.72753">
        <ele>359</ele>
        <time>2009-06-07T11:45:45Z</time>
      </trkpt>
      <trkpt lat="43.57629" lon="6.7279">
        <ele>358</ele>
        <time>2009-06-07T11:45:52Z</time>
      </trkpt>
      <trkpt lat="43.57625" lon="6.72795">
        <ele>357</ele>
        <time>2009-06-07T11:45:54Z</time>
      </trkpt>
      <trkpt lat="43.57619" lon="6.72802">
        <ele>357</ele>
        <time>2009-06-07T11:45:57Z</time>
      </trkpt>
      <trkpt lat="43.57612" lon="6.72809">
        <ele>354</ele>
        <time>2009-06-07T11:45:58Z</time>
      </trkpt>
      <trkpt lat="43.576" lon="6.72829">
        <ele>354</ele>
        <time>2009-06-07T11:46:01Z</time>
      </trkpt>
      <trkpt lat="43.57597" lon="6.72841">
        <ele>354</ele>
        <time>2009-06-07T11:46:02Z</time>
      </trkpt>
      <trkpt lat="43.57593" lon="6.72856">
        <ele>354</ele>
        <time>2009-06-07T11:46:05Z</time>
      </trkpt>
      <trkpt lat="43.57591" lon="6.72869">
        <ele>356</ele>
        <time>2009-06-07T11:46:06Z</time>
      </trkpt>
      <trkpt lat="43.57588" lon="6.72883">
        <ele>356</ele>
        <time>2009-06-07T11:46:09Z</time>
      </trkpt>
      <trkpt lat="43.57573" lon="6.72932">
        <ele>356</ele>
        <time>2009-06-07T11:46:17Z</time>
      </trkpt>
      <trkpt lat="43.57572" lon="6.72941">
        <ele>355</ele>
        <time>2009-06-07T11:46:18Z</time>
      </trkpt>
      <trkpt lat="43.57569" lon="6.7296">
        <ele>354</ele>
        <time>2009-06-07T11:46:20Z</time>
      </trkpt>
      <trkpt lat="43.57565" lon="6.72976">
        <ele>355</ele>
        <time>2009-06-07T11:46:24Z</time>
      </trkpt>
      <trkpt lat="43.57561" lon="6.72989">
        <ele>356</ele>
        <time>2009-06-07T11:46:29Z</time>
      </trkpt>
      <trkpt lat="43.57559" lon="6.73001">
        <ele>356</ele>
        <time>2009-06-07T11:46:31Z</time>
      </trkpt>
      <trkpt lat="43.57556" lon="6.73013">
        <ele>356</ele>
        <time>2009-06-07T11:46:35Z</time>
      </trkpt>
      <trkpt lat="43.57544" lon="6.73031">
        <ele>353</ele>
        <time>2009-06-07T11:46:36Z</time>
      </trkpt>
      <trkpt lat="43.57507" lon="6.73076">
        <ele>351</ele>
        <time>2009-06-07T11:46:45Z</time>
      </trkpt>
      <trkpt lat="43.575" lon="6.73086">
        <ele>351</ele>
        <time>2009-06-07T11:46:46Z</time>
      </trkpt>
      <trkpt lat="43.57481" lon="6.73108">
        <ele>352</ele>
        <time>2009-06-07T11:46:49Z</time>
      </trkpt>
      <trkpt lat="43.57477" lon="6.73116">
        <ele>354</ele>
        <time>2009-06-07T11:46:50Z</time>
      </trkpt>
      <trkpt lat="43.57458" lon="6.73137">
        <ele>353</ele>
        <time>2009-06-07T11:46:57Z</time>
      </trkpt>
      <trkpt lat="43.57465" lon="6.73133">
        <ele>353</ele>
        <time>2009-06-07T11:46:58Z</time>
      </trkpt>
      <trkpt lat="43.5746" lon="6.73136">
        <ele>352</ele>
        <time>2009-06-07T11:47:05Z</time>
      </trkpt>
      <trkpt lat="43.57465" lon="6.73136">
        <ele>350</ele>
        <time>2009-06-07T11:47:28Z</time>
      </trkpt>
      <trkpt lat="43.57467" lon="6.73138">
        <ele>349</ele>
        <time>2009-06-07T11:47:37Z</time>
      </trkpt>
      <trkpt lat="43.57466" lon="6.73144">
        <ele>348</ele>
        <time>2009-06-07T11:48:21Z</time>
      </trkpt>
      <trkpt lat="43.57463" lon="6.73148">
        <ele>347</ele>
        <time>2009-06-07T11:48:25Z</time>
      </trkpt>
      <trkpt lat="43.57463" lon="6.73149">
        <ele>347</ele>
        <time>2009-06-07T11:48:26Z</time>
      </trkpt>
      <trkpt lat="43.57464" lon="6.73151">
        <ele>346</ele>
        <time>2009-06-07T11:49:10Z</time>
      </trkpt>
      <trkpt lat="43.57428" lon="6.73147">
        <ele>345</ele>
        <time>2009-06-07T11:49:11Z</time>
      </trkpt>
      <trkpt lat="43.57408" lon="6.73141">
        <ele>346</ele>
        <time>2009-06-07T11:49:15Z</time>
      </trkpt>
      <trkpt lat="43.57397" lon="6.73136">
        <ele>346</ele>
        <time>2009-06-07T11:49:18Z</time>
      </trkpt>
      <trkpt lat="43.5739" lon="6.73136">
        <ele>346</ele>
        <time>2009-06-07T11:49:19Z</time>
      </trkpt>
      <trkpt lat="43.57378" lon="6.73133">
        <ele>346</ele>
        <time>2009-06-07T11:49:22Z</time>
      </trkpt>
      <trkpt lat="43.57338" lon="6.73139">
        <ele>342</ele>
        <time>2009-06-07T11:49:26Z</time>
      </trkpt>
      <trkpt lat="43.57328" lon="6.73141">
        <ele>342</ele>
        <time>2009-06-07T11:49:27Z</time>
      </trkpt>
      <trkpt lat="43.57309" lon="6.7315">
        <ele>342</ele>
        <time>2009-06-07T11:49:30Z</time>
      </trkpt>
      <trkpt lat="43.57302" lon="6.73154">
        <ele>341</ele>
        <time>2009-06-07T11:49:31Z</time>
      </trkpt>
      <trkpt lat="43.57284" lon="6.73163">
        <ele>341</ele>
        <time>2009-06-07T11:49:34Z</time>
      </trkpt>
      <trkpt lat="43.57249" lon="6.73209">
        <ele>344</ele>
        <time>2009-06-07T11:49:43Z</time>
      </trkpt>
      <trkpt lat="43.57242" lon="6.7322">
        <ele>343</ele>
        <time>2009-06-07T11:49:44Z</time>
      </trkpt>
      <trkpt lat="43.57234" lon="6.73243">
        <ele>344</ele>
        <time>2009-06-07T11:49:47Z</time>
      </trkpt>
      <trkpt lat="43.57229" lon="6.73254">
        <ele>343</ele>
        <time>2009-06-07T11:49:48Z</time>
      </trkpt>
      <trkpt lat="43.57221" lon="6.73282">
        <ele>343</ele>
        <time>2009-06-07T11:49:51Z</time>
      </trkpt>
      <trkpt lat="43.5721" lon="6.73289">
        <ele>342</ele>
        <time>2009-06-07T11:49:52Z</time>
      </trkpt>
      <trkpt lat="43.57197" lon="6.73313">
        <ele>342</ele>
        <time>2009-06-07T11:49:55Z</time>
      </trkpt>
      <trkpt lat="43.57183" lon="6.73336">
        <ele>342</ele>
        <time>2009-06-07T11:49:58Z</time>
      </trkpt>
      <trkpt lat="43.57165" lon="6.73354">
        <ele>341</ele>
        <time>2009-06-07T11:50:02Z</time>
      </trkpt>
      <trkpt lat="43.57127" lon="6.73379">
        <ele>341</ele>
        <time>2009-06-07T11:50:11Z</time>
      </trkpt>
      <trkpt lat="43.57106" lon="6.73393">
        <ele>342</ele>
        <time>2009-06-07T11:50:15Z</time>
      </trkpt>
      <trkpt lat="43.57091" lon="6.73403">
        <ele>341</ele>
        <time>2009-06-07T11:50:18Z</time>
      </trkpt>
      <trkpt lat="43.57084" lon="6.73415">
        <ele>341</ele>
        <time>2009-06-07T11:50:19Z</time>
      </trkpt>
      <trkpt lat="43.57067" lon="6.73431">
        <ele>341</ele>
        <time>2009-06-07T11:50:22Z</time>
      </trkpt>
      <trkpt lat="43.57059" lon="6.73444">
        <ele>339</ele>
        <time>2009-06-07T11:50:23Z</time>
      </trkpt>
      <trkpt lat="43.57042" lon="6.73467">
        <ele>339</ele>
        <time>2009-06-07T11:50:26Z</time>
      </trkpt>
      <trkpt lat="43.57025" lon="6.7349">
        <ele>339</ele>
        <time>2009-06-07T11:50:29Z</time>
      </trkpt>
      <trkpt lat="43.57028" lon="6.73509">
        <ele>339</ele>
        <time>2009-06-07T11:50:30Z</time>
      </trkpt>
      <trkpt lat="43.57044" lon="6.73575">
        <ele>338</ele>
        <time>2009-06-07T11:50:39Z</time>
      </trkpt>
      <trkpt lat="43.57047" lon="6.73582">
        <ele>337</ele>
        <time>2009-06-07T11:50:40Z</time>
      </trkpt>
      <trkpt lat="43.57055" lon="6.73611">
        <ele>337</ele>
        <time>2009-06-07T11:50:43Z</time>
      </trkpt>
      <trkpt lat="43.57061" lon="6.73672">
        <ele>335</ele>
        <time>2009-06-07T11:50:50Z</time>
      </trkpt>
      <trkpt lat="43.57062" lon="6.7368">
        <ele>332</ele>
        <time>2009-06-07T11:50:51Z</time>
      </trkpt>
      <trkpt lat="43.57062" lon="6.73693">
        <ele>333</ele>
        <time>2009-06-07T11:50:54Z</time>
      </trkpt>
      <trkpt lat="43.57061" lon="6.737">
        <ele>332</ele>
        <time>2009-06-07T11:50:55Z</time>
      </trkpt>
      <trkpt lat="43.5706" lon="6.7372">
        <ele>332</ele>
        <time>2009-06-07T11:50:58Z</time>
      </trkpt>
      <trkpt lat="43.57059" lon="6.73729">
        <ele>331</ele>
        <time>2009-06-07T11:50:59Z</time>
      </trkpt>
      <trkpt lat="43.57056" lon="6.73751">
        <ele>331</ele>
        <time>2009-06-07T11:51:02Z</time>
      </trkpt>
      <trkpt lat="43.57065" lon="6.73766">
        <ele>331</ele>
        <time>2009-06-07T11:51:03Z</time>
      </trkpt>
      <trkpt lat="43.57072" lon="6.73797">
        <ele>331</ele>
        <time>2009-06-07T11:51:06Z</time>
      </trkpt>
      <trkpt lat="43.57076" lon="6.73815">
        <ele>331</ele>
        <time>2009-06-07T11:51:07Z</time>
      </trkpt>
      <trkpt lat="43.57066" lon="6.73907">
        <ele>328</ele>
        <time>2009-06-07T11:51:16Z</time>
      </trkpt>
      <trkpt lat="43.57059" lon="6.73933">
        <ele>329</ele>
        <time>2009-06-07T11:51:19Z</time>
      </trkpt>
      <trkpt lat="43.57055" lon="6.7394">
        <ele>328</ele>
        <time>2009-06-07T11:51:23Z</time>
      </trkpt>
      <trkpt lat="43.57055" lon="6.7395">
        <ele>329</ele>
        <time>2009-06-07T11:51:24Z</time>
      </trkpt>
      <trkpt lat="43.57048" lon="6.73962">
        <ele>329</ele>
        <time>2009-06-07T11:51:27Z</time>
      </trkpt>
      <trkpt lat="43.5706" lon="6.73983">
        <ele>328</ele>
        <time>2009-06-07T11:51:28Z</time>
      </trkpt>
      <trkpt lat="43.57056" lon="6.74001">
        <ele>328</ele>
        <time>2009-06-07T11:51:31Z</time>
      </trkpt>
      <trkpt lat="43.57071" lon="6.74021">
        <ele>330</ele>
        <time>2009-06-07T11:51:32Z</time>
      </trkpt>
      <trkpt lat="43.57096" lon="6.74101">
        <ele>330</ele>
        <time>2009-06-07T11:51:41Z</time>
      </trkpt>
      <trkpt lat="43.57103" lon="6.74115">
        <ele>328</ele>
        <time>2009-06-07T11:51:42Z</time>
      </trkpt>
      <trkpt lat="43.57108" lon="6.74139">
        <ele>328</ele>
        <time>2009-06-07T11:51:45Z</time>
      </trkpt>
      <trkpt lat="43.5711" lon="6.74159">
        <ele>325</ele>
        <time>2009-06-07T11:51:46Z</time>
      </trkpt>
      <trkpt lat="43.57109" lon="6.74186">
        <ele>325</ele>
        <time>2009-06-07T11:51:49Z</time>
      </trkpt>
      <trkpt lat="43.57099" lon="6.74199">
        <ele>325</ele>
        <time>2009-06-07T11:51:50Z</time>
      </trkpt>
      <trkpt lat="43.57089" lon="6.74227">
        <ele>325</ele>
        <time>2009-06-07T11:51:53Z</time>
      </trkpt>
      <trkpt lat="43.5709" lon="6.74241">
        <ele>325</ele>
        <time>2009-06-07T11:51:54Z</time>
      </trkpt>
      <trkpt lat="43.57082" lon="6.74272">
        <ele>325</ele>
        <time>2009-06-07T11:51:57Z</time>
      </trkpt>
      <trkpt lat="43.57088" lon="6.74286">
        <ele>324</ele>
        <time>2009-06-07T11:51:58Z</time>
      </trkpt>
      <trkpt lat="43.57085" lon="6.74351">
        <ele>325</ele>
        <time>2009-06-07T11:52:07Z</time>
      </trkpt>
      <trkpt lat="43.57087" lon="6.74358">
        <ele>326</ele>
        <time>2009-06-07T11:52:08Z</time>
      </trkpt>
      <trkpt lat="43.57083" lon="6.74368">
        <ele>327</ele>
        <time>2009-06-07T11:52:11Z</time>
      </trkpt>
      <trkpt lat="43.57091" lon="6.74393">
        <ele>323</ele>
        <time>2009-06-07T11:52:15Z</time>
      </trkpt>
      <trkpt lat="43.57094" lon="6.74402">
        <ele>323</ele>
        <time>2009-06-07T11:52:18Z</time>
      </trkpt>
      <trkpt lat="43.57106" lon="6.74407">
        <ele>317</ele>
        <time>2009-06-07T11:52:19Z</time>
      </trkpt>
      <trkpt lat="43.57113" lon="6.74406">
        <ele>318</ele>
        <time>2009-06-07T11:52:22Z</time>
      </trkpt>
      <trkpt lat="43.57119" lon="6.74404">
        <ele>318</ele>
        <time>2009-06-07T11:52:25Z</time>
      </trkpt>
      <trkpt lat="43.57125" lon="6.74407">
        <ele>318</ele>
        <time>2009-06-07T11:52:26Z</time>
      </trkpt>
      <trkpt lat="43.57133" lon="6.74407">
        <ele>318</ele>
        <time>2009-06-07T11:52:29Z</time>
      </trkpt>
      <trkpt lat="43.5714" lon="6.74408">
        <ele>318</ele>
        <time>2009-06-07T11:52:32Z</time>
      </trkpt>
      <trkpt lat="43.57136" lon="6.74416">
        <ele>318</ele>
        <time>2009-06-07T11:52:33Z</time>
      </trkpt>
      <trkpt lat="43.57137" lon="6.7444">
        <ele>318</ele>
        <time>2009-06-07T11:52:42Z</time>
      </trkpt>
      <trkpt lat="43.57133" lon="6.74448">
        <ele>319</ele>
        <time>2009-06-07T11:52:46Z</time>
      </trkpt>
      <trkpt lat="43.57128" lon="6.74461">
        <ele>319</ele>
        <time>2009-06-07T11:52:50Z</time>
      </trkpt>
      <trkpt lat="43.57126" lon="6.74468">
        <ele>319</ele>
        <time>2009-06-07T11:52:53Z</time>
      </trkpt>
      <trkpt lat="43.5712" lon="6.7448">
        <ele>320</ele>
        <time>2009-06-07T11:52:57Z</time>
      </trkpt>
      <trkpt lat="43.57112" lon="6.74492">
        <ele>320</ele>
        <time>2009-06-07T11:53:01Z</time>
      </trkpt>
      <trkpt lat="43.57102" lon="6.7452">
        <ele>321</ele>
        <time>2009-06-07T11:53:10Z</time>
      </trkpt>
      <trkpt lat="43.57096" lon="6.74529">
        <ele>322</ele>
        <time>2009-06-07T11:53:14Z</time>
      </trkpt>
      <trkpt lat="43.57092" lon="6.74536">
        <ele>322</ele>
        <time>2009-06-07T11:53:18Z</time>
      </trkpt>
      <trkpt lat="43.57086" lon="6.74544">
        <ele>322</ele>
        <time>2009-06-07T11:53:22Z</time>
      </trkpt>
      <trkpt lat="43.57082" lon="6.7455">
        <ele>322</ele>
        <time>2009-06-07T11:53:25Z</time>
      </trkpt>
      <trkpt lat="43.57077" lon="6.74556">
        <ele>322</ele>
        <time>2009-06-07T11:53:26Z</time>
      </trkpt>
      <trkpt lat="43.57073" lon="6.74562">
        <ele>322</ele>
        <time>2009-06-07T11:53:29Z</time>
      </trkpt>
      <trkpt lat="43.57065" lon="6.74577">
        <ele>323</ele>
        <time>2009-06-07T11:53:33Z</time>
      </trkpt>
      <trkpt lat="43.57047" lon="6.74605">
        <ele>324</ele>
        <time>2009-06-07T11:53:43Z</time>
      </trkpt>
      <trkpt lat="43.57046" lon="6.74614">
        <ele>325</ele>
        <time>2009-06-07T11:53:44Z</time>
      </trkpt>
      <trkpt lat="43.5704" lon="6.74624">
        <ele>325</ele>
        <time>2009-06-07T11:53:47Z</time>
      </trkpt>
      <trkpt lat="43.57039" lon="6.74631">
        <ele>326</ele>
        <time>2009-06-07T11:53:48Z</time>
      </trkpt>
      <trkpt lat="43.57035" lon="6.74643">
        <ele>326</ele>
        <time>2009-06-07T11:53:50Z</time>
      </trkpt>
      <trkpt lat="43.57033" lon="6.7465">
        <ele>326</ele>
        <time>2009-06-07T11:53:51Z</time>
      </trkpt>
      <trkpt lat="43.57029" lon="6.74663">
        <ele>326</ele>
        <time>2009-06-07T11:53:54Z</time>
      </trkpt>
      <trkpt lat="43.57024" lon="6.74676">
        <ele>326</ele>
        <time>2009-06-07T11:53:57Z</time>
      </trkpt>
      <trkpt lat="43.57026" lon="6.74684">
        <ele>327</ele>
        <time>2009-06-07T11:53:58Z</time>
      </trkpt>
      <trkpt lat="43.57023" lon="6.74698">
        <ele>327</ele>
        <time>2009-06-07T11:54:02Z</time>
      </trkpt>
      <trkpt lat="43.57019" lon="6.74742">
        <ele>328</ele>
        <time>2009-06-07T11:54:11Z</time>
      </trkpt>
      <trkpt lat="43.57023" lon="6.74762">
        <ele>331</ele>
        <time>2009-06-07T11:54:15Z</time>
      </trkpt>
      <trkpt lat="43.57023" lon="6.74775">
        <ele>331</ele>
        <time>2009-06-07T11:54:18Z</time>
      </trkpt>
      <trkpt lat="43.57025" lon="6.74785">
        <ele>330</ele>
        <time>2009-06-07T11:54:19Z</time>
      </trkpt>
      <trkpt lat="43.57025" lon="6.74801">
        <ele>330</ele>
        <time>2009-06-07T11:54:22Z</time>
      </trkpt>
      <trkpt lat="43.57025" lon="6.74808">
        <ele>330</ele>
        <time>2009-06-07T11:54:23Z</time>
      </trkpt>
      <trkpt lat="43.57025" lon="6.74824">
        <ele>330</ele>
        <time>2009-06-07T11:54:26Z</time>
      </trkpt>
      <trkpt lat="43.57025" lon="6.7484">
        <ele>330</ele>
        <time>2009-06-07T11:54:29Z</time>
      </trkpt>
      <trkpt lat="43.57033" lon="6.74851">
        <ele>328</ele>
        <time>2009-06-07T11:54:33Z</time>
      </trkpt>
      <trkpt lat="43.57035" lon="6.7486">
        <ele>326</ele>
        <time>2009-06-07T11:54:43Z</time>
      </trkpt>
      <trkpt lat="43.57037" lon="6.74857">
        <ele>327</ele>
        <time>2009-06-07T11:54:48Z</time>
      </trkpt>
      <trkpt lat="43.57036" lon="6.74856">
        <ele>326</ele>
        <time>2009-06-07T11:54:55Z</time>
      </trkpt>
      <trkpt lat="43.57031" lon="6.74861">
        <ele>326</ele>
        <time>2009-06-07T11:54:56Z</time>
      </trkpt>
      <trkpt lat="43.57027" lon="6.74872">
        <ele>326</ele>
        <time>2009-06-07T11:55:00Z</time>
      </trkpt>
      <trkpt lat="43.57011" lon="6.74909">
        <ele>326</ele>
        <time>2009-06-07T11:55:09Z</time>
      </trkpt>
      <trkpt lat="43.5701" lon="6.74916">
        <ele>327</ele>
        <time>2009-06-07T11:55:10Z</time>
      </trkpt>
      <trkpt lat="43.56991" lon="6.74953">
        <ele>327</ele>
        <time>2009-06-07T11:55:17Z</time>
      </trkpt>
      <trkpt lat="43.56972" lon="6.74984">
        <ele>323</ele>
        <time>2009-06-07T11:55:21Z</time>
      </trkpt>
      <trkpt lat="43.56964" lon="6.74989">
        <ele>322</ele>
        <time>2009-06-07T11:55:22Z</time>
      </trkpt>
      <trkpt lat="43.56947" lon="6.74997">
        <ele>322</ele>
        <time>2009-06-07T11:55:25Z</time>
      </trkpt>
      <trkpt lat="43.5694" lon="6.74996">
        <ele>323</ele>
        <time>2009-06-07T11:55:26Z</time>
      </trkpt>
      <trkpt lat="43.56923" lon="6.74997">
        <ele>323</ele>
        <time>2009-06-07T11:55:29Z</time>
      </trkpt>
      <trkpt lat="43.569" lon="6.74995">
        <ele>322</ele>
        <time>2009-06-07T11:55:33Z</time>
      </trkpt>
      <trkpt lat="43.56894" lon="6.74992">
        <ele>321</ele>
        <time>2009-06-07T11:55:34Z</time>
      </trkpt>
      <trkpt lat="43.56842" lon="6.74969">
        <ele>318</ele>
        <time>2009-06-07T11:55:43Z</time>
      </trkpt>
      <trkpt lat="43.56829" lon="6.74978">
        <ele>318</ele>
        <time>2009-06-07T11:55:47Z</time>
      </trkpt>
      <trkpt lat="43.56836" lon="6.74985">
        <ele>317</ele>
        <time>2009-06-07T11:55:48Z</time>
      </trkpt>
      <trkpt lat="43.56833" lon="6.74998">
        <ele>317</ele>
        <time>2009-06-07T11:55:51Z</time>
      </trkpt>
      <trkpt lat="43.56847" lon="6.75033">
        <ele>316</ele>
        <time>2009-06-07T11:55:55Z</time>
      </trkpt>
      <trkpt lat="43.56853" lon="6.75043">
        <ele>315</ele>
        <time>2009-06-07T11:55:56Z</time>
      </trkpt>
      <trkpt lat="43.56859" lon="6.75071">
        <ele>315</ele>
        <time>2009-06-07T11:55:59Z</time>
      </trkpt>
      <trkpt lat="43.56869" lon="6.75076">
        <ele>314</ele>
        <time>2009-06-07T11:56:00Z</time>
      </trkpt>
      <trkpt lat="43.5688" lon="6.75096">
        <ele>314</ele>
        <time>2009-06-07T11:56:03Z</time>
      </trkpt>
      <trkpt lat="43.56857" lon="6.75178">
        <ele>308</ele>
        <time>2009-06-07T11:56:16Z</time>
      </trkpt>
      <trkpt lat="43.56855" lon="6.7519">
        <ele>305</ele>
        <time>2009-06-07T11:56:17Z</time>
      </trkpt>
      <trkpt lat="43.56837" lon="6.75209">
        <ele>305</ele>
        <time>2009-06-07T11:56:19Z</time>
      </trkpt>
      <trkpt lat="43.56831" lon="6.75207">
        <ele>304</ele>
        <time>2009-06-07T11:56:20Z</time>
      </trkpt>
      <trkpt lat="43.56811" lon="6.75213">
        <ele>304</ele>
        <time>2009-06-07T11:56:24Z</time>
      </trkpt>
      <trkpt lat="43.56804" lon="6.75209">
        <ele>302</ele>
        <time>2009-06-07T11:56:25Z</time>
      </trkpt>
      <trkpt lat="43.56783" lon="6.75208">
        <ele>302</ele>
        <time>2009-06-07T11:56:28Z</time>
      </trkpt>
      <trkpt lat="43.56766" lon="6.75211">
        <ele>302</ele>
        <time>2009-06-07T11:56:32Z</time>
      </trkpt>
      <trkpt lat="43.56761" lon="6.7521">
        <ele>302</ele>
        <time>2009-06-07T11:56:33Z</time>
      </trkpt>
      <trkpt lat="43.56735" lon="6.75215">
        <ele>304</ele>
        <time>2009-06-07T11:56:42Z</time>
      </trkpt>
      <trkpt lat="43.56726" lon="6.75214">
        <ele>305</ele>
        <time>2009-06-07T11:56:46Z</time>
      </trkpt>
      <trkpt lat="43.5672" lon="6.75215">
        <ele>306</ele>
        <time>2009-06-07T11:56:47Z</time>
      </trkpt>
      <trkpt lat="43.56714" lon="6.75216">
        <ele>306</ele>
        <time>2009-06-07T11:56:50Z</time>
      </trkpt>
      <trkpt lat="43.56706" lon="6.75219">
        <ele>307</ele>
        <time>2009-06-07T11:56:54Z</time>
      </trkpt>
      <trkpt lat="43.56702" lon="6.75221">
        <ele>308</ele>
        <time>2009-06-07T11:56:58Z</time>
      </trkpt>
      <trkpt lat="43.56694" lon="6.75222">
        <ele>307</ele>
        <time>2009-06-07T11:56:59Z</time>
      </trkpt>
      <trkpt lat="43.56671" lon="6.75221">
        <ele>308</ele>
        <time>2009-06-07T11:57:08Z</time>
      </trkpt>
      <trkpt lat="43.56664" lon="6.7522">
        <ele>309</ele>
        <time>2009-06-07T11:57:09Z</time>
      </trkpt>
      <trkpt lat="43.56636" lon="6.75223">
        <ele>308</ele>
        <time>2009-06-07T11:57:16Z</time>
      </trkpt>
      <trkpt lat="43.56623" lon="6.75241">
        <ele>307</ele>
        <time>2009-06-07T11:57:17Z</time>
      </trkpt>
      <trkpt lat="43.56612" lon="6.75253">
        <ele>307</ele>
        <time>2009-06-07T11:57:20Z</time>
      </trkpt>
      <trkpt lat="43.56609" lon="6.75265">
        <ele>306</ele>
        <time>2009-06-07T11:57:21Z</time>
      </trkpt>
      <trkpt lat="43.56599" lon="6.75284">
        <ele>306</ele>
        <time>2009-06-07T11:57:24Z</time>
      </trkpt>
      <trkpt lat="43.56602" lon="6.75289">
        <ele>304</ele>
        <time>2009-06-07T11:57:25Z</time>
      </trkpt>
      <trkpt lat="43.56593" lon="6.753">
        <ele>304</ele>
        <time>2009-06-07T11:57:28Z</time>
      </trkpt>
      <trkpt lat="43.5659" lon="6.75312">
        <ele>305</ele>
        <time>2009-06-07T11:57:29Z</time>
      </trkpt>
      <trkpt lat="43.56576" lon="6.75342">
        <ele>308</ele>
        <time>2009-06-07T11:57:38Z</time>
      </trkpt>
      <trkpt lat="43.56576" lon="6.7535">
        <ele>308</ele>
        <time>2009-06-07T11:57:39Z</time>
      </trkpt>
      <trkpt lat="43.56573" lon="6.75357">
        <ele>308</ele>
        <time>2009-06-07T11:57:42Z</time>
      </trkpt>
      <trkpt lat="43.56579" lon="6.75366">
        <ele>310</ele>
        <time>2009-06-07T11:57:43Z</time>
      </trkpt>
      <trkpt lat="43.56577" lon="6.75374">
        <ele>310</ele>
        <time>2009-06-07T11:57:46Z</time>
      </trkpt>
      <trkpt lat="43.56582" lon="6.75386">
        <ele>310</ele>
        <time>2009-06-07T11:57:47Z</time>
      </trkpt>
      <trkpt lat="43.5658" lon="6.75397">
        <ele>310</ele>
        <time>2009-06-07T11:57:49Z</time>
      </trkpt>
      <trkpt lat="43.56581" lon="6.75404">
        <ele>309</ele>
        <time>2009-06-07T11:57:50Z</time>
      </trkpt>
      <trkpt lat="43.56579" lon="6.75415">
        <ele>309</ele>
        <time>2009-06-07T11:57:54Z</time>
      </trkpt>
      <trkpt lat="43.56576" lon="6.75455">
        <ele>311</ele>
        <time>2009-06-07T11:58:04Z</time>
      </trkpt>
      <trkpt lat="43.56579" lon="6.75464">
        <ele>312</ele>
        <time>2009-06-07T11:58:06Z</time>
      </trkpt>
      <trkpt lat="43.56577" lon="6.75473">
        <ele>313</ele>
        <time>2009-06-07T11:58:09Z</time>
      </trkpt>
      <trkpt lat="43.5658" lon="6.75494">
        <ele>314</ele>
        <time>2009-06-07T11:58:14Z</time>
      </trkpt>
      <trkpt lat="43.56579" lon="6.75503">
        <ele>314</ele>
        <time>2009-06-07T11:58:17Z</time>
      </trkpt>
      <trkpt lat="43.56578" lon="6.7551">
        <ele>314</ele>
        <time>2009-06-07T11:58:18Z</time>
      </trkpt>
      <trkpt lat="43.56577" lon="6.7552">
        <ele>314</ele>
        <time>2009-06-07T11:58:21Z</time>
      </trkpt>
      <trkpt lat="43.56575" lon="6.75528">
        <ele>315</ele>
        <time>2009-06-07T11:58:25Z</time>
      </trkpt>
      <trkpt lat="43.56571" lon="6.75534">
        <ele>314</ele>
        <time>2009-06-07T11:58:26Z</time>
      </trkpt>
      <trkpt lat="43.56568" lon="6.75542">
        <ele>314</ele>
        <time>2009-06-07T11:58:29Z</time>
      </trkpt>
      <trkpt lat="43.56557" lon="6.7557">
        <ele>315</ele>
        <time>2009-06-07T11:58:39Z</time>
      </trkpt>
      <trkpt lat="43.56558" lon="6.75582">
        <ele>316</ele>
        <time>2009-06-07T11:58:41Z</time>
      </trkpt>
      <trkpt lat="43.56555" lon="6.75588">
        <ele>316</ele>
        <time>2009-06-07T11:58:44Z</time>
      </trkpt>
      <trkpt lat="43.56551" lon="6.75597">
        <ele>317</ele>
        <time>2009-06-07T11:58:48Z</time>
      </trkpt>
      <trkpt lat="43.56558" lon="6.75607">
        <ele>317</ele>
        <time>2009-06-07T11:58:49Z</time>
      </trkpt>
      <trkpt lat="43.56557" lon="6.75614">
        <ele>317</ele>
        <time>2009-06-07T11:58:52Z</time>
      </trkpt>
      <trkpt lat="43.56559" lon="6.75623">
        <ele>316</ele>
        <time>2009-06-07T11:58:53Z</time>
      </trkpt>
      <trkpt lat="43.56558" lon="6.7563">
        <ele>316</ele>
        <time>2009-06-07T11:58:56Z</time>
      </trkpt>
      <trkpt lat="43.56554" lon="6.75665">
        <ele>313</ele>
        <time>2009-06-07T11:59:06Z</time>
      </trkpt>
      <trkpt lat="43.56551" lon="6.75669">
        <ele>313</ele>
        <time>2009-06-07T11:59:07Z</time>
      </trkpt>
      <trkpt lat="43.56547" lon="6.75676">
        <ele>312</ele>
        <time>2009-06-07T11:59:08Z</time>
      </trkpt>
      <trkpt lat="43.5654" lon="6.75683">
        <ele>312</ele>
        <time>2009-06-07T11:59:10Z</time>
      </trkpt>
      <trkpt lat="43.56516" lon="6.75694">
        <ele>314</ele>
        <time>2009-06-07T11:59:14Z</time>
      </trkpt>
      <trkpt lat="43.56504" lon="6.75697">
        <ele>314</ele>
        <time>2009-06-07T11:59:17Z</time>
      </trkpt>
      <trkpt lat="43.56491" lon="6.75699">
        <ele>313</ele>
        <time>2009-06-07T11:59:18Z</time>
      </trkpt>
      <trkpt lat="43.56476" lon="6.757">
        <ele>313</ele>
        <time>2009-06-07T11:59:22Z</time>
      </trkpt>
      <trkpt lat="43.56462" lon="6.75705">
        <ele>310</ele>
        <time>2009-06-07T11:59:23Z</time>
      </trkpt>
      <trkpt lat="43.56447" lon="6.7571">
        <ele>310</ele>
        <time>2009-06-07T11:59:26Z</time>
      </trkpt>
      <trkpt lat="43.56437" lon="6.75717">
        <ele>309</ele>
        <time>2009-06-07T11:59:27Z</time>
      </trkpt>
      <trkpt lat="43.56423" lon="6.75726">
        <ele>308</ele>
        <time>2009-06-07T11:59:29Z</time>
      </trkpt>
      <trkpt lat="43.56415" lon="6.75733">
        <ele>308</ele>
        <time>2009-06-07T11:59:30Z</time>
      </trkpt>
      <trkpt lat="43.56381" lon="6.75773">
        <ele>310</ele>
        <time>2009-06-07T11:59:39Z</time>
      </trkpt>
      <trkpt lat="43.56378" lon="6.75781">
        <ele>311</ele>
        <time>2009-06-07T11:59:40Z</time>
      </trkpt>
      <trkpt lat="43.56371" lon="6.75792">
        <ele>311</ele>
        <time>2009-06-07T11:59:44Z</time>
      </trkpt>
      <trkpt lat="43.56368" lon="6.75798">
        <ele>313</ele>
        <time>2009-06-07T11:59:45Z</time>
      </trkpt>
      <trkpt lat="43.56361" lon="6.75809">
        <ele>313</ele>
        <time>2009-06-07T11:59:48Z</time>
      </trkpt>
      <trkpt lat="43.56358" lon="6.7582">
        <ele>314</ele>
        <time>2009-06-07T11:59:49Z</time>
      </trkpt>
      <trkpt lat="43.56351" lon="6.75834">
        <ele>314</ele>
        <time>2009-06-07T11:59:52Z</time>
      </trkpt>
      <trkpt lat="43.56345" lon="6.75848">
        <ele>314</ele>
        <time>2009-06-07T11:59:54Z</time>
      </trkpt>
      <trkpt lat="43.56345" lon="6.75856">
        <ele>315</ele>
        <time>2009-06-07T11:59:55Z</time>
      </trkpt>
      <trkpt lat="43.56338" lon="6.75871">
        <ele>315</ele>
        <time>2009-06-07T11:59:59Z</time>
      </trkpt>
      <trkpt lat="43.56323" lon="6.75901">
        <ele>317</ele>
        <time>2009-06-07T12:00:09Z</time>
      </trkpt>
      <trkpt lat="43.56315" lon="6.75912">
        <ele>318</ele>
        <time>2009-06-07T12:00:14Z</time>
      </trkpt>
      <trkpt lat="43.56309" lon="6.75918">
        <ele>318</ele>
        <time>2009-06-07T12:00:17Z</time>
      </trkpt>
      <trkpt lat="43.56303" lon="6.75926">
        <ele>317</ele>
        <time>2009-06-07T12:00:21Z</time>
      </trkpt>
      <trkpt lat="43.563" lon="6.75935">
        <ele>317</ele>
        <time>2009-06-07T12:00:22Z</time>
      </trkpt>
      <trkpt lat="43.56294" lon="6.75938">
        <ele>317</ele>
        <time>2009-06-07T12:00:25Z</time>
      </trkpt>
      <trkpt lat="43.56286" lon="6.75941">
        <ele>318</ele>
        <time>2009-06-07T12:00:29Z</time>
      </trkpt>
      <trkpt lat="43.56278" lon="6.75937">
        <ele>320</ele>
        <time>2009-06-07T12:00:33Z</time>
      </trkpt>
      <trkpt lat="43.56264" lon="6.7592">
        <ele>324</ele>
        <time>2009-06-07T12:00:43Z</time>
      </trkpt>
      <trkpt lat="43.56259" lon="6.7592">
        <ele>325</ele>
        <time>2009-06-07T12:00:44Z</time>
      </trkpt>
      <trkpt lat="43.56255" lon="6.75917">
        <ele>325</ele>
        <time>2009-06-07T12:00:47Z</time>
      </trkpt>
      <trkpt lat="43.56249" lon="6.75919">
        <ele>324</ele>
        <time>2009-06-07T12:00:48Z</time>
      </trkpt>
      <trkpt lat="43.56244" lon="6.75917">
        <ele>324</ele>
        <time>2009-06-07T12:00:51Z</time>
      </trkpt>
      <trkpt lat="43.56238" lon="6.75916">
        <ele>324</ele>
        <time>2009-06-07T12:00:54Z</time>
      </trkpt>
      <trkpt lat="43.56224" lon="6.75926">
        <ele>324</ele>
        <time>2009-06-07T12:00:55Z</time>
      </trkpt>
      <trkpt lat="43.56213" lon="6.75931">
        <ele>324</ele>
        <time>2009-06-07T12:00:58Z</time>
      </trkpt>
      <trkpt lat="43.56202" lon="6.75935">
        <ele>324</ele>
        <time>2009-06-07T12:01:01Z</time>
      </trkpt>
      <trkpt lat="43.56182" lon="6.75937">
        <ele>324</ele>
        <time>2009-06-07T12:01:02Z</time>
      </trkpt>
      <trkpt lat="43.56128" lon="6.75897">
        <ele>326</ele>
        <time>2009-06-07T12:01:11Z</time>
      </trkpt>
      <trkpt lat="43.56104" lon="6.75869">
        <ele>329</ele>
        <time>2009-06-07T12:01:15Z</time>
      </trkpt>
      <trkpt lat="43.56093" lon="6.75851">
        <ele>329</ele>
        <time>2009-06-07T12:01:17Z</time>
      </trkpt>
      <trkpt lat="43.56088" lon="6.7585">
        <ele>329</ele>
        <time>2009-06-07T12:01:18Z</time>
      </trkpt>
      <trkpt lat="43.56076" lon="6.75834">
        <ele>329</ele>
        <time>2009-06-07T12:01:21Z</time>
      </trkpt>
      <trkpt lat="43.56072" lon="6.75831">
        <ele>330</ele>
        <time>2009-06-07T12:01:22Z</time>
      </trkpt>
      <trkpt lat="43.56061" lon="6.75819">
        <ele>330</ele>
        <time>2009-06-07T12:01:25Z</time>
      </trkpt>
      <trkpt lat="43.56054" lon="6.75817">
        <ele>330</ele>
        <time>2009-06-07T12:01:26Z</time>
      </trkpt>
      <trkpt lat="43.56043" lon="6.75807">
        <ele>330</ele>
        <time>2009-06-07T12:01:30Z</time>
      </trkpt>
      <trkpt lat="43.56031" lon="6.75806">
        <ele>329</ele>
        <time>2009-06-07T12:01:31Z</time>
      </trkpt>
      <trkpt lat="43.55987" lon="6.75839">
        <ele>324</ele>
        <time>2009-06-07T12:01:40Z</time>
      </trkpt>
      <trkpt lat="43.55985" lon="6.75851">
        <ele>322</ele>
        <time>2009-06-07T12:01:41Z</time>
      </trkpt>
      <trkpt lat="43.55977" lon="6.75878">
        <ele>323</ele>
        <time>2009-06-07T12:01:43Z</time>
      </trkpt>
      <trkpt lat="43.55976" lon="6.75891">
        <ele>322</ele>
        <time>2009-06-07T12:01:44Z</time>
      </trkpt>
      <trkpt lat="43.5597" lon="6.75919">
        <ele>322</ele>
        <time>2009-06-07T12:01:47Z</time>
      </trkpt>
      <trkpt lat="43.55965" lon="6.75945">
        <ele>322</ele>
        <time>2009-06-07T12:01:49Z</time>
      </trkpt>
      <trkpt lat="43.55958" lon="6.75956">
        <ele>320</ele>
        <time>2009-06-07T12:01:50Z</time>
      </trkpt>
      <trkpt lat="43.55951" lon="6.75979">
        <ele>320</ele>
        <time>2009-06-07T12:01:53Z</time>
      </trkpt>
      <trkpt lat="43.55942" lon="6.76006">
        <ele>320</ele>
        <time>2009-06-07T12:01:55Z</time>
      </trkpt>
      <trkpt lat="43.55937" lon="6.76019">
        <ele>320</ele>
        <time>2009-06-07T12:01:56Z</time>
      </trkpt>
      <trkpt lat="43.55894" lon="6.7602">
        <ele>316</ele>
        <time>2009-06-07T12:02:05Z</time>
      </trkpt>
      <trkpt lat="43.5589" lon="6.7601">
        <ele>313</ele>
        <time>2009-06-07T12:02:06Z</time>
      </trkpt>
      <trkpt lat="43.55877" lon="6.75993">
        <ele>313</ele>
        <time>2009-06-07T12:02:09Z</time>
      </trkpt>
      <trkpt lat="43.55876" lon="6.75999">
        <ele>314</ele>
        <time>2009-06-07T12:02:10Z</time>
      </trkpt>
      <trkpt lat="43.55848" lon="6.76019">
        <ele>314</ele>
        <time>2009-06-07T12:02:16Z</time>
      </trkpt>
      <trkpt lat="43.55846" lon="6.76026">
        <ele>314</ele>
        <time>2009-06-07T12:02:17Z</time>
      </trkpt>
      <trkpt lat="43.55836" lon="6.76039">
        <ele>314</ele>
        <time>2009-06-07T12:02:20Z</time>
      </trkpt>
      <trkpt lat="43.55826" lon="6.76053">
        <ele>314</ele>
        <time>2009-06-07T12:02:24Z</time>
      </trkpt>
      <trkpt lat="43.55822" lon="6.76053">
        <ele>313</ele>
        <time>2009-06-07T12:02:25Z</time>
      </trkpt>
      <trkpt lat="43.55812" lon="6.76058">
        <ele>313</ele>
        <time>2009-06-07T12:02:28Z</time>
      </trkpt>
      <trkpt lat="43.55807" lon="6.76058">
        <ele>311</ele>
        <time>2009-06-07T12:02:29Z</time>
      </trkpt>
      <trkpt lat="43.55781" lon="6.76038">
        <ele>312</ele>
        <time>2009-06-07T12:02:37Z</time>
      </trkpt>
      <trkpt lat="43.55773" lon="6.76035">
        <ele>313</ele>
        <time>2009-06-07T12:02:38Z</time>
      </trkpt>
      <trkpt lat="43.55766" lon="6.76026">
        <ele>313</ele>
        <time>2009-06-07T12:02:42Z</time>
      </trkpt>
      <trkpt lat="43.5576" lon="6.76026">
        <ele>314</ele>
        <time>2009-06-07T12:02:43Z</time>
      </trkpt>
      <trkpt lat="43.55753" lon="6.76018">
        <ele>314</ele>
        <time>2009-06-07T12:02:46Z</time>
      </trkpt>
      <trkpt lat="43.55747" lon="6.76006">
        <ele>315</ele>
        <time>2009-06-07T12:02:50Z</time>
      </trkpt>
      <trkpt lat="43.55736" lon="6.75998">
        <ele>315</ele>
        <time>2009-06-07T12:02:54Z</time>
      </trkpt>
      <trkpt lat="43.55708" lon="6.75983">
        <ele>316</ele>
        <time>2009-06-07T12:03:04Z</time>
      </trkpt>
      <trkpt lat="43.55704" lon="6.75984">
        <ele>317</ele>
        <time>2009-06-07T12:03:05Z</time>
      </trkpt>
      <trkpt lat="43.55696" lon="6.75983">
        <ele>317</ele>
        <time>2009-06-07T12:03:08Z</time>
      </trkpt>
      <trkpt lat="43.55682" lon="6.75988">
        <ele>317</ele>
        <time>2009-06-07T12:03:16Z</time>
      </trkpt>
      <trkpt lat="43.55669" lon="6.7599">
        <ele>316</ele>
        <time>2009-06-07T12:03:21Z</time>
      </trkpt>
      <trkpt lat="43.55663" lon="6.7599">
        <ele>317</ele>
        <time>2009-06-07T12:03:24Z</time>
      </trkpt>
      <trkpt lat="43.55654" lon="6.7599">
        <ele>317</ele>
        <time>2009-06-07T12:03:28Z</time>
      </trkpt>
      <trkpt lat="43.55648" lon="6.75991">
        <ele>318</ele>
        <time>2009-06-07T12:03:29Z</time>
      </trkpt>
      <trkpt lat="43.55624" lon="6.75993">
        <ele>319</ele>
        <time>2009-06-07T12:03:38Z</time>
      </trkpt>
      <trkpt lat="43.55613" lon="6.75998">
        <ele>320</ele>
        <time>2009-06-07T12:03:42Z</time>
      </trkpt>
      <trkpt lat="43.55606" lon="6.75997">
        <ele>320</ele>
        <time>2009-06-07T12:03:43Z</time>
      </trkpt>
      <trkpt lat="43.55597" lon="6.75998">
        <ele>320</ele>
        <time>2009-06-07T12:03:46Z</time>
      </trkpt>
      <trkpt lat="43.5559" lon="6.75999">
        <ele>319</ele>
        <time>2009-06-07T12:03:47Z</time>
      </trkpt>
      <trkpt lat="43.55581" lon="6.76">
        <ele>319</ele>
        <time>2009-06-07T12:03:50Z</time>
      </trkpt>
      <trkpt lat="43.55567" lon="6.76003">
        <ele>320</ele>
        <time>2009-06-07T12:03:54Z</time>
      </trkpt>
      <trkpt lat="43.55565" lon="6.76012">
        <ele>320</ele>
        <time>2009-06-07T12:03:55Z</time>
      </trkpt>
      <trkpt lat="43.55546" lon="6.76063">
        <ele>321</ele>
        <time>2009-06-07T12:04:04Z</time>
      </trkpt>
      <trkpt lat="43.55547" lon="6.76073">
        <ele>320</ele>
        <time>2009-06-07T12:04:05Z</time>
      </trkpt>
      <trkpt lat="43.55545" lon="6.7609">
        <ele>320</ele>
        <time>2009-06-07T12:04:08Z</time>
      </trkpt>
      <trkpt lat="43.55544" lon="6.76102">
        <ele>320</ele>
        <time>2009-06-07T12:04:09Z</time>
      </trkpt>
      <trkpt lat="43.55524" lon="6.76165">
        <ele>319</ele>
        <time>2009-06-07T12:04:17Z</time>
      </trkpt>
      <trkpt lat="43.55509" lon="6.76181">
        <ele>319</ele>
        <time>2009-06-07T12:04:20Z</time>
      </trkpt>
      <trkpt lat="43.55503" lon="6.7619">
        <ele>318</ele>
        <time>2009-06-07T12:04:21Z</time>
      </trkpt>
      <trkpt lat="43.55488" lon="6.76207">
        <ele>318</ele>
        <time>2009-06-07T12:04:24Z</time>
      </trkpt>
      <trkpt lat="43.55464" lon="6.76208">
        <ele>316</ele>
        <time>2009-06-07T12:04:28Z</time>
      </trkpt>
      <trkpt lat="43.55456" lon="6.76207">
        <ele>315</ele>
        <time>2009-06-07T12:04:29Z</time>
      </trkpt>
      <trkpt lat="43.55436" lon="6.76201">
        <ele>315</ele>
        <time>2009-06-07T12:04:32Z</time>
      </trkpt>
      <trkpt lat="43.55367" lon="6.76212">
        <ele>310</ele>
        <time>2009-06-07T12:04:41Z</time>
      </trkpt>
      <trkpt lat="43.55358" lon="6.76215">
        <ele>306</ele>
        <time>2009-06-07T12:04:42Z</time>
      </trkpt>
      <trkpt lat="43.55338" lon="6.76229">
        <ele>306</ele>
        <time>2009-06-07T12:04:45Z</time>
      </trkpt>
      <trkpt lat="43.55331" lon="6.76235">
        <ele>304</ele>
        <time>2009-06-07T12:04:46Z</time>
      </trkpt>
      <trkpt lat="43.55314" lon="6.7625">
        <ele>304</ele>
        <time>2009-06-07T12:04:49Z</time>
      </trkpt>
      <trkpt lat="43.5531" lon="6.76263">
        <ele>304</ele>
        <time>2009-06-07T12:04:50Z</time>
      </trkpt>
      <trkpt lat="43.55295" lon="6.76286">
        <ele>304</ele>
        <time>2009-06-07T12:04:53Z</time>
      </trkpt>
      <trkpt lat="43.55281" lon="6.76308">
        <ele>304</ele>
        <time>2009-06-07T12:04:55Z</time>
      </trkpt>
      <trkpt lat="43.55293" lon="6.76332">
        <ele>303</ele>
        <time>2009-06-07T12:04:56Z</time>
      </trkpt>
      <trkpt lat="43.55288" lon="6.76365">
        <ele>303</ele>
        <time>2009-06-07T12:05:00Z</time>
      </trkpt>
      <trkpt lat="43.55249" lon="6.76416">
        <ele>299</ele>
        <time>2009-06-07T12:05:09Z</time>
      </trkpt>
      <trkpt lat="43.55243" lon="6.7642">
        <ele>298</ele>
        <time>2009-06-07T12:05:10Z</time>
      </trkpt>
      <trkpt lat="43.55215" lon="6.76435">
        <ele>295</ele>
        <time>2009-06-07T12:05:14Z</time>
      </trkpt>
      <trkpt lat="43.55197" lon="6.76448">
        <ele>295</ele>
        <time>2009-06-07T12:05:17Z</time>
      </trkpt>
      <trkpt lat="43.5519" lon="6.76458">
        <ele>293</ele>
        <time>2009-06-07T12:05:18Z</time>
      </trkpt>
      <trkpt lat="43.55171" lon="6.76477">
        <ele>293</ele>
        <time>2009-06-07T12:05:21Z</time>
      </trkpt>
      <trkpt lat="43.55164" lon="6.76482">
        <ele>290</ele>
        <time>2009-06-07T12:05:22Z</time>
      </trkpt>
      <trkpt lat="43.55145" lon="6.76499">
        <ele>290</ele>
        <time>2009-06-07T12:05:25Z</time>
      </trkpt>
      <trkpt lat="43.55148" lon="6.76506">
        <ele>290</ele>
        <time>2009-06-07T12:05:26Z</time>
      </trkpt>
      <trkpt lat="43.55139" lon="6.7652">
        <ele>290</ele>
        <time>2009-06-07T12:05:29Z</time>
      </trkpt>
      <trkpt lat="43.55147" lon="6.7653">
        <ele>288</ele>
        <time>2009-06-07T12:05:30Z</time>
      </trkpt>
      <trkpt lat="43.55153" lon="6.76604">
        <ele>287</ele>
        <time>2009-06-07T12:05:39Z</time>
      </trkpt>
      <trkpt lat="43.55154" lon="6.76615">
        <ele>286</ele>
        <time>2009-06-07T12:05:40Z</time>
      </trkpt>
      <trkpt lat="43.55154" lon="6.76641">
        <ele>286</ele>
        <time>2009-06-07T12:05:43Z</time>
      </trkpt>
      <trkpt lat="43.55158" lon="6.76651">
        <ele>285</ele>
        <time>2009-06-07T12:05:44Z</time>
      </trkpt>
      <trkpt lat="43.55161" lon="6.76674">
        <ele>285</ele>
        <time>2009-06-07T12:05:47Z</time>
      </trkpt>
      <trkpt lat="43.55161" lon="6.76684">
        <ele>284</ele>
        <time>2009-06-07T12:05:48Z</time>
      </trkpt>
      <trkpt lat="43.55163" lon="6.76711">
        <ele>284</ele>
        <time>2009-06-07T12:05:51Z</time>
      </trkpt>
      <trkpt lat="43.55174" lon="6.76714">
        <ele>278</ele>
        <time>2009-06-07T12:05:52Z</time>
      </trkpt>
      <trkpt lat="43.55182" lon="6.76727">
        <ele>278</ele>
        <time>2009-06-07T12:05:55Z</time>
      </trkpt>
      <trkpt lat="43.55196" lon="6.76726">
        <ele>271</ele>
        <time>2009-06-07T12:05:56Z</time>
      </trkpt>
      <trkpt lat="43.55228" lon="6.76754">
        <ele>273</ele>
        <time>2009-06-07T12:06:05Z</time>
      </trkpt>
      <trkpt lat="43.55233" lon="6.76763">
        <ele>273</ele>
        <time>2009-06-07T12:06:06Z</time>
      </trkpt>
      <trkpt lat="43.55241" lon="6.76786">
        <ele>273</ele>
        <time>2009-06-07T12:06:09Z</time>
      </trkpt>
      <trkpt lat="43.55235" lon="6.76792">
        <ele>272</ele>
        <time>2009-06-07T12:06:10Z</time>
      </trkpt>
      <trkpt lat="43.55237" lon="6.76823">
        <ele>272</ele>
        <time>2009-06-07T12:06:14Z</time>
      </trkpt>
      <trkpt lat="43.55238" lon="6.76849">
        <ele>272</ele>
        <time>2009-06-07T12:06:17Z</time>
      </trkpt>
      <trkpt lat="43.55249" lon="6.76854">
        <ele>270</ele>
        <time>2009-06-07T12:06:18Z</time>
      </trkpt>
      <trkpt lat="43.55257" lon="6.76869">
        <ele>271</ele>
        <time>2009-06-07T12:06:21Z</time>
      </trkpt>
      <trkpt lat="43.55278" lon="6.76869">
        <ele>263</ele>
        <time>2009-06-07T12:06:22Z</time>
      </trkpt>
      <trkpt lat="43.55291" lon="6.76865">
        <ele>263</ele>
        <time>2009-06-07T12:06:25Z</time>
      </trkpt>
      <trkpt lat="43.553" lon="6.76859">
        <ele>262</ele>
        <time>2009-06-07T12:06:26Z</time>
      </trkpt>
      <trkpt lat="43.55315" lon="6.7685">
        <ele>262</ele>
        <time>2009-06-07T12:06:29Z</time>
      </trkpt>
      <trkpt lat="43.55325" lon="6.7685">
        <ele>261</ele>
        <time>2009-06-07T12:06:30Z</time>
      </trkpt>
      <trkpt lat="43.55369" lon="6.76807">
        <ele>258</ele>
        <time>2009-06-07T12:06:39Z</time>
      </trkpt>
      <trkpt lat="43.55374" lon="6.76799">
        <ele>256</ele>
        <time>2009-06-07T12:06:40Z</time>
      </trkpt>
      <trkpt lat="43.55391" lon="6.76788">
        <ele>255</ele>
        <time>2009-06-07T12:06:43Z</time>
      </trkpt>
      <trkpt lat="43.55392" lon="6.76795">
        <ele>251</ele>
        <time>2009-06-07T12:06:44Z</time>
      </trkpt>
      <trkpt lat="43.55405" lon="6.76806">
        <ele>251</ele>
        <time>2009-06-07T12:06:47Z</time>
      </trkpt>
      <trkpt lat="43.55403" lon="6.76819">
        <ele>250</ele>
        <time>2009-06-07T12:06:48Z</time>
      </trkpt>
      <trkpt lat="43.55409" lon="6.76843">
        <ele>250</ele>
        <time>2009-06-07T12:06:51Z</time>
      </trkpt>
      <trkpt lat="43.55409" lon="6.76854">
        <ele>249</ele>
        <time>2009-06-07T12:06:55Z</time>
      </trkpt>
      <trkpt lat="43.55397" lon="6.76926">
        <ele>247</ele>
        <time>2009-06-07T12:07:05Z</time>
      </trkpt>
      <trkpt lat="43.55387" lon="6.76927">
        <ele>246</ele>
        <time>2009-06-07T12:07:06Z</time>
      </trkpt>
      <trkpt lat="43.55382" lon="6.76931">
        <ele>244</ele>
        <time>2009-06-07T12:07:07Z</time>
      </trkpt>
      <trkpt lat="43.55371" lon="6.76944">
        <ele>244</ele>
        <time>2009-06-07T12:07:10Z</time>
      </trkpt>
      <trkpt lat="43.55363" lon="6.76948">
        <ele>243</ele>
        <time>2009-06-07T12:07:11Z</time>
      </trkpt>
      <trkpt lat="43.55343" lon="6.76971">
        <ele>241</ele>
        <time>2009-06-07T12:07:14Z</time>
      </trkpt>
      <trkpt lat="43.55333" lon="6.76991">
        <ele>241</ele>
        <time>2009-06-07T12:07:17Z</time>
      </trkpt>
      <trkpt lat="43.55333" lon="6.77004">
        <ele>239</ele>
        <time>2009-06-07T12:07:18Z</time>
      </trkpt>
      <trkpt lat="43.55327" lon="6.7703">
        <ele>239</ele>
        <time>2009-06-07T12:07:22Z</time>
      </trkpt>
      <trkpt lat="43.55321" lon="6.77042">
        <ele>236</ele>
        <time>2009-06-07T12:07:23Z</time>
      </trkpt>
      <trkpt lat="43.55314" lon="6.77071">
        <ele>236</ele>
        <time>2009-06-07T12:07:26Z</time>
      </trkpt>
      <trkpt lat="43.5532" lon="6.77075">
        <ele>233</ele>
        <time>2009-06-07T12:07:27Z</time>
      </trkpt>
      <trkpt lat="43.55322" lon="6.77095">
        <ele>233</ele>
        <time>2009-06-07T12:07:30Z</time>
      </trkpt>
      <trkpt lat="43.55324" lon="6.77115">
        <ele>233</ele>
        <time>2009-06-07T12:07:33Z</time>
      </trkpt>
      <trkpt lat="43.55346" lon="6.77123">
        <ele>231</ele>
        <time>2009-06-07T12:07:34Z</time>
      </trkpt>
      <trkpt lat="43.55379" lon="6.77189">
        <ele>229</ele>
        <time>2009-06-07T12:07:43Z</time>
      </trkpt>
      <trkpt lat="43.5538" lon="6.77196">
        <ele>227</ele>
        <time>2009-06-07T12:07:44Z</time>
      </trkpt>
      <trkpt lat="43.55389" lon="6.77221">
        <ele>227</ele>
        <time>2009-06-07T12:07:47Z</time>
      </trkpt>
      <trkpt lat="43.55395" lon="6.77233">
        <ele>225</ele>
        <time>2009-06-07T12:07:48Z</time>
      </trkpt>
      <trkpt lat="43.55406" lon="6.77259">
        <ele>225</ele>
        <time>2009-06-07T12:07:51Z</time>
      </trkpt>
      <trkpt lat="43.55414" lon="6.77267">
        <ele>219</ele>
        <time>2009-06-07T12:07:52Z</time>
      </trkpt>
      <trkpt lat="43.5543" lon="6.7729">
        <ele>219</ele>
        <time>2009-06-07T12:07:55Z</time>
      </trkpt>
      <trkpt lat="43.55442" lon="6.77295">
        <ele>212</ele>
        <time>2009-06-07T12:07:56Z</time>
      </trkpt>
      <trkpt lat="43.55461" lon="6.7731">
        <ele>212</ele>
        <time>2009-06-07T12:07:59Z</time>
      </trkpt>
      <trkpt lat="43.55467" lon="6.77311">
        <ele>211</ele>
        <time>2009-06-07T12:08:00Z</time>
      </trkpt>
      <trkpt lat="43.55516" lon="6.77331">
        <ele>209</ele>
        <time>2009-06-07T12:08:09Z</time>
      </trkpt>
      <trkpt lat="43.55522" lon="6.77333">
        <ele>207</ele>
        <time>2009-06-07T12:08:10Z</time>
      </trkpt>
      <trkpt lat="43.55525" lon="6.77342">
        <ele>207</ele>
        <time>2009-06-07T12:08:14Z</time>
      </trkpt>
      <trkpt lat="43.55526" lon="6.77349">
        <ele>207</ele>
        <time>2009-06-07T12:08:17Z</time>
      </trkpt>
      <trkpt lat="43.55514" lon="6.77343">
        <ele>206</ele>
        <time>2009-06-07T12:08:18Z</time>
      </trkpt>
      <trkpt lat="43.55505" lon="6.77341">
        <ele>206</ele>
        <time>2009-06-07T12:08:21Z</time>
      </trkpt>
      <trkpt lat="43.55494" lon="6.77347">
        <ele>206</ele>
        <time>2009-06-07T12:08:22Z</time>
      </trkpt>
      <trkpt lat="43.55481" lon="6.77352">
        <ele>206</ele>
        <time>2009-06-07T12:08:25Z</time>
      </trkpt>
      <trkpt lat="43.55468" lon="6.77353">
        <ele>205</ele>
        <time>2009-06-07T12:08:26Z</time>
      </trkpt>
      <trkpt lat="43.55448" lon="6.77358">
        <ele>205</ele>
        <time>2009-06-07T12:08:29Z</time>
      </trkpt>
      <trkpt lat="43.5544" lon="6.77354">
        <ele>204</ele>
        <time>2009-06-07T12:08:30Z</time>
      </trkpt>
      <trkpt lat="43.55398" lon="6.7736">
        <ele>201</ele>
        <time>2009-06-07T12:08:39Z</time>
      </trkpt>
      <trkpt lat="43.55395" lon="6.77355">
        <ele>198</ele>
        <time>2009-06-07T12:08:43Z</time>
      </trkpt>
      <trkpt lat="43.5539" lon="6.77351">
        <ele>194</ele>
        <time>2009-06-07T12:08:44Z</time>
      </trkpt>
      <trkpt lat="43.55383" lon="6.77349">
        <ele>194</ele>
        <time>2009-06-07T12:08:47Z</time>
      </trkpt>
      <trkpt lat="43.55381" lon="6.77356">
        <ele>193</ele>
        <time>2009-06-07T12:08:48Z</time>
      </trkpt>
      <trkpt lat="43.55376" lon="6.77364">
        <ele>193</ele>
        <time>2009-06-07T12:08:51Z</time>
      </trkpt>
      <trkpt lat="43.55358" lon="6.77362">
        <ele>190</ele>
        <time>2009-06-07T12:08:52Z</time>
      </trkpt>
      <trkpt lat="43.55344" lon="6.77363">
        <ele>190</ele>
        <time>2009-06-07T12:08:55Z</time>
      </trkpt>
      <trkpt lat="43.55333" lon="6.77369">
        <ele>190</ele>
        <time>2009-06-07T12:08:56Z</time>
      </trkpt>
      <trkpt lat="43.55292" lon="6.77391">
        <ele>186</ele>
        <time>2009-06-07T12:09:05Z</time>
      </trkpt>
      <trkpt lat="43.55288" lon="6.77395">
        <ele>186</ele>
        <time>2009-06-07T12:09:06Z</time>
      </trkpt>
      <trkpt lat="43.55282" lon="6.77398">
        <ele>184</ele>
        <time>2009-06-07T12:09:07Z</time>
      </trkpt>
      <trkpt lat="43.55274" lon="6.774">
        <ele>184</ele>
        <time>2009-06-07T12:09:10Z</time>
      </trkpt>
      <trkpt lat="43.5527" lon="6.77407">
        <ele>182</ele>
        <time>2009-06-07T12:09:14Z</time>
      </trkpt>
      <trkpt lat="43.55264" lon="6.7741">
        <ele>182</ele>
        <time>2009-06-07T12:09:22Z</time>
      </trkpt>
      <trkpt lat="43.55259" lon="6.77405">
        <ele>181</ele>
        <time>2009-06-07T12:09:40Z</time>
      </trkpt>
      <trkpt lat="43.55261" lon="6.77407">
        <ele>182</ele>
        <time>2009-06-07T12:09:50Z</time>
      </trkpt>
      <trkpt lat="43.55261" lon="6.77408">
        <ele>181</ele>
        <time>2009-06-07T12:09:58Z</time>
      </trkpt>
      <trkpt lat="43.55266" lon="6.77408">
        <ele>181</ele>
        <time>2009-06-07T12:10:07Z</time>
      </trkpt>
      <trkpt lat="43.55266" lon="6.77412">
        <ele>178</ele>
        <time>2009-06-07T12:10:17Z</time>
      </trkpt>
      <trkpt lat="43.55262" lon="6.77413">
        <ele>172</ele>
        <time>2009-06-07T12:11:05Z</time>
      </trkpt>
      <trkpt lat="43.55262" lon="6.77413">
        <ele>171</ele>
        <time>2009-06-07T12:11:06Z</time>
      </trkpt>
      <trkpt lat="43.55262" lon="6.77413">
        <ele>171</ele>
        <time>2009-06-07T12:11:06Z</time>
      </trkpt>
      <trkpt lat="43.5526" lon="6.77413">
        <ele>171</ele>
        <time>2009-06-07T12:11:21Z</time>
      </trkpt>
      <trkpt lat="43.5524" lon="6.77403">
        <ele>167</ele>
        <time>2009-06-07T12:11:22Z</time>
      </trkpt>
      <trkpt lat="43.55235" lon="6.774">
        <ele>167</ele>
        <time>2009-06-07T12:11:25Z</time>
      </trkpt>
      <trkpt lat="43.55232" lon="6.77394">
        <ele>167</ele>
        <time>2009-06-07T12:11:26Z</time>
      </trkpt>
      <trkpt lat="43.55227" lon="6.77389">
        <ele>167</ele>
        <time>2009-06-07T12:11:29Z</time>
      </trkpt>
      <trkpt lat="43.55211" lon="6.77367">
        <ele>169</ele>
        <time>2009-06-07T12:11:39Z</time>
      </trkpt>
      <trkpt lat="43.55205" lon="6.77361">
        <ele>170</ele>
        <time>2009-06-07T12:11:40Z</time>
      </trkpt>
      <trkpt lat="43.552" lon="6.77354">
        <ele>170</ele>
        <time>2009-06-07T12:11:42Z</time>
      </trkpt>
      <trkpt lat="43.55191" lon="6.7735">
        <ele>169</ele>
        <time>2009-06-07T12:11:43Z</time>
      </trkpt>
      <trkpt lat="43.55186" lon="6.77341">
        <ele>169</ele>
        <time>2009-06-07T12:11:46Z</time>
      </trkpt>
      <trkpt lat="43.55185" lon="6.77329">
        <ele>171</ele>
        <time>2009-06-07T12:11:51Z</time>
      </trkpt>
      <trkpt lat="43.55173" lon="6.77318">
        <ele>171</ele>
        <time>2009-06-07T12:11:52Z</time>
      </trkpt>
      <trkpt lat="43.55166" lon="6.77305">
        <ele>171</ele>
        <time>2009-06-07T12:11:54Z</time>
      </trkpt>
      <trkpt lat="43.5516" lon="6.77302">
        <ele>170</ele>
        <time>2009-06-07T12:11:55Z</time>
      </trkpt>
      <trkpt lat="43.55121" lon="6.77269">
        <ele>170</ele>
        <time>2009-06-07T12:12:05Z</time>
      </trkpt>
      <trkpt lat="43.55114" lon="6.77261">
        <ele>170</ele>
        <time>2009-06-07T12:12:06Z</time>
      </trkpt>
      <trkpt lat="43.55102" lon="6.77246">
        <ele>170</ele>
        <time>2009-06-07T12:12:09Z</time>
      </trkpt>
      <trkpt lat="43.55094" lon="6.7724">
        <ele>170</ele>
        <time>2009-06-07T12:12:10Z</time>
      </trkpt>
      <trkpt lat="43.55081" lon="6.77218">
        <ele>170</ele>
        <time>2009-06-07T12:12:14Z</time>
      </trkpt>
      <trkpt lat="43.55073" lon="6.77199">
        <ele>170</ele>
        <time>2009-06-07T12:12:17Z</time>
      </trkpt>
      <trkpt lat="43.55067" lon="6.77203">
        <ele>169</ele>
        <time>2009-06-07T12:12:18Z</time>
      </trkpt>
      <trkpt lat="43.55062" lon="6.77195">
        <ele>170</ele>
        <time>2009-06-07T12:12:20Z</time>
      </trkpt>
      <trkpt lat="43.55057" lon="6.77181">
        <ele>170</ele>
        <time>2009-06-07T12:12:24Z</time>
      </trkpt>
      <trkpt lat="43.55058" lon="6.77172">
        <ele>170</ele>
        <time>2009-06-07T12:12:25Z</time>
      </trkpt>
      <trkpt lat="43.55056" lon="6.77161">
        <ele>170</ele>
        <time>2009-06-07T12:12:28Z</time>
      </trkpt>
      <trkpt lat="43.55063" lon="6.77154">
        <ele>172</ele>
        <time>2009-06-07T12:12:29Z</time>
      </trkpt>
      <trkpt lat="43.55073" lon="6.77115">
        <ele>173</ele>
        <time>2009-06-07T12:12:39Z</time>
      </trkpt>
      <trkpt lat="43.55076" lon="6.77109">
        <ele>174</ele>
        <time>2009-06-07T12:12:40Z</time>
      </trkpt>
      <trkpt lat="43.55077" lon="6.77103">
        <ele>174</ele>
        <time>2009-06-07T12:12:41Z</time>
      </trkpt>
      <trkpt lat="43.55079" lon="6.77091">
        <ele>174</ele>
        <time>2009-06-07T12:12:44Z</time>
      </trkpt>
      <trkpt lat="43.55078" lon="6.77078">
        <ele>172</ele>
        <time>2009-06-07T12:12:45Z</time>
      </trkpt>
      <trkpt lat="43.55077" lon="6.7707">
        <ele>172</ele>
        <time>2009-06-07T12:12:48Z</time>
      </trkpt>
      <trkpt lat="43.55072" lon="6.77069">
        <ele>173</ele>
        <time>2009-06-07T12:12:49Z</time>
      </trkpt>
      <trkpt lat="43.55069" lon="6.77064">
        <ele>173</ele>
        <time>2009-06-07T12:12:52Z</time>
      </trkpt>
      <trkpt lat="43.55064" lon="6.77065">
        <ele>173</ele>
        <time>2009-06-07T12:12:55Z</time>
      </trkpt>
      <trkpt lat="43.55059" lon="6.77067">
        <ele>173</ele>
        <time>2009-06-07T12:12:56Z</time>
      </trkpt>
      <trkpt lat="43.55049" lon="6.77058">
        <ele>174</ele>
        <time>2009-06-07T12:13:06Z</time>
      </trkpt>
      <trkpt lat="43.55044" lon="6.77055">
        <ele>173</ele>
        <time>2009-06-07T12:13:07Z</time>
      </trkpt>
      <trkpt lat="43.55036" lon="6.77052">
        <ele>174</ele>
        <time>2009-06-07T12:13:11Z</time>
      </trkpt>
      <trkpt lat="43.5503" lon="6.77047">
        <ele>174</ele>
        <time>2009-06-07T12:13:15Z</time>
      </trkpt>
      <trkpt lat="43.55027" lon="6.77043">
        <ele>174</ele>
        <time>2009-06-07T12:13:17Z</time>
      </trkpt>
      <trkpt lat="43.55023" lon="6.77039">
        <ele>175</ele>
        <time>2009-06-07T12:13:18Z</time>
      </trkpt>
      <trkpt lat="43.55018" lon="6.77034">
        <ele>175</ele>
        <time>2009-06-07T12:13:22Z</time>
      </trkpt>
      <trkpt lat="43.55015" lon="6.77029">
        <ele>175</ele>
        <time>2009-06-07T12:13:23Z</time>
      </trkpt>
      <trkpt lat="43.55009" lon="6.77021">
        <ele>175</ele>
        <time>2009-06-07T12:13:26Z</time>
      </trkpt>
      <trkpt lat="43.54999" lon="6.77021">
        <ele>175</ele>
        <time>2009-06-07T12:13:27Z</time>
      </trkpt>
      <trkpt lat="43.54991" lon="6.77015">
        <ele>175</ele>
        <time>2009-06-07T12:13:30Z</time>
      </trkpt>
      <trkpt lat="43.54985" lon="6.77013">
        <ele>175</ele>
        <time>2009-06-07T12:13:31Z</time>
      </trkpt>
      <trkpt lat="43.54964" lon="6.76992">
        <ele>173</ele>
        <time>2009-06-07T12:13:40Z</time>
      </trkpt>
      <trkpt lat="43.54955" lon="6.76986">
        <ele>172</ele>
        <time>2009-06-07T12:13:44Z</time>
      </trkpt>
      <trkpt lat="43.5495" lon="6.76985">
        <ele>172</ele>
        <time>2009-06-07T12:13:52Z</time>
      </trkpt>
      <trkpt lat="43.54945" lon="6.76982">
        <ele>171</ele>
        <time>2009-06-07T12:13:58Z</time>
      </trkpt>
      <trkpt lat="43.54937" lon="6.76998">
        <ele>170</ele>
        <time>2009-06-07T12:14:09Z</time>
      </trkpt>
      <trkpt lat="43.5494" lon="6.76992">
        <ele>170</ele>
        <time>2009-06-07T12:14:10Z</time>
      </trkpt>
      <trkpt lat="43.54946" lon="6.76989">
        <ele>170</ele>
        <time>2009-06-07T12:14:16Z</time>
      </trkpt>
      <trkpt lat="43.5495" lon="6.76988">
        <ele>170</ele>
        <time>2009-06-07T12:14:25Z</time>
      </trkpt>
      <trkpt lat="43.54952" lon="6.76988">
        <ele>170</ele>
        <time>2009-06-07T12:14:26Z</time>
      </trkpt>
      <trkpt lat="43.54952" lon="6.76985">
        <ele>166</ele>
        <time>2009-06-07T12:28:40Z</time>
      </trkpt>
      <trkpt lat="43.54933" lon="6.7692">
        <ele>167</ele>
        <time>2009-06-07T12:28:41Z</time>
      </trkpt>
      <trkpt lat="43.54929" lon="6.7691">
        <ele>166</ele>
        <time>2009-06-07T12:28:42Z</time>
      </trkpt>
      <trkpt lat="43.54925" lon="6.76891">
        <ele>166</ele>
        <time>2009-06-07T12:28:45Z</time>
      </trkpt>
      <trkpt lat="43.54924" lon="6.7688">
        <ele>166</ele>
        <time>2009-06-07T12:28:46Z</time>
      </trkpt>
      <trkpt lat="43.54921" lon="6.76856">
        <ele>166</ele>
        <time>2009-06-07T12:28:49Z</time>
      </trkpt>
      <trkpt lat="43.54912" lon="6.76838">
        <ele>168</ele>
        <time>2009-06-07T12:28:53Z</time>
      </trkpt>
      <trkpt lat="43.54904" lon="6.76838">
        <ele>167</ele>
        <time>2009-06-07T12:28:54Z</time>
      </trkpt>
      <trkpt lat="43.54895" lon="6.76825">
        <ele>167</ele>
        <time>2009-06-07T12:28:57Z</time>
      </trkpt>
      <trkpt lat="43.54888" lon="6.76832">
        <ele>166</ele>
        <time>2009-06-07T12:28:58Z</time>
      </trkpt>
      <trkpt lat="43.54854" lon="6.76867">
        <ele>167</ele>
        <time>2009-06-07T12:29:07Z</time>
      </trkpt>
      <trkpt lat="43.54857" lon="6.76882">
        <ele>167</ele>
        <time>2009-06-07T12:29:08Z</time>
      </trkpt>
      <trkpt lat="43.54855" lon="6.76891">
        <ele>166</ele>
        <time>2009-06-07T12:29:09Z</time>
      </trkpt>
      <trkpt lat="43.54835" lon="6.76958">
        <ele>166</ele>
        <time>2009-06-07T12:29:17Z</time>
      </trkpt>
      <trkpt lat="43.54828" lon="6.76983">
        <ele>166</ele>
        <time>2009-06-07T12:29:20Z</time>
      </trkpt>
      <trkpt lat="43.54829" lon="6.76994">
        <ele>168</ele>
        <time>2009-06-07T12:29:21Z</time>
      </trkpt>
      <trkpt lat="43.54824" lon="6.77018">
        <ele>168</ele>
        <time>2009-06-07T12:29:24Z</time>
      </trkpt>
      <trkpt lat="43.54823" lon="6.77027">
        <ele>169</ele>
        <time>2009-06-07T12:29:25Z</time>
      </trkpt>
      <trkpt lat="43.54817" lon="6.77049">
        <ele>169</ele>
        <time>2009-06-07T12:29:28Z</time>
      </trkpt>
      <trkpt lat="43.54818" lon="6.7706">
        <ele>169</ele>
        <time>2009-06-07T12:29:29Z</time>
      </trkpt>
      <trkpt lat="43.54796" lon="6.77116">
        <ele>169</ele>
        <time>2009-06-07T12:29:38Z</time>
      </trkpt>
      <trkpt lat="43.54791" lon="6.77122">
        <ele>168</ele>
        <time>2009-06-07T12:29:39Z</time>
      </trkpt>
      <trkpt lat="43.54782" lon="6.77133">
        <ele>168</ele>
        <time>2009-06-07T12:29:42Z</time>
      </trkpt>
      <trkpt lat="43.54771" lon="6.77141">
        <ele>167</ele>
        <time>2009-06-07T12:29:46Z</time>
      </trkpt>
      <trkpt lat="43.54757" lon="6.77147">
        <ele>166</ele>
        <time>2009-06-07T12:29:50Z</time>
      </trkpt>
      <trkpt lat="43.54751" lon="6.77155">
        <ele>165</ele>
        <time>2009-06-07T12:29:54Z</time>
      </trkpt>
      <trkpt lat="43.54743" lon="6.7716">
        <ele>166</ele>
        <time>2009-06-07T12:29:55Z</time>
      </trkpt>
      <trkpt lat="43.54725" lon="6.77181">
        <ele>165</ele>
        <time>2009-06-07T12:30:03Z</time>
      </trkpt>
      <trkpt lat="43.54724" lon="6.77164">
        <ele>166</ele>
        <time>2009-06-07T12:30:04Z</time>
      </trkpt>
      <trkpt lat="43.54719" lon="6.77159">
        <ele>167</ele>
        <time>2009-06-07T12:30:05Z</time>
      </trkpt>
      <trkpt lat="43.54712" lon="6.77156">
        <ele>166</ele>
        <time>2009-06-07T12:30:08Z</time>
      </trkpt>
      <trkpt lat="43.54718" lon="6.7715">
        <ele>167</ele>
        <time>2009-06-07T12:30:09Z</time>
      </trkpt>
      <trkpt lat="43.54732" lon="6.77133">
        <ele>168</ele>
        <time>2009-06-07T12:30:16Z</time>
      </trkpt>
      <trkpt lat="43.54737" lon="6.77127">
        <ele>167</ele>
        <time>2009-06-07T12:30:17Z</time>
      </trkpt>
      <trkpt lat="43.54741" lon="6.7712">
        <ele>167</ele>
        <time>2009-06-07T12:30:20Z</time>
      </trkpt>
      <trkpt lat="43.54737" lon="6.77117">
        <ele>168</ele>
        <time>2009-06-07T12:30:21Z</time>
      </trkpt>
      <trkpt lat="43.54736" lon="6.7711">
        <ele>168</ele>
        <time>2009-06-07T12:30:24Z</time>
      </trkpt>
      <trkpt lat="43.54734" lon="6.77103">
        <ele>169</ele>
        <time>2009-06-07T12:30:25Z</time>
      </trkpt>
      <trkpt lat="43.54728" lon="6.77096">
        <ele>169</ele>
        <time>2009-06-07T12:30:27Z</time>
      </trkpt>
      <trkpt lat="43.54725" lon="6.77075">
        <ele>170</ele>
        <time>2009-06-07T12:30:36Z</time>
      </trkpt>
      <trkpt lat="43.54726" lon="6.77058">
        <ele>172</ele>
        <time>2009-06-07T12:30:37Z</time>
      </trkpt>
      <trkpt lat="43.54721" lon="6.7705">
        <ele>172</ele>
        <time>2009-06-07T12:30:41Z</time>
      </trkpt>
      <trkpt lat="43.54719" lon="6.77043">
        <ele>176</ele>
        <time>2009-06-07T12:30:42Z</time>
      </trkpt>
      <trkpt lat="43.54716" lon="6.77037">
        <ele>177</ele>
        <time>2009-06-07T12:30:45Z</time>
      </trkpt>
      <trkpt lat="43.54711" lon="6.77035">
        <ele>174</ele>
        <time>2009-06-07T12:30:50Z</time>
      </trkpt>
      <trkpt lat="43.54706" lon="6.77034">
        <ele>174</ele>
        <time>2009-06-07T12:30:53Z</time>
      </trkpt>
      <trkpt lat="43.54691" lon="6.77038">
        <ele>175</ele>
        <time>2009-06-07T12:31:02Z</time>
      </trkpt>
      <trkpt lat="43.54686" lon="6.77036">
        <ele>175</ele>
        <time>2009-06-07T12:31:03Z</time>
      </trkpt>
      <trkpt lat="43.5468" lon="6.77037">
        <ele>175</ele>
        <time>2009-06-07T12:31:06Z</time>
      </trkpt>
      <trkpt lat="43.54674" lon="6.7704">
        <ele>174</ele>
        <time>2009-06-07T12:31:07Z</time>
      </trkpt>
      <trkpt lat="43.54669" lon="6.77043">
        <ele>174</ele>
        <time>2009-06-07T12:31:10Z</time>
      </trkpt>
      <trkpt lat="43.54662" lon="6.77054">
        <ele>173</ele>
        <time>2009-06-07T12:31:14Z</time>
      </trkpt>
      <trkpt lat="43.54658" lon="6.7706">
        <ele>173</ele>
        <time>2009-06-07T12:31:17Z</time>
      </trkpt>
      <trkpt lat="43.54648" lon="6.77065">
        <ele>173</ele>
        <time>2009-06-07T12:31:21Z</time>
      </trkpt>
      <trkpt lat="43.54638" lon="6.77071">
        <ele>173</ele>
        <time>2009-06-07T12:31:26Z</time>
      </trkpt>
      <trkpt lat="43.54632" lon="6.77075">
        <ele>174</ele>
        <time>2009-06-07T12:31:29Z</time>
      </trkpt>
      <trkpt lat="43.54626" lon="6.77083">
        <ele>175</ele>
        <time>2009-06-07T12:31:33Z</time>
      </trkpt>
      <trkpt lat="43.54607" lon="6.77095">
        <ele>178</ele>
        <time>2009-06-07T12:31:42Z</time>
      </trkpt>
      <trkpt lat="43.54609" lon="6.77083">
        <ele>179</ele>
        <time>2009-06-07T12:31:43Z</time>
      </trkpt>
      <trkpt lat="43.54604" lon="6.7708">
        <ele>179</ele>
        <time>2009-06-07T12:31:46Z</time>
      </trkpt>
      <trkpt lat="43.546" lon="6.77068">
        <ele>181</ele>
        <time>2009-06-07T12:31:50Z</time>
      </trkpt>
      <trkpt lat="43.54602" lon="6.77061">
        <ele>181</ele>
        <time>2009-06-07T12:31:54Z</time>
      </trkpt>
      <trkpt lat="43.546" lon="6.77052">
        <ele>182</ele>
        <time>2009-06-07T12:31:58Z</time>
      </trkpt>
      <trkpt lat="43.54594" lon="6.77047">
        <ele>182</ele>
        <time>2009-06-07T12:31:59Z</time>
      </trkpt>
      <trkpt lat="43.54585" lon="6.77032">
        <ele>183</ele>
        <time>2009-06-07T12:32:07Z</time>
      </trkpt>
      <trkpt lat="43.54589" lon="6.77023">
        <ele>183</ele>
        <time>2009-06-07T12:32:08Z</time>
      </trkpt>
      <trkpt lat="43.5458" lon="6.77013">
        <ele>183</ele>
        <time>2009-06-07T12:32:11Z</time>
      </trkpt>
      <trkpt lat="43.54573" lon="6.77006">
        <ele>184</ele>
        <time>2009-06-07T12:32:16Z</time>
      </trkpt>
      <trkpt lat="43.54569" lon="6.77001">
        <ele>184</ele>
        <time>2009-06-07T12:32:19Z</time>
      </trkpt>
      <trkpt lat="43.54568" lon="6.76992">
        <ele>185</ele>
        <time>2009-06-07T12:32:23Z</time>
      </trkpt>
      <trkpt lat="43.54572" lon="6.76987">
        <ele>187</ele>
        <time>2009-06-07T12:32:24Z</time>
      </trkpt>
      <trkpt lat="43.5457" lon="6.7698">
        <ele>187</ele>
        <time>2009-06-07T12:32:27Z</time>
      </trkpt>
      <trkpt lat="43.54579" lon="6.7698">
        <ele>188</ele>
        <time>2009-06-07T12:32:28Z</time>
      </trkpt>
      <trkpt lat="43.54581" lon="6.76973">
        <ele>188</ele>
        <time>2009-06-07T12:32:32Z</time>
      </trkpt>
      <trkpt lat="43.54586" lon="6.76955">
        <ele>189</ele>
        <time>2009-06-07T12:32:41Z</time>
      </trkpt>
      <trkpt lat="43.54589" lon="6.76949">
        <ele>190</ele>
        <time>2009-06-07T12:32:43Z</time>
      </trkpt>
      <trkpt lat="43.54591" lon="6.76939">
        <ele>191</ele>
        <time>2009-06-07T12:32:47Z</time>
      </trkpt>
      <trkpt lat="43.54592" lon="6.76933">
        <ele>192</ele>
        <time>2009-06-07T12:32:50Z</time>
      </trkpt>
      <trkpt lat="43.54593" lon="6.76921">
        <ele>192</ele>
        <time>2009-06-07T12:32:54Z</time>
      </trkpt>
      <trkpt lat="43.5459" lon="6.76911">
        <ele>192</ele>
        <time>2009-06-07T12:32:58Z</time>
      </trkpt>
      <trkpt lat="43.54578" lon="6.76886">
        <ele>193</ele>
        <time>2009-06-07T12:33:08Z</time>
      </trkpt>
      <trkpt lat="43.54565" lon="6.76874">
        <ele>195</ele>
        <time>2009-06-07T12:33:16Z</time>
      </trkpt>
      <trkpt lat="43.54561" lon="6.7687">
        <ele>195</ele>
        <time>2009-06-07T12:33:19Z</time>
      </trkpt>
      <trkpt lat="43.54553" lon="6.76866">
        <ele>196</ele>
        <time>2009-06-07T12:33:23Z</time>
      </trkpt>
      <trkpt lat="43.54545" lon="6.76858">
        <ele>197</ele>
        <time>2009-06-07T12:33:27Z</time>
      </trkpt>
      <trkpt lat="43.54548" lon="6.76844">
        <ele>198</ele>
        <time>2009-06-07T12:33:38Z</time>
      </trkpt>
      <trkpt lat="43.54554" lon="6.76844">
        <ele>199</ele>
        <time>2009-06-07T12:33:39Z</time>
      </trkpt>
      <trkpt lat="43.5456" lon="6.76843">
        <ele>200</ele>
        <time>2009-06-07T12:33:40Z</time>
      </trkpt>
      <trkpt lat="43.54568" lon="6.76839">
        <ele>201</ele>
        <time>2009-06-07T12:33:44Z</time>
      </trkpt>
      <trkpt lat="43.54575" lon="6.76838">
        <ele>202</ele>
        <time>2009-06-07T12:33:48Z</time>
      </trkpt>
      <trkpt lat="43.54581" lon="6.76838">
        <ele>203</ele>
        <time>2009-06-07T12:33:51Z</time>
      </trkpt>
      <trkpt lat="43.54588" lon="6.76831">
        <ele>204</ele>
        <time>2009-06-07T12:33:55Z</time>
      </trkpt>
      <trkpt lat="43.54593" lon="6.76824">
        <ele>204</ele>
        <time>2009-06-07T12:33:56Z</time>
      </trkpt>
      <trkpt lat="43.54601" lon="6.76809">
        <ele>205</ele>
        <time>2009-06-07T12:34:05Z</time>
      </trkpt>
      <trkpt lat="43.54597" lon="6.768">
        <ele>206</ele>
        <time>2009-06-07T12:34:07Z</time>
      </trkpt>
      <trkpt lat="43.54597" lon="6.76793">
        <ele>206</ele>
        <time>2009-06-07T12:34:10Z</time>
      </trkpt>
      <trkpt lat="43.54595" lon="6.76782">
        <ele>208</ele>
        <time>2009-06-07T12:34:15Z</time>
      </trkpt>
      <trkpt lat="43.54592" lon="6.76772">
        <ele>208</ele>
        <time>2009-06-07T12:34:19Z</time>
      </trkpt>
      <trkpt lat="43.54589" lon="6.76766">
        <ele>208</ele>
        <time>2009-06-07T12:34:22Z</time>
      </trkpt>
      <trkpt lat="43.54587" lon="6.76757">
        <ele>209</ele>
        <time>2009-06-07T12:34:26Z</time>
      </trkpt>
      <trkpt lat="43.54588" lon="6.76751">
        <ele>210</ele>
        <time>2009-06-07T12:34:27Z</time>
      </trkpt>
      <trkpt lat="43.54589" lon="6.7674">
        <ele>211</ele>
        <time>2009-06-07T12:34:30Z</time>
      </trkpt>
      <trkpt lat="43.54587" lon="6.76716">
        <ele>212</ele>
        <time>2009-06-07T12:34:39Z</time>
      </trkpt>
      <trkpt lat="43.54581" lon="6.76705">
        <ele>213</ele>
        <time>2009-06-07T12:34:43Z</time>
      </trkpt>
      <trkpt lat="43.54575" lon="6.76695">
        <ele>214</ele>
        <time>2009-06-07T12:34:47Z</time>
      </trkpt>
      <trkpt lat="43.54577" lon="6.76688">
        <ele>214</ele>
        <time>2009-06-07T12:34:48Z</time>
      </trkpt>
      <trkpt lat="43.54572" lon="6.76682">
        <ele>214</ele>
        <time>2009-06-07T12:34:51Z</time>
      </trkpt>
      <trkpt lat="43.54565" lon="6.76674">
        <ele>215</ele>
        <time>2009-06-07T12:34:55Z</time>
      </trkpt>
      <trkpt lat="43.54552" lon="6.76657">
        <ele>216</ele>
        <time>2009-06-07T12:35:04Z</time>
      </trkpt>
      <trkpt lat="43.54545" lon="6.76656">
        <ele>217</ele>
        <time>2009-06-07T12:35:06Z</time>
      </trkpt>
      <trkpt lat="43.54531" lon="6.7664">
        <ele>216</ele>
        <time>2009-06-07T12:35:16Z</time>
      </trkpt>
      <trkpt lat="43.54527" lon="6.76637">
        <ele>216</ele>
        <time>2009-06-07T12:35:18Z</time>
      </trkpt>
      <trkpt lat="43.54525" lon="6.7663">
        <ele>217</ele>
        <time>2009-06-07T12:35:22Z</time>
      </trkpt>
      <trkpt lat="43.54534" lon="6.76624">
        <ele>220</ele>
        <time>2009-06-07T12:35:27Z</time>
      </trkpt>
      <trkpt lat="43.54542" lon="6.76623">
        <ele>222</ele>
        <time>2009-06-07T12:35:31Z</time>
      </trkpt>
      <trkpt lat="43.5456" lon="6.7662">
        <ele>223</ele>
        <time>2009-06-07T12:35:40Z</time>
      </trkpt>
      <trkpt lat="43.54565" lon="6.76616">
        <ele>224</ele>
        <time>2009-06-07T12:35:42Z</time>
      </trkpt>
      <trkpt lat="43.5457" lon="6.76615">
        <ele>225</ele>
        <time>2009-06-07T12:35:44Z</time>
      </trkpt>
      <trkpt lat="43.54578" lon="6.76611">
        <ele>225</ele>
        <time>2009-06-07T12:35:48Z</time>
      </trkpt>
      <trkpt lat="43.54586" lon="6.76604">
        <ele>226</ele>
        <time>2009-06-07T12:35:53Z</time>
      </trkpt>
      <trkpt lat="43.54592" lon="6.76595">
        <ele>228</ele>
        <time>2009-06-07T12:35:57Z</time>
      </trkpt>
      <trkpt lat="43.54594" lon="6.76571">
        <ele>229</ele>
        <time>2009-06-07T12:36:07Z</time>
      </trkpt>
      <trkpt lat="43.5459" lon="6.76551">
        <ele>231</ele>
        <time>2009-06-07T12:36:16Z</time>
      </trkpt>
      <trkpt lat="43.54588" lon="6.76542">
        <ele>232</ele>
        <time>2009-06-07T12:36:20Z</time>
      </trkpt>
      <trkpt lat="43.54585" lon="6.76534">
        <ele>233</ele>
        <time>2009-06-07T12:36:24Z</time>
      </trkpt>
      <trkpt lat="43.54584" lon="6.76526">
        <ele>233</ele>
        <time>2009-06-07T12:36:28Z</time>
      </trkpt>
      <trkpt lat="43.54574" lon="6.76498">
        <ele>238</ele>
        <time>2009-06-07T12:36:38Z</time>
      </trkpt>
      <trkpt lat="43.54571" lon="6.76491">
        <ele>238</ele>
        <time>2009-06-07T12:36:42Z</time>
      </trkpt>
      <trkpt lat="43.54564" lon="6.76484">
        <ele>239</ele>
        <time>2009-06-07T12:36:46Z</time>
      </trkpt>
      <trkpt lat="43.54558" lon="6.76478">
        <ele>239</ele>
        <time>2009-06-07T12:36:50Z</time>
      </trkpt>
      <trkpt lat="43.54556" lon="6.76471">
        <ele>239</ele>
        <time>2009-06-07T12:36:54Z</time>
      </trkpt>
      <trkpt lat="43.54562" lon="6.7647">
        <ele>241</ele>
        <time>2009-06-07T12:36:55Z</time>
      </trkpt>
      <trkpt lat="43.54575" lon="6.76463">
        <ele>243</ele>
        <time>2009-06-07T12:37:04Z</time>
      </trkpt>
      <trkpt lat="43.5458" lon="6.76462">
        <ele>244</ele>
        <time>2009-06-07T12:37:05Z</time>
      </trkpt>
      <trkpt lat="43.54589" lon="6.76458">
        <ele>246</ele>
        <time>2009-06-07T12:37:09Z</time>
      </trkpt>
      <trkpt lat="43.54596" lon="6.76449">
        <ele>247</ele>
        <time>2009-06-07T12:37:16Z</time>
      </trkpt>
      <trkpt lat="43.54599" lon="6.76438">
        <ele>247</ele>
        <time>2009-06-07T12:37:20Z</time>
      </trkpt>
      <trkpt lat="43.54596" lon="6.76429">
        <ele>247</ele>
        <time>2009-06-07T12:37:24Z</time>
      </trkpt>
      <trkpt lat="43.5459" lon="6.76425">
        <ele>248</ele>
        <time>2009-06-07T12:37:25Z</time>
      </trkpt>
      <trkpt lat="43.5459" lon="6.76418">
        <ele>248</ele>
        <time>2009-06-07T12:37:28Z</time>
      </trkpt>
      <trkpt lat="43.54579" lon="6.76393">
        <ele>249</ele>
        <time>2009-06-07T12:37:38Z</time>
      </trkpt>
      <trkpt lat="43.54574" lon="6.76382">
        <ele>249</ele>
        <time>2009-06-07T12:37:43Z</time>
      </trkpt>
      <trkpt lat="43.54581" lon="6.76377">
        <ele>250</ele>
        <time>2009-06-07T12:37:45Z</time>
      </trkpt>
      <trkpt lat="43.54586" lon="6.76373">
        <ele>251</ele>
        <time>2009-06-07T12:37:49Z</time>
      </trkpt>
      <trkpt lat="43.54592" lon="6.76372">
        <ele>251</ele>
        <time>2009-06-07T12:37:53Z</time>
      </trkpt>
      <trkpt lat="43.54604" lon="6.7637">
        <ele>252</ele>
        <time>2009-06-07T12:38:02Z</time>
      </trkpt>
      <trkpt lat="43.54612" lon="6.76369">
        <ele>253</ele>
        <time>2009-06-07T12:38:06Z</time>
      </trkpt>
      <trkpt lat="43.54617" lon="6.76365">
        <ele>254</ele>
        <time>2009-06-07T12:38:10Z</time>
      </trkpt>
      <trkpt lat="43.54619" lon="6.76354">
        <ele>256</ele>
        <time>2009-06-07T12:38:15Z</time>
      </trkpt>
      <trkpt lat="43.54619" lon="6.76342">
        <ele>256</ele>
        <time>2009-06-07T12:38:22Z</time>
      </trkpt>
      <trkpt lat="43.54619" lon="6.76335">
        <ele>258</ele>
        <time>2009-06-07T12:38:26Z</time>
      </trkpt>
      <trkpt lat="43.54618" lon="6.76328">
        <ele>259</ele>
        <time>2009-06-07T12:38:33Z</time>
      </trkpt>
      <trkpt lat="43.54614" lon="6.76332">
        <ele>259</ele>
        <time>2009-06-07T12:38:44Z</time>
      </trkpt>
      <trkpt lat="43.54614" lon="6.76332">
        <ele>259</ele>
        <time>2009-06-07T12:38:44Z</time>
      </trkpt>
      <trkpt lat="43.54617" lon="6.76335">
        <ele>261</ele>
        <time>2009-06-07T12:38:54Z</time>
      </trkpt>
      <trkpt lat="43.54619" lon="6.7634">
        <ele>264</ele>
        <time>2009-06-07T12:38:55Z</time>
      </trkpt>
      <trkpt lat="43.54619" lon="6.7634">
        <ele>264</ele>
        <time>2009-06-07T12:38:55Z</time>
      </trkpt>
      <trkpt lat="43.54623" lon="6.76343">
        <ele>268</ele>
        <time>2009-06-07T12:39:34Z</time>
      </trkpt>
      <trkpt lat="43.54624" lon="6.76344">
        <ele>268</ele>
        <time>2009-06-07T12:39:36Z</time>
      </trkpt>
      <trkpt lat="43.54624" lon="6.76349">
        <ele>267</ele>
        <time>2009-06-07T12:39:44Z</time>
      </trkpt>
      <trkpt lat="43.54623" lon="6.76348">
        <ele>263</ele>
        <time>2009-06-07T12:42:41Z</time>
      </trkpt>
      <trkpt lat="43.54616" lon="6.76345">
        <ele>256</ele>
        <time>2009-06-07T12:42:43Z</time>
      </trkpt>
      <trkpt lat="43.54618" lon="6.76343">
        <ele>256</ele>
        <time>2009-06-07T12:42:47Z</time>
      </trkpt>
      <trkpt lat="43.54621" lon="6.76342">
        <ele>260</ele>
        <time>2009-06-07T12:45:49Z</time>
      </trkpt>
      <trkpt lat="43.54607" lon="6.76325">
        <ele>262</ele>
        <time>2009-06-07T12:45:52Z</time>
      </trkpt>
      <trkpt lat="43.54601" lon="6.7632">
        <ele>263</ele>
        <time>2009-06-07T12:45:55Z</time>
      </trkpt>
      <trkpt lat="43.54599" lon="6.7631">
        <ele>262</ele>
        <time>2009-06-07T12:45:58Z</time>
      </trkpt>
      <trkpt lat="43.54595" lon="6.76302">
        <ele>262</ele>
        <time>2009-06-07T12:46:01Z</time>
      </trkpt>
      <trkpt lat="43.54589" lon="6.76298">
        <ele>262</ele>
        <time>2009-06-07T12:46:04Z</time>
      </trkpt>
      <trkpt lat="43.54584" lon="6.76291">
        <ele>262</ele>
        <time>2009-06-07T12:46:07Z</time>
      </trkpt>
      <trkpt lat="43.5458" lon="6.76287">
        <ele>263</ele>
        <time>2009-06-07T12:46:10Z</time>
      </trkpt>
      <trkpt lat="43.54576" lon="6.76272">
        <ele>265</ele>
        <time>2009-06-07T12:46:16Z</time>
      </trkpt>
      <trkpt lat="43.54572" lon="6.76266">
        <ele>266</ele>
        <time>2009-06-07T12:46:19Z</time>
      </trkpt>
      <trkpt lat="43.54567" lon="6.76259">
        <ele>266</ele>
        <time>2009-06-07T12:46:22Z</time>
      </trkpt>
      <trkpt lat="43.54563" lon="6.76251">
        <ele>266</ele>
        <time>2009-06-07T12:46:25Z</time>
      </trkpt>
      <trkpt lat="43.54559" lon="6.76243">
        <ele>266</ele>
        <time>2009-06-07T12:46:28Z</time>
      </trkpt>
      <trkpt lat="43.54558" lon="6.76233">
        <ele>266</ele>
        <time>2009-06-07T12:46:31Z</time>
      </trkpt>
      <trkpt lat="43.54557" lon="6.76224">
        <ele>266</ele>
        <time>2009-06-07T12:46:34Z</time>
      </trkpt>
      <trkpt lat="43.54555" lon="6.76218">
        <ele>267</ele>
        <time>2009-06-07T12:46:37Z</time>
      </trkpt>
      <trkpt lat="43.54552" lon="6.76212">
        <ele>268</ele>
        <time>2009-06-07T12:46:40Z</time>
      </trkpt>
      <trkpt lat="43.54543" lon="6.76197">
        <ele>271</ele>
        <time>2009-06-07T12:46:48Z</time>
      </trkpt>
      <trkpt lat="43.54537" lon="6.7619">
        <ele>271</ele>
        <time>2009-06-07T12:46:51Z</time>
      </trkpt>
      <trkpt lat="43.54533" lon="6.76183">
        <ele>272</ele>
        <time>2009-06-07T12:46:54Z</time>
      </trkpt>
      <trkpt lat="43.5453" lon="6.76175">
        <ele>273</ele>
        <time>2009-06-07T12:46:57Z</time>
      </trkpt>
      <trkpt lat="43.54526" lon="6.76169">
        <ele>275</ele>
        <time>2009-06-07T12:47:00Z</time>
      </trkpt>
      <trkpt lat="43.54521" lon="6.76165">
        <ele>275</ele>
        <time>2009-06-07T12:47:03Z</time>
      </trkpt>
      <trkpt lat="43.54518" lon="6.76159">
        <ele>275</ele>
        <time>2009-06-07T12:47:06Z</time>
      </trkpt>
      <trkpt lat="43.54514" lon="6.76153">
        <ele>275</ele>
        <time>2009-06-07T12:47:09Z</time>
      </trkpt>
      <trkpt lat="43.54504" lon="6.76149">
        <ele>275</ele>
        <time>2009-06-07T12:47:14Z</time>
      </trkpt>
      <trkpt lat="43.54497" lon="6.76144">
        <ele>274</ele>
        <time>2009-06-07T12:47:18Z</time>
      </trkpt>
      <trkpt lat="43.54491" lon="6.7614">
        <ele>275</ele>
        <time>2009-06-07T12:47:21Z</time>
      </trkpt>
      <trkpt lat="43.54487" lon="6.76133">
        <ele>275</ele>
        <time>2009-06-07T12:47:25Z</time>
      </trkpt>
      <trkpt lat="43.54491" lon="6.7612">
        <ele>275</ele>
        <time>2009-06-07T12:47:29Z</time>
      </trkpt>
      <trkpt lat="43.54494" lon="6.76103">
        <ele>277</ele>
        <time>2009-06-07T12:47:38Z</time>
      </trkpt>
      <trkpt lat="43.545" lon="6.76101">
        <ele>277</ele>
        <time>2009-06-07T12:47:42Z</time>
      </trkpt>
      <trkpt lat="43.54513" lon="6.7609">
        <ele>277</ele>
        <time>2009-06-07T12:47:46Z</time>
      </trkpt>
      <trkpt lat="43.54522" lon="6.76083">
        <ele>277</ele>
        <time>2009-06-07T12:47:50Z</time>
      </trkpt>
      <trkpt lat="43.54528" lon="6.76082">
        <ele>277</ele>
        <time>2009-06-07T12:47:54Z</time>
      </trkpt>
      <trkpt lat="43.54549" lon="6.76076">
        <ele>276</ele>
        <time>2009-06-07T12:48:03Z</time>
      </trkpt>
      <trkpt lat="43.54558" lon="6.76079">
        <ele>276</ele>
        <time>2009-06-07T12:48:07Z</time>
      </trkpt>
      <trkpt lat="43.54566" lon="6.76079">
        <ele>275</ele>
        <time>2009-06-07T12:48:11Z</time>
      </trkpt>
      <trkpt lat="43.5458" lon="6.76073">
        <ele>274</ele>
        <time>2009-06-07T12:48:15Z</time>
      </trkpt>
      <trkpt lat="43.54586" lon="6.7607">
        <ele>275</ele>
        <time>2009-06-07T12:48:18Z</time>
      </trkpt>
      <trkpt lat="43.54592" lon="6.76064">
        <ele>276</ele>
        <time>2009-06-07T12:48:22Z</time>
      </trkpt>
      <trkpt lat="43.54598" lon="6.76056">
        <ele>278</ele>
        <time>2009-06-07T12:48:26Z</time>
      </trkpt>
      <trkpt lat="43.54601" lon="6.7605">
        <ele>279</ele>
        <time>2009-06-07T12:48:29Z</time>
      </trkpt>
      <trkpt lat="43.54602" lon="6.76043">
        <ele>278</ele>
        <time>2009-06-07T12:48:32Z</time>
      </trkpt>
      <trkpt lat="43.54597" lon="6.76026">
        <ele>278</ele>
        <time>2009-06-07T12:48:40Z</time>
      </trkpt>
      <trkpt lat="43.54594" lon="6.76019">
        <ele>279</ele>
        <time>2009-06-07T12:48:43Z</time>
      </trkpt>
      <trkpt lat="43.54594" lon="6.76012">
        <ele>280</ele>
        <time>2009-06-07T12:48:46Z</time>
      </trkpt>
      <trkpt lat="43.5459" lon="6.76005">
        <ele>282</ele>
        <time>2009-06-07T12:48:49Z</time>
      </trkpt>
      <trkpt lat="43.54587" lon="6.75998">
        <ele>283</ele>
        <time>2009-06-07T12:48:52Z</time>
      </trkpt>
      <trkpt lat="43.54585" lon="6.7599">
        <ele>283</ele>
        <time>2009-06-07T12:48:55Z</time>
      </trkpt>
      <trkpt lat="43.5458" lon="6.75985">
        <ele>283</ele>
        <time>2009-06-07T12:48:58Z</time>
      </trkpt>
      <trkpt lat="43.54576" lon="6.7598">
        <ele>283</ele>
        <time>2009-06-07T12:49:01Z</time>
      </trkpt>
      <trkpt lat="43.54571" lon="6.75975">
        <ele>283</ele>
        <time>2009-06-07T12:49:04Z</time>
      </trkpt>
      <trkpt lat="43.54567" lon="6.7597">
        <ele>283</ele>
        <time>2009-06-07T12:49:07Z</time>
      </trkpt>
      <trkpt lat="43.54556" lon="6.75954">
        <ele>283</ele>
        <time>2009-06-07T12:49:15Z</time>
      </trkpt>
      <trkpt lat="43.54551" lon="6.75948">
        <ele>284</ele>
        <time>2009-06-07T12:49:18Z</time>
      </trkpt>
      <trkpt lat="43.54551" lon="6.75939">
        <ele>287</ele>
        <time>2009-06-07T12:49:21Z</time>
      </trkpt>
      <trkpt lat="43.54553" lon="6.75933">
        <ele>288</ele>
        <time>2009-06-07T12:49:24Z</time>
      </trkpt>
      <trkpt lat="43.54559" lon="6.75925">
        <ele>289</ele>
        <time>2009-06-07T12:49:27Z</time>
      </trkpt>
      <trkpt lat="43.54566" lon="6.75913">
        <ele>290</ele>
        <time>2009-06-07T12:49:31Z</time>
      </trkpt>
      <trkpt lat="43.5457" lon="6.75901">
        <ele>290</ele>
        <time>2009-06-07T12:49:35Z</time>
      </trkpt>
      <trkpt lat="43.54571" lon="6.75884">
        <ele>291</ele>
        <time>2009-06-07T12:49:43Z</time>
      </trkpt>
      <trkpt lat="43.54566" lon="6.75879">
        <ele>287</ele>
        <time>2009-06-07T12:49:44Z</time>
      </trkpt>
      <trkpt lat="43.54565" lon="6.75867">
        <ele>288</ele>
        <time>2009-06-07T12:49:48Z</time>
      </trkpt>
      <trkpt lat="43.54563" lon="6.75861">
        <ele>288</ele>
        <time>2009-06-07T12:49:51Z</time>
      </trkpt>
      <trkpt lat="43.5456" lon="6.7585">
        <ele>288</ele>
        <time>2009-06-07T12:49:55Z</time>
      </trkpt>
      <trkpt lat="43.54563" lon="6.75842">
        <ele>290</ele>
        <time>2009-06-07T12:49:56Z</time>
      </trkpt>
      <trkpt lat="43.54559" lon="6.75836">
        <ele>290</ele>
        <time>2009-06-07T12:49:59Z</time>
      </trkpt>
      <trkpt lat="43.5456" lon="6.75829">
        <ele>290</ele>
        <time>2009-06-07T12:50:00Z</time>
      </trkpt>
      <trkpt lat="43.54553" lon="6.75812">
        <ele>290</ele>
        <time>2009-06-07T12:50:08Z</time>
      </trkpt>
      <trkpt lat="43.54554" lon="6.7579">
        <ele>292</ele>
        <time>2009-06-07T12:50:16Z</time>
      </trkpt>
      <trkpt lat="43.5455" lon="6.75784">
        <ele>293</ele>
        <time>2009-06-07T12:50:17Z</time>
      </trkpt>
      <trkpt lat="43.54545" lon="6.75778">
        <ele>294</ele>
        <time>2009-06-07T12:50:20Z</time>
      </trkpt>
      <trkpt lat="43.54541" lon="6.75772">
        <ele>294</ele>
        <time>2009-06-07T12:50:24Z</time>
      </trkpt>
      <trkpt lat="43.54534" lon="6.75768">
        <ele>294</ele>
        <time>2009-06-07T12:50:28Z</time>
      </trkpt>
      <trkpt lat="43.54527" lon="6.75758">
        <ele>296</ele>
        <time>2009-06-07T12:50:37Z</time>
      </trkpt>
      <trkpt lat="43.54527" lon="6.75749">
        <ele>297</ele>
        <time>2009-06-07T12:50:38Z</time>
      </trkpt>
      <trkpt lat="43.54528" lon="6.75735">
        <ele>298</ele>
        <time>2009-06-07T12:50:42Z</time>
      </trkpt>
      <trkpt lat="43.54522" lon="6.75725">
        <ele>298</ele>
        <time>2009-06-07T12:50:46Z</time>
      </trkpt>
      <trkpt lat="43.54522" lon="6.75713">
        <ele>300</ele>
        <time>2009-06-07T12:50:50Z</time>
      </trkpt>
      <trkpt lat="43.5452" lon="6.75701">
        <ele>302</ele>
        <time>2009-06-07T12:50:54Z</time>
      </trkpt>
      <trkpt lat="43.54511" lon="6.75681">
        <ele>304</ele>
        <time>2009-06-07T12:51:03Z</time>
      </trkpt>
      <trkpt lat="43.54505" lon="6.75672">
        <ele>306</ele>
        <time>2009-06-07T12:51:07Z</time>
      </trkpt>
      <trkpt lat="43.545" lon="6.75667">
        <ele>307</ele>
        <time>2009-06-07T12:51:11Z</time>
      </trkpt>
      <trkpt lat="43.54496" lon="6.7566">
        <ele>308</ele>
        <time>2009-06-07T12:51:15Z</time>
      </trkpt>
      <trkpt lat="43.54502" lon="6.75646">
        <ele>309</ele>
        <time>2009-06-07T12:51:18Z</time>
      </trkpt>
      <trkpt lat="43.54506" lon="6.75638">
        <ele>309</ele>
        <time>2009-06-07T12:51:23Z</time>
      </trkpt>
      <trkpt lat="43.54511" lon="6.75634">
        <ele>309</ele>
        <time>2009-06-07T12:51:26Z</time>
      </trkpt>
      <trkpt lat="43.54517" lon="6.75623">
        <ele>309</ele>
        <time>2009-06-07T12:51:27Z</time>
      </trkpt>
      <trkpt lat="43.54526" lon="6.75613">
        <ele>310</ele>
        <time>2009-06-07T12:51:30Z</time>
      </trkpt>
      <trkpt lat="43.54531" lon="6.7561">
        <ele>310</ele>
        <time>2009-06-07T12:51:31Z</time>
      </trkpt>
      <trkpt lat="43.54547" lon="6.75591">
        <ele>310</ele>
        <time>2009-06-07T12:51:39Z</time>
      </trkpt>
      <trkpt lat="43.54552" lon="6.75579">
        <ele>310</ele>
        <time>2009-06-07T12:51:43Z</time>
      </trkpt>
      <trkpt lat="43.54563" lon="6.75569">
        <ele>309</ele>
        <time>2009-06-07T12:51:47Z</time>
      </trkpt>
      <trkpt lat="43.54573" lon="6.75568">
        <ele>312</ele>
        <time>2009-06-07T12:51:51Z</time>
      </trkpt>
      <trkpt lat="43.54581" lon="6.75574">
        <ele>313</ele>
        <time>2009-06-07T12:51:55Z</time>
      </trkpt>
      <trkpt lat="43.54586" lon="6.75578">
        <ele>314</ele>
        <time>2009-06-07T12:51:59Z</time>
      </trkpt>
      <trkpt lat="43.54599" lon="6.75574">
        <ele>315</ele>
        <time>2009-06-07T12:52:07Z</time>
      </trkpt>
      <trkpt lat="43.54608" lon="6.75563">
        <ele>314</ele>
        <time>2009-06-07T12:52:11Z</time>
      </trkpt>
      <trkpt lat="43.54614" lon="6.75554">
        <ele>314</ele>
        <time>2009-06-07T12:52:14Z</time>
      </trkpt>
      <trkpt lat="43.54619" lon="6.75545">
        <ele>314</ele>
        <time>2009-06-07T12:52:17Z</time>
      </trkpt>
      <trkpt lat="43.54622" lon="6.75539">
        <ele>316</ele>
        <time>2009-06-07T12:52:20Z</time>
      </trkpt>
      <trkpt lat="43.54624" lon="6.75529">
        <ele>316</ele>
        <time>2009-06-07T12:52:23Z</time>
      </trkpt>
      <trkpt lat="43.54628" lon="6.75521">
        <ele>316</ele>
        <time>2009-06-07T12:52:26Z</time>
      </trkpt>
      <trkpt lat="43.54627" lon="6.75514">
        <ele>316</ele>
        <time>2009-06-07T12:52:29Z</time>
      </trkpt>
      <trkpt lat="43.54626" lon="6.75506">
        <ele>314</ele>
        <time>2009-06-07T12:52:32Z</time>
      </trkpt>
      <trkpt lat="43.54624" lon="6.75497">
        <ele>315</ele>
        <time>2009-06-07T12:52:35Z</time>
      </trkpt>
      <trkpt lat="43.54623" lon="6.75488">
        <ele>316</ele>
        <time>2009-06-07T12:52:38Z</time>
      </trkpt>
      <trkpt lat="43.54624" lon="6.75476">
        <ele>319</ele>
        <time>2009-06-07T12:52:41Z</time>
      </trkpt>
      <trkpt lat="43.54619" lon="6.75452">
        <ele>324</ele>
        <time>2009-06-07T12:52:49Z</time>
      </trkpt>
      <trkpt lat="43.54615" lon="6.75442">
        <ele>324</ele>
        <time>2009-06-07T12:52:52Z</time>
      </trkpt>
      <trkpt lat="43.54608" lon="6.75433">
        <ele>325</ele>
        <time>2009-06-07T12:52:54Z</time>
      </trkpt>
      <trkpt lat="43.54602" lon="6.75426">
        <ele>324</ele>
        <time>2009-06-07T12:52:57Z</time>
      </trkpt>
      <trkpt lat="43.54596" lon="6.75424">
        <ele>324</ele>
        <time>2009-06-07T12:53:00Z</time>
      </trkpt>
      <trkpt lat="43.54588" lon="6.7542">
        <ele>323</ele>
        <time>2009-06-07T12:53:03Z</time>
      </trkpt>
      <trkpt lat="43.5458" lon="6.75417">
        <ele>322</ele>
        <time>2009-06-07T12:53:06Z</time>
      </trkpt>
      <trkpt lat="43.54572" lon="6.75414">
        <ele>321</ele>
        <time>2009-06-07T12:53:10Z</time>
      </trkpt>
      <trkpt lat="43.5456" lon="6.754">
        <ele>322</ele>
        <time>2009-06-07T12:53:16Z</time>
      </trkpt>
      <trkpt lat="43.54556" lon="6.75394">
        <ele>322</ele>
        <time>2009-06-07T12:53:19Z</time>
      </trkpt>
      <trkpt lat="43.54552" lon="6.75388">
        <ele>322</ele>
        <time>2009-06-07T12:53:22Z</time>
      </trkpt>
      <trkpt lat="43.54549" lon="6.75382">
        <ele>323</ele>
        <time>2009-06-07T12:53:25Z</time>
      </trkpt>
      <trkpt lat="43.54549" lon="6.7537">
        <ele>325</ele>
        <time>2009-06-07T12:53:28Z</time>
      </trkpt>
      <trkpt lat="43.54542" lon="6.75359">
        <ele>327</ele>
        <time>2009-06-07T12:53:32Z</time>
      </trkpt>
      <trkpt lat="43.5454" lon="6.75347">
        <ele>327</ele>
        <time>2009-06-07T12:53:36Z</time>
      </trkpt>
      <trkpt lat="43.54552" lon="6.7532">
        <ele>326</ele>
        <time>2009-06-07T12:53:45Z</time>
      </trkpt>
      <trkpt lat="43.54557" lon="6.75317">
        <ele>326</ele>
        <time>2009-06-07T12:53:46Z</time>
      </trkpt>
      <trkpt lat="43.54564" lon="6.75313">
        <ele>327</ele>
        <time>2009-06-07T12:53:49Z</time>
      </trkpt>
      <trkpt lat="43.54576" lon="6.75307">
        <ele>327</ele>
        <time>2009-06-07T12:53:53Z</time>
      </trkpt>
      <trkpt lat="43.54588" lon="6.75302">
        <ele>327</ele>
        <time>2009-06-07T12:53:57Z</time>
      </trkpt>
      <trkpt lat="43.54599" lon="6.753">
        <ele>327</ele>
        <time>2009-06-07T12:54:01Z</time>
      </trkpt>
      <trkpt lat="43.54624" lon="6.75291">
        <ele>328</ele>
        <time>2009-06-07T12:54:10Z</time>
      </trkpt>
      <trkpt lat="43.54639" lon="6.75286">
        <ele>329</ele>
        <time>2009-06-07T12:54:15Z</time>
      </trkpt>
      <trkpt lat="43.54644" lon="6.7528">
        <ele>329</ele>
        <time>2009-06-07T12:54:18Z</time>
      </trkpt>
      <trkpt lat="43.54651" lon="6.75272">
        <ele>330</ele>
        <time>2009-06-07T12:54:22Z</time>
      </trkpt>
      <trkpt lat="43.54655" lon="6.75265">
        <ele>330</ele>
        <time>2009-06-07T12:54:25Z</time>
      </trkpt>
      <trkpt lat="43.54656" lon="6.75259">
        <ele>330</ele>
        <time>2009-06-07T12:54:28Z</time>
      </trkpt>
      <trkpt lat="43.54654" lon="6.75242">
        <ele>331</ele>
        <time>2009-06-07T12:54:34Z</time>
      </trkpt>
      <trkpt lat="43.54655" lon="6.75232">
        <ele>330</ele>
        <time>2009-06-07T12:54:37Z</time>
      </trkpt>
      <trkpt lat="43.54653" lon="6.75207">
        <ele>331</ele>
        <time>2009-06-07T12:54:45Z</time>
      </trkpt>
      <trkpt lat="43.54653" lon="6.75195">
        <ele>330</ele>
        <time>2009-06-07T12:54:48Z</time>
      </trkpt>
      <trkpt lat="43.54655" lon="6.75179">
        <ele>332</ele>
        <time>2009-06-07T12:54:51Z</time>
      </trkpt>
      <trkpt lat="43.54656" lon="6.75169">
        <ele>336</ele>
        <time>2009-06-07T12:54:54Z</time>
      </trkpt>
      <trkpt lat="43.54651" lon="6.75161">
        <ele>336</ele>
        <time>2009-06-07T12:54:57Z</time>
      </trkpt>
      <trkpt lat="43.54645" lon="6.75155">
        <ele>335</ele>
        <time>2009-06-07T12:55:00Z</time>
      </trkpt>
      <trkpt lat="43.5464" lon="6.75151">
        <ele>336</ele>
        <time>2009-06-07T12:55:03Z</time>
      </trkpt>
      <trkpt lat="43.54634" lon="6.75148">
        <ele>336</ele>
        <time>2009-06-07T12:55:06Z</time>
      </trkpt>
      <trkpt lat="43.54627" lon="6.75145">
        <ele>336</ele>
        <time>2009-06-07T12:55:09Z</time>
      </trkpt>
      <trkpt lat="43.54611" lon="6.75131">
        <ele>335</ele>
        <time>2009-06-07T12:55:16Z</time>
      </trkpt>
      <trkpt lat="43.5461" lon="6.75122">
        <ele>338</ele>
        <time>2009-06-07T12:55:19Z</time>
      </trkpt>
      <trkpt lat="43.54608" lon="6.75115">
        <ele>340</ele>
        <time>2009-06-07T12:55:23Z</time>
      </trkpt>
      <trkpt lat="43.54604" lon="6.75108">
        <ele>340</ele>
        <time>2009-06-07T12:55:26Z</time>
      </trkpt>
      <trkpt lat="43.54601" lon="6.751">
        <ele>341</ele>
        <time>2009-06-07T12:55:29Z</time>
      </trkpt>
      <trkpt lat="43.54595" lon="6.75092">
        <ele>343</ele>
        <time>2009-06-07T12:55:34Z</time>
      </trkpt>
      <trkpt lat="43.54588" lon="6.75086">
        <ele>343</ele>
        <time>2009-06-07T12:55:37Z</time>
      </trkpt>
      <trkpt lat="43.54585" lon="6.75078">
        <ele>343</ele>
        <time>2009-06-07T12:55:40Z</time>
      </trkpt>
      <trkpt lat="43.54579" lon="6.7505">
        <ele>344</ele>
        <time>2009-06-07T12:55:49Z</time>
      </trkpt>
      <trkpt lat="43.54578" lon="6.75041">
        <ele>344</ele>
        <time>2009-06-07T12:55:50Z</time>
      </trkpt>
      <trkpt lat="43.54573" lon="6.75028">
        <ele>345</ele>
        <time>2009-06-07T12:55:53Z</time>
      </trkpt>
      <trkpt lat="43.54569" lon="6.75023">
        <ele>344</ele>
        <time>2009-06-07T12:55:54Z</time>
      </trkpt>
      <trkpt lat="43.54563" lon="6.75008">
        <ele>344</ele>
        <time>2009-06-07T12:55:57Z</time>
      </trkpt>
      <trkpt lat="43.54557" lon="6.74997">
        <ele>346</ele>
        <time>2009-06-07T12:56:01Z</time>
      </trkpt>
      <trkpt lat="43.54555" lon="6.74991">
        <ele>346</ele>
        <time>2009-06-07T12:56:02Z</time>
      </trkpt>
      <trkpt lat="43.54552" lon="6.74979">
        <ele>348</ele>
        <time>2009-06-07T12:56:05Z</time>
      </trkpt>
      <trkpt lat="43.54556" lon="6.74918">
        <ele>357</ele>
        <time>2009-06-07T12:56:16Z</time>
      </trkpt>
      <trkpt lat="43.54565" lon="6.74898">
        <ele>360</ele>
        <time>2009-06-07T12:56:18Z</time>
      </trkpt>
      <trkpt lat="43.54571" lon="6.74892">
        <ele>361</ele>
        <time>2009-06-07T12:56:19Z</time>
      </trkpt>
      <trkpt lat="43.54578" lon="6.74882">
        <ele>362</ele>
        <time>2009-06-07T12:56:20Z</time>
      </trkpt>
      <trkpt lat="43.54598" lon="6.74858">
        <ele>364</ele>
        <time>2009-06-07T12:56:24Z</time>
      </trkpt>
      <trkpt lat="43.54604" lon="6.74857">
        <ele>364</ele>
        <time>2009-06-07T12:56:25Z</time>
      </trkpt>
      <trkpt lat="43.54615" lon="6.74853">
        <ele>364</ele>
        <time>2009-06-07T12:56:28Z</time>
      </trkpt>
      <trkpt lat="43.54652" lon="6.74834">
        <ele>363</ele>
        <time>2009-06-07T12:56:37Z</time>
      </trkpt>
      <trkpt lat="43.5466" lon="6.74829">
        <ele>362</ele>
        <time>2009-06-07T12:56:38Z</time>
      </trkpt>
      <trkpt lat="43.54674" lon="6.74815">
        <ele>362</ele>
        <time>2009-06-07T12:56:42Z</time>
      </trkpt>
      <trkpt lat="43.54688" lon="6.74801">
        <ele>362</ele>
        <time>2009-06-07T12:56:46Z</time>
      </trkpt>
      <trkpt lat="43.54704" lon="6.7479">
        <ele>361</ele>
        <time>2009-06-07T12:56:50Z</time>
      </trkpt>
      <trkpt lat="43.5472" lon="6.74781">
        <ele>359</ele>
        <time>2009-06-07T12:56:54Z</time>
      </trkpt>
      <trkpt lat="43.54725" lon="6.74779">
        <ele>359</ele>
        <time>2009-06-07T12:56:55Z</time>
      </trkpt>
      <trkpt lat="43.54756" lon="6.74777">
        <ele>359</ele>
        <time>2009-06-07T12:57:03Z</time>
      </trkpt>
      <trkpt lat="43.54762" lon="6.74777">
        <ele>358</ele>
        <time>2009-06-07T12:57:04Z</time>
      </trkpt>
      <trkpt lat="43.54778" lon="6.74777">
        <ele>358</ele>
        <time>2009-06-07T12:57:07Z</time>
      </trkpt>
      <trkpt lat="43.54789" lon="6.74775">
        <ele>358</ele>
        <time>2009-06-07T12:57:10Z</time>
      </trkpt>
      <trkpt lat="43.54802" lon="6.74772">
        <ele>359</ele>
        <time>2009-06-07T12:57:16Z</time>
      </trkpt>
      <trkpt lat="43.54809" lon="6.7477">
        <ele>361</ele>
        <time>2009-06-07T12:57:28Z</time>
      </trkpt>
      <trkpt lat="43.54806" lon="6.74762">
        <ele>360</ele>
        <time>2009-06-07T12:57:37Z</time>
      </trkpt>
      <trkpt lat="43.54797" lon="6.74765">
        <ele>359</ele>
        <time>2009-06-07T12:57:50Z</time>
      </trkpt>
      <trkpt lat="43.54791" lon="6.74764">
        <ele>360</ele>
        <time>2009-06-07T12:57:56Z</time>
      </trkpt>
      <trkpt lat="43.54797" lon="6.74763">
        <ele>361</ele>
        <time>2009-06-07T12:58:17Z</time>
      </trkpt>
      <trkpt lat="43.54796" lon="6.74764">
        <ele>361</ele>
        <time>2009-06-07T12:58:32Z</time>
      </trkpt>
      <trkpt lat="43.54795" lon="6.74765">
        <ele>358</ele>
        <time>2009-06-07T13:00:05Z</time>
      </trkpt>
      <trkpt lat="43.54762" lon="6.74762">
        <ele>354</ele>
        <time>2009-06-07T13:00:16Z</time>
      </trkpt>
      <trkpt lat="43.54756" lon="6.7476">
        <ele>354</ele>
        <time>2009-06-07T13:00:19Z</time>
      </trkpt>
      <trkpt lat="43.54748" lon="6.74754">
        <ele>354</ele>
        <time>2009-06-07T13:00:23Z</time>
      </trkpt>
      <trkpt lat="43.54751" lon="6.74748">
        <ele>355</ele>
        <time>2009-06-07T13:00:24Z</time>
      </trkpt>
      <trkpt lat="43.54744" lon="6.74742">
        <ele>355</ele>
        <time>2009-06-07T13:00:30Z</time>
      </trkpt>
      <trkpt lat="43.54742" lon="6.74735">
        <ele>355</ele>
        <time>2009-06-07T13:00:31Z</time>
      </trkpt>
      <trkpt lat="43.54739" lon="6.7473">
        <ele>355</ele>
        <time>2009-06-07T13:00:34Z</time>
      </trkpt>
      <trkpt lat="43.54732" lon="6.74706">
        <ele>353</ele>
        <time>2009-06-07T13:00:44Z</time>
      </trkpt>
      <trkpt lat="43.54729" lon="6.74695">
        <ele>353</ele>
        <time>2009-06-07T13:00:48Z</time>
      </trkpt>
      <trkpt lat="43.54729" lon="6.74684">
        <ele>354</ele>
        <time>2009-06-07T13:00:52Z</time>
      </trkpt>
      <trkpt lat="43.54727" lon="6.74676">
        <ele>355</ele>
        <time>2009-06-07T13:00:56Z</time>
      </trkpt>
      <trkpt lat="43.54721" lon="6.74667">
        <ele>355</ele>
        <time>2009-06-07T13:01:00Z</time>
      </trkpt>
      <trkpt lat="43.54719" lon="6.74661">
        <ele>355</ele>
        <time>2009-06-07T13:01:03Z</time>
      </trkpt>
      <trkpt lat="43.54711" lon="6.7464">
        <ele>356</ele>
        <time>2009-06-07T13:01:11Z</time>
      </trkpt>
      <trkpt lat="43.54706" lon="6.74629">
        <ele>356</ele>
        <time>2009-06-07T13:01:17Z</time>
      </trkpt>
      <trkpt lat="43.54702" lon="6.7462">
        <ele>358</ele>
        <time>2009-06-07T13:01:24Z</time>
      </trkpt>
      <trkpt lat="43.54692" lon="6.74624">
        <ele>360</ele>
        <time>2009-06-07T13:01:32Z</time>
      </trkpt>
      <trkpt lat="43.54685" lon="6.74632">
        <ele>360</ele>
        <time>2009-06-07T13:01:36Z</time>
      </trkpt>
      <trkpt lat="43.54683" lon="6.74659">
        <ele>362</ele>
        <time>2009-06-07T13:01:46Z</time>
      </trkpt>
      <trkpt lat="43.54683" lon="6.74668">
        <ele>362</ele>
        <time>2009-06-07T13:01:50Z</time>
      </trkpt>
      <trkpt lat="43.54682" lon="6.7468">
        <ele>363</ele>
        <time>2009-06-07T13:01:54Z</time>
      </trkpt>
      <trkpt lat="43.54682" lon="6.7469">
        <ele>364</ele>
        <time>2009-06-07T13:01:58Z</time>
      </trkpt>
      <trkpt lat="43.54679" lon="6.74701">
        <ele>365</ele>
        <time>2009-06-07T13:02:02Z</time>
      </trkpt>
      <trkpt lat="43.54678" lon="6.7471">
        <ele>365</ele>
        <time>2009-06-07T13:02:05Z</time>
      </trkpt>
      <trkpt lat="43.54674" lon="6.74714">
        <ele>367</ele>
        <time>2009-06-07T13:02:06Z</time>
      </trkpt>
      <trkpt lat="43.54653" lon="6.74742">
        <ele>367</ele>
        <time>2009-06-07T13:02:16Z</time>
      </trkpt>
      <trkpt lat="43.54646" lon="6.7475">
        <ele>367</ele>
        <time>2009-06-07T13:02:19Z</time>
      </trkpt>
      <trkpt lat="43.54638" lon="6.74756">
        <ele>368</ele>
        <time>2009-06-07T13:02:23Z</time>
      </trkpt>
      <trkpt lat="43.54631" lon="6.74757">
        <ele>369</ele>
        <time>2009-06-07T13:02:27Z</time>
      </trkpt>
      <trkpt lat="43.54625" lon="6.74761">
        <ele>369</ele>
        <time>2009-06-07T13:02:30Z</time>
      </trkpt>
      <trkpt lat="43.54619" lon="6.74755">
        <ele>369</ele>
        <time>2009-06-07T13:02:31Z</time>
      </trkpt>
      <trkpt lat="43.54614" lon="6.74755">
        <ele>369</ele>
        <time>2009-06-07T13:02:34Z</time>
      </trkpt>
      <trkpt lat="43.54599" lon="6.74751">
        <ele>369</ele>
        <time>2009-06-07T13:02:43Z</time>
      </trkpt>
      <trkpt lat="43.54592" lon="6.74755">
        <ele>370</ele>
        <time>2009-06-07T13:02:47Z</time>
      </trkpt>
      <trkpt lat="43.54588" lon="6.74761">
        <ele>373</ele>
        <time>2009-06-07T13:02:50Z</time>
      </trkpt>
      <trkpt lat="43.54585" lon="6.74765">
        <ele>374</ele>
        <time>2009-06-07T13:02:53Z</time>
      </trkpt>
      <trkpt lat="43.54578" lon="6.7477">
        <ele>374</ele>
        <time>2009-06-07T13:02:57Z</time>
      </trkpt>
      <trkpt lat="43.54567" lon="6.74771">
        <ele>376</ele>
        <time>2009-06-07T13:03:03Z</time>
      </trkpt>
      <trkpt lat="43.54552" lon="6.74769">
        <ele>380</ele>
        <time>2009-06-07T13:03:14Z</time>
      </trkpt>
      <trkpt lat="43.54545" lon="6.74771">
        <ele>380</ele>
        <time>2009-06-07T13:03:17Z</time>
      </trkpt>
      <trkpt lat="43.5454" lon="6.74771">
        <ele>380</ele>
        <time>2009-06-07T13:03:20Z</time>
      </trkpt>
      <trkpt lat="43.54531" lon="6.7477">
        <ele>382</ele>
        <time>2009-06-07T13:03:23Z</time>
      </trkpt>
      <trkpt lat="43.54526" lon="6.74765">
        <ele>383</ele>
        <time>2009-06-07T13:03:26Z</time>
      </trkpt>
      <trkpt lat="43.54522" lon="6.7476">
        <ele>384</ele>
        <time>2009-06-07T13:03:29Z</time>
      </trkpt>
      <trkpt lat="43.5452" lon="6.74767">
        <ele>385</ele>
        <time>2009-06-07T13:03:41Z</time>
      </trkpt>
      <trkpt lat="43.54519" lon="6.74779">
        <ele>384</ele>
        <time>2009-06-07T13:03:49Z</time>
      </trkpt>
      <trkpt lat="43.5452" lon="6.74772">
        <ele>388</ele>
        <time>2009-06-07T13:04:16Z</time>
      </trkpt>
      <trkpt lat="43.5452" lon="6.74769">
        <ele>393</ele>
        <time>2009-06-07T13:04:34Z</time>
      </trkpt>
      <trkpt lat="43.54518" lon="6.74771">
        <ele>393</ele>
        <time>2009-06-07T13:05:38Z</time>
      </trkpt>
      <trkpt lat="43.54519" lon="6.74796">
        <ele>391</ele>
        <time>2009-06-07T13:05:46Z</time>
      </trkpt>
      <trkpt lat="43.54516" lon="6.74806">
        <ele>391</ele>
        <time>2009-06-07T13:05:49Z</time>
      </trkpt>
      <trkpt lat="43.54514" lon="6.74816">
        <ele>391</ele>
        <time>2009-06-07T13:05:52Z</time>
      </trkpt>
      <trkpt lat="43.54515" lon="6.74828">
        <ele>390</ele>
        <time>2009-06-07T13:05:55Z</time>
      </trkpt>
      <trkpt lat="43.54514" lon="6.74839">
        <ele>391</ele>
        <time>2009-06-07T13:05:58Z</time>
      </trkpt>
      <trkpt lat="43.54514" lon="6.74851">
        <ele>390</ele>
        <time>2009-06-07T13:06:01Z</time>
      </trkpt>
      <trkpt lat="43.54512" lon="6.74864">
        <ele>390</ele>
        <time>2009-06-07T13:06:04Z</time>
      </trkpt>
      <trkpt lat="43.54509" lon="6.74875">
        <ele>391</ele>
        <time>2009-06-07T13:06:07Z</time>
      </trkpt>
      <trkpt lat="43.5451" lon="6.74888">
        <ele>390</ele>
        <time>2009-06-07T13:06:10Z</time>
      </trkpt>
      <trkpt lat="43.54508" lon="6.74926">
        <ele>388</ele>
        <time>2009-06-07T13:06:16Z</time>
      </trkpt>
      <trkpt lat="43.54506" lon="6.74951">
        <ele>387</ele>
        <time>2009-06-07T13:06:19Z</time>
      </trkpt>
      <trkpt lat="43.54505" lon="6.74974">
        <ele>386</ele>
        <time>2009-06-07T13:06:21Z</time>
      </trkpt>
      <trkpt lat="43.54504" lon="6.74995">
        <ele>387</ele>
        <time>2009-06-07T13:06:24Z</time>
      </trkpt>
      <trkpt lat="43.54498" lon="6.7502">
        <ele>386</ele>
        <time>2009-06-07T13:06:28Z</time>
      </trkpt>
      <trkpt lat="43.54497" lon="6.75044">
        <ele>387</ele>
        <time>2009-06-07T13:06:31Z</time>
      </trkpt>
      <trkpt lat="43.54494" lon="6.75064">
        <ele>388</ele>
        <time>2009-06-07T13:06:34Z</time>
      </trkpt>
      <trkpt lat="43.54492" lon="6.75084">
        <ele>389</ele>
        <time>2009-06-07T13:06:37Z</time>
      </trkpt>
      <trkpt lat="43.54485" lon="6.75096">
        <ele>390</ele>
        <time>2009-06-07T13:06:40Z</time>
      </trkpt>
      <trkpt lat="43.5447" lon="6.75126">
        <ele>391</ele>
        <time>2009-06-07T13:06:48Z</time>
      </trkpt>
      <trkpt lat="43.54467" lon="6.75133">
        <ele>392</ele>
        <time>2009-06-07T13:06:51Z</time>
      </trkpt>
      <trkpt lat="43.54464" lon="6.75142">
        <ele>392</ele>
        <time>2009-06-07T13:06:54Z</time>
      </trkpt>
      <trkpt lat="43.54459" lon="6.7515">
        <ele>392</ele>
        <time>2009-06-07T13:06:57Z</time>
      </trkpt>
      <trkpt lat="43.54453" lon="6.75157">
        <ele>393</ele>
        <time>2009-06-07T13:07:00Z</time>
      </trkpt>
      <trkpt lat="43.54449" lon="6.75164">
        <ele>392</ele>
        <time>2009-06-07T13:07:03Z</time>
      </trkpt>
      <trkpt lat="43.54442" lon="6.75169">
        <ele>393</ele>
        <time>2009-06-07T13:07:06Z</time>
      </trkpt>
      <trkpt lat="43.54438" lon="6.75174">
        <ele>393</ele>
        <time>2009-06-07T13:07:09Z</time>
      </trkpt>
      <trkpt lat="43.54424" lon="6.75183">
        <ele>395</ele>
        <time>2009-06-07T13:07:14Z</time>
      </trkpt>
      <trkpt lat="43.54416" lon="6.75187">
        <ele>395</ele>
        <time>2009-06-07T13:07:17Z</time>
      </trkpt>
      <trkpt lat="43.54404" lon="6.7519">
        <ele>394</ele>
        <time>2009-06-07T13:07:20Z</time>
      </trkpt>
      <trkpt lat="43.54394" lon="6.75193">
        <ele>395</ele>
        <time>2009-06-07T13:07:23Z</time>
      </trkpt>
      <trkpt lat="43.54381" lon="6.75198">
        <ele>394</ele>
        <time>2009-06-07T13:07:26Z</time>
      </trkpt>
      <trkpt lat="43.54369" lon="6.75207">
        <ele>393</ele>
        <time>2009-06-07T13:07:29Z</time>
      </trkpt>
      <trkpt lat="43.54358" lon="6.75211">
        <ele>393</ele>
        <time>2009-06-07T13:07:32Z</time>
      </trkpt>
      <trkpt lat="43.54344" lon="6.75205">
        <ele>393</ele>
        <time>2009-06-07T13:07:35Z</time>
      </trkpt>
      <trkpt lat="43.54329" lon="6.75195">
        <ele>392</ele>
        <time>2009-06-07T13:07:38Z</time>
      </trkpt>
      <trkpt lat="43.54268" lon="6.75191">
        <ele>390</ele>
        <time>2009-06-07T13:07:46Z</time>
      </trkpt>
      <trkpt lat="43.54239" lon="6.75198">
        <ele>389</ele>
        <time>2009-06-07T13:07:49Z</time>
      </trkpt>
      <trkpt lat="43.5421" lon="6.75206">
        <ele>389</ele>
        <time>2009-06-07T13:07:52Z</time>
      </trkpt>
      <trkpt lat="43.54184" lon="6.75216">
        <ele>387</ele>
        <time>2009-06-07T13:07:55Z</time>
      </trkpt>
      <trkpt lat="43.54161" lon="6.75228">
        <ele>386</ele>
        <time>2009-06-07T13:07:58Z</time>
      </trkpt>
      <trkpt lat="43.54144" lon="6.75246">
        <ele>385</ele>
        <time>2009-06-07T13:08:01Z</time>
      </trkpt>
      <trkpt lat="43.5413" lon="6.7526">
        <ele>384</ele>
        <time>2009-06-07T13:08:04Z</time>
      </trkpt>
      <trkpt lat="43.54111" lon="6.75266">
        <ele>382</ele>
        <time>2009-06-07T13:08:07Z</time>
      </trkpt>
      <trkpt lat="43.54088" lon="6.7526">
        <ele>380</ele>
        <time>2009-06-07T13:08:10Z</time>
      </trkpt>
      <trkpt lat="43.54033" lon="6.75238">
        <ele>374</ele>
        <time>2009-06-07T13:08:16Z</time>
      </trkpt>
      <trkpt lat="43.54007" lon="6.75247">
        <ele>372</ele>
        <time>2009-06-07T13:08:19Z</time>
      </trkpt>
      <trkpt lat="43.53983" lon="6.75261">
        <ele>371</ele>
        <time>2009-06-07T13:08:22Z</time>
      </trkpt>
      <trkpt lat="43.53958" lon="6.75269">
        <ele>369</ele>
        <time>2009-06-07T13:08:25Z</time>
      </trkpt>
      <trkpt lat="43.53933" lon="6.75271">
        <ele>368</ele>
        <time>2009-06-07T13:08:28Z</time>
      </trkpt>
      <trkpt lat="43.5391" lon="6.75266">
        <ele>366</ele>
        <time>2009-06-07T13:08:31Z</time>
      </trkpt>
      <trkpt lat="43.53888" lon="6.75253">
        <ele>365</ele>
        <time>2009-06-07T13:08:34Z</time>
      </trkpt>
      <trkpt lat="43.53871" lon="6.75234">
        <ele>364</ele>
        <time>2009-06-07T13:08:37Z</time>
      </trkpt>
      <trkpt lat="43.53861" lon="6.75216">
        <ele>364</ele>
        <time>2009-06-07T13:08:40Z</time>
      </trkpt>
      <trkpt lat="43.5385" lon="6.75162">
        <ele>365</ele>
        <time>2009-06-07T13:08:48Z</time>
      </trkpt>
      <trkpt lat="43.53853" lon="6.75132">
        <ele>363</ele>
        <time>2009-06-07T13:08:51Z</time>
      </trkpt>
      <trkpt lat="43.53861" lon="6.75105">
        <ele>363</ele>
        <time>2009-06-07T13:08:54Z</time>
      </trkpt>
      <trkpt lat="43.53863" lon="6.75078">
        <ele>361</ele>
        <time>2009-06-07T13:08:57Z</time>
      </trkpt>
      <trkpt lat="43.53859" lon="6.7505">
        <ele>360</ele>
        <time>2009-06-07T13:09:00Z</time>
      </trkpt>
      <trkpt lat="43.53845" lon="6.7503">
        <ele>360</ele>
        <time>2009-06-07T13:09:02Z</time>
      </trkpt>
      <trkpt lat="43.53826" lon="6.75027">
        <ele>357</ele>
        <time>2009-06-07T13:09:05Z</time>
      </trkpt>
      <trkpt lat="43.53803" lon="6.75026">
        <ele>356</ele>
        <time>2009-06-07T13:09:09Z</time>
      </trkpt>
      <trkpt lat="43.53775" lon="6.75003">
        <ele>355</ele>
        <time>2009-06-07T13:09:14Z</time>
      </trkpt>
      <trkpt lat="43.53754" lon="6.74982">
        <ele>355</ele>
        <time>2009-06-07T13:09:17Z</time>
      </trkpt>
      <trkpt lat="43.53732" lon="6.74955">
        <ele>355</ele>
        <time>2009-06-07T13:09:20Z</time>
      </trkpt>
      <trkpt lat="43.53713" lon="6.7493">
        <ele>354</ele>
        <time>2009-06-07T13:09:23Z</time>
      </trkpt>
      <trkpt lat="43.5369" lon="6.74907">
        <ele>353</ele>
        <time>2009-06-07T13:09:26Z</time>
      </trkpt>
      <trkpt lat="43.53669" lon="6.74897">
        <ele>352</ele>
        <time>2009-06-07T13:09:29Z</time>
      </trkpt>
      <trkpt lat="43.53644" lon="6.7489">
        <ele>352</ele>
        <time>2009-06-07T13:09:32Z</time>
      </trkpt>
      <trkpt lat="43.53617" lon="6.74886">
        <ele>351</ele>
        <time>2009-06-07T13:09:35Z</time>
      </trkpt>
      <trkpt lat="43.53589" lon="6.74886">
        <ele>346</ele>
        <time>2009-06-07T13:09:38Z</time>
      </trkpt>
      <trkpt lat="43.53517" lon="6.7486">
        <ele>341</ele>
        <time>2009-06-07T13:09:46Z</time>
      </trkpt>
      <trkpt lat="43.53503" lon="6.74846">
        <ele>342</ele>
        <time>2009-06-07T13:09:49Z</time>
      </trkpt>
      <trkpt lat="43.53491" lon="6.74838">
        <ele>342</ele>
        <time>2009-06-07T13:09:52Z</time>
      </trkpt>
      <trkpt lat="43.53481" lon="6.74835">
        <ele>341</ele>
        <time>2009-06-07T13:09:55Z</time>
      </trkpt>
      <trkpt lat="43.53471" lon="6.74834">
        <ele>341</ele>
        <time>2009-06-07T13:09:58Z</time>
      </trkpt>
      <trkpt lat="43.5346" lon="6.74831">
        <ele>341</ele>
        <time>2009-06-07T13:10:01Z</time>
      </trkpt>
      <trkpt lat="43.5345" lon="6.74822">
        <ele>340</ele>
        <time>2009-06-07T13:10:04Z</time>
      </trkpt>
      <trkpt lat="43.53447" lon="6.74808">
        <ele>340</ele>
        <time>2009-06-07T13:10:07Z</time>
      </trkpt>
      <trkpt lat="43.53446" lon="6.74793">
        <ele>340</ele>
        <time>2009-06-07T13:10:10Z</time>
      </trkpt>
      <trkpt lat="43.53429" lon="6.74773">
        <ele>339</ele>
        <time>2009-06-07T13:10:16Z</time>
      </trkpt>
      <trkpt lat="43.53416" lon="6.74772">
        <ele>339</ele>
        <time>2009-06-07T13:10:19Z</time>
      </trkpt>
      <trkpt lat="43.534" lon="6.74779">
        <ele>339</ele>
        <time>2009-06-07T13:10:22Z</time>
      </trkpt>
      <trkpt lat="43.53382" lon="6.74785">
        <ele>339</ele>
        <time>2009-06-07T13:10:24Z</time>
      </trkpt>
      <trkpt lat="43.53363" lon="6.74795">
        <ele>338</ele>
        <time>2009-06-07T13:10:28Z</time>
      </trkpt>
      <trkpt lat="43.53347" lon="6.74806">
        <ele>338</ele>
        <time>2009-06-07T13:10:31Z</time>
      </trkpt>
      <trkpt lat="43.53336" lon="6.74813">
        <ele>338</ele>
        <time>2009-06-07T13:10:34Z</time>
      </trkpt>
      <trkpt lat="43.53328" lon="6.74815">
        <ele>337</ele>
        <time>2009-06-07T13:10:37Z</time>
      </trkpt>
      <trkpt lat="43.53323" lon="6.74818">
        <ele>337</ele>
        <time>2009-06-07T13:10:40Z</time>
      </trkpt>
      <trkpt lat="43.53316" lon="6.7482">
        <ele>336</ele>
        <time>2009-06-07T13:10:48Z</time>
      </trkpt>
      <trkpt lat="43.53313" lon="6.74815">
        <ele>333</ele>
        <time>2009-06-07T13:11:03Z</time>
      </trkpt>
      <trkpt lat="43.53302" lon="6.74812">
        <ele>332</ele>
        <time>2009-06-07T13:11:06Z</time>
      </trkpt>
      <trkpt lat="43.5329" lon="6.74807">
        <ele>331</ele>
        <time>2009-06-07T13:11:08Z</time>
      </trkpt>
      <trkpt lat="43.53256" lon="6.74794">
        <ele>331</ele>
        <time>2009-06-07T13:11:14Z</time>
      </trkpt>
      <trkpt lat="43.53235" lon="6.74785">
        <ele>330</ele>
        <time>2009-06-07T13:11:17Z</time>
      </trkpt>
      <trkpt lat="43.53211" lon="6.74772">
        <ele>328</ele>
        <time>2009-06-07T13:11:20Z</time>
      </trkpt>
      <trkpt lat="43.53191" lon="6.74762">
        <ele>329</ele>
        <time>2009-06-07T13:11:23Z</time>
      </trkpt>
      <trkpt lat="43.53174" lon="6.74754">
        <ele>328</ele>
        <time>2009-06-07T13:11:26Z</time>
      </trkpt>
      <trkpt lat="43.5316" lon="6.74746">
        <ele>328</ele>
        <time>2009-06-07T13:11:29Z</time>
      </trkpt>
      <trkpt lat="43.53147" lon="6.74739">
        <ele>328</ele>
        <time>2009-06-07T13:11:32Z</time>
      </trkpt>
      <trkpt lat="43.53138" lon="6.74732">
        <ele>328</ele>
        <time>2009-06-07T13:11:35Z</time>
      </trkpt>
      <trkpt lat="43.53128" lon="6.74723">
        <ele>328</ele>
        <time>2009-06-07T13:11:38Z</time>
      </trkpt>
      <trkpt lat="43.5312" lon="6.74715">
        <ele>328</ele>
        <time>2009-06-07T13:11:40Z</time>
      </trkpt>
      <trkpt lat="43.53099" lon="6.74695">
        <ele>328</ele>
        <time>2009-06-07T13:11:49Z</time>
      </trkpt>
      <trkpt lat="43.53097" lon="6.74685">
        <ele>328</ele>
        <time>2009-06-07T13:11:52Z</time>
      </trkpt>
      <trkpt lat="43.53098" lon="6.74673">
        <ele>329</ele>
        <time>2009-06-07T13:11:55Z</time>
      </trkpt>
      <trkpt lat="43.53098" lon="6.74662">
        <ele>330</ele>
        <time>2009-06-07T13:11:58Z</time>
      </trkpt>
      <trkpt lat="43.53098" lon="6.74653">
        <ele>330</ele>
        <time>2009-06-07T13:12:01Z</time>
      </trkpt>
      <trkpt lat="43.53094" lon="6.74645">
        <ele>329</ele>
        <time>2009-06-07T13:12:04Z</time>
      </trkpt>
      <trkpt lat="43.53085" lon="6.74655">
        <ele>333</ele>
        <time>2009-06-07T13:12:15Z</time>
      </trkpt>
      <trkpt lat="43.53079" lon="6.74659">
        <ele>332</ele>
        <time>2009-06-07T13:12:18Z</time>
      </trkpt>
      <trkpt lat="43.53073" lon="6.74664">
        <ele>333</ele>
        <time>2009-06-07T13:12:22Z</time>
      </trkpt>
      <trkpt lat="43.53068" lon="6.74669">
        <ele>334</ele>
        <time>2009-06-07T13:12:25Z</time>
      </trkpt>
      <trkpt lat="43.5306" lon="6.74676">
        <ele>334</ele>
        <time>2009-06-07T13:12:31Z</time>
      </trkpt>
      <trkpt lat="43.53053" lon="6.74681">
        <ele>334</ele>
        <time>2009-06-07T13:12:34Z</time>
      </trkpt>
      <trkpt lat="43.53046" lon="6.74682">
        <ele>336</ele>
        <time>2009-06-07T13:12:37Z</time>
      </trkpt>
      <trkpt lat="43.53039" lon="6.74683">
        <ele>336</ele>
        <time>2009-06-07T13:12:40Z</time>
      </trkpt>
      <trkpt lat="43.53018" lon="6.74677">
        <ele>335</ele>
        <time>2009-06-07T13:12:48Z</time>
      </trkpt>
      <trkpt lat="43.53011" lon="6.74674">
        <ele>335</ele>
        <time>2009-06-07T13:12:51Z</time>
      </trkpt>
      <trkpt lat="43.53005" lon="6.74664">
        <ele>336</ele>
        <time>2009-06-07T13:12:55Z</time>
      </trkpt>
      <trkpt lat="43.53005" lon="6.74656">
        <ele>336</ele>
        <time>2009-06-07T13:12:56Z</time>
      </trkpt>
      <trkpt lat="43.53" lon="6.74649">
        <ele>336</ele>
        <time>2009-06-07T13:12:59Z</time>
      </trkpt>
      <trkpt lat="43.52995" lon="6.74635">
        <ele>337</ele>
        <time>2009-06-07T13:13:03Z</time>
      </trkpt>
      <trkpt lat="43.52992" lon="6.74623">
        <ele>338</ele>
        <time>2009-06-07T13:13:07Z</time>
      </trkpt>
      <trkpt lat="43.52978" lon="6.74613">
        <ele>338</ele>
        <time>2009-06-07T13:13:15Z</time>
      </trkpt>
      <trkpt lat="43.52973" lon="6.74611">
        <ele>338</ele>
        <time>2009-06-07T13:13:18Z</time>
      </trkpt>
      <trkpt lat="43.52967" lon="6.74613">
        <ele>340</ele>
        <time>2009-06-07T13:13:22Z</time>
      </trkpt>
      <trkpt lat="43.52957" lon="6.74616">
        <ele>341</ele>
        <time>2009-06-07T13:13:26Z</time>
      </trkpt>
      <trkpt lat="43.52949" lon="6.74623">
        <ele>342</ele>
        <time>2009-06-07T13:13:31Z</time>
      </trkpt>
      <trkpt lat="43.52935" lon="6.74645">
        <ele>343</ele>
        <time>2009-06-07T13:13:40Z</time>
      </trkpt>
      <trkpt lat="43.52933" lon="6.74658">
        <ele>345</ele>
        <time>2009-06-07T13:13:44Z</time>
      </trkpt>
      <trkpt lat="43.52928" lon="6.74671">
        <ele>345</ele>
        <time>2009-06-07T13:13:48Z</time>
      </trkpt>
      <trkpt lat="43.52925" lon="6.74678">
        <ele>346</ele>
        <time>2009-06-07T13:13:51Z</time>
      </trkpt>
      <trkpt lat="43.52923" lon="6.74686">
        <ele>346</ele>
        <time>2009-06-07T13:13:54Z</time>
      </trkpt>
      <trkpt lat="43.52918" lon="6.74695">
        <ele>348</ele>
        <time>2009-06-07T13:13:57Z</time>
      </trkpt>
      <trkpt lat="43.52912" lon="6.74704">
        <ele>348</ele>
        <time>2009-06-07T13:14:00Z</time>
      </trkpt>
      <trkpt lat="43.52906" lon="6.74712">
        <ele>349</ele>
        <time>2009-06-07T13:14:03Z</time>
      </trkpt>
      <trkpt lat="43.52882" lon="6.74717">
        <ele>348</ele>
        <time>2009-06-07T13:14:11Z</time>
      </trkpt>
      <trkpt lat="43.52871" lon="6.74712">
        <ele>348</ele>
        <time>2009-06-07T13:14:14Z</time>
      </trkpt>
      <trkpt lat="43.52861" lon="6.74709">
        <ele>349</ele>
        <time>2009-06-07T13:14:17Z</time>
      </trkpt>
      <trkpt lat="43.52852" lon="6.74704">
        <ele>348</ele>
        <time>2009-06-07T13:14:20Z</time>
      </trkpt>
      <trkpt lat="43.52844" lon="6.74702">
        <ele>349</ele>
        <time>2009-06-07T13:14:23Z</time>
      </trkpt>
      <trkpt lat="43.52835" lon="6.74699">
        <ele>351</ele>
        <time>2009-06-07T13:14:26Z</time>
      </trkpt>
      <trkpt lat="43.52825" lon="6.74701">
        <ele>350</ele>
        <time>2009-06-07T13:14:28Z</time>
      </trkpt>
      <trkpt lat="43.52812" lon="6.74704">
        <ele>351</ele>
        <time>2009-06-07T13:14:31Z</time>
      </trkpt>
      <trkpt lat="43.52797" lon="6.74703">
        <ele>350</ele>
        <time>2009-06-07T13:14:34Z</time>
      </trkpt>
      <trkpt lat="43.52776" lon="6.74691">
        <ele>350</ele>
        <time>2009-06-07T13:14:37Z</time>
      </trkpt>
      <trkpt lat="43.52749" lon="6.74669">
        <ele>350</ele>
        <time>2009-06-07T13:14:40Z</time>
      </trkpt>
      <trkpt lat="43.52677" lon="6.74639">
        <ele>348</ele>
        <time>2009-06-07T13:14:49Z</time>
      </trkpt>
      <trkpt lat="43.52651" lon="6.74643">
        <ele>345</ele>
        <time>2009-06-07T13:14:52Z</time>
      </trkpt>
      <trkpt lat="43.52629" lon="6.74649">
        <ele>345</ele>
        <time>2009-06-07T13:14:55Z</time>
      </trkpt>
      <trkpt lat="43.52611" lon="6.74661">
        <ele>345</ele>
        <time>2009-06-07T13:14:58Z</time>
      </trkpt>
      <trkpt lat="43.52593" lon="6.74679">
        <ele>344</ele>
        <time>2009-06-07T13:15:01Z</time>
      </trkpt>
      <trkpt lat="43.52582" lon="6.74705">
        <ele>344</ele>
        <time>2009-06-07T13:15:04Z</time>
      </trkpt>
      <trkpt lat="43.52571" lon="6.74732">
        <ele>343</ele>
        <time>2009-06-07T13:15:07Z</time>
      </trkpt>
      <trkpt lat="43.52562" lon="6.74755">
        <ele>341</ele>
        <time>2009-06-07T13:15:10Z</time>
      </trkpt>
      <trkpt lat="43.52547" lon="6.74796">
        <ele>340</ele>
        <time>2009-06-07T13:15:16Z</time>
      </trkpt>
      <trkpt lat="43.52532" lon="6.74806">
        <ele>339</ele>
        <time>2009-06-07T13:15:19Z</time>
      </trkpt>
      <trkpt lat="43.52514" lon="6.74814">
        <ele>339</ele>
        <time>2009-06-07T13:15:22Z</time>
      </trkpt>
      <trkpt lat="43.52495" lon="6.74829">
        <ele>339</ele>
        <time>2009-06-07T13:15:25Z</time>
      </trkpt>
      <trkpt lat="43.52476" lon="6.74845">
        <ele>339</ele>
        <time>2009-06-07T13:15:28Z</time>
      </trkpt>
      <trkpt lat="43.52469" lon="6.74851">
        <ele>339</ele>
        <time>2009-06-07T13:15:29Z</time>
      </trkpt>
      <trkpt lat="43.5245" lon="6.74869">
        <ele>339</ele>
        <time>2009-06-07T13:15:32Z</time>
      </trkpt>
      <trkpt lat="43.52443" lon="6.74877">
        <ele>338</ele>
        <time>2009-06-07T13:15:33Z</time>
      </trkpt>
      <trkpt lat="43.52426" lon="6.74893">
        <ele>340</ele>
        <time>2009-06-07T13:15:36Z</time>
      </trkpt>
      <trkpt lat="43.52408" lon="6.74911">
        <ele>337</ele>
        <time>2009-06-07T13:15:45Z</time>
      </trkpt>
      <trkpt lat="43.5241" lon="6.74917">
        <ele>335</ele>
        <time>2009-06-07T13:16:07Z</time>
      </trkpt>
      <trkpt lat="43.52402" lon="6.7492">
        <ele>335</ele>
        <time>2009-06-07T13:16:14Z</time>
      </trkpt>
      <trkpt lat="43.52397" lon="6.74919">
        <ele>335</ele>
        <time>2009-06-07T13:16:30Z</time>
      </trkpt>
      <trkpt lat="43.52401" lon="6.74916">
        <ele>335</ele>
        <time>2009-06-07T13:16:42Z</time>
      </trkpt>
      <trkpt lat="43.52405" lon="6.74913">
        <ele>335</ele>
        <time>2009-06-07T13:17:00Z</time>
      </trkpt>
      <trkpt lat="43.52406" lon="6.74913">
        <ele>335</ele>
        <time>2009-06-07T13:18:48Z</time>
      </trkpt>
      <trkpt lat="43.524" lon="6.74926">
        <ele>334</ele>
        <time>2009-06-07T13:18:51Z</time>
      </trkpt>
      <trkpt lat="43.52393" lon="6.74937">
        <ele>335</ele>
        <time>2009-06-07T13:18:57Z</time>
      </trkpt>
      <trkpt lat="43.52389" lon="6.74942">
        <ele>335</ele>
        <time>2009-06-07T13:19:03Z</time>
      </trkpt>
      <trkpt lat="43.52389" lon="6.74942">
        <ele>335</ele>
        <time>2009-06-07T13:19:03Z</time>
      </trkpt>
      <trkpt lat="43.52388" lon="6.74943">
        <ele>335</ele>
        <time>2009-06-07T13:19:09Z</time>
      </trkpt>
      <trkpt lat="43.52381" lon="6.74953">
        <ele>333</ele>
        <time>2009-06-07T13:19:14Z</time>
      </trkpt>
      <trkpt lat="43.52374" lon="6.74966">
        <ele>332</ele>
        <time>2009-06-07T13:19:17Z</time>
      </trkpt>
      <trkpt lat="43.52363" lon="6.74988">
        <ele>332</ele>
        <time>2009-06-07T13:19:19Z</time>
      </trkpt>
      <trkpt lat="43.52353" lon="6.75017">
        <ele>331</ele>
        <time>2009-06-07T13:19:23Z</time>
      </trkpt>
      <trkpt lat="43.52338" lon="6.75048">
        <ele>330</ele>
        <time>2009-06-07T13:19:26Z</time>
      </trkpt>
      <trkpt lat="43.52319" lon="6.75074">
        <ele>329</ele>
        <time>2009-06-07T13:19:29Z</time>
      </trkpt>
      <trkpt lat="43.52299" lon="6.75099">
        <ele>327</ele>
        <time>2009-06-07T13:19:32Z</time>
      </trkpt>
      <trkpt lat="43.52284" lon="6.75118">
        <ele>326</ele>
        <time>2009-06-07T13:19:35Z</time>
      </trkpt>
      <trkpt lat="43.52268" lon="6.75126">
        <ele>327</ele>
        <time>2009-06-07T13:19:38Z</time>
      </trkpt>
      <trkpt lat="43.52224" lon="6.75106">
        <ele>325</ele>
        <time>2009-06-07T13:19:46Z</time>
      </trkpt>
      <trkpt lat="43.52211" lon="6.75089">
        <ele>323</ele>
        <time>2009-06-07T13:19:49Z</time>
      </trkpt>
      <trkpt lat="43.52208" lon="6.75063">
        <ele>320</ele>
        <time>2009-06-07T13:19:52Z</time>
      </trkpt>
      <trkpt lat="43.52202" lon="6.75039">
        <ele>318</ele>
        <time>2009-06-07T13:19:55Z</time>
      </trkpt>
      <trkpt lat="43.5219" lon="6.75018">
        <ele>316</ele>
        <time>2009-06-07T13:19:58Z</time>
      </trkpt>
      <trkpt lat="43.52173" lon="6.74992">
        <ele>314</ele>
        <time>2009-06-07T13:20:01Z</time>
      </trkpt>
      <trkpt lat="43.52155" lon="6.74962">
        <ele>313</ele>
        <time>2009-06-07T13:20:04Z</time>
      </trkpt>
      <trkpt lat="43.52141" lon="6.7493">
        <ele>310</ele>
        <time>2009-06-07T13:20:07Z</time>
      </trkpt>
      <trkpt lat="43.52126" lon="6.74893">
        <ele>304</ele>
        <time>2009-06-07T13:20:10Z</time>
      </trkpt>
      <trkpt lat="43.52096" lon="6.74818">
        <ele>297</ele>
        <time>2009-06-07T13:20:16Z</time>
      </trkpt>
      <trkpt lat="43.52089" lon="6.74779">
        <ele>293</ele>
        <time>2009-06-07T13:20:19Z</time>
      </trkpt>
      <trkpt lat="43.5208" lon="6.74741">
        <ele>290</ele>
        <time>2009-06-07T13:20:22Z</time>
      </trkpt>
      <trkpt lat="43.5207" lon="6.74705">
        <ele>286</ele>
        <time>2009-06-07T13:20:25Z</time>
      </trkpt>
      <trkpt lat="43.52055" lon="6.74672">
        <ele>282</ele>
        <time>2009-06-07T13:20:28Z</time>
      </trkpt>
      <trkpt lat="43.52039" lon="6.7464">
        <ele>279</ele>
        <time>2009-06-07T13:20:31Z</time>
      </trkpt>
      <trkpt lat="43.52022" lon="6.74613">
        <ele>276</ele>
        <time>2009-06-07T13:20:34Z</time>
      </trkpt>
      <trkpt lat="43.52005" lon="6.74584">
        <ele>273</ele>
        <time>2009-06-07T13:20:37Z</time>
      </trkpt>
      <trkpt lat="43.51997" lon="6.74558">
        <ele>271</ele>
        <time>2009-06-07T13:20:40Z</time>
      </trkpt>
      <trkpt lat="43.51963" lon="6.74528">
        <ele>265</ele>
        <time>2009-06-07T13:20:48Z</time>
      </trkpt>
      <trkpt lat="43.51959" lon="6.74532">
        <ele>260</ele>
        <time>2009-06-07T13:20:57Z</time>
      </trkpt>
      <trkpt lat="43.51962" lon="6.74535">
        <ele>256</ele>
        <time>2009-06-07T13:21:14Z</time>
      </trkpt>
      <trkpt lat="43.51966" lon="6.74537">
        <ele>256</ele>
        <time>2009-06-07T13:21:29Z</time>
      </trkpt>
      <trkpt lat="43.51964" lon="6.74536">
        <ele>254</ele>
        <time>2009-06-07T13:21:49Z</time>
      </trkpt>
      <trkpt lat="43.51955" lon="6.74535">
        <ele>255</ele>
        <time>2009-06-07T13:21:52Z</time>
      </trkpt>
      <trkpt lat="43.51947" lon="6.74539">
        <ele>253</ele>
        <time>2009-06-07T13:21:55Z</time>
      </trkpt>
      <trkpt lat="43.51942" lon="6.7454">
        <ele>254</ele>
        <time>2009-06-07T13:21:58Z</time>
      </trkpt>
      <trkpt lat="43.51935" lon="6.74543">
        <ele>253</ele>
        <time>2009-06-07T13:22:01Z</time>
      </trkpt>
      <trkpt lat="43.51924" lon="6.74549">
        <ele>253</ele>
        <time>2009-06-07T13:22:04Z</time>
      </trkpt>
      <trkpt lat="43.51909" lon="6.74554">
        <ele>251</ele>
        <time>2009-06-07T13:22:07Z</time>
      </trkpt>
      <trkpt lat="43.51895" lon="6.74561">
        <ele>251</ele>
        <time>2009-06-07T13:22:10Z</time>
      </trkpt>
      <trkpt lat="43.51878" lon="6.74574">
        <ele>249</ele>
        <time>2009-06-07T13:22:16Z</time>
      </trkpt>
      <trkpt lat="43.51875" lon="6.7458">
        <ele>249</ele>
        <time>2009-06-07T13:22:19Z</time>
      </trkpt>
      <trkpt lat="43.51878" lon="6.746">
        <ele>245</ele>
        <time>2009-06-07T13:22:25Z</time>
      </trkpt>
      <trkpt lat="43.51883" lon="6.74615">
        <ele>243</ele>
        <time>2009-06-07T13:22:28Z</time>
      </trkpt>
      <trkpt lat="43.51886" lon="6.74628">
        <ele>242</ele>
        <time>2009-06-07T13:22:31Z</time>
      </trkpt>
      <trkpt lat="43.51887" lon="6.74635">
        <ele>242</ele>
        <time>2009-06-07T13:22:34Z</time>
      </trkpt>
      <trkpt lat="43.51894" lon="6.74672">
        <ele>239</ele>
        <time>2009-06-07T13:22:48Z</time>
      </trkpt>
      <trkpt lat="43.51892" lon="6.74698">
        <ele>237</ele>
        <time>2009-06-07T13:22:51Z</time>
      </trkpt>
      <trkpt lat="43.51888" lon="6.74734">
        <ele>234</ele>
        <time>2009-06-07T13:22:53Z</time>
      </trkpt>
      <trkpt lat="43.5188" lon="6.74769">
        <ele>232</ele>
        <time>2009-06-07T13:22:56Z</time>
      </trkpt>
      <trkpt lat="43.51874" lon="6.74798">
        <ele>230</ele>
        <time>2009-06-07T13:22:59Z</time>
      </trkpt>
      <trkpt lat="43.51874" lon="6.74829">
        <ele>228</ele>
        <time>2009-06-07T13:23:02Z</time>
      </trkpt>
      <trkpt lat="43.51881" lon="6.74855">
        <ele>226</ele>
        <time>2009-06-07T13:23:06Z</time>
      </trkpt>
      <trkpt lat="43.51899" lon="6.7487">
        <ele>225</ele>
        <time>2009-06-07T13:23:09Z</time>
      </trkpt>
      <trkpt lat="43.51924" lon="6.74893">
        <ele>223</ele>
        <time>2009-06-07T13:23:14Z</time>
      </trkpt>
      <trkpt lat="43.51922" lon="6.74912">
        <ele>224</ele>
        <time>2009-06-07T13:23:17Z</time>
      </trkpt>
      <trkpt lat="43.51911" lon="6.74934">
        <ele>223</ele>
        <time>2009-06-07T13:23:20Z</time>
      </trkpt>
      <trkpt lat="43.51898" lon="6.74959">
        <ele>222</ele>
        <time>2009-06-07T13:23:23Z</time>
      </trkpt>
      <trkpt lat="43.51883" lon="6.74984">
        <ele>219</ele>
        <time>2009-06-07T13:23:26Z</time>
      </trkpt>
      <trkpt lat="43.51867" lon="6.75009">
        <ele>217</ele>
        <time>2009-06-07T13:23:29Z</time>
      </trkpt>
      <trkpt lat="43.51855" lon="6.75034">
        <ele>214</ele>
        <time>2009-06-07T13:23:32Z</time>
      </trkpt>
      <trkpt lat="43.51846" lon="6.75057">
        <ele>212</ele>
        <time>2009-06-07T13:23:35Z</time>
      </trkpt>
      <trkpt lat="43.51834" lon="6.75074">
        <ele>211</ele>
        <time>2009-06-07T13:23:38Z</time>
      </trkpt>
      <trkpt lat="43.51804" lon="6.75106">
        <ele>200</ele>
        <time>2009-06-07T13:23:46Z</time>
      </trkpt>
      <trkpt lat="43.51798" lon="6.7512">
        <ele>196</ele>
        <time>2009-06-07T13:23:49Z</time>
      </trkpt>
      <trkpt lat="43.51797" lon="6.75141">
        <ele>192</ele>
        <time>2009-06-07T13:23:52Z</time>
      </trkpt>
      <trkpt lat="43.51789" lon="6.75157">
        <ele>190</ele>
        <time>2009-06-07T13:23:55Z</time>
      </trkpt>
      <trkpt lat="43.51772" lon="6.75168">
        <ele>187</ele>
        <time>2009-06-07T13:23:58Z</time>
      </trkpt>
      <trkpt lat="43.51748" lon="6.75174">
        <ele>184</ele>
        <time>2009-06-07T13:24:01Z</time>
      </trkpt>
      <trkpt lat="43.5172" lon="6.75181">
        <ele>182</ele>
        <time>2009-06-07T13:24:04Z</time>
      </trkpt>
      <trkpt lat="43.51696" lon="6.75191">
        <ele>179</ele>
        <time>2009-06-07T13:24:07Z</time>
      </trkpt>
      <trkpt lat="43.51675" lon="6.7521">
        <ele>176</ele>
        <time>2009-06-07T13:24:10Z</time>
      </trkpt>
      <trkpt lat="43.51629" lon="6.75222">
        <ele>169</ele>
        <time>2009-06-07T13:24:16Z</time>
      </trkpt>
      <trkpt lat="43.51613" lon="6.75229">
        <ele>167</ele>
        <time>2009-06-07T13:24:19Z</time>
      </trkpt>
      <trkpt lat="43.51599" lon="6.75246">
        <ele>165</ele>
        <time>2009-06-07T13:24:22Z</time>
      </trkpt>
      <trkpt lat="43.5159" lon="6.75264">
        <ele>162</ele>
        <time>2009-06-07T13:24:25Z</time>
      </trkpt>
      <trkpt lat="43.51589" lon="6.75286">
        <ele>158</ele>
        <time>2009-06-07T13:24:28Z</time>
      </trkpt>
      <trkpt lat="43.51596" lon="6.75304">
        <ele>155</ele>
        <time>2009-06-07T13:24:31Z</time>
      </trkpt>
      <trkpt lat="43.5161" lon="6.7532">
        <ele>154</ele>
        <time>2009-06-07T13:24:34Z</time>
      </trkpt>
      <trkpt lat="43.5162" lon="6.75336">
        <ele>153</ele>
        <time>2009-06-07T13:24:37Z</time>
      </trkpt>
      <trkpt lat="43.51622" lon="6.75356">
        <ele>152</ele>
        <time>2009-06-07T13:24:40Z</time>
      </trkpt>
      <trkpt lat="43.51642" lon="6.75394">
        <ele>145</ele>
        <time>2009-06-07T13:24:48Z</time>
      </trkpt>
      <trkpt lat="43.51658" lon="6.75398">
        <ele>142</ele>
        <time>2009-06-07T13:24:51Z</time>
      </trkpt>
      <trkpt lat="43.51672" lon="6.75415">
        <ele>140</ele>
        <time>2009-06-07T13:24:54Z</time>
      </trkpt>
      <trkpt lat="43.51685" lon="6.75441">
        <ele>139</ele>
        <time>2009-06-07T13:24:57Z</time>
      </trkpt>
      <trkpt lat="43.51692" lon="6.75456">
        <ele>137</ele>
        <time>2009-06-07T13:25:00Z</time>
      </trkpt>
      <trkpt lat="43.51694" lon="6.75462">
        <ele>134</ele>
        <time>2009-06-07T13:25:14Z</time>
      </trkpt>
      <trkpt lat="43.51697" lon="6.75459">
        <ele>128</ele>
        <time>2009-06-07T13:25:50Z</time>
      </trkpt>
      <trkpt lat="43.51696" lon="6.7546">
        <ele>123</ele>
        <time>2009-06-07T13:38:52Z</time>
      </trkpt>
      <trkpt lat="43.517" lon="6.75481">
        <ele>121</ele>
        <time>2009-06-07T13:38:55Z</time>
      </trkpt>
      <trkpt lat="43.517" lon="6.75494">
        <ele>122</ele>
        <time>2009-06-07T13:38:58Z</time>
      </trkpt>
      <trkpt lat="43.51697" lon="6.75508">
        <ele>122</ele>
        <time>2009-06-07T13:39:01Z</time>
      </trkpt>
      <trkpt lat="43.51686" lon="6.75526">
        <ele>123</ele>
        <time>2009-06-07T13:39:04Z</time>
      </trkpt>
      <trkpt lat="43.51675" lon="6.75547">
        <ele>123</ele>
        <time>2009-06-07T13:39:07Z</time>
      </trkpt>
      <trkpt lat="43.51665" lon="6.75563">
        <ele>122</ele>
        <time>2009-06-07T13:39:10Z</time>
      </trkpt>
      <trkpt lat="43.51633" lon="6.75578">
        <ele>122</ele>
        <time>2009-06-07T13:39:16Z</time>
      </trkpt>
      <trkpt lat="43.51611" lon="6.75579">
        <ele>120</ele>
        <time>2009-06-07T13:39:19Z</time>
      </trkpt>
      <trkpt lat="43.5159" lon="6.75577">
        <ele>120</ele>
        <time>2009-06-07T13:39:22Z</time>
      </trkpt>
      <trkpt lat="43.51579" lon="6.75587">
        <ele>119</ele>
        <time>2009-06-07T13:39:25Z</time>
      </trkpt>
      <trkpt lat="43.51577" lon="6.75605">
        <ele>117</ele>
        <time>2009-06-07T13:39:28Z</time>
      </trkpt>
      <trkpt lat="43.51581" lon="6.75628">
        <ele>115</ele>
        <time>2009-06-07T13:39:30Z</time>
      </trkpt>
      <trkpt lat="43.51587" lon="6.75654">
        <ele>114</ele>
        <time>2009-06-07T13:39:34Z</time>
      </trkpt>
      <trkpt lat="43.51588" lon="6.75676">
        <ele>114</ele>
        <time>2009-06-07T13:39:37Z</time>
      </trkpt>
      <trkpt lat="43.51583" lon="6.75695">
        <ele>112</ele>
        <time>2009-06-07T13:39:40Z</time>
      </trkpt>
      <trkpt lat="43.51572" lon="6.75737">
        <ele>111</ele>
        <time>2009-06-07T13:39:48Z</time>
      </trkpt>
      <trkpt lat="43.51568" lon="6.7574">
        <ele>111</ele>
        <time>2009-06-07T13:39:49Z</time>
      </trkpt>
      <trkpt lat="43.51559" lon="6.75748">
        <ele>111</ele>
        <time>2009-06-07T13:39:52Z</time>
      </trkpt>
      <trkpt lat="43.51553" lon="6.75751">
        <ele>110</ele>
        <time>2009-06-07T13:39:55Z</time>
      </trkpt>
      <trkpt lat="43.51548" lon="6.75752">
        <ele>110</ele>
        <time>2009-06-07T13:39:58Z</time>
      </trkpt>
      <trkpt lat="43.51542" lon="6.7575">
        <ele>110</ele>
        <time>2009-06-07T13:40:01Z</time>
      </trkpt>
      <trkpt lat="43.51535" lon="6.75746">
        <ele>110</ele>
        <time>2009-06-07T13:40:04Z</time>
      </trkpt>
      <trkpt lat="43.51529" lon="6.75739">
        <ele>110</ele>
        <time>2009-06-07T13:40:07Z</time>
      </trkpt>
      <trkpt lat="43.51522" lon="6.75733">
        <ele>110</ele>
        <time>2009-06-07T13:40:10Z</time>
      </trkpt>
      <trkpt lat="43.51509" lon="6.75713">
        <ele>108</ele>
        <time>2009-06-07T13:40:16Z</time>
      </trkpt>
      <trkpt lat="43.51502" lon="6.75707">
        <ele>108</ele>
        <time>2009-06-07T13:40:19Z</time>
      </trkpt>
      <trkpt lat="43.51498" lon="6.75703">
        <ele>107</ele>
        <time>2009-06-07T13:40:22Z</time>
      </trkpt>
      <trkpt lat="43.51495" lon="6.75696">
        <ele>105</ele>
        <time>2009-06-07T13:40:28Z</time>
      </trkpt>
      <trkpt lat="43.51494" lon="6.7569">
        <ele>105</ele>
        <time>2009-06-07T13:40:31Z</time>
      </trkpt>
      <trkpt lat="43.51493" lon="6.7568">
        <ele>106</ele>
        <time>2009-06-07T13:40:34Z</time>
      </trkpt>
      <trkpt lat="43.51491" lon="6.75668">
        <ele>105</ele>
        <time>2009-06-07T13:40:37Z</time>
      </trkpt>
      <trkpt lat="43.51489" lon="6.75658">
        <ele>105</ele>
        <time>2009-06-07T13:40:40Z</time>
      </trkpt>
      <trkpt lat="43.51483" lon="6.75632">
        <ele>105</ele>
        <time>2009-06-07T13:40:48Z</time>
      </trkpt>
      <trkpt lat="43.51483" lon="6.75621">
        <ele>105</ele>
        <time>2009-06-07T13:40:51Z</time>
      </trkpt>
      <trkpt lat="43.51482" lon="6.75611">
        <ele>105</ele>
        <time>2009-06-07T13:40:54Z</time>
      </trkpt>
      <trkpt lat="43.5148" lon="6.75599">
        <ele>105</ele>
        <time>2009-06-07T13:40:57Z</time>
      </trkpt>
      <trkpt lat="43.51475" lon="6.75591">
        <ele>105</ele>
        <time>2009-06-07T13:41:00Z</time>
      </trkpt>
      <trkpt lat="43.5147" lon="6.75584">
        <ele>105</ele>
        <time>2009-06-07T13:41:03Z</time>
      </trkpt>
      <trkpt lat="43.51465" lon="6.75581">
        <ele>105</ele>
        <time>2009-06-07T13:41:06Z</time>
      </trkpt>
      <trkpt lat="43.51458" lon="6.7558">
        <ele>105</ele>
        <time>2009-06-07T13:41:08Z</time>
      </trkpt>
      <trkpt lat="43.51447" lon="6.75582">
        <ele>104</ele>
        <time>2009-06-07T13:41:14Z</time>
      </trkpt>
      <trkpt lat="43.51442" lon="6.75586">
        <ele>104</ele>
        <time>2009-06-07T13:41:17Z</time>
      </trkpt>
      <trkpt lat="43.51438" lon="6.7559">
        <ele>105</ele>
        <time>2009-06-07T13:41:20Z</time>
      </trkpt>
      <trkpt lat="43.51433" lon="6.75595">
        <ele>104</ele>
        <time>2009-06-07T13:41:23Z</time>
      </trkpt>
      <trkpt lat="43.51427" lon="6.75603">
        <ele>106</ele>
        <time>2009-06-07T13:41:29Z</time>
      </trkpt>
      <trkpt lat="43.51423" lon="6.75609">
        <ele>105</ele>
        <time>2009-06-07T13:41:32Z</time>
      </trkpt>
      <trkpt lat="43.5142" lon="6.75616">
        <ele>106</ele>
        <time>2009-06-07T13:41:35Z</time>
      </trkpt>
      <trkpt lat="43.51416" lon="6.75622">
        <ele>107</ele>
        <time>2009-06-07T13:41:38Z</time>
      </trkpt>
      <trkpt lat="43.51407" lon="6.75635">
        <ele>108</ele>
        <time>2009-06-07T13:41:46Z</time>
      </trkpt>
      <trkpt lat="43.51402" lon="6.75641">
        <ele>108</ele>
        <time>2009-06-07T13:41:49Z</time>
      </trkpt>
      <trkpt lat="43.51399" lon="6.75648">
        <ele>109</ele>
        <time>2009-06-07T13:41:52Z</time>
      </trkpt>
      <trkpt lat="43.51394" lon="6.75652">
        <ele>110</ele>
        <time>2009-06-07T13:41:55Z</time>
      </trkpt>
      <trkpt lat="43.5139" lon="6.75658">
        <ele>109</ele>
        <time>2009-06-07T13:41:58Z</time>
      </trkpt>
      <trkpt lat="43.51387" lon="6.75664">
        <ele>110</ele>
        <time>2009-06-07T13:42:01Z</time>
      </trkpt>
      <trkpt lat="43.51381" lon="6.75671">
        <ele>110</ele>
        <time>2009-06-07T13:42:04Z</time>
      </trkpt>
      <trkpt lat="43.51376" lon="6.75677">
        <ele>110</ele>
        <time>2009-06-07T13:42:07Z</time>
      </trkpt>
      <trkpt lat="43.5137" lon="6.75681">
        <ele>112</ele>
        <time>2009-06-07T13:42:10Z</time>
      </trkpt>
      <trkpt lat="43.51362" lon="6.75689">
        <ele>113</ele>
        <time>2009-06-07T13:42:15Z</time>
      </trkpt>
      <trkpt lat="43.51357" lon="6.75683">
        <ele>114</ele>
        <time>2009-06-07T13:42:28Z</time>
      </trkpt>
      <trkpt lat="43.5136" lon="6.75674">
        <ele>114</ele>
        <time>2009-06-07T13:42:34Z</time>
      </trkpt>
      <trkpt lat="43.51365" lon="6.7567">
        <ele>114</ele>
        <time>2009-06-07T13:42:37Z</time>
      </trkpt>
      <trkpt lat="43.51369" lon="6.75663">
        <ele>115</ele>
        <time>2009-06-07T13:42:40Z</time>
      </trkpt>
      <trkpt lat="43.51376" lon="6.75641">
        <ele>115</ele>
        <time>2009-06-07T13:42:48Z</time>
      </trkpt>
      <trkpt lat="43.51379" lon="6.75633">
        <ele>116</ele>
        <time>2009-06-07T13:42:51Z</time>
      </trkpt>
      <trkpt lat="43.51381" lon="6.75625">
        <ele>116</ele>
        <time>2009-06-07T13:42:54Z</time>
      </trkpt>
      <trkpt lat="43.51383" lon="6.75616">
        <ele>117</ele>
        <time>2009-06-07T13:42:57Z</time>
      </trkpt>
      <trkpt lat="43.51384" lon="6.75607">
        <ele>118</ele>
        <time>2009-06-07T13:43:00Z</time>
      </trkpt>
      <trkpt lat="43.51384" lon="6.75596">
        <ele>119</ele>
        <time>2009-06-07T13:43:03Z</time>
      </trkpt>
      <trkpt lat="43.51383" lon="6.75585">
        <ele>120</ele>
        <time>2009-06-07T13:43:06Z</time>
      </trkpt>
      <trkpt lat="43.51383" lon="6.75578">
        <ele>120</ele>
        <time>2009-06-07T13:43:09Z</time>
      </trkpt>
      <trkpt lat="43.51379" lon="6.75565">
        <ele>121</ele>
        <time>2009-06-07T13:43:14Z</time>
      </trkpt>
      <trkpt lat="43.51377" lon="6.75557">
        <ele>122</ele>
        <time>2009-06-07T13:43:17Z</time>
      </trkpt>
      <trkpt lat="43.51376" lon="6.7555">
        <ele>122</ele>
        <time>2009-06-07T13:43:20Z</time>
      </trkpt>
      <trkpt lat="43.51373" lon="6.75543">
        <ele>122</ele>
        <time>2009-06-07T13:43:23Z</time>
      </trkpt>
      <trkpt lat="43.51371" lon="6.75536">
        <ele>124</ele>
        <time>2009-06-07T13:43:26Z</time>
      </trkpt>
      <trkpt lat="43.51368" lon="6.75549">
        <ele>124</ele>
        <time>2009-06-07T13:43:38Z</time>
      </trkpt>
      <trkpt lat="43.51367" lon="6.75577">
        <ele>124</ele>
        <time>2009-06-07T13:43:46Z</time>
      </trkpt>
      <trkpt lat="43.51364" lon="6.75589">
        <ele>125</ele>
        <time>2009-06-07T13:43:49Z</time>
      </trkpt>
      <trkpt lat="43.5136" lon="6.75598">
        <ele>124</ele>
        <time>2009-06-07T13:43:52Z</time>
      </trkpt>
      <trkpt lat="43.51357" lon="6.75607">
        <ele>124</ele>
        <time>2009-06-07T13:43:55Z</time>
      </trkpt>
      <trkpt lat="43.51356" lon="6.75615">
        <ele>124</ele>
        <time>2009-06-07T13:43:58Z</time>
      </trkpt>
      <trkpt lat="43.51353" lon="6.75621">
        <ele>125</ele>
        <time>2009-06-07T13:44:01Z</time>
      </trkpt>
      <trkpt lat="43.51351" lon="6.75601">
        <ele>129</ele>
        <time>2009-06-07T13:44:25Z</time>
      </trkpt>
      <trkpt lat="43.5135" lon="6.75593">
        <ele>129</ele>
        <time>2009-06-07T13:44:28Z</time>
      </trkpt>
      <trkpt lat="43.5135" lon="6.75585">
        <ele>130</ele>
        <time>2009-06-07T13:44:31Z</time>
      </trkpt>
      <trkpt lat="43.51347" lon="6.75577">
        <ele>130</ele>
        <time>2009-06-07T13:44:34Z</time>
      </trkpt>
      <trkpt lat="43.51341" lon="6.75586">
        <ele>132</ele>
        <time>2009-06-07T13:44:48Z</time>
      </trkpt>
      <trkpt lat="43.5134" lon="6.75593">
        <ele>132</ele>
        <time>2009-06-07T13:44:51Z</time>
      </trkpt>
      <trkpt lat="43.51336" lon="6.756">
        <ele>131</ele>
        <time>2009-06-07T13:45:09Z</time>
      </trkpt>
      <trkpt lat="43.51333" lon="6.75602">
        <ele>134</ele>
        <time>2009-06-07T13:45:22Z</time>
      </trkpt>
      <trkpt lat="43.51333" lon="6.75601">
        <ele>136</ele>
        <time>2009-06-07T13:45:32Z</time>
      </trkpt>
      <trkpt lat="43.51335" lon="6.75587">
        <ele>136</ele>
        <time>2009-06-07T13:45:35Z</time>
      </trkpt>
      <trkpt lat="43.51332" lon="6.7558">
        <ele>135</ele>
        <time>2009-06-07T13:45:46Z</time>
      </trkpt>
      <trkpt lat="43.51327" lon="6.75586">
        <ele>136</ele>
        <time>2009-06-07T13:45:52Z</time>
      </trkpt>
      <trkpt lat="43.51317" lon="6.75599">
        <ele>137</ele>
        <time>2009-06-07T13:45:58Z</time>
      </trkpt>
      <trkpt lat="43.51313" lon="6.75601">
        <ele>138</ele>
        <time>2009-06-07T13:46:01Z</time>
      </trkpt>
      <trkpt lat="43.51308" lon="6.75602">
        <ele>138</ele>
        <time>2009-06-07T13:46:04Z</time>
      </trkpt>
      <trkpt lat="43.51303" lon="6.75603">
        <ele>139</ele>
        <time>2009-06-07T13:46:07Z</time>
      </trkpt>
      <trkpt lat="43.51297" lon="6.75607">
        <ele>141</ele>
        <time>2009-06-07T13:46:16Z</time>
      </trkpt>
      <trkpt lat="43.51301" lon="6.7561">
        <ele>143</ele>
        <time>2009-06-07T13:46:34Z</time>
      </trkpt>
      <trkpt lat="43.513" lon="6.7561">
        <ele>144</ele>
        <time>2009-06-07T13:46:51Z</time>
      </trkpt>
      <trkpt lat="43.51299" lon="6.7561">
        <ele>144</ele>
        <time>2009-06-07T13:48:31Z</time>
      </trkpt>
      <trkpt lat="43.51311" lon="6.75604">
        <ele>143</ele>
        <time>2009-06-07T13:48:34Z</time>
      </trkpt>
      <trkpt lat="43.51316" lon="6.756">
        <ele>144</ele>
        <time>2009-06-07T13:48:40Z</time>
      </trkpt>
      <trkpt lat="43.51327" lon="6.75588">
        <ele>145</ele>
        <time>2009-06-07T13:48:48Z</time>
      </trkpt>
      <trkpt lat="43.51326" lon="6.75595">
        <ele>146</ele>
        <time>2009-06-07T13:48:51Z</time>
      </trkpt>
      <trkpt lat="43.51326" lon="6.75602">
        <ele>144</ele>
        <time>2009-06-07T13:48:57Z</time>
      </trkpt>
      <trkpt lat="43.51326" lon="6.75614">
        <ele>143</ele>
        <time>2009-06-07T13:49:14Z</time>
      </trkpt>
      <trkpt lat="43.51327" lon="6.75621">
        <ele>142</ele>
        <time>2009-06-07T13:49:20Z</time>
      </trkpt>
      <trkpt lat="43.51332" lon="6.75615">
        <ele>139</ele>
        <time>2009-06-07T13:49:26Z</time>
      </trkpt>
      <trkpt lat="43.51336" lon="6.75606">
        <ele>140</ele>
        <time>2009-06-07T13:49:29Z</time>
      </trkpt>
      <trkpt lat="43.51341" lon="6.75591">
        <ele>138</ele>
        <time>2009-06-07T13:49:32Z</time>
      </trkpt>
      <trkpt lat="43.51344" lon="6.75579">
        <ele>138</ele>
        <time>2009-06-07T13:49:35Z</time>
      </trkpt>
      <trkpt lat="43.5135" lon="6.75579">
        <ele>138</ele>
        <time>2009-06-07T13:49:38Z</time>
      </trkpt>
      <trkpt lat="43.51351" lon="6.75604">
        <ele>133</ele>
        <time>2009-06-07T13:49:46Z</time>
      </trkpt>
      <trkpt lat="43.51349" lon="6.75617">
        <ele>131</ele>
        <time>2009-06-07T13:49:49Z</time>
      </trkpt>
      <trkpt lat="43.51353" lon="6.75624">
        <ele>129</ele>
        <time>2009-06-07T13:49:52Z</time>
      </trkpt>
      <trkpt lat="43.51356" lon="6.75617">
        <ele>128</ele>
        <time>2009-06-07T13:49:58Z</time>
      </trkpt>
      <trkpt lat="43.51361" lon="6.75604">
        <ele>129</ele>
        <time>2009-06-07T13:50:01Z</time>
      </trkpt>
      <trkpt lat="43.51363" lon="6.75588">
        <ele>128</ele>
        <time>2009-06-07T13:50:04Z</time>
      </trkpt>
      <trkpt lat="43.51366" lon="6.75575">
        <ele>127</ele>
        <time>2009-06-07T13:50:07Z</time>
      </trkpt>
      <trkpt lat="43.51367" lon="6.75562">
        <ele>127</ele>
        <time>2009-06-07T13:50:10Z</time>
      </trkpt>
      <trkpt lat="43.51375" lon="6.75558">
        <ele>125</ele>
        <time>2009-06-07T13:50:16Z</time>
      </trkpt>
      <trkpt lat="43.51378" lon="6.7557">
        <ele>124</ele>
        <time>2009-06-07T13:50:19Z</time>
      </trkpt>
      <trkpt lat="43.51378" lon="6.75588">
        <ele>124</ele>
        <time>2009-06-07T13:50:22Z</time>
      </trkpt>
      <trkpt lat="43.51376" lon="6.75609">
        <ele>122</ele>
        <time>2009-06-07T13:50:25Z</time>
      </trkpt>
      <trkpt lat="43.51376" lon="6.75624">
        <ele>122</ele>
        <time>2009-06-07T13:50:28Z</time>
      </trkpt>
      <trkpt lat="43.51371" lon="6.75637">
        <ele>123</ele>
        <time>2009-06-07T13:50:31Z</time>
      </trkpt>
      <trkpt lat="43.51368" lon="6.75654">
        <ele>121</ele>
        <time>2009-06-07T13:50:34Z</time>
      </trkpt>
      <trkpt lat="43.51363" lon="6.75669">
        <ele>120</ele>
        <time>2009-06-07T13:50:37Z</time>
      </trkpt>
      <trkpt lat="43.51368" lon="6.75675">
        <ele>119</ele>
        <time>2009-06-07T13:50:40Z</time>
      </trkpt>
      <trkpt lat="43.5138" lon="6.75668">
        <ele>115</ele>
        <time>2009-06-07T13:50:48Z</time>
      </trkpt>
      <trkpt lat="43.51385" lon="6.7566">
        <ele>112</ele>
        <time>2009-06-07T13:50:51Z</time>
      </trkpt>
      <trkpt lat="43.51405" lon="6.75667">
        <ele>112</ele>
        <time>2009-06-07T13:50:54Z</time>
      </trkpt>
      <trkpt lat="43.51427" lon="6.75678">
        <ele>110</ele>
        <time>2009-06-07T13:50:57Z</time>
      </trkpt>
      <trkpt lat="43.51447" lon="6.7569">
        <ele>109</ele>
        <time>2009-06-07T13:51:00Z</time>
      </trkpt>
      <trkpt lat="43.5147" lon="6.757">
        <ele>106</ele>
        <time>2009-06-07T13:51:03Z</time>
      </trkpt>
      <trkpt lat="43.51488" lon="6.75709">
        <ele>103</ele>
        <time>2009-06-07T13:51:06Z</time>
      </trkpt>
      <trkpt lat="43.51497" lon="6.75714">
        <ele>102</ele>
        <time>2009-06-07T13:51:08Z</time>
      </trkpt>
      <trkpt lat="43.51508" lon="6.7572">
        <ele>101</ele>
        <time>2009-06-07T13:51:13Z</time>
      </trkpt>
      <trkpt lat="43.51513" lon="6.75724">
        <ele>99</ele>
        <time>2009-06-07T13:51:17Z</time>
      </trkpt>
      <trkpt lat="43.5152" lon="6.75729">
        <ele>98</ele>
        <time>2009-06-07T13:51:20Z</time>
      </trkpt>
      <trkpt lat="43.51529" lon="6.75737">
        <ele>98</ele>
        <time>2009-06-07T13:51:23Z</time>
      </trkpt>
      <trkpt lat="43.5154" lon="6.75744">
        <ele>96</ele>
        <time>2009-06-07T13:51:26Z</time>
      </trkpt>
      <trkpt lat="43.51553" lon="6.75754">
        <ele>95</ele>
        <time>2009-06-07T13:51:29Z</time>
      </trkpt>
      <trkpt lat="43.51562" lon="6.75766">
        <ele>95</ele>
        <time>2009-06-07T13:51:32Z</time>
      </trkpt>
      <trkpt lat="43.51574" lon="6.75778">
        <ele>94</ele>
        <time>2009-06-07T13:51:35Z</time>
      </trkpt>
      <trkpt lat="43.51586" lon="6.75791">
        <ele>94</ele>
        <time>2009-06-07T13:51:38Z</time>
      </trkpt>
      <trkpt lat="43.51618" lon="6.75827">
        <ele>94</ele>
        <time>2009-06-07T13:51:46Z</time>
      </trkpt>
      <trkpt lat="43.5163" lon="6.75843">
        <ele>94</ele>
        <time>2009-06-07T13:51:49Z</time>
      </trkpt>
      <trkpt lat="43.51642" lon="6.75859">
        <ele>94</ele>
        <time>2009-06-07T13:51:52Z</time>
      </trkpt>
      <trkpt lat="43.51655" lon="6.75872">
        <ele>95</ele>
        <time>2009-06-07T13:51:55Z</time>
      </trkpt>
      <trkpt lat="43.51665" lon="6.75883">
        <ele>94</ele>
        <time>2009-06-07T13:51:58Z</time>
      </trkpt>
      <trkpt lat="43.51677" lon="6.75894">
        <ele>95</ele>
        <time>2009-06-07T13:52:01Z</time>
      </trkpt>
      <trkpt lat="43.51687" lon="6.75906">
        <ele>95</ele>
        <time>2009-06-07T13:52:04Z</time>
      </trkpt>
      <trkpt lat="43.51697" lon="6.75918">
        <ele>95</ele>
        <time>2009-06-07T13:52:07Z</time>
      </trkpt>
      <trkpt lat="43.51709" lon="6.7593">
        <ele>93</ele>
        <time>2009-06-07T13:52:10Z</time>
      </trkpt>
      <trkpt lat="43.51739" lon="6.75943">
        <ele>94</ele>
        <time>2009-06-07T13:52:16Z</time>
      </trkpt>
      <trkpt lat="43.51754" lon="6.7595">
        <ele>95</ele>
        <time>2009-06-07T13:52:19Z</time>
      </trkpt>
      <trkpt lat="43.51768" lon="6.75956">
        <ele>94</ele>
        <time>2009-06-07T13:52:22Z</time>
      </trkpt>
      <trkpt lat="43.51784" lon="6.75964">
        <ele>96</ele>
        <time>2009-06-07T13:52:25Z</time>
      </trkpt>
      <trkpt lat="43.51798" lon="6.75972">
        <ele>96</ele>
        <time>2009-06-07T13:52:28Z</time>
      </trkpt>
      <trkpt lat="43.51813" lon="6.75979">
        <ele>96</ele>
        <time>2009-06-07T13:52:31Z</time>
      </trkpt>
      <trkpt lat="43.51826" lon="6.75988">
        <ele>96</ele>
        <time>2009-06-07T13:52:34Z</time>
      </trkpt>
      <trkpt lat="43.51839" lon="6.75996">
        <ele>96</ele>
        <time>2009-06-07T13:52:37Z</time>
      </trkpt>
      <trkpt lat="43.51854" lon="6.76007">
        <ele>97</ele>
        <time>2009-06-07T13:52:39Z</time>
      </trkpt>
      <trkpt lat="43.51893" lon="6.76037">
        <ele>96</ele>
        <time>2009-06-07T13:52:48Z</time>
      </trkpt>
      <trkpt lat="43.51906" lon="6.76048">
        <ele>96</ele>
        <time>2009-06-07T13:52:51Z</time>
      </trkpt>
      <trkpt lat="43.5192" lon="6.76059">
        <ele>96</ele>
        <time>2009-06-07T13:52:54Z</time>
      </trkpt>
      <trkpt lat="43.51927" lon="6.76065">
        <ele>95</ele>
        <time>2009-06-07T13:52:55Z</time>
      </trkpt>
      <trkpt lat="43.5194" lon="6.76077">
        <ele>95</ele>
        <time>2009-06-07T13:52:58Z</time>
      </trkpt>
      <trkpt lat="43.51954" lon="6.76088">
        <ele>95</ele>
        <time>2009-06-07T13:53:01Z</time>
      </trkpt>
      <trkpt lat="43.51961" lon="6.76091">
        <ele>95</ele>
        <time>2009-06-07T13:53:02Z</time>
      </trkpt>
      <trkpt lat="43.51977" lon="6.76102">
        <ele>95</ele>
        <time>2009-06-07T13:53:05Z</time>
      </trkpt>
      <trkpt lat="43.51992" lon="6.76113">
        <ele>95</ele>
        <time>2009-06-07T13:53:08Z</time>
      </trkpt>
      <trkpt lat="43.51991" lon="6.76125">
        <ele>96</ele>
        <time>2009-06-07T13:53:09Z</time>
      </trkpt>
      <trkpt lat="43.52014" lon="6.76149">
        <ele>96</ele>
        <time>2009-06-07T13:53:14Z</time>
      </trkpt>
      <trkpt lat="43.52027" lon="6.76175">
        <ele>96</ele>
        <time>2009-06-07T13:53:17Z</time>
      </trkpt>
      <trkpt lat="43.5203" lon="6.76181">
        <ele>96</ele>
        <time>2009-06-07T13:53:18Z</time>
      </trkpt>
      <trkpt lat="43.5204" lon="6.76199">
        <ele>96</ele>
        <time>2009-06-07T13:53:22Z</time>
      </trkpt>
      <trkpt lat="43.52051" lon="6.76226">
        <ele>97</ele>
        <time>2009-06-07T13:53:26Z</time>
      </trkpt>
      <trkpt lat="43.52061" lon="6.76246">
        <ele>97</ele>
        <time>2009-06-07T13:53:29Z</time>
      </trkpt>
      <trkpt lat="43.52071" lon="6.76274">
        <ele>98</ele>
        <time>2009-06-07T13:53:33Z</time>
      </trkpt>
      <trkpt lat="43.52075" lon="6.76281">
        <ele>99</ele>
        <time>2009-06-07T13:53:34Z</time>
      </trkpt>
      <trkpt lat="43.52084" lon="6.763">
        <ele>99</ele>
        <time>2009-06-07T13:53:37Z</time>
      </trkpt>
      <trkpt lat="43.52097" lon="6.76326">
        <ele>99</ele>
        <time>2009-06-07T13:53:41Z</time>
      </trkpt>
      <trkpt lat="43.52127" lon="6.76375">
        <ele>100</ele>
        <time>2009-06-07T13:53:49Z</time>
      </trkpt>
      <trkpt lat="43.5213" lon="6.76381">
        <ele>99</ele>
        <time>2009-06-07T13:53:50Z</time>
      </trkpt>
      <trkpt lat="43.52142" lon="6.76397">
        <ele>99</ele>
        <time>2009-06-07T13:53:54Z</time>
      </trkpt>
      <trkpt lat="43.52144" lon="6.76407">
        <ele>100</ele>
        <time>2009-06-07T13:53:55Z</time>
      </trkpt>
      <trkpt lat="43.52156" lon="6.76426">
        <ele>100</ele>
        <time>2009-06-07T13:53:58Z</time>
      </trkpt>
      <trkpt lat="43.52171" lon="6.76452">
        <ele>99</ele>
        <time>2009-06-07T13:54:02Z</time>
      </trkpt>
      <trkpt lat="43.52174" lon="6.76458">
        <ele>100</ele>
        <time>2009-06-07T13:54:03Z</time>
      </trkpt>
      <trkpt lat="43.52186" lon="6.76478">
        <ele>100</ele>
        <time>2009-06-07T13:54:06Z</time>
      </trkpt>
      <trkpt lat="43.522" lon="6.76505">
        <ele>100</ele>
        <time>2009-06-07T13:54:10Z</time>
      </trkpt>
      <trkpt lat="43.52204" lon="6.7651">
        <ele>101</ele>
        <time>2009-06-07T13:54:11Z</time>
      </trkpt>
      <trkpt lat="43.52216" lon="6.76529">
        <ele>101</ele>
        <time>2009-06-07T13:54:14Z</time>
      </trkpt>
      <trkpt lat="43.52232" lon="6.76555">
        <ele>100</ele>
        <time>2009-06-07T13:54:18Z</time>
      </trkpt>
      <trkpt lat="43.52236" lon="6.7656">
        <ele>100</ele>
        <time>2009-06-07T13:54:19Z</time>
      </trkpt>
      <trkpt lat="43.52248" lon="6.76579">
        <ele>100</ele>
        <time>2009-06-07T13:54:22Z</time>
      </trkpt>
      <trkpt lat="43.52261" lon="6.76597">
        <ele>100</ele>
        <time>2009-06-07T13:54:25Z</time>
      </trkpt>
      <trkpt lat="43.52262" lon="6.76604">
        <ele>100</ele>
        <time>2009-06-07T13:54:26Z</time>
      </trkpt>
      <trkpt lat="43.52273" lon="6.76623">
        <ele>100</ele>
        <time>2009-06-07T13:54:29Z</time>
      </trkpt>
      <trkpt lat="43.52291" lon="6.76641">
        <ele>101</ele>
        <time>2009-06-07T13:54:33Z</time>
      </trkpt>
      <trkpt lat="43.52296" lon="6.76646">
        <ele>101</ele>
        <time>2009-06-07T13:54:34Z</time>
      </trkpt>
      <trkpt lat="43.5231" lon="6.76659">
        <ele>101</ele>
        <time>2009-06-07T13:54:37Z</time>
      </trkpt>
      <trkpt lat="43.52354" lon="6.767">
        <ele>101</ele>
        <time>2009-06-07T13:54:46Z</time>
      </trkpt>
      <trkpt lat="43.52359" lon="6.76704">
        <ele>101</ele>
        <time>2009-06-07T13:54:47Z</time>
      </trkpt>
      <trkpt lat="43.52373" lon="6.76717">
        <ele>101</ele>
        <time>2009-06-07T13:54:50Z</time>
      </trkpt>
      <trkpt lat="43.52388" lon="6.76729">
        <ele>101</ele>
        <time>2009-06-07T13:54:53Z</time>
      </trkpt>
      <trkpt lat="43.52394" lon="6.76735">
        <ele>101</ele>
        <time>2009-06-07T13:54:54Z</time>
      </trkpt>
      <trkpt lat="43.5241" lon="6.76748">
        <ele>101</ele>
        <time>2009-06-07T13:54:57Z</time>
      </trkpt>
      <trkpt lat="43.52425" lon="6.7676">
        <ele>101</ele>
        <time>2009-06-07T13:55:00Z</time>
      </trkpt>
      <trkpt lat="43.52431" lon="6.76764">
        <ele>103</ele>
        <time>2009-06-07T13:55:01Z</time>
      </trkpt>
      <trkpt lat="43.52448" lon="6.76773">
        <ele>103</ele>
        <time>2009-06-07T13:55:04Z</time>
      </trkpt>
      <trkpt lat="43.52466" lon="6.76784">
        <ele>103</ele>
        <time>2009-06-07T13:55:07Z</time>
      </trkpt>
      <trkpt lat="43.52474" lon="6.76788">
        <ele>104</ele>
        <time>2009-06-07T13:55:08Z</time>
      </trkpt>
      <trkpt lat="43.52509" lon="6.76828">
        <ele>104</ele>
        <time>2009-06-07T13:55:15Z</time>
      </trkpt>
      <trkpt lat="43.52522" lon="6.76848">
        <ele>104</ele>
        <time>2009-06-07T13:55:18Z</time>
      </trkpt>
      <trkpt lat="43.52536" lon="6.76877">
        <ele>104</ele>
        <time>2009-06-07T13:55:22Z</time>
      </trkpt>
      <trkpt lat="43.52541" lon="6.76882">
        <ele>105</ele>
        <time>2009-06-07T13:55:23Z</time>
      </trkpt>
      <trkpt lat="43.52553" lon="6.76903">
        <ele>105</ele>
        <time>2009-06-07T13:55:26Z</time>
      </trkpt>
      <trkpt lat="43.52564" lon="6.76923">
        <ele>105</ele>
        <time>2009-06-07T13:55:29Z</time>
      </trkpt>
      <trkpt lat="43.52567" lon="6.76932">
        <ele>106</ele>
        <time>2009-06-07T13:55:30Z</time>
      </trkpt>
      <trkpt lat="43.52579" lon="6.76953">
        <ele>106</ele>
        <time>2009-06-07T13:55:33Z</time>
      </trkpt>
      <trkpt lat="43.5259" lon="6.76972">
        <ele>105</ele>
        <time>2009-06-07T13:55:36Z</time>
      </trkpt>
      <trkpt lat="43.52621" lon="6.77026">
        <ele>104</ele>
        <time>2009-06-07T13:55:44Z</time>
      </trkpt>
      <trkpt lat="43.52634" lon="6.77049">
        <ele>105</ele>
        <time>2009-06-07T13:55:47Z</time>
      </trkpt>
      <trkpt lat="43.52646" lon="6.77068">
        <ele>106</ele>
        <time>2009-06-07T13:55:50Z</time>
      </trkpt>
      <trkpt lat="43.52658" lon="6.77089">
        <ele>106</ele>
        <time>2009-06-07T13:55:53Z</time>
      </trkpt>
      <trkpt lat="43.52669" lon="6.77106">
        <ele>105</ele>
        <time>2009-06-07T13:55:56Z</time>
      </trkpt>
      <trkpt lat="43.52683" lon="6.77122">
        <ele>105</ele>
        <time>2009-06-07T13:55:59Z</time>
      </trkpt>
      <trkpt lat="43.52697" lon="6.77138">
        <ele>105</ele>
        <time>2009-06-07T13:56:02Z</time>
      </trkpt>
      <trkpt lat="43.52712" lon="6.77152">
        <ele>106</ele>
        <time>2009-06-07T13:56:05Z</time>
      </trkpt>
      <trkpt lat="43.5273" lon="6.77163">
        <ele>107</ele>
        <time>2009-06-07T13:56:08Z</time>
      </trkpt>
      <trkpt lat="43.52747" lon="6.77172">
        <ele>107</ele>
        <time>2009-06-07T13:56:11Z</time>
      </trkpt>
      <trkpt lat="43.52765" lon="6.77181">
        <ele>108</ele>
        <time>2009-06-07T13:56:14Z</time>
      </trkpt>
      <trkpt lat="43.52783" lon="6.7719">
        <ele>108</ele>
        <time>2009-06-07T13:56:17Z</time>
      </trkpt>
      <trkpt lat="43.528" lon="6.77197">
        <ele>108</ele>
        <time>2009-06-07T13:56:20Z</time>
      </trkpt>
      <trkpt lat="43.52815" lon="6.77204">
        <ele>109</ele>
        <time>2009-06-07T13:56:23Z</time>
      </trkpt>
      <trkpt lat="43.52835" lon="6.77208">
        <ele>109</ele>
        <time>2009-06-07T13:56:26Z</time>
      </trkpt>
      <trkpt lat="43.52854" lon="6.77213">
        <ele>110</ele>
        <time>2009-06-07T13:56:29Z</time>
      </trkpt>
      <trkpt lat="43.52872" lon="6.77219">
        <ele>111</ele>
        <time>2009-06-07T13:56:32Z</time>
      </trkpt>
      <trkpt lat="43.52889" lon="6.77222">
        <ele>112</ele>
        <time>2009-06-07T13:56:35Z</time>
      </trkpt>
      <trkpt lat="43.52907" lon="6.77223">
        <ele>112</ele>
        <time>2009-06-07T13:56:38Z</time>
      </trkpt>
      <trkpt lat="43.52921" lon="6.77227">
        <ele>112</ele>
        <time>2009-06-07T13:56:41Z</time>
      </trkpt>
      <trkpt lat="43.52961" lon="6.7725">
        <ele>112</ele>
        <time>2009-06-07T13:56:49Z</time>
      </trkpt>
      <trkpt lat="43.52974" lon="6.7726">
        <ele>112</ele>
        <time>2009-06-07T13:56:52Z</time>
      </trkpt>
      <trkpt lat="43.5299" lon="6.7727">
        <ele>113</ele>
        <time>2009-06-07T13:56:55Z</time>
      </trkpt>
      <trkpt lat="43.53007" lon="6.77277">
        <ele>114</ele>
        <time>2009-06-07T13:56:58Z</time>
      </trkpt>
      <trkpt lat="43.53022" lon="6.7728">
        <ele>114</ele>
        <time>2009-06-07T13:57:01Z</time>
      </trkpt>
      <trkpt lat="43.53038" lon="6.7728">
        <ele>114</ele>
        <time>2009-06-07T13:57:04Z</time>
      </trkpt>
      <trkpt lat="43.53055" lon="6.7728">
        <ele>115</ele>
        <time>2009-06-07T13:57:07Z</time>
      </trkpt>
      <trkpt lat="43.5307" lon="6.77279">
        <ele>114</ele>
        <time>2009-06-07T13:57:10Z</time>
      </trkpt>
      <trkpt lat="43.53103" lon="6.77278">
        <ele>115</ele>
        <time>2009-06-07T13:57:16Z</time>
      </trkpt>
      <trkpt lat="43.53121" lon="6.77277">
        <ele>115</ele>
        <time>2009-06-07T13:57:19Z</time>
      </trkpt>
      <trkpt lat="43.53137" lon="6.77277">
        <ele>115</ele>
        <time>2009-06-07T13:57:22Z</time>
      </trkpt>
      <trkpt lat="43.53153" lon="6.77277">
        <ele>115</ele>
        <time>2009-06-07T13:57:25Z</time>
      </trkpt>
      <trkpt lat="43.5317" lon="6.77278">
        <ele>115</ele>
        <time>2009-06-07T13:57:28Z</time>
      </trkpt>
      <trkpt lat="43.53175" lon="6.77277">
        <ele>115</ele>
        <time>2009-06-07T13:57:29Z</time>
      </trkpt>
      <trkpt lat="43.53192" lon="6.77277">
        <ele>115</ele>
        <time>2009-06-07T13:57:32Z</time>
      </trkpt>
      <trkpt lat="43.53199" lon="6.77278">
        <ele>115</ele>
        <time>2009-06-07T13:57:33Z</time>
      </trkpt>
      <trkpt lat="43.53216" lon="6.77277">
        <ele>116</ele>
        <time>2009-06-07T13:57:36Z</time>
      </trkpt>
      <trkpt lat="43.53257" lon="6.7728">
        <ele>114</ele>
        <time>2009-06-07T13:57:44Z</time>
      </trkpt>
      <trkpt lat="43.53263" lon="6.7728">
        <ele>114</ele>
        <time>2009-06-07T13:57:45Z</time>
      </trkpt>
      <trkpt lat="43.53279" lon="6.77284">
        <ele>114</ele>
        <time>2009-06-07T13:57:48Z</time>
      </trkpt>
      <trkpt lat="43.53293" lon="6.77289">
        <ele>114</ele>
        <time>2009-06-07T13:57:51Z</time>
      </trkpt>
      <trkpt lat="43.53309" lon="6.77296">
        <ele>114</ele>
        <time>2009-06-07T13:57:54Z</time>
      </trkpt>
      <trkpt lat="43.53322" lon="6.77304">
        <ele>114</ele>
        <time>2009-06-07T13:57:57Z</time>
      </trkpt>
      <trkpt lat="43.53335" lon="6.77312">
        <ele>114</ele>
        <time>2009-06-07T13:58:00Z</time>
      </trkpt>
      <trkpt lat="43.53348" lon="6.77323">
        <ele>114</ele>
        <time>2009-06-07T13:58:03Z</time>
      </trkpt>
      <trkpt lat="43.53362" lon="6.77329">
        <ele>114</ele>
        <time>2009-06-07T13:58:06Z</time>
      </trkpt>
      <trkpt lat="43.53375" lon="6.77336">
        <ele>114</ele>
        <time>2009-06-07T13:58:09Z</time>
      </trkpt>
      <trkpt lat="43.534" lon="6.77339">
        <ele>114</ele>
        <time>2009-06-07T13:58:14Z</time>
      </trkpt>
      <trkpt lat="43.53414" lon="6.77341">
        <ele>115</ele>
        <time>2009-06-07T13:58:17Z</time>
      </trkpt>
      <trkpt lat="43.53428" lon="6.77344">
        <ele>115</ele>
        <time>2009-06-07T13:58:20Z</time>
      </trkpt>
      <trkpt lat="43.53442" lon="6.77348">
        <ele>116</ele>
        <time>2009-06-07T13:58:23Z</time>
      </trkpt>
      <trkpt lat="43.53455" lon="6.77351">
        <ele>117</ele>
        <time>2009-06-07T13:58:26Z</time>
      </trkpt>
      <trkpt lat="43.53467" lon="6.77353">
        <ele>117</ele>
        <time>2009-06-07T13:58:29Z</time>
      </trkpt>
      <trkpt lat="43.5348" lon="6.77357">
        <ele>117</ele>
        <time>2009-06-07T13:58:32Z</time>
      </trkpt>
      <trkpt lat="43.53491" lon="6.77361">
        <ele>118</ele>
        <time>2009-06-07T13:58:35Z</time>
      </trkpt>
      <trkpt lat="43.53505" lon="6.77366">
        <ele>117</ele>
        <time>2009-06-07T13:58:38Z</time>
      </trkpt>
      <trkpt lat="43.5352" lon="6.77373">
        <ele>118</ele>
        <time>2009-06-07T13:58:41Z</time>
      </trkpt>
      <trkpt lat="43.53554" lon="6.77389">
        <ele>118</ele>
        <time>2009-06-07T13:58:49Z</time>
      </trkpt>
      <trkpt lat="43.53569" lon="6.77397">
        <ele>117</ele>
        <time>2009-06-07T13:58:52Z</time>
      </trkpt>
      <trkpt lat="43.53583" lon="6.77405">
        <ele>118</ele>
        <time>2009-06-07T13:58:55Z</time>
      </trkpt>
      <trkpt lat="43.53597" lon="6.77412">
        <ele>118</ele>
        <time>2009-06-07T13:58:58Z</time>
      </trkpt>
      <trkpt lat="43.53611" lon="6.77418">
        <ele>119</ele>
        <time>2009-06-07T13:59:01Z</time>
      </trkpt>
      <trkpt lat="43.53627" lon="6.77425">
        <ele>120</ele>
        <time>2009-06-07T13:59:04Z</time>
      </trkpt>
      <trkpt lat="43.53641" lon="6.77433">
        <ele>120</ele>
        <time>2009-06-07T13:59:07Z</time>
      </trkpt>
      <trkpt lat="43.53654" lon="6.77441">
        <ele>120</ele>
        <time>2009-06-07T13:59:10Z</time>
      </trkpt>
      <trkpt lat="43.53684" lon="6.77459">
        <ele>120</ele>
        <time>2009-06-07T13:59:16Z</time>
      </trkpt>
      <trkpt lat="43.53698" lon="6.77469">
        <ele>120</ele>
        <time>2009-06-07T13:59:19Z</time>
      </trkpt>
      <trkpt lat="43.53712" lon="6.7748">
        <ele>120</ele>
        <time>2009-06-07T13:59:22Z</time>
      </trkpt>
      <trkpt lat="43.53727" lon="6.77492">
        <ele>118</ele>
        <time>2009-06-07T13:59:25Z</time>
      </trkpt>
      <trkpt lat="43.53742" lon="6.77502">
        <ele>119</ele>
        <time>2009-06-07T13:59:28Z</time>
      </trkpt>
      <trkpt lat="43.53755" lon="6.77512">
        <ele>119</ele>
        <time>2009-06-07T13:59:31Z</time>
      </trkpt>
      <trkpt lat="43.5377" lon="6.77522">
        <ele>119</ele>
        <time>2009-06-07T13:59:34Z</time>
      </trkpt>
      <trkpt lat="43.53782" lon="6.77532">
        <ele>120</ele>
        <time>2009-06-07T13:59:37Z</time>
      </trkpt>
      <trkpt lat="43.53794" lon="6.77541">
        <ele>119</ele>
        <time>2009-06-07T13:59:40Z</time>
      </trkpt>
      <trkpt lat="43.53828" lon="6.77564">
        <ele>119</ele>
        <time>2009-06-07T13:59:48Z</time>
      </trkpt>
      <trkpt lat="43.53841" lon="6.77575">
        <ele>119</ele>
        <time>2009-06-07T13:59:51Z</time>
      </trkpt>
      <trkpt lat="43.53852" lon="6.77583">
        <ele>119</ele>
        <time>2009-06-07T13:59:54Z</time>
      </trkpt>
      <trkpt lat="43.53865" lon="6.77592">
        <ele>119</ele>
        <time>2009-06-07T13:59:57Z</time>
      </trkpt>
      <trkpt lat="43.53876" lon="6.77599">
        <ele>119</ele>
        <time>2009-06-07T14:00:00Z</time>
      </trkpt>
      <trkpt lat="43.53886" lon="6.77608">
        <ele>120</ele>
        <time>2009-06-07T14:00:03Z</time>
      </trkpt>
      <trkpt lat="43.53897" lon="6.77616">
        <ele>120</ele>
        <time>2009-06-07T14:00:06Z</time>
      </trkpt>
      <trkpt lat="43.53909" lon="6.77624">
        <ele>120</ele>
        <time>2009-06-07T14:00:09Z</time>
      </trkpt>
      <trkpt lat="43.53931" lon="6.77639">
        <ele>120</ele>
        <time>2009-06-07T14:00:14Z</time>
      </trkpt>
      <trkpt lat="43.53945" lon="6.77648">
        <ele>121</ele>
        <time>2009-06-07T14:00:17Z</time>
      </trkpt>
      <trkpt lat="43.5396" lon="6.77656">
        <ele>121</ele>
        <time>2009-06-07T14:00:20Z</time>
      </trkpt>
      <trkpt lat="43.53976" lon="6.77662">
        <ele>122</ele>
        <time>2009-06-07T14:00:23Z</time>
      </trkpt>
      <trkpt lat="43.53992" lon="6.77668">
        <ele>123</ele>
        <time>2009-06-07T14:00:26Z</time>
      </trkpt>
      <trkpt lat="43.54008" lon="6.77675">
        <ele>124</ele>
        <time>2009-06-07T14:00:29Z</time>
      </trkpt>
      <trkpt lat="43.54023" lon="6.77684">
        <ele>125</ele>
        <time>2009-06-07T14:00:32Z</time>
      </trkpt>
      <trkpt lat="43.54036" lon="6.77691">
        <ele>126</ele>
        <time>2009-06-07T14:00:35Z</time>
      </trkpt>
      <trkpt lat="43.54045" lon="6.77693">
        <ele>127</ele>
        <time>2009-06-07T14:00:38Z</time>
      </trkpt>
      <trkpt lat="43.54052" lon="6.77697">
        <ele>127</ele>
        <time>2009-06-07T14:00:46Z</time>
      </trkpt>
      <trkpt lat="43.54048" lon="6.77693">
        <ele>130</ele>
        <time>2009-06-07T14:00:52Z</time>
      </trkpt>
      <trkpt lat="43.54055" lon="6.77686">
        <ele>135</ele>
        <time>2009-06-07T14:01:15Z</time>
      </trkpt>
      <trkpt lat="43.5406" lon="6.77684">
        <ele>134</ele>
        <time>2009-06-07T14:01:19Z</time>
      </trkpt>
      <trkpt lat="43.54067" lon="6.7768">
        <ele>135</ele>
        <time>2009-06-07T14:01:22Z</time>
      </trkpt>
      <trkpt lat="43.54075" lon="6.77676">
        <ele>135</ele>
        <time>2009-06-07T14:01:25Z</time>
      </trkpt>
      <trkpt lat="43.54085" lon="6.77672">
        <ele>135</ele>
        <time>2009-06-07T14:01:28Z</time>
      </trkpt>
      <trkpt lat="43.54089" lon="6.7767">
        <ele>136</ele>
        <time>2009-06-07T14:01:31Z</time>
      </trkpt>
      <trkpt lat="43.54103" lon="6.77668">
        <ele>133</ele>
        <time>2009-06-07T14:01:48Z</time>
      </trkpt>
      <trkpt lat="43.54113" lon="6.77662">
        <ele>133</ele>
        <time>2009-06-07T14:01:51Z</time>
      </trkpt>
      <trkpt lat="43.5412" lon="6.77659">
        <ele>134</ele>
        <time>2009-06-07T14:01:54Z</time>
      </trkpt>
      <trkpt lat="43.54132" lon="6.77654">
        <ele>134</ele>
        <time>2009-06-07T14:01:57Z</time>
      </trkpt>
      <trkpt lat="43.54143" lon="6.77652">
        <ele>135</ele>
        <time>2009-06-07T14:02:00Z</time>
      </trkpt>
      <trkpt lat="43.54154" lon="6.77652">
        <ele>135</ele>
        <time>2009-06-07T14:02:03Z</time>
      </trkpt>
      <trkpt lat="43.54165" lon="6.77649">
        <ele>135</ele>
        <time>2009-06-07T14:02:06Z</time>
      </trkpt>
      <trkpt lat="43.54176" lon="6.77646">
        <ele>136</ele>
        <time>2009-06-07T14:02:09Z</time>
      </trkpt>
      <trkpt lat="43.54192" lon="6.77635">
        <ele>136</ele>
        <time>2009-06-07T14:02:14Z</time>
      </trkpt>
      <trkpt lat="43.542" lon="6.77627">
        <ele>137</ele>
        <time>2009-06-07T14:02:17Z</time>
      </trkpt>
      <trkpt lat="43.54211" lon="6.77618">
        <ele>136</ele>
        <time>2009-06-07T14:02:20Z</time>
      </trkpt>
      <trkpt lat="43.54222" lon="6.77615">
        <ele>137</ele>
        <time>2009-06-07T14:02:23Z</time>
      </trkpt>
      <trkpt lat="43.54233" lon="6.77614">
        <ele>136</ele>
        <time>2009-06-07T14:02:26Z</time>
      </trkpt>
      <trkpt lat="43.54247" lon="6.77615">
        <ele>136</ele>
        <time>2009-06-07T14:02:29Z</time>
      </trkpt>
      <trkpt lat="43.54258" lon="6.77616">
        <ele>136</ele>
        <time>2009-06-07T14:02:32Z</time>
      </trkpt>
      <trkpt lat="43.54268" lon="6.77618">
        <ele>137</ele>
        <time>2009-06-07T14:02:35Z</time>
      </trkpt>
      <trkpt lat="43.54279" lon="6.77619">
        <ele>137</ele>
        <time>2009-06-07T14:02:38Z</time>
      </trkpt>
      <trkpt lat="43.54307" lon="6.77619">
        <ele>140</ele>
        <time>2009-06-07T14:02:46Z</time>
      </trkpt>
      <trkpt lat="43.54317" lon="6.77618">
        <ele>140</ele>
        <time>2009-06-07T14:02:49Z</time>
      </trkpt>
      <trkpt lat="43.54335" lon="6.77602">
        <ele>138</ele>
        <time>2009-06-07T14:02:53Z</time>
      </trkpt>
      <trkpt lat="43.54334" lon="6.77595">
        <ele>138</ele>
        <time>2009-06-07T14:02:54Z</time>
      </trkpt>
      <trkpt lat="43.54343" lon="6.77583">
        <ele>138</ele>
        <time>2009-06-07T14:02:57Z</time>
      </trkpt>
      <trkpt lat="43.54347" lon="6.7758">
        <ele>140</ele>
        <time>2009-06-07T14:02:58Z</time>
      </trkpt>
      <trkpt lat="43.54355" lon="6.7757">
        <ele>140</ele>
        <time>2009-06-07T14:03:01Z</time>
      </trkpt>
      <trkpt lat="43.54367" lon="6.7756">
        <ele>140</ele>
        <time>2009-06-07T14:03:05Z</time>
      </trkpt>
      <trkpt lat="43.54375" lon="6.77551">
        <ele>140</ele>
        <time>2009-06-07T14:03:08Z</time>
      </trkpt>
      <trkpt lat="43.54391" lon="6.77562">
        <ele>140</ele>
        <time>2009-06-07T14:03:09Z</time>
      </trkpt>
      <trkpt lat="43.54411" lon="6.77558">
        <ele>141</ele>
        <time>2009-06-07T14:03:14Z</time>
      </trkpt>
      <trkpt lat="43.5443" lon="6.77553">
        <ele>142</ele>
        <time>2009-06-07T14:03:18Z</time>
      </trkpt>
      <trkpt lat="43.54435" lon="6.77552">
        <ele>142</ele>
        <time>2009-06-07T14:03:19Z</time>
      </trkpt>
      <trkpt lat="43.54446" lon="6.77546">
        <ele>143</ele>
        <time>2009-06-07T14:03:22Z</time>
      </trkpt>
      <trkpt lat="43.54452" lon="6.77544">
        <ele>145</ele>
        <time>2009-06-07T14:03:23Z</time>
      </trkpt>
      <trkpt lat="43.54463" lon="6.77537">
        <ele>145</ele>
        <time>2009-06-07T14:03:26Z</time>
      </trkpt>
      <trkpt lat="43.54471" lon="6.77535">
        <ele>146</ele>
        <time>2009-06-07T14:03:27Z</time>
      </trkpt>
      <trkpt lat="43.54484" lon="6.77528">
        <ele>146</ele>
        <time>2009-06-07T14:03:30Z</time>
      </trkpt>
      <trkpt lat="43.54489" lon="6.77525">
        <ele>145</ele>
        <time>2009-06-07T14:03:31Z</time>
      </trkpt>
      <trkpt lat="43.545" lon="6.77517">
        <ele>145</ele>
        <time>2009-06-07T14:03:34Z</time>
      </trkpt>
      <trkpt lat="43.54505" lon="6.7751">
        <ele>144</ele>
        <time>2009-06-07T14:03:35Z</time>
      </trkpt>
      <trkpt lat="43.54531" lon="6.77465">
        <ele>145</ele>
        <time>2009-06-07T14:03:44Z</time>
      </trkpt>
      <trkpt lat="43.54535" lon="6.77458">
        <ele>145</ele>
        <time>2009-06-07T14:03:45Z</time>
      </trkpt>
      <trkpt lat="43.54543" lon="6.77444">
        <ele>145</ele>
        <time>2009-06-07T14:03:48Z</time>
      </trkpt>
      <trkpt lat="43.54548" lon="6.7744">
        <ele>147</ele>
        <time>2009-06-07T14:03:49Z</time>
      </trkpt>
      <trkpt lat="43.54556" lon="6.77428">
        <ele>147</ele>
        <time>2009-06-07T14:03:52Z</time>
      </trkpt>
      <trkpt lat="43.54567" lon="6.77417">
        <ele>148</ele>
        <time>2009-06-07T14:03:56Z</time>
      </trkpt>
      <trkpt lat="43.54573" lon="6.77409">
        <ele>149</ele>
        <time>2009-06-07T14:03:57Z</time>
      </trkpt>
      <trkpt lat="43.54581" lon="6.77398">
        <ele>149</ele>
        <time>2009-06-07T14:04:00Z</time>
      </trkpt>
      <trkpt lat="43.54585" lon="6.77389">
        <ele>149</ele>
        <time>2009-06-07T14:04:01Z</time>
      </trkpt>
      <trkpt lat="43.54611" lon="6.77344">
        <ele>149</ele>
        <time>2009-06-07T14:04:10Z</time>
      </trkpt>
      <trkpt lat="43.54617" lon="6.77335">
        <ele>148</ele>
        <time>2009-06-07T14:04:11Z</time>
      </trkpt>
      <trkpt lat="43.54631" lon="6.77314">
        <ele>149</ele>
        <time>2009-06-07T14:04:15Z</time>
      </trkpt>
      <trkpt lat="43.5464" lon="6.77301">
        <ele>149</ele>
        <time>2009-06-07T14:04:18Z</time>
      </trkpt>
      <trkpt lat="43.54645" lon="6.77293">
        <ele>148</ele>
        <time>2009-06-07T14:04:19Z</time>
      </trkpt>
      <trkpt lat="43.54654" lon="6.77281">
        <ele>148</ele>
        <time>2009-06-07T14:04:22Z</time>
      </trkpt>
      <trkpt lat="43.54665" lon="6.77266">
        <ele>149</ele>
        <time>2009-06-07T14:04:26Z</time>
      </trkpt>
      <trkpt lat="43.54672" lon="6.77253">
        <ele>151</ele>
        <time>2009-06-07T14:04:30Z</time>
      </trkpt>
      <trkpt lat="43.54678" lon="6.77248">
        <ele>154</ele>
        <time>2009-06-07T14:04:31Z</time>
      </trkpt>
      <trkpt lat="43.54711" lon="6.77212">
        <ele>150</ele>
        <time>2009-06-07T14:04:40Z</time>
      </trkpt>
      <trkpt lat="43.54719" lon="6.77203">
        <ele>149</ele>
        <time>2009-06-07T14:04:41Z</time>
      </trkpt>
      <trkpt lat="43.54728" lon="6.77192">
        <ele>149</ele>
        <time>2009-06-07T14:04:44Z</time>
      </trkpt>
      <trkpt lat="43.54737" lon="6.77188">
        <ele>148</ele>
        <time>2009-06-07T14:04:45Z</time>
      </trkpt>
      <trkpt lat="43.54748" lon="6.77177">
        <ele>148</ele>
        <time>2009-06-07T14:04:48Z</time>
      </trkpt>
      <trkpt lat="43.5475" lon="6.7717">
        <ele>148</ele>
        <time>2009-06-07T14:04:49Z</time>
      </trkpt>
      <trkpt lat="43.54759" lon="6.77158">
        <ele>148</ele>
        <time>2009-06-07T14:04:52Z</time>
      </trkpt>
      <trkpt lat="43.54763" lon="6.77153">
        <ele>149</ele>
        <time>2009-06-07T14:04:53Z</time>
      </trkpt>
      <trkpt lat="43.54771" lon="6.77141">
        <ele>149</ele>
        <time>2009-06-07T14:04:56Z</time>
      </trkpt>
      <trkpt lat="43.54792" lon="6.771">
        <ele>147</ele>
        <time>2009-06-07T14:05:06Z</time>
      </trkpt>
      <trkpt lat="43.54796" lon="6.77092">
        <ele>147</ele>
        <time>2009-06-07T14:05:07Z</time>
      </trkpt>
      <trkpt lat="43.54803" lon="6.77079">
        <ele>147</ele>
        <time>2009-06-07T14:05:10Z</time>
      </trkpt>
      <trkpt lat="43.54806" lon="6.77072">
        <ele>148</ele>
        <time>2009-06-07T14:05:11Z</time>
      </trkpt>
      <trkpt lat="43.54811" lon="6.77048">
        <ele>147</ele>
        <time>2009-06-07T14:05:15Z</time>
      </trkpt>
      <trkpt lat="43.54815" lon="6.77035">
        <ele>147</ele>
        <time>2009-06-07T14:05:18Z</time>
      </trkpt>
      <trkpt lat="43.54816" lon="6.77026">
        <ele>147</ele>
        <time>2009-06-07T14:05:19Z</time>
      </trkpt>
      <trkpt lat="43.54819" lon="6.77012">
        <ele>147</ele>
        <time>2009-06-07T14:05:22Z</time>
      </trkpt>
      <trkpt lat="43.54822" lon="6.76998">
        <ele>147</ele>
        <time>2009-06-07T14:05:25Z</time>
      </trkpt>
      <trkpt lat="43.54827" lon="6.76997">
        <ele>148</ele>
        <time>2009-06-07T14:05:26Z</time>
      </trkpt>
      <trkpt lat="43.5483" lon="6.76985">
        <ele>148</ele>
        <time>2009-06-07T14:05:29Z</time>
      </trkpt>
      <trkpt lat="43.54833" lon="6.76962">
        <ele>148</ele>
        <time>2009-06-07T14:05:33Z</time>
      </trkpt>
      <trkpt lat="43.54835" lon="6.76953">
        <ele>149</ele>
        <time>2009-06-07T14:05:34Z</time>
      </trkpt>
      <trkpt lat="43.54848" lon="6.76909">
        <ele>147</ele>
        <time>2009-06-07T14:05:43Z</time>
      </trkpt>
      <trkpt lat="43.54847" lon="6.76902">
        <ele>146</ele>
        <time>2009-06-07T14:05:44Z</time>
      </trkpt>
      <trkpt lat="43.54851" lon="6.76891">
        <ele>146</ele>
        <time>2009-06-07T14:05:47Z</time>
      </trkpt>
      <trkpt lat="43.54857" lon="6.76877">
        <ele>146</ele>
        <time>2009-06-07T14:05:51Z</time>
      </trkpt>
      <trkpt lat="43.54858" lon="6.7687">
        <ele>147</ele>
        <time>2009-06-07T14:05:52Z</time>
      </trkpt>
      <trkpt lat="43.54862" lon="6.76861">
        <ele>147</ele>
        <time>2009-06-07T14:05:55Z</time>
      </trkpt>
      <trkpt lat="43.54866" lon="6.76847">
        <ele>147</ele>
        <time>2009-06-07T14:05:59Z</time>
      </trkpt>
      <trkpt lat="43.54899" lon="6.76853">
        <ele>148</ele>
        <time>2009-06-07T14:06:09Z</time>
      </trkpt>
      <trkpt lat="43.54904" lon="6.76857">
        <ele>148</ele>
        <time>2009-06-07T14:06:10Z</time>
      </trkpt>
      <trkpt lat="43.54909" lon="6.7688">
        <ele>149</ele>
        <time>2009-06-07T14:06:16Z</time>
      </trkpt>
      <trkpt lat="43.54911" lon="6.76894">
        <ele>149</ele>
        <time>2009-06-07T14:06:18Z</time>
      </trkpt>
      <trkpt lat="43.54912" lon="6.76905">
        <ele>149</ele>
        <time>2009-06-07T14:06:22Z</time>
      </trkpt>
      <trkpt lat="43.54914" lon="6.76918">
        <ele>149</ele>
        <time>2009-06-07T14:06:25Z</time>
      </trkpt>
      <trkpt lat="43.54918" lon="6.76929">
        <ele>150</ele>
        <time>2009-06-07T14:06:28Z</time>
      </trkpt>
      <trkpt lat="43.54923" lon="6.76942">
        <ele>149</ele>
        <time>2009-06-07T14:06:31Z</time>
      </trkpt>
      <trkpt lat="43.54928" lon="6.76951">
        <ele>148</ele>
        <time>2009-06-07T14:06:34Z</time>
      </trkpt>
      <trkpt lat="43.54932" lon="6.76963">
        <ele>148</ele>
        <time>2009-06-07T14:06:37Z</time>
      </trkpt>
      <trkpt lat="43.54938" lon="6.76973">
        <ele>148</ele>
        <time>2009-06-07T14:06:40Z</time>
      </trkpt>
      <trkpt lat="43.54956" lon="6.76995">
        <ele>148</ele>
        <time>2009-06-07T14:06:48Z</time>
      </trkpt>
      <trkpt lat="43.54965" lon="6.76999">
        <ele>149</ele>
        <time>2009-06-07T14:06:51Z</time>
      </trkpt>
      <trkpt lat="43.54974" lon="6.77002">
        <ele>149</ele>
        <time>2009-06-07T14:06:53Z</time>
      </trkpt>
      <trkpt lat="43.54986" lon="6.77004">
        <ele>149</ele>
        <time>2009-06-07T14:06:56Z</time>
      </trkpt>
      <trkpt lat="43.54996" lon="6.7701">
        <ele>149</ele>
        <time>2009-06-07T14:06:59Z</time>
      </trkpt>
      <trkpt lat="43.55004" lon="6.77018">
        <ele>150</ele>
        <time>2009-06-07T14:07:02Z</time>
      </trkpt>
      <trkpt lat="43.55009" lon="6.77032">
        <ele>151</ele>
        <time>2009-06-07T14:07:06Z</time>
      </trkpt>
      <trkpt lat="43.55017" lon="6.77045">
        <ele>151</ele>
        <time>2009-06-07T14:07:09Z</time>
      </trkpt>
      <trkpt lat="43.55037" lon="6.7706">
        <ele>151</ele>
        <time>2009-06-07T14:07:14Z</time>
      </trkpt>
      <trkpt lat="43.55049" lon="6.77059">
        <ele>152</ele>
        <time>2009-06-07T14:07:17Z</time>
      </trkpt>
      <trkpt lat="43.55063" lon="6.77061">
        <ele>154</ele>
        <time>2009-06-07T14:07:20Z</time>
      </trkpt>
      <trkpt lat="43.55072" lon="6.77069">
        <ele>154</ele>
        <time>2009-06-07T14:07:23Z</time>
      </trkpt>
      <trkpt lat="43.55074" lon="6.77084">
        <ele>155</ele>
        <time>2009-06-07T14:07:26Z</time>
      </trkpt>
      <trkpt lat="43.5507" lon="6.77099">
        <ele>155</ele>
        <time>2009-06-07T14:07:29Z</time>
      </trkpt>
      <trkpt lat="43.55064" lon="6.7712">
        <ele>156</ele>
        <time>2009-06-07T14:07:32Z</time>
      </trkpt>
      <trkpt lat="43.55057" lon="6.77146">
        <ele>153</ele>
        <time>2009-06-07T14:07:35Z</time>
      </trkpt>
      <trkpt lat="43.55052" lon="6.77171">
        <ele>154</ele>
        <time>2009-06-07T14:07:38Z</time>
      </trkpt>
      <trkpt lat="43.55072" lon="6.77244">
        <ele>153</ele>
        <time>2009-06-07T14:07:47Z</time>
      </trkpt>
      <trkpt lat="43.5508" lon="6.77252">
        <ele>151</ele>
        <time>2009-06-07T14:07:48Z</time>
      </trkpt>
      <trkpt lat="43.55099" lon="6.77272">
        <ele>151</ele>
        <time>2009-06-07T14:07:51Z</time>
      </trkpt>
      <trkpt lat="43.55116" lon="6.77285">
        <ele>151</ele>
        <time>2009-06-07T14:07:53Z</time>
      </trkpt>
      <trkpt lat="43.55133" lon="6.77299">
        <ele>150</ele>
        <time>2009-06-07T14:07:57Z</time>
      </trkpt>
      <trkpt lat="43.55147" lon="6.77317">
        <ele>150</ele>
        <time>2009-06-07T14:08:00Z</time>
      </trkpt>
      <trkpt lat="43.55161" lon="6.77336">
        <ele>150</ele>
        <time>2009-06-07T14:08:02Z</time>
      </trkpt>
      <trkpt lat="43.55176" lon="6.77351">
        <ele>151</ele>
        <time>2009-06-07T14:08:06Z</time>
      </trkpt>
      <trkpt lat="43.55191" lon="6.77365">
        <ele>150</ele>
        <time>2009-06-07T14:08:09Z</time>
      </trkpt>
      <trkpt lat="43.55213" lon="6.77388">
        <ele>149</ele>
        <time>2009-06-07T14:08:14Z</time>
      </trkpt>
      <trkpt lat="43.55227" lon="6.77399">
        <ele>149</ele>
        <time>2009-06-07T14:08:16Z</time>
      </trkpt>
      <trkpt lat="43.55241" lon="6.77412">
        <ele>148</ele>
        <time>2009-06-07T14:08:20Z</time>
      </trkpt>
      <trkpt lat="43.5525" lon="6.77431">
        <ele>147</ele>
        <time>2009-06-07T14:08:23Z</time>
      </trkpt>
      <trkpt lat="43.55258" lon="6.77451">
        <ele>146</ele>
        <time>2009-06-07T14:08:26Z</time>
      </trkpt>
      <trkpt lat="43.55266" lon="6.77469">
        <ele>146</ele>
        <time>2009-06-07T14:08:29Z</time>
      </trkpt>
      <trkpt lat="43.55274" lon="6.77483">
        <ele>146</ele>
        <time>2009-06-07T14:08:32Z</time>
      </trkpt>
      <trkpt lat="43.55285" lon="6.77495">
        <ele>146</ele>
        <time>2009-06-07T14:08:35Z</time>
      </trkpt>
      <trkpt lat="43.55295" lon="6.77505">
        <ele>146</ele>
        <time>2009-06-07T14:08:38Z</time>
      </trkpt>
      <trkpt lat="43.55318" lon="6.7751">
        <ele>147</ele>
        <time>2009-06-07T14:08:46Z</time>
      </trkpt>
      <trkpt lat="43.55327" lon="6.77507">
        <ele>150</ele>
        <time>2009-06-07T14:08:49Z</time>
      </trkpt>
      <trkpt lat="43.55336" lon="6.77507">
        <ele>150</ele>
        <time>2009-06-07T14:08:52Z</time>
      </trkpt>
      <trkpt lat="43.55346" lon="6.77509">
        <ele>150</ele>
        <time>2009-06-07T14:08:55Z</time>
      </trkpt>
      <trkpt lat="43.55354" lon="6.77514">
        <ele>151</ele>
        <time>2009-06-07T14:08:58Z</time>
      </trkpt>
      <trkpt lat="43.5536" lon="6.77523">
        <ele>151</ele>
        <time>2009-06-07T14:09:01Z</time>
      </trkpt>
      <trkpt lat="43.55366" lon="6.77535">
        <ele>151</ele>
        <time>2009-06-07T14:09:04Z</time>
      </trkpt>
      <trkpt lat="43.55371" lon="6.77544">
        <ele>151</ele>
        <time>2009-06-07T14:09:07Z</time>
      </trkpt>
      <trkpt lat="43.55376" lon="6.77553">
        <ele>151</ele>
        <time>2009-06-07T14:09:10Z</time>
      </trkpt>
      <trkpt lat="43.55387" lon="6.77575">
        <ele>151</ele>
        <time>2009-06-07T14:09:16Z</time>
      </trkpt>
      <trkpt lat="43.55394" lon="6.77586">
        <ele>151</ele>
        <time>2009-06-07T14:09:19Z</time>
      </trkpt>
      <trkpt lat="43.55399" lon="6.77598">
        <ele>151</ele>
        <time>2009-06-07T14:09:22Z</time>
      </trkpt>
      <trkpt lat="43.55404" lon="6.77609">
        <ele>153</ele>
        <time>2009-06-07T14:09:25Z</time>
      </trkpt>
      <trkpt lat="43.55408" lon="6.77622">
        <ele>153</ele>
        <time>2009-06-07T14:09:28Z</time>
      </trkpt>
      <trkpt lat="43.55414" lon="6.77633">
        <ele>153</ele>
        <time>2009-06-07T14:09:31Z</time>
      </trkpt>
      <trkpt lat="43.5542" lon="6.77644">
        <ele>154</ele>
        <time>2009-06-07T14:09:34Z</time>
      </trkpt>
      <trkpt lat="43.55427" lon="6.77655">
        <ele>155</ele>
        <time>2009-06-07T14:09:37Z</time>
      </trkpt>
      <trkpt lat="43.55434" lon="6.77664">
        <ele>155</ele>
        <time>2009-06-07T14:09:40Z</time>
      </trkpt>
      <trkpt lat="43.55444" lon="6.77676">
        <ele>157</ele>
        <time>2009-06-07T14:09:48Z</time>
      </trkpt>
      <trkpt lat="43.55448" lon="6.77679">
        <ele>159</ele>
        <time>2009-06-07T14:09:57Z</time>
      </trkpt>
      <trkpt lat="43.55453" lon="6.77679">
        <ele>161</ele>
        <time>2009-06-07T14:10:14Z</time>
      </trkpt>
      <trkpt lat="43.55449" lon="6.77676">
        <ele>161</ele>
        <time>2009-06-07T14:10:35Z</time>
      </trkpt>
      <trkpt lat="43.5545" lon="6.77675">
        <ele>163</ele>
        <time>2009-06-07T14:11:04Z</time>
      </trkpt>
      <trkpt lat="43.55462" lon="6.77676">
        <ele>163</ele>
        <time>2009-06-07T14:11:07Z</time>
      </trkpt>
      <trkpt lat="43.5547" lon="6.77677">
        <ele>163</ele>
        <time>2009-06-07T14:11:10Z</time>
      </trkpt>
      <trkpt lat="43.55491" lon="6.77686">
        <ele>164</ele>
        <time>2009-06-07T14:11:16Z</time>
      </trkpt>
      <trkpt lat="43.55499" lon="6.77694">
        <ele>163</ele>
        <time>2009-06-07T14:11:19Z</time>
      </trkpt>
      <trkpt lat="43.55505" lon="6.77706">
        <ele>163</ele>
        <time>2009-06-07T14:11:22Z</time>
      </trkpt>
      <trkpt lat="43.55509" lon="6.77721">
        <ele>162</ele>
        <time>2009-06-07T14:11:25Z</time>
      </trkpt>
      <trkpt lat="43.55514" lon="6.77737">
        <ele>162</ele>
        <time>2009-06-07T14:11:28Z</time>
      </trkpt>
      <trkpt lat="43.55515" lon="6.77753">
        <ele>162</ele>
        <time>2009-06-07T14:11:31Z</time>
      </trkpt>
      <trkpt lat="43.55511" lon="6.77768">
        <ele>162</ele>
        <time>2009-06-07T14:11:34Z</time>
      </trkpt>
      <trkpt lat="43.55506" lon="6.77777">
        <ele>162</ele>
        <time>2009-06-07T14:11:37Z</time>
      </trkpt>
      <trkpt lat="43.55498" lon="6.77781">
        <ele>162</ele>
        <time>2009-06-07T14:11:40Z</time>
      </trkpt>
      <trkpt lat="43.55478" lon="6.7778">
        <ele>162</ele>
        <time>2009-06-07T14:11:48Z</time>
      </trkpt>
      <trkpt lat="43.55468" lon="6.77776">
        <ele>162</ele>
        <time>2009-06-07T14:11:51Z</time>
      </trkpt>
      <trkpt lat="43.5546" lon="6.77771">
        <ele>163</ele>
        <time>2009-06-07T14:11:54Z</time>
      </trkpt>
      <trkpt lat="43.5545" lon="6.77766">
        <ele>164</ele>
        <time>2009-06-07T14:11:57Z</time>
      </trkpt>
      <trkpt lat="43.55442" lon="6.77764">
        <ele>164</ele>
        <time>2009-06-07T14:12:00Z</time>
      </trkpt>
      <trkpt lat="43.55433" lon="6.7776">
        <ele>165</ele>
        <time>2009-06-07T14:12:03Z</time>
      </trkpt>
      <trkpt lat="43.55422" lon="6.77756">
        <ele>164</ele>
        <time>2009-06-07T14:12:06Z</time>
      </trkpt>
      <trkpt lat="43.55412" lon="6.77753">
        <ele>165</ele>
        <time>2009-06-07T14:12:09Z</time>
      </trkpt>
      <trkpt lat="43.55388" lon="6.77755">
        <ele>166</ele>
        <time>2009-06-07T14:12:17Z</time>
      </trkpt>
      <trkpt lat="43.55381" lon="6.77753">
        <ele>166</ele>
        <time>2009-06-07T14:12:20Z</time>
      </trkpt>
      <trkpt lat="43.55375" lon="6.77749">
        <ele>167</ele>
        <time>2009-06-07T14:12:23Z</time>
      </trkpt>
      <trkpt lat="43.55367" lon="6.77744">
        <ele>167</ele>
        <time>2009-06-07T14:12:26Z</time>
      </trkpt>
      <trkpt lat="43.55361" lon="6.7774">
        <ele>168</ele>
        <time>2009-06-07T14:12:29Z</time>
      </trkpt>
      <trkpt lat="43.55351" lon="6.77734">
        <ele>170</ele>
        <time>2009-06-07T14:12:32Z</time>
      </trkpt>
      <trkpt lat="43.55344" lon="6.7773">
        <ele>171</ele>
        <time>2009-06-07T14:12:35Z</time>
      </trkpt>
      <trkpt lat="43.55338" lon="6.77726">
        <ele>172</ele>
        <time>2009-06-07T14:12:38Z</time>
      </trkpt>
      <trkpt lat="43.55317" lon="6.77719">
        <ele>172</ele>
        <time>2009-06-07T14:12:46Z</time>
      </trkpt>
      <trkpt lat="43.55308" lon="6.77719">
        <ele>172</ele>
        <time>2009-06-07T14:12:49Z</time>
      </trkpt>
      <trkpt lat="43.55301" lon="6.77722">
        <ele>173</ele>
        <time>2009-06-07T14:12:52Z</time>
      </trkpt>
      <trkpt lat="43.55292" lon="6.77726">
        <ele>173</ele>
        <time>2009-06-07T14:12:55Z</time>
      </trkpt>
      <trkpt lat="43.55287" lon="6.77733">
        <ele>174</ele>
        <time>2009-06-07T14:12:58Z</time>
      </trkpt>
      <trkpt lat="43.55283" lon="6.77742">
        <ele>175</ele>
        <time>2009-06-07T14:13:01Z</time>
      </trkpt>
      <trkpt lat="43.55279" lon="6.77751">
        <ele>174</ele>
        <time>2009-06-07T14:13:04Z</time>
      </trkpt>
      <trkpt lat="43.55274" lon="6.77761">
        <ele>173</ele>
        <time>2009-06-07T14:13:07Z</time>
      </trkpt>
      <trkpt lat="43.5527" lon="6.7777">
        <ele>173</ele>
        <time>2009-06-07T14:13:10Z</time>
      </trkpt>
      <trkpt lat="43.55265" lon="6.77791">
        <ele>174</ele>
        <time>2009-06-07T14:13:16Z</time>
      </trkpt>
      <trkpt lat="43.55262" lon="6.77808">
        <ele>175</ele>
        <time>2009-06-07T14:13:19Z</time>
      </trkpt>
      <trkpt lat="43.5526" lon="6.77823">
        <ele>176</ele>
        <time>2009-06-07T14:13:22Z</time>
      </trkpt>
      <trkpt lat="43.55259" lon="6.77833">
        <ele>177</ele>
        <time>2009-06-07T14:13:25Z</time>
      </trkpt>
      <trkpt lat="43.55259" lon="6.77842">
        <ele>176</ele>
        <time>2009-06-07T14:13:28Z</time>
      </trkpt>
      <trkpt lat="43.55258" lon="6.77854">
        <ele>176</ele>
        <time>2009-06-07T14:13:31Z</time>
      </trkpt>
      <trkpt lat="43.55258" lon="6.77866">
        <ele>177</ele>
        <time>2009-06-07T14:13:34Z</time>
      </trkpt>
      <trkpt lat="43.55256" lon="6.77882">
        <ele>176</ele>
        <time>2009-06-07T14:13:37Z</time>
      </trkpt>
      <trkpt lat="43.55252" lon="6.779">
        <ele>175</ele>
        <time>2009-06-07T14:13:40Z</time>
      </trkpt>
      <trkpt lat="43.55234" lon="6.77942">
        <ele>175</ele>
        <time>2009-06-07T14:13:48Z</time>
      </trkpt>
      <trkpt lat="43.55223" lon="6.77954">
        <ele>174</ele>
        <time>2009-06-07T14:13:51Z</time>
      </trkpt>
      <trkpt lat="43.55214" lon="6.7797">
        <ele>173</ele>
        <time>2009-06-07T14:13:54Z</time>
      </trkpt>
      <trkpt lat="43.55204" lon="6.77986">
        <ele>173</ele>
        <time>2009-06-07T14:13:57Z</time>
      </trkpt>
      <trkpt lat="43.55196" lon="6.78002">
        <ele>173</ele>
        <time>2009-06-07T14:14:00Z</time>
      </trkpt>
      <trkpt lat="43.55186" lon="6.78025">
        <ele>172</ele>
        <time>2009-06-07T14:14:03Z</time>
      </trkpt>
      <trkpt lat="43.5518" lon="6.78052">
        <ele>172</ele>
        <time>2009-06-07T14:14:06Z</time>
      </trkpt>
      <trkpt lat="43.5518" lon="6.78082">
        <ele>171</ele>
        <time>2009-06-07T14:14:09Z</time>
      </trkpt>
      <trkpt lat="43.55178" lon="6.7813">
        <ele>169</ele>
        <time>2009-06-07T14:14:14Z</time>
      </trkpt>
      <trkpt lat="43.55182" lon="6.78162">
        <ele>168</ele>
        <time>2009-06-07T14:14:17Z</time>
      </trkpt>
      <trkpt lat="43.55182" lon="6.78192">
        <ele>168</ele>
        <time>2009-06-07T14:14:20Z</time>
      </trkpt>
      <trkpt lat="43.55178" lon="6.78217">
        <ele>167</ele>
        <time>2009-06-07T14:14:23Z</time>
      </trkpt>
      <trkpt lat="43.55175" lon="6.78236">
        <ele>167</ele>
        <time>2009-06-07T14:14:26Z</time>
      </trkpt>
      <trkpt lat="43.55174" lon="6.78249">
        <ele>165</ele>
        <time>2009-06-07T14:14:29Z</time>
      </trkpt>
      <trkpt lat="43.5517" lon="6.7826">
        <ele>165</ele>
        <time>2009-06-07T14:14:32Z</time>
      </trkpt>
      <trkpt lat="43.55167" lon="6.7827">
        <ele>164</ele>
        <time>2009-06-07T14:14:35Z</time>
      </trkpt>
      <trkpt lat="43.5517" lon="6.78277">
        <ele>163</ele>
        <time>2009-06-07T14:14:38Z</time>
      </trkpt>
      <trkpt lat="43.55183" lon="6.78275">
        <ele>160</ele>
        <time>2009-06-07T14:14:46Z</time>
      </trkpt>
      <trkpt lat="43.55188" lon="6.78269">
        <ele>160</ele>
        <time>2009-06-07T14:14:49Z</time>
      </trkpt>
      <trkpt lat="43.55198" lon="6.78272">
        <ele>159</ele>
        <time>2009-06-07T14:14:55Z</time>
      </trkpt>
      <trkpt lat="43.55209" lon="6.78273">
        <ele>156</ele>
        <time>2009-06-07T14:14:58Z</time>
      </trkpt>
      <trkpt lat="43.55214" lon="6.7828">
        <ele>156</ele>
        <time>2009-06-07T14:15:01Z</time>
      </trkpt>
      <trkpt lat="43.55221" lon="6.78285">
        <ele>156</ele>
        <time>2009-06-07T14:15:04Z</time>
      </trkpt>
      <trkpt lat="43.55226" lon="6.78287">
        <ele>157</ele>
        <time>2009-06-07T14:15:07Z</time>
      </trkpt>
      <trkpt lat="43.55235" lon="6.78293">
        <ele>158</ele>
        <time>2009-06-07T14:15:16Z</time>
      </trkpt>
      <trkpt lat="43.55229" lon="6.78289">
        <ele>157</ele>
        <time>2009-06-07T14:15:35Z</time>
      </trkpt>
      <trkpt lat="43.55229" lon="6.78282">
        <ele>159</ele>
        <time>2009-06-07T14:15:45Z</time>
      </trkpt>
      <trkpt lat="43.55228" lon="6.78281">
        <ele>159</ele>
        <time>2009-06-07T14:15:46Z</time>
      </trkpt>
      <trkpt lat="43.55225" lon="6.7828">
        <ele>160</ele>
        <time>2009-06-07T14:16:05Z</time>
      </trkpt>
      <trkpt lat="43.55223" lon="6.78278">
        <ele>161</ele>
        <time>2009-06-07T14:16:16Z</time>
      </trkpt>
      <trkpt lat="43.55223" lon="6.78278">
        <ele>161</ele>
        <time>2009-06-07T14:16:16Z</time>
      </trkpt>
      <trkpt lat="43.55225" lon="6.78278">
        <ele>160</ele>
        <time>2009-06-07T14:17:51Z</time>
      </trkpt>
      <trkpt lat="43.55208" lon="6.78272">
        <ele>152</ele>
        <time>2009-06-07T14:17:54Z</time>
      </trkpt>
      <trkpt lat="43.55202" lon="6.78268">
        <ele>154</ele>
        <time>2009-06-07T14:17:57Z</time>
      </trkpt>
      <trkpt lat="43.55193" lon="6.78269">
        <ele>153</ele>
        <time>2009-06-07T14:18:00Z</time>
      </trkpt>
      <trkpt lat="43.55188" lon="6.7827">
        <ele>153</ele>
        <time>2009-06-07T14:18:03Z</time>
      </trkpt>
      <trkpt lat="43.55172" lon="6.78282">
        <ele>154</ele>
        <time>2009-06-07T14:18:11Z</time>
      </trkpt>
      <trkpt lat="43.55167" lon="6.78293">
        <ele>154</ele>
        <time>2009-06-07T14:18:14Z</time>
      </trkpt>
      <trkpt lat="43.55163" lon="6.78304">
        <ele>155</ele>
        <time>2009-06-07T14:18:17Z</time>
      </trkpt>
      <trkpt lat="43.55159" lon="6.78317">
        <ele>155</ele>
        <time>2009-06-07T14:18:20Z</time>
      </trkpt>
      <trkpt lat="43.55156" lon="6.78329">
        <ele>155</ele>
        <time>2009-06-07T14:18:23Z</time>
      </trkpt>
      <trkpt lat="43.55152" lon="6.78339">
        <ele>156</ele>
        <time>2009-06-07T14:18:26Z</time>
      </trkpt>
      <trkpt lat="43.55149" lon="6.78349">
        <ele>156</ele>
        <time>2009-06-07T14:18:29Z</time>
      </trkpt>
      <trkpt lat="43.55147" lon="6.78356">
        <ele>156</ele>
        <time>2009-06-07T14:18:32Z</time>
      </trkpt>
      <trkpt lat="43.55151" lon="6.78363">
        <ele>156</ele>
        <time>2009-06-07T14:18:52Z</time>
      </trkpt>
      <trkpt lat="43.55163" lon="6.78362">
        <ele>156</ele>
        <time>2009-06-07T14:18:58Z</time>
      </trkpt>
      <trkpt lat="43.55171" lon="6.78366">
        <ele>155</ele>
        <time>2009-06-07T14:19:01Z</time>
      </trkpt>
      <trkpt lat="43.55179" lon="6.78368">
        <ele>154</ele>
        <time>2009-06-07T14:19:04Z</time>
      </trkpt>
      <trkpt lat="43.55189" lon="6.78368">
        <ele>154</ele>
        <time>2009-06-07T14:19:07Z</time>
      </trkpt>
      <trkpt lat="43.552" lon="6.78366">
        <ele>153</ele>
        <time>2009-06-07T14:19:10Z</time>
      </trkpt>
      <trkpt lat="43.55218" lon="6.78364">
        <ele>153</ele>
        <time>2009-06-07T14:19:16Z</time>
      </trkpt>
      <trkpt lat="43.55225" lon="6.78363">
        <ele>155</ele>
        <time>2009-06-07T14:19:19Z</time>
      </trkpt>
      <trkpt lat="43.55233" lon="6.7836">
        <ele>155</ele>
        <time>2009-06-07T14:19:22Z</time>
      </trkpt>
      <trkpt lat="43.5524" lon="6.78362">
        <ele>156</ele>
        <time>2009-06-07T14:19:25Z</time>
      </trkpt>
      <trkpt lat="43.55245" lon="6.78363">
        <ele>155</ele>
        <time>2009-06-07T14:19:28Z</time>
      </trkpt>
      <trkpt lat="43.55249" lon="6.78372">
        <ele>155</ele>
        <time>2009-06-07T14:19:34Z</time>
      </trkpt>
      <trkpt lat="43.55251" lon="6.78379">
        <ele>159</ele>
        <time>2009-06-07T14:19:37Z</time>
      </trkpt>
      <trkpt lat="43.5525" lon="6.78387">
        <ele>159</ele>
        <time>2009-06-07T14:19:40Z</time>
      </trkpt>
      <trkpt lat="43.55251" lon="6.78422">
        <ele>159</ele>
        <time>2009-06-07T14:19:48Z</time>
      </trkpt>
      <trkpt lat="43.55243" lon="6.78442">
        <ele>163</ele>
        <time>2009-06-07T14:19:51Z</time>
      </trkpt>
      <trkpt lat="43.55237" lon="6.78455">
        <ele>163</ele>
        <time>2009-06-07T14:19:54Z</time>
      </trkpt>
      <trkpt lat="43.55232" lon="6.78458">
        <ele>164</ele>
        <time>2009-06-07T14:19:57Z</time>
      </trkpt>
      <trkpt lat="43.55225" lon="6.78459">
        <ele>164</ele>
        <time>2009-06-07T14:20:00Z</time>
      </trkpt>
      <trkpt lat="43.55219" lon="6.78459">
        <ele>165</ele>
        <time>2009-06-07T14:20:03Z</time>
      </trkpt>
      <trkpt lat="43.55211" lon="6.78462">
        <ele>165</ele>
        <time>2009-06-07T14:20:06Z</time>
      </trkpt>
      <trkpt lat="43.55205" lon="6.78463">
        <ele>165</ele>
        <time>2009-06-07T14:20:09Z</time>
      </trkpt>
      <trkpt lat="43.55191" lon="6.78468">
        <ele>165</ele>
        <time>2009-06-07T14:20:14Z</time>
      </trkpt>
      <trkpt lat="43.55184" lon="6.78475">
        <ele>166</ele>
        <time>2009-06-07T14:20:16Z</time>
      </trkpt>
      <trkpt lat="43.55179" lon="6.78484">
        <ele>167</ele>
        <time>2009-06-07T14:20:20Z</time>
      </trkpt>
      <trkpt lat="43.55174" lon="6.78494">
        <ele>167</ele>
        <time>2009-06-07T14:20:23Z</time>
      </trkpt>
      <trkpt lat="43.55172" lon="6.78508">
        <ele>168</ele>
        <time>2009-06-07T14:20:26Z</time>
      </trkpt>
      <trkpt lat="43.55171" lon="6.78524">
        <ele>168</ele>
        <time>2009-06-07T14:20:29Z</time>
      </trkpt>
      <trkpt lat="43.55171" lon="6.78535">
        <ele>169</ele>
        <time>2009-06-07T14:20:32Z</time>
      </trkpt>
      <trkpt lat="43.55167" lon="6.78541">
        <ele>168</ele>
        <time>2009-06-07T14:20:35Z</time>
      </trkpt>
      <trkpt lat="43.55167" lon="6.78548">
        <ele>165</ele>
        <time>2009-06-07T14:20:46Z</time>
      </trkpt>
      <trkpt lat="43.55161" lon="6.78553">
        <ele>168</ele>
        <time>2009-06-07T14:20:49Z</time>
      </trkpt>
      <trkpt lat="43.5516" lon="6.78566">
        <ele>167</ele>
        <time>2009-06-07T14:20:52Z</time>
      </trkpt>
      <trkpt lat="43.55153" lon="6.78585">
        <ele>166</ele>
        <time>2009-06-07T14:20:55Z</time>
      </trkpt>
      <trkpt lat="43.55142" lon="6.78609">
        <ele>164</ele>
        <time>2009-06-07T14:20:58Z</time>
      </trkpt>
      <trkpt lat="43.55126" lon="6.78638">
        <ele>162</ele>
        <time>2009-06-07T14:21:01Z</time>
      </trkpt>
      <trkpt lat="43.5511" lon="6.78665">
        <ele>163</ele>
        <time>2009-06-07T14:21:04Z</time>
      </trkpt>
      <trkpt lat="43.55093" lon="6.78687">
        <ele>165</ele>
        <time>2009-06-07T14:21:07Z</time>
      </trkpt>
      <trkpt lat="43.55082" lon="6.78705">
        <ele>163</ele>
        <time>2009-06-07T14:21:09Z</time>
      </trkpt>
      <trkpt lat="43.55068" lon="6.78736">
        <ele>166</ele>
        <time>2009-06-07T14:21:16Z</time>
      </trkpt>
      <trkpt lat="43.55063" lon="6.78753">
        <ele>167</ele>
        <time>2009-06-07T14:21:19Z</time>
      </trkpt>
      <trkpt lat="43.55058" lon="6.78772">
        <ele>167</ele>
        <time>2009-06-07T14:21:22Z</time>
      </trkpt>
      <trkpt lat="43.55052" lon="6.78793">
        <ele>167</ele>
        <time>2009-06-07T14:21:25Z</time>
      </trkpt>
      <trkpt lat="43.55051" lon="6.78811">
        <ele>167</ele>
        <time>2009-06-07T14:21:28Z</time>
      </trkpt>
      <trkpt lat="43.5505" lon="6.78832">
        <ele>167</ele>
        <time>2009-06-07T14:21:31Z</time>
      </trkpt>
      <trkpt lat="43.55048" lon="6.78852">
        <ele>167</ele>
        <time>2009-06-07T14:21:34Z</time>
      </trkpt>
      <trkpt lat="43.55045" lon="6.78869">
        <ele>167</ele>
        <time>2009-06-07T14:21:37Z</time>
      </trkpt>
      <trkpt lat="43.55046" lon="6.78887">
        <ele>167</ele>
        <time>2009-06-07T14:21:40Z</time>
      </trkpt>
      <trkpt lat="43.55053" lon="6.78919">
        <ele>170</ele>
        <time>2009-06-07T14:21:48Z</time>
      </trkpt>
      <trkpt lat="43.55065" lon="6.78922">
        <ele>168</ele>
        <time>2009-06-07T14:21:54Z</time>
      </trkpt>
      <trkpt lat="43.55071" lon="6.78918">
        <ele>168</ele>
        <time>2009-06-07T14:21:57Z</time>
      </trkpt>
      <trkpt lat="43.55079" lon="6.78915">
        <ele>168</ele>
        <time>2009-06-07T14:22:00Z</time>
      </trkpt>
      <trkpt lat="43.55087" lon="6.78911">
        <ele>167</ele>
        <time>2009-06-07T14:22:03Z</time>
      </trkpt>
      <trkpt lat="43.55093" lon="6.78904">
        <ele>168</ele>
        <time>2009-06-07T14:22:06Z</time>
      </trkpt>
      <trkpt lat="43.55103" lon="6.789">
        <ele>168</ele>
        <time>2009-06-07T14:22:09Z</time>
      </trkpt>
      <trkpt lat="43.55119" lon="6.78911">
        <ele>168</ele>
        <time>2009-06-07T14:22:13Z</time>
      </trkpt>
      <trkpt lat="43.55132" lon="6.78901">
        <ele>166</ele>
        <time>2009-06-07T14:22:20Z</time>
      </trkpt>
      <trkpt lat="43.55136" lon="6.78894">
        <ele>166</ele>
        <time>2009-06-07T14:22:23Z</time>
      </trkpt>
      <trkpt lat="43.55137" lon="6.78889">
        <ele>166</ele>
        <time>2009-06-07T14:22:26Z</time>
      </trkpt>
      <trkpt lat="43.55142" lon="6.78893">
        <ele>166</ele>
        <time>2009-06-07T14:22:38Z</time>
      </trkpt>
      <trkpt lat="43.55146" lon="6.78888">
        <ele>167</ele>
        <time>2009-06-07T14:22:58Z</time>
      </trkpt>
      <trkpt lat="43.55148" lon="6.78882">
        <ele>169</ele>
        <time>2009-06-07T14:23:10Z</time>
      </trkpt>
      <trkpt lat="43.55149" lon="6.78872">
        <ele>168</ele>
        <time>2009-06-07T14:23:20Z</time>
      </trkpt>
      <trkpt lat="43.55155" lon="6.7887">
        <ele>169</ele>
        <time>2009-06-07T14:23:29Z</time>
      </trkpt>
      <trkpt lat="43.55159" lon="6.78864">
        <ele>170</ele>
        <time>2009-06-07T14:23:35Z</time>
      </trkpt>
      <trkpt lat="43.55161" lon="6.78863">
        <ele>174</ele>
        <time>2009-06-07T14:23:58Z</time>
      </trkpt>
      <trkpt lat="43.55164" lon="6.7886">
        <ele>176</ele>
        <time>2009-06-07T14:24:35Z</time>
      </trkpt>
      <trkpt lat="43.55165" lon="6.78859">
        <ele>176</ele>
        <time>2009-06-07T14:24:36Z</time>
      </trkpt>
      <trkpt lat="43.55165" lon="6.78859">
        <ele>176</ele>
        <time>2009-06-07T14:24:36Z</time>
      </trkpt>
      <trkpt lat="43.55166" lon="6.78857">
        <ele>177</ele>
        <time>2009-06-07T14:25:00Z</time>
      </trkpt>
      <trkpt lat="43.55186" lon="6.78851">
        <ele>181</ele>
        <time>2009-06-07T14:25:01Z</time>
      </trkpt>
      <trkpt lat="43.55187" lon="6.78852">
        <ele>181</ele>
        <time>2009-06-07T14:25:04Z</time>
      </trkpt>
      <trkpt lat="43.55191" lon="6.78854">
        <ele>184</ele>
        <time>2009-06-07T14:25:51Z</time>
      </trkpt>
      <trkpt lat="43.55191" lon="6.78854">
        <ele>184</ele>
        <time>2009-06-07T14:25:55Z</time>
      </trkpt>
      <trkpt lat="43.55192" lon="6.78855">
        <ele>184</ele>
        <time>2009-06-07T14:25:56Z</time>
      </trkpt>
      <trkpt lat="43.55192" lon="6.78855">
        <ele>184</ele>
        <time>2009-06-07T14:25:59Z</time>
      </trkpt>
      <trkpt lat="43.5521" lon="6.78864">
        <ele>184</ele>
        <time>2009-06-07T14:26:00Z</time>
      </trkpt>
      <trkpt lat="43.55215" lon="6.7887">
        <ele>184</ele>
        <time>2009-06-07T14:26:11Z</time>
      </trkpt>
      <trkpt lat="43.5522" lon="6.7887">
        <ele>183</ele>
        <time>2009-06-07T14:26:20Z</time>
      </trkpt>
      <trkpt lat="43.55225" lon="6.78873">
        <ele>182</ele>
        <time>2009-06-07T14:26:26Z</time>
      </trkpt>
      <trkpt lat="43.5523" lon="6.78877">
        <ele>180</ele>
        <time>2009-06-07T14:26:32Z</time>
      </trkpt>
      <trkpt lat="43.5523" lon="6.78877">
        <ele>180</ele>
        <time>2009-06-07T14:26:32Z</time>
      </trkpt>
      <trkpt lat="43.55235" lon="6.78877">
        <ele>179</ele>
        <time>2009-06-07T14:26:41Z</time>
      </trkpt>
      <trkpt lat="43.55238" lon="6.78875">
        <ele>180</ele>
        <time>2009-06-07T14:26:49Z</time>
      </trkpt>
      <trkpt lat="43.55244" lon="6.78875">
        <ele>180</ele>
        <time>2009-06-07T14:27:01Z</time>
      </trkpt>
      <trkpt lat="43.55246" lon="6.78881">
        <ele>184</ele>
        <time>2009-06-07T14:27:07Z</time>
      </trkpt>
      <trkpt lat="43.55252" lon="6.78878">
        <ele>183</ele>
        <time>2009-06-07T14:27:16Z</time>
      </trkpt>
      <trkpt lat="43.55256" lon="6.78882">
        <ele>184</ele>
        <time>2009-06-07T14:27:22Z</time>
      </trkpt>
      <trkpt lat="43.5526" lon="6.78886">
        <ele>184</ele>
        <time>2009-06-07T14:27:31Z</time>
      </trkpt>
      <trkpt lat="43.55267" lon="6.789">
        <ele>185</ele>
        <time>2009-06-07T14:28:20Z</time>
      </trkpt>
      <trkpt lat="43.5527" lon="6.78907">
        <ele>185</ele>
        <time>2009-06-07T14:28:26Z</time>
      </trkpt>
      <trkpt lat="43.55273" lon="6.78912">
        <ele>186</ele>
        <time>2009-06-07T14:28:38Z</time>
      </trkpt>
      <trkpt lat="43.55277" lon="6.78916">
        <ele>187</ele>
        <time>2009-06-07T14:28:52Z</time>
      </trkpt>
      <trkpt lat="43.55279" lon="6.78917">
        <ele>187</ele>
        <time>2009-06-07T14:29:16Z</time>
      </trkpt>
      <trkpt lat="43.5528" lon="6.78918">
        <ele>185</ele>
        <time>2009-06-07T14:29:34Z</time>
      </trkpt>
      <trkpt lat="43.55288" lon="6.78927">
        <ele>184</ele>
        <time>2009-06-07T14:29:37Z</time>
      </trkpt>
      <trkpt lat="43.55293" lon="6.78931">
        <ele>185</ele>
        <time>2009-06-07T14:29:48Z</time>
      </trkpt>
      <trkpt lat="43.55299" lon="6.78932">
        <ele>184</ele>
        <time>2009-06-07T14:29:54Z</time>
      </trkpt>
      <trkpt lat="43.55299" lon="6.7894">
        <ele>186</ele>
        <time>2009-06-07T14:30:06Z</time>
      </trkpt>
      <trkpt lat="43.55297" lon="6.78946">
        <ele>187</ele>
        <time>2009-06-07T14:30:14Z</time>
      </trkpt>
      <trkpt lat="43.55298" lon="6.78955">
        <ele>187</ele>
        <time>2009-06-07T14:30:29Z</time>
      </trkpt>
      <trkpt lat="43.55296" lon="6.78963">
        <ele>192</ele>
        <time>2009-06-07T14:30:38Z</time>
      </trkpt>
      <trkpt lat="43.55299" lon="6.78973">
        <ele>193</ele>
        <time>2009-06-07T14:30:46Z</time>
      </trkpt>
      <trkpt lat="43.55303" lon="6.78983">
        <ele>191</ele>
        <time>2009-06-07T14:30:52Z</time>
      </trkpt>
      <trkpt lat="43.55306" lon="6.78989">
        <ele>191</ele>
        <time>2009-06-07T14:30:58Z</time>
      </trkpt>
      <trkpt lat="43.55309" lon="6.78997">
        <ele>192</ele>
        <time>2009-06-07T14:31:07Z</time>
      </trkpt>
      <trkpt lat="43.55315" lon="6.79004">
        <ele>192</ele>
        <time>2009-06-07T14:31:16Z</time>
      </trkpt>
      <trkpt lat="43.5532" lon="6.79009">
        <ele>192</ele>
        <time>2009-06-07T14:31:25Z</time>
      </trkpt>
      <trkpt lat="43.55323" lon="6.79015">
        <ele>193</ele>
        <time>2009-06-07T14:31:31Z</time>
      </trkpt>
      <trkpt lat="43.55326" lon="6.79021">
        <ele>193</ele>
        <time>2009-06-07T14:31:34Z</time>
      </trkpt>
      <trkpt lat="43.55328" lon="6.79031">
        <ele>193</ele>
        <time>2009-06-07T14:31:48Z</time>
      </trkpt>
      <trkpt lat="43.55329" lon="6.79039">
        <ele>191</ele>
        <time>2009-06-07T14:31:57Z</time>
      </trkpt>
      <trkpt lat="43.55324" lon="6.79048">
        <ele>192</ele>
        <time>2009-06-07T14:32:06Z</time>
      </trkpt>
      <trkpt lat="43.55329" lon="6.79058">
        <ele>192</ele>
        <time>2009-06-07T14:32:14Z</time>
      </trkpt>
      <trkpt lat="43.5533" lon="6.79059">
        <ele>192</ele>
        <time>2009-06-07T14:32:16Z</time>
      </trkpt>
      <trkpt lat="43.55331" lon="6.79065">
        <ele>194</ele>
        <time>2009-06-07T14:32:26Z</time>
      </trkpt>
      <trkpt lat="43.55332" lon="6.79067">
        <ele>193</ele>
        <time>2009-06-07T14:32:29Z</time>
      </trkpt>
      <trkpt lat="43.55335" lon="6.79072">
        <ele>192</ele>
        <time>2009-06-07T14:32:32Z</time>
      </trkpt>
      <trkpt lat="43.55337" lon="6.79078">
        <ele>193</ele>
        <time>2009-06-07T14:32:38Z</time>
      </trkpt>
      <trkpt lat="43.55339" lon="6.79084">
        <ele>192</ele>
        <time>2009-06-07T14:32:46Z</time>
      </trkpt>
      <trkpt lat="43.55337" lon="6.79094">
        <ele>193</ele>
        <time>2009-06-07T14:32:52Z</time>
      </trkpt>
      <trkpt lat="43.55339" lon="6.79101">
        <ele>194</ele>
        <time>2009-06-07T14:32:58Z</time>
      </trkpt>
      <trkpt lat="43.55341" lon="6.79109">
        <ele>192</ele>
        <time>2009-06-07T14:33:04Z</time>
      </trkpt>
      <trkpt lat="43.55343" lon="6.79116">
        <ele>192</ele>
        <time>2009-06-07T14:33:16Z</time>
      </trkpt>
      <trkpt lat="43.55342" lon="6.79125">
        <ele>192</ele>
        <time>2009-06-07T14:33:22Z</time>
      </trkpt>
      <trkpt lat="43.55343" lon="6.79131">
        <ele>194</ele>
        <time>2009-06-07T14:33:34Z</time>
      </trkpt>
      <trkpt lat="43.55346" lon="6.7914">
        <ele>193</ele>
        <time>2009-06-07T14:33:48Z</time>
      </trkpt>
      <trkpt lat="43.5535" lon="6.79146">
        <ele>193</ele>
        <time>2009-06-07T14:33:57Z</time>
      </trkpt>
      <trkpt lat="43.55354" lon="6.7915">
        <ele>194</ele>
        <time>2009-06-07T14:34:06Z</time>
      </trkpt>
      <trkpt lat="43.55358" lon="6.79154">
        <ele>193</ele>
        <time>2009-06-07T14:34:14Z</time>
      </trkpt>
      <trkpt lat="43.5536" lon="6.79161">
        <ele>193</ele>
        <time>2009-06-07T14:34:23Z</time>
      </trkpt>
      <trkpt lat="43.55362" lon="6.79168">
        <ele>192</ele>
        <time>2009-06-07T14:34:58Z</time>
      </trkpt>
      <trkpt lat="43.55372" lon="6.79179">
        <ele>191</ele>
        <time>2009-06-07T14:35:16Z</time>
      </trkpt>
      <trkpt lat="43.55375" lon="6.79185">
        <ele>191</ele>
        <time>2009-06-07T14:35:21Z</time>
      </trkpt>
      <trkpt lat="43.5538" lon="6.79193">
        <ele>192</ele>
        <time>2009-06-07T14:35:31Z</time>
      </trkpt>
      <trkpt lat="43.55382" lon="6.79207">
        <ele>194</ele>
        <time>2009-06-07T14:35:48Z</time>
      </trkpt>
      <trkpt lat="43.55387" lon="6.79211">
        <ele>193</ele>
        <time>2009-06-07T14:35:57Z</time>
      </trkpt>
      <trkpt lat="43.55391" lon="6.79217">
        <ele>194</ele>
        <time>2009-06-07T14:36:03Z</time>
      </trkpt>
      <trkpt lat="43.55392" lon="6.79225">
        <ele>193</ele>
        <time>2009-06-07T14:36:06Z</time>
      </trkpt>
      <trkpt lat="43.55398" lon="6.79225">
        <ele>197</ele>
        <time>2009-06-07T14:36:20Z</time>
      </trkpt>
      <trkpt lat="43.55405" lon="6.79222">
        <ele>197</ele>
        <time>2009-06-07T14:36:29Z</time>
      </trkpt>
      <trkpt lat="43.55411" lon="6.79226">
        <ele>198</ele>
        <time>2009-06-07T14:36:35Z</time>
      </trkpt>
      <trkpt lat="43.55419" lon="6.79239">
        <ele>199</ele>
        <time>2009-06-07T14:36:46Z</time>
      </trkpt>
      <trkpt lat="43.55421" lon="6.7925">
        <ele>197</ele>
        <time>2009-06-07T14:37:04Z</time>
      </trkpt>
      <trkpt lat="43.55419" lon="6.79255">
        <ele>194</ele>
        <time>2009-06-07T14:37:34Z</time>
      </trkpt>
      <trkpt lat="43.55419" lon="6.79255">
        <ele>194</ele>
        <time>2009-06-07T14:37:37Z</time>
      </trkpt>
      <trkpt lat="43.55419" lon="6.7925">
        <ele>195</ele>
        <time>2009-06-07T14:37:53Z</time>
      </trkpt>
      <trkpt lat="43.55419" lon="6.79249">
        <ele>196</ele>
        <time>2009-06-07T14:37:57Z</time>
      </trkpt>
      <trkpt lat="43.55428" lon="6.7924">
        <ele>197</ele>
        <time>2009-06-07T14:38:03Z</time>
      </trkpt>
      <trkpt lat="43.55438" lon="6.7924">
        <ele>199</ele>
        <time>2009-06-07T14:38:09Z</time>
      </trkpt>
      <trkpt lat="43.55446" lon="6.79244">
        <ele>200</ele>
        <time>2009-06-07T14:38:14Z</time>
      </trkpt>
      <trkpt lat="43.55453" lon="6.79247">
        <ele>201</ele>
        <time>2009-06-07T14:38:17Z</time>
      </trkpt>
      <trkpt lat="43.55461" lon="6.79244">
        <ele>199</ele>
        <time>2009-06-07T14:38:20Z</time>
      </trkpt>
      <trkpt lat="43.55469" lon="6.79239">
        <ele>199</ele>
        <time>2009-06-07T14:38:23Z</time>
      </trkpt>
      <trkpt lat="43.55478" lon="6.79234">
        <ele>198</ele>
        <time>2009-06-07T14:38:26Z</time>
      </trkpt>
      <trkpt lat="43.55485" lon="6.79223">
        <ele>197</ele>
        <time>2009-06-07T14:38:29Z</time>
      </trkpt>
      <trkpt lat="43.55487" lon="6.79208">
        <ele>196</ele>
        <time>2009-06-07T14:38:32Z</time>
      </trkpt>
      <trkpt lat="43.55492" lon="6.79193">
        <ele>196</ele>
        <time>2009-06-07T14:38:35Z</time>
      </trkpt>
      <trkpt lat="43.55493" lon="6.79179">
        <ele>196</ele>
        <time>2009-06-07T14:38:38Z</time>
      </trkpt>
      <trkpt lat="43.55505" lon="6.79156">
        <ele>195</ele>
        <time>2009-06-07T14:38:46Z</time>
      </trkpt>
      <trkpt lat="43.55514" lon="6.79151">
        <ele>193</ele>
        <time>2009-06-07T14:38:48Z</time>
      </trkpt>
      <trkpt lat="43.55521" lon="6.79148">
        <ele>195</ele>
        <time>2009-06-07T14:38:52Z</time>
      </trkpt>
      <trkpt lat="43.55529" lon="6.79147">
        <ele>196</ele>
        <time>2009-06-07T14:38:55Z</time>
      </trkpt>
      <trkpt lat="43.55536" lon="6.79147">
        <ele>196</ele>
        <time>2009-06-07T14:38:58Z</time>
      </trkpt>
      <trkpt lat="43.55542" lon="6.79146">
        <ele>195</ele>
        <time>2009-06-07T14:39:01Z</time>
      </trkpt>
      <trkpt lat="43.55545" lon="6.79139">
        <ele>196</ele>
        <time>2009-06-07T14:39:04Z</time>
      </trkpt>
      <trkpt lat="43.55549" lon="6.7913">
        <ele>196</ele>
        <time>2009-06-07T14:39:07Z</time>
      </trkpt>
      <trkpt lat="43.55552" lon="6.79119">
        <ele>197</ele>
        <time>2009-06-07T14:39:10Z</time>
      </trkpt>
      <trkpt lat="43.55558" lon="6.79096">
        <ele>198</ele>
        <time>2009-06-07T14:39:16Z</time>
      </trkpt>
      <trkpt lat="43.55559" lon="6.79084">
        <ele>199</ele>
        <time>2009-06-07T14:39:19Z</time>
      </trkpt>
      <trkpt lat="43.55563" lon="6.79073">
        <ele>199</ele>
        <time>2009-06-07T14:39:22Z</time>
      </trkpt>
      <trkpt lat="43.55565" lon="6.79058">
        <ele>200</ele>
        <time>2009-06-07T14:39:25Z</time>
      </trkpt>
      <trkpt lat="43.55568" lon="6.79043">
        <ele>202</ele>
        <time>2009-06-07T14:39:28Z</time>
      </trkpt>
      <trkpt lat="43.55572" lon="6.7903">
        <ele>204</ele>
        <time>2009-06-07T14:39:31Z</time>
      </trkpt>
      <trkpt lat="43.55575" lon="6.79017">
        <ele>205</ele>
        <time>2009-06-07T14:39:34Z</time>
      </trkpt>
      <trkpt lat="43.5558" lon="6.79004">
        <ele>206</ele>
        <time>2009-06-07T14:39:37Z</time>
      </trkpt>
      <trkpt lat="43.55585" lon="6.78992">
        <ele>207</ele>
        <time>2009-06-07T14:39:40Z</time>
      </trkpt>
      <trkpt lat="43.556" lon="6.78964">
        <ele>207</ele>
        <time>2009-06-07T14:39:48Z</time>
      </trkpt>
      <trkpt lat="43.55604" lon="6.78953">
        <ele>206</ele>
        <time>2009-06-07T14:39:51Z</time>
      </trkpt>
      <trkpt lat="43.55611" lon="6.7894">
        <ele>207</ele>
        <time>2009-06-07T14:39:54Z</time>
      </trkpt>
      <trkpt lat="43.55619" lon="6.7893">
        <ele>206</ele>
        <time>2009-06-07T14:39:57Z</time>
      </trkpt>
      <trkpt lat="43.55627" lon="6.78917">
        <ele>206</ele>
        <time>2009-06-07T14:40:00Z</time>
      </trkpt>
      <trkpt lat="43.55637" lon="6.78906">
        <ele>208</ele>
        <time>2009-06-07T14:40:03Z</time>
      </trkpt>
      <trkpt lat="43.55646" lon="6.78898">
        <ele>207</ele>
        <time>2009-06-07T14:40:06Z</time>
      </trkpt>
      <trkpt lat="43.55658" lon="6.7889">
        <ele>207</ele>
        <time>2009-06-07T14:40:09Z</time>
      </trkpt>
      <trkpt lat="43.55678" lon="6.78876">
        <ele>205</ele>
        <time>2009-06-07T14:40:14Z</time>
      </trkpt>
      <trkpt lat="43.55689" lon="6.78867">
        <ele>205</ele>
        <time>2009-06-07T14:40:16Z</time>
      </trkpt>
      <trkpt lat="43.55697" lon="6.78856">
        <ele>205</ele>
        <time>2009-06-07T14:40:19Z</time>
      </trkpt>
      <trkpt lat="43.55703" lon="6.78845">
        <ele>205</ele>
        <time>2009-06-07T14:40:22Z</time>
      </trkpt>
      <trkpt lat="43.55708" lon="6.78834">
        <ele>206</ele>
        <time>2009-06-07T14:40:26Z</time>
      </trkpt>
      <trkpt lat="43.55714" lon="6.78823">
        <ele>206</ele>
        <time>2009-06-07T14:40:29Z</time>
      </trkpt>
      <trkpt lat="43.5572" lon="6.78813">
        <ele>206</ele>
        <time>2009-06-07T14:40:32Z</time>
      </trkpt>
      <trkpt lat="43.55726" lon="6.78803">
        <ele>206</ele>
        <time>2009-06-07T14:40:35Z</time>
      </trkpt>
      <trkpt lat="43.55733" lon="6.78795">
        <ele>207</ele>
        <time>2009-06-07T14:40:38Z</time>
      </trkpt>
      <trkpt lat="43.55748" lon="6.78783">
        <ele>206</ele>
        <time>2009-06-07T14:40:46Z</time>
      </trkpt>
      <trkpt lat="43.55757" lon="6.7878">
        <ele>206</ele>
        <time>2009-06-07T14:40:49Z</time>
      </trkpt>
      <trkpt lat="43.55765" lon="6.78777">
        <ele>205</ele>
        <time>2009-06-07T14:40:52Z</time>
      </trkpt>
      <trkpt lat="43.55775" lon="6.78774">
        <ele>205</ele>
        <time>2009-06-07T14:40:55Z</time>
      </trkpt>
      <trkpt lat="43.55785" lon="6.7877">
        <ele>205</ele>
        <time>2009-06-07T14:40:58Z</time>
      </trkpt>
      <trkpt lat="43.55797" lon="6.78768">
        <ele>206</ele>
        <time>2009-06-07T14:41:01Z</time>
      </trkpt>
      <trkpt lat="43.55808" lon="6.78769">
        <ele>205</ele>
        <time>2009-06-07T14:41:04Z</time>
      </trkpt>
      <trkpt lat="43.5582" lon="6.78779">
        <ele>206</ele>
        <time>2009-06-07T14:41:07Z</time>
      </trkpt>
      <trkpt lat="43.55833" lon="6.78789">
        <ele>206</ele>
        <time>2009-06-07T14:41:09Z</time>
      </trkpt>
      <trkpt lat="43.5585" lon="6.78798">
        <ele>207</ele>
        <time>2009-06-07T14:41:15Z</time>
      </trkpt>
      <trkpt lat="43.55856" lon="6.78807">
        <ele>207</ele>
        <time>2009-06-07T14:41:18Z</time>
      </trkpt>
      <trkpt lat="43.55862" lon="6.78818">
        <ele>207</ele>
        <time>2009-06-07T14:41:21Z</time>
      </trkpt>
      <trkpt lat="43.5587" lon="6.78832">
        <ele>207</ele>
        <time>2009-06-07T14:41:24Z</time>
      </trkpt>
      <trkpt lat="43.5588" lon="6.78848">
        <ele>207</ele>
        <time>2009-06-07T14:41:27Z</time>
      </trkpt>
      <trkpt lat="43.55893" lon="6.78857">
        <ele>207</ele>
        <time>2009-06-07T14:41:30Z</time>
      </trkpt>
      <trkpt lat="43.5591" lon="6.78855">
        <ele>206</ele>
        <time>2009-06-07T14:41:33Z</time>
      </trkpt>
      <trkpt lat="43.55928" lon="6.78853">
        <ele>205</ele>
        <time>2009-06-07T14:41:36Z</time>
      </trkpt>
      <trkpt lat="43.55945" lon="6.78859">
        <ele>206</ele>
        <time>2009-06-07T14:41:39Z</time>
      </trkpt>
      <trkpt lat="43.5598" lon="6.78877">
        <ele>207</ele>
        <time>2009-06-07T14:41:47Z</time>
      </trkpt>
      <trkpt lat="43.55992" lon="6.78882">
        <ele>206</ele>
        <time>2009-06-07T14:41:50Z</time>
      </trkpt>
      <trkpt lat="43.56001" lon="6.78887">
        <ele>206</ele>
        <time>2009-06-07T14:41:53Z</time>
      </trkpt>
      <trkpt lat="43.5601" lon="6.78892">
        <ele>207</ele>
        <time>2009-06-07T14:41:56Z</time>
      </trkpt>
      <trkpt lat="43.56021" lon="6.78898">
        <ele>206</ele>
        <time>2009-06-07T14:41:59Z</time>
      </trkpt>
      <trkpt lat="43.5603" lon="6.789">
        <ele>206</ele>
        <time>2009-06-07T14:42:02Z</time>
      </trkpt>
      <trkpt lat="43.56039" lon="6.78899">
        <ele>207</ele>
        <time>2009-06-07T14:42:05Z</time>
      </trkpt>
      <trkpt lat="43.56048" lon="6.78892">
        <ele>207</ele>
        <time>2009-06-07T14:42:08Z</time>
      </trkpt>
      <trkpt lat="43.56061" lon="6.78887">
        <ele>207</ele>
        <time>2009-06-07T14:42:11Z</time>
      </trkpt>
      <trkpt lat="43.56075" lon="6.78894">
        <ele>206</ele>
        <time>2009-06-07T14:42:14Z</time>
      </trkpt>
      <trkpt lat="43.56084" lon="6.78911">
        <ele>205</ele>
        <time>2009-06-07T14:42:17Z</time>
      </trkpt>
      <trkpt lat="43.56094" lon="6.78928">
        <ele>206</ele>
        <time>2009-06-07T14:42:20Z</time>
      </trkpt>
      <trkpt lat="43.56103" lon="6.78946">
        <ele>205</ele>
        <time>2009-06-07T14:42:23Z</time>
      </trkpt>
      <trkpt lat="43.56115" lon="6.78964">
        <ele>206</ele>
        <time>2009-06-07T14:42:26Z</time>
      </trkpt>
      <trkpt lat="43.56126" lon="6.78981">
        <ele>206</ele>
        <time>2009-06-07T14:42:29Z</time>
      </trkpt>
      <trkpt lat="43.56133" lon="6.79003">
        <ele>207</ele>
        <time>2009-06-07T14:42:32Z</time>
      </trkpt>
      <trkpt lat="43.56139" lon="6.79028">
        <ele>208</ele>
        <time>2009-06-07T14:42:35Z</time>
      </trkpt>
      <trkpt lat="43.56145" lon="6.79057">
        <ele>207</ele>
        <time>2009-06-07T14:42:38Z</time>
      </trkpt>
      <trkpt lat="43.56157" lon="6.79076">
        <ele>206</ele>
        <time>2009-06-07T14:42:41Z</time>
      </trkpt>
      <trkpt lat="43.56204" lon="6.79089">
        <ele>205</ele>
        <time>2009-06-07T14:42:49Z</time>
      </trkpt>
      <trkpt lat="43.56224" lon="6.79083">
        <ele>203</ele>
        <time>2009-06-07T14:42:52Z</time>
      </trkpt>
      <trkpt lat="43.56245" lon="6.79074">
        <ele>202</ele>
        <time>2009-06-07T14:42:55Z</time>
      </trkpt>
      <trkpt lat="43.56266" lon="6.79062">
        <ele>202</ele>
        <time>2009-06-07T14:42:58Z</time>
      </trkpt>
      <trkpt lat="43.56288" lon="6.79056">
        <ele>200</ele>
        <time>2009-06-07T14:43:01Z</time>
      </trkpt>
      <trkpt lat="43.56308" lon="6.79051">
        <ele>199</ele>
        <time>2009-06-07T14:43:04Z</time>
      </trkpt>
      <trkpt lat="43.56326" lon="6.79047">
        <ele>199</ele>
        <time>2009-06-07T14:43:07Z</time>
      </trkpt>
      <trkpt lat="43.5634" lon="6.79041">
        <ele>199</ele>
        <time>2009-06-07T14:43:10Z</time>
      </trkpt>
      <trkpt lat="43.56361" lon="6.79022">
        <ele>197</ele>
        <time>2009-06-07T14:43:16Z</time>
      </trkpt>
      <trkpt lat="43.56369" lon="6.7901">
        <ele>197</ele>
        <time>2009-06-07T14:43:19Z</time>
      </trkpt>
      <trkpt lat="43.56382" lon="6.7901">
        <ele>197</ele>
        <time>2009-06-07T14:43:22Z</time>
      </trkpt>
      <trkpt lat="43.56393" lon="6.79012">
        <ele>197</ele>
        <time>2009-06-07T14:43:25Z</time>
      </trkpt>
      <trkpt lat="43.56407" lon="6.79015">
        <ele>198</ele>
        <time>2009-06-07T14:43:28Z</time>
      </trkpt>
      <trkpt lat="43.56426" lon="6.79018">
        <ele>197</ele>
        <time>2009-06-07T14:43:31Z</time>
      </trkpt>
      <trkpt lat="43.56437" lon="6.79027">
        <ele>198</ele>
        <time>2009-06-07T14:43:34Z</time>
      </trkpt>
      <trkpt lat="43.56447" lon="6.79041">
        <ele>199</ele>
        <time>2009-06-07T14:43:37Z</time>
      </trkpt>
      <trkpt lat="43.56455" lon="6.79059">
        <ele>199</ele>
        <time>2009-06-07T14:43:40Z</time>
      </trkpt>
      <trkpt lat="43.56472" lon="6.79104">
        <ele>201</ele>
        <time>2009-06-07T14:43:48Z</time>
      </trkpt>
      <trkpt lat="43.56474" lon="6.79124">
        <ele>201</ele>
        <time>2009-06-07T14:43:51Z</time>
      </trkpt>
      <trkpt lat="43.56479" lon="6.7914">
        <ele>200</ele>
        <time>2009-06-07T14:43:54Z</time>
      </trkpt>
      <trkpt lat="43.56486" lon="6.7915">
        <ele>201</ele>
        <time>2009-06-07T14:43:57Z</time>
      </trkpt>
      <trkpt lat="43.56494" lon="6.79151">
        <ele>201</ele>
        <time>2009-06-07T14:44:00Z</time>
      </trkpt>
      <trkpt lat="43.56506" lon="6.79148">
        <ele>202</ele>
        <time>2009-06-07T14:44:03Z</time>
      </trkpt>
      <trkpt lat="43.5652" lon="6.79145">
        <ele>202</ele>
        <time>2009-06-07T14:44:06Z</time>
      </trkpt>
      <trkpt lat="43.56533" lon="6.79143">
        <ele>202</ele>
        <time>2009-06-07T14:44:08Z</time>
      </trkpt>
      <trkpt lat="43.5656" lon="6.79144">
        <ele>203</ele>
        <time>2009-06-07T14:44:15Z</time>
      </trkpt>
      <trkpt lat="43.56574" lon="6.79147">
        <ele>202</ele>
        <time>2009-06-07T14:44:18Z</time>
      </trkpt>
      <trkpt lat="43.56585" lon="6.79155">
        <ele>202</ele>
        <time>2009-06-07T14:44:21Z</time>
      </trkpt>
      <trkpt lat="43.56596" lon="6.79165">
        <ele>202</ele>
        <time>2009-06-07T14:44:24Z</time>
      </trkpt>
      <trkpt lat="43.56606" lon="6.79175">
        <ele>202</ele>
        <time>2009-06-07T14:44:27Z</time>
      </trkpt>
      <trkpt lat="43.56616" lon="6.79185">
        <ele>202</ele>
        <time>2009-06-07T14:44:30Z</time>
      </trkpt>
      <trkpt lat="43.56627" lon="6.79195">
        <ele>201</ele>
        <time>2009-06-07T14:44:33Z</time>
      </trkpt>
      <trkpt lat="43.56645" lon="6.79209">
        <ele>203</ele>
        <time>2009-06-07T14:44:36Z</time>
      </trkpt>
      <trkpt lat="43.56663" lon="6.79223">
        <ele>202</ele>
        <time>2009-06-07T14:44:39Z</time>
      </trkpt>
      <trkpt lat="43.56709" lon="6.79238">
        <ele>202</ele>
        <time>2009-06-07T14:44:47Z</time>
      </trkpt>
      <trkpt lat="43.56726" lon="6.79232">
        <ele>201</ele>
        <time>2009-06-07T14:44:50Z</time>
      </trkpt>
      <trkpt lat="43.56739" lon="6.79237">
        <ele>201</ele>
        <time>2009-06-07T14:44:53Z</time>
      </trkpt>
      <trkpt lat="43.56745" lon="6.79252">
        <ele>201</ele>
        <time>2009-06-07T14:44:56Z</time>
      </trkpt>
      <trkpt lat="43.56745" lon="6.79274">
        <ele>202</ele>
        <time>2009-06-07T14:44:59Z</time>
      </trkpt>
      <trkpt lat="43.56752" lon="6.79294">
        <ele>202</ele>
        <time>2009-06-07T14:45:02Z</time>
      </trkpt>
      <trkpt lat="43.56765" lon="6.79311">
        <ele>202</ele>
        <time>2009-06-07T14:45:05Z</time>
      </trkpt>
      <trkpt lat="43.56775" lon="6.79331">
        <ele>202</ele>
        <time>2009-06-07T14:45:08Z</time>
      </trkpt>
      <trkpt lat="43.5679" lon="6.79343">
        <ele>202</ele>
        <time>2009-06-07T14:45:11Z</time>
      </trkpt>
      <trkpt lat="43.56808" lon="6.79348">
        <ele>201</ele>
        <time>2009-06-07T14:45:14Z</time>
      </trkpt>
      <trkpt lat="43.56829" lon="6.79353">
        <ele>200</ele>
        <time>2009-06-07T14:45:17Z</time>
      </trkpt>
      <trkpt lat="43.56845" lon="6.79354">
        <ele>199</ele>
        <time>2009-06-07T14:45:20Z</time>
      </trkpt>
      <trkpt lat="43.56862" lon="6.79352">
        <ele>200</ele>
        <time>2009-06-07T14:45:23Z</time>
      </trkpt>
      <trkpt lat="43.56874" lon="6.79348">
        <ele>200</ele>
        <time>2009-06-07T14:45:26Z</time>
      </trkpt>
      <trkpt lat="43.56884" lon="6.79344">
        <ele>200</ele>
        <time>2009-06-07T14:45:29Z</time>
      </trkpt>
      <trkpt lat="43.56895" lon="6.79339">
        <ele>200</ele>
        <time>2009-06-07T14:45:32Z</time>
      </trkpt>
      <trkpt lat="43.56904" lon="6.79333">
        <ele>200</ele>
        <time>2009-06-07T14:45:35Z</time>
      </trkpt>
      <trkpt lat="43.56914" lon="6.79327">
        <ele>200</ele>
        <time>2009-06-07T14:45:38Z</time>
      </trkpt>
      <trkpt lat="43.56926" lon="6.79324">
        <ele>202</ele>
        <time>2009-06-07T14:45:41Z</time>
      </trkpt>
      <trkpt lat="43.5695" lon="6.79305">
        <ele>202</ele>
        <time>2009-06-07T14:45:49Z</time>
      </trkpt>
      <trkpt lat="43.56959" lon="6.79306">
        <ele>202</ele>
        <time>2009-06-07T14:45:52Z</time>
      </trkpt>
      <trkpt lat="43.56971" lon="6.7931">
        <ele>204</ele>
        <time>2009-06-07T14:45:55Z</time>
      </trkpt>
      <trkpt lat="43.56979" lon="6.79309">
        <ele>204</ele>
        <time>2009-06-07T14:45:58Z</time>
      </trkpt>
      <trkpt lat="43.56989" lon="6.79303">
        <ele>205</ele>
        <time>2009-06-07T14:46:01Z</time>
      </trkpt>
      <trkpt lat="43.56994" lon="6.7929">
        <ele>206</ele>
        <time>2009-06-07T14:46:04Z</time>
      </trkpt>
      <trkpt lat="43.56998" lon="6.79275">
        <ele>206</ele>
        <time>2009-06-07T14:46:07Z</time>
      </trkpt>
      <trkpt lat="43.57001" lon="6.79259">
        <ele>207</ele>
        <time>2009-06-07T14:46:09Z</time>
      </trkpt>
      <trkpt lat="43.57018" lon="6.79254">
        <ele>207</ele>
        <time>2009-06-07T14:46:15Z</time>
      </trkpt>
      <trkpt lat="43.57029" lon="6.79264">
        <ele>207</ele>
        <time>2009-06-07T14:46:19Z</time>
      </trkpt>
      <trkpt lat="43.57038" lon="6.79273">
        <ele>207</ele>
        <time>2009-06-07T14:46:22Z</time>
      </trkpt>
      <trkpt lat="43.57051" lon="6.79283">
        <ele>207</ele>
        <time>2009-06-07T14:46:25Z</time>
      </trkpt>
      <trkpt lat="43.57064" lon="6.7929">
        <ele>207</ele>
        <time>2009-06-07T14:46:28Z</time>
      </trkpt>
      <trkpt lat="43.57078" lon="6.79298">
        <ele>208</ele>
        <time>2009-06-07T14:46:31Z</time>
      </trkpt>
      <trkpt lat="43.57092" lon="6.79308">
        <ele>207</ele>
        <time>2009-06-07T14:46:34Z</time>
      </trkpt>
      <trkpt lat="43.57107" lon="6.79315">
        <ele>208</ele>
        <time>2009-06-07T14:46:37Z</time>
      </trkpt>
      <trkpt lat="43.57121" lon="6.7932">
        <ele>209</ele>
        <time>2009-06-07T14:46:40Z</time>
      </trkpt>
      <trkpt lat="43.5716" lon="6.79342">
        <ele>210</ele>
        <time>2009-06-07T14:46:48Z</time>
      </trkpt>
      <trkpt lat="43.5717" lon="6.79354">
        <ele>208</ele>
        <time>2009-06-07T14:46:51Z</time>
      </trkpt>
      <trkpt lat="43.57179" lon="6.7936">
        <ele>209</ele>
        <time>2009-06-07T14:46:54Z</time>
      </trkpt>
      <trkpt lat="43.57187" lon="6.79365">
        <ele>210</ele>
        <time>2009-06-07T14:46:57Z</time>
      </trkpt>
      <trkpt lat="43.57196" lon="6.79369">
        <ele>211</ele>
        <time>2009-06-07T14:47:00Z</time>
      </trkpt>
      <trkpt lat="43.57206" lon="6.79369">
        <ele>211</ele>
        <time>2009-06-07T14:47:03Z</time>
      </trkpt>
      <trkpt lat="43.57217" lon="6.79365">
        <ele>210</ele>
        <time>2009-06-07T14:47:06Z</time>
      </trkpt>
      <trkpt lat="43.57223" lon="6.79356">
        <ele>210</ele>
        <time>2009-06-07T14:47:09Z</time>
      </trkpt>
      <trkpt lat="43.57243" lon="6.79353">
        <ele>210</ele>
        <time>2009-06-07T14:47:14Z</time>
      </trkpt>
      <trkpt lat="43.57254" lon="6.79361">
        <ele>210</ele>
        <time>2009-06-07T14:47:17Z</time>
      </trkpt>
      <trkpt lat="43.57267" lon="6.79373">
        <ele>209</ele>
        <time>2009-06-07T14:47:20Z</time>
      </trkpt>
      <trkpt lat="43.57281" lon="6.79389">
        <ele>210</ele>
        <time>2009-06-07T14:47:23Z</time>
      </trkpt>
      <trkpt lat="43.5729" lon="6.79409">
        <ele>210</ele>
        <time>2009-06-07T14:47:26Z</time>
      </trkpt>
      <trkpt lat="43.57297" lon="6.79431">
        <ele>210</ele>
        <time>2009-06-07T14:47:29Z</time>
      </trkpt>
      <trkpt lat="43.57303" lon="6.79451">
        <ele>211</ele>
        <time>2009-06-07T14:47:32Z</time>
      </trkpt>
      <trkpt lat="43.57316" lon="6.79466">
        <ele>210</ele>
        <time>2009-06-07T14:47:35Z</time>
      </trkpt>
      <trkpt lat="43.57332" lon="6.79463">
        <ele>210</ele>
        <time>2009-06-07T14:47:38Z</time>
      </trkpt>
      <trkpt lat="43.57376" lon="6.7946">
        <ele>209</ele>
        <time>2009-06-07T14:47:46Z</time>
      </trkpt>
      <trkpt lat="43.5739" lon="6.79465">
        <ele>209</ele>
        <time>2009-06-07T14:47:49Z</time>
      </trkpt>
      <trkpt lat="43.57403" lon="6.79464">
        <ele>209</ele>
        <time>2009-06-07T14:47:52Z</time>
      </trkpt>
      <trkpt lat="43.57416" lon="6.79453">
        <ele>207</ele>
        <time>2009-06-07T14:47:55Z</time>
      </trkpt>
      <trkpt lat="43.57426" lon="6.79439">
        <ele>208</ele>
        <time>2009-06-07T14:47:58Z</time>
      </trkpt>
      <trkpt lat="43.57437" lon="6.79434">
        <ele>207</ele>
        <time>2009-06-07T14:48:01Z</time>
      </trkpt>
      <trkpt lat="43.57432" lon="6.7944">
        <ele>207</ele>
        <time>2009-06-07T14:48:04Z</time>
      </trkpt>
      <trkpt lat="43.57434" lon="6.79459">
        <ele>209</ele>
        <time>2009-06-07T14:48:07Z</time>
      </trkpt>
      <trkpt lat="43.57434" lon="6.79481">
        <ele>209</ele>
        <time>2009-06-07T14:48:10Z</time>
      </trkpt>
      <trkpt lat="43.5744" lon="6.79522">
        <ele>210</ele>
        <time>2009-06-07T14:48:16Z</time>
      </trkpt>
      <trkpt lat="43.57446" lon="6.7954">
        <ele>211</ele>
        <time>2009-06-07T14:48:19Z</time>
      </trkpt>
      <trkpt lat="43.57457" lon="6.79557">
        <ele>210</ele>
        <time>2009-06-07T14:48:22Z</time>
      </trkpt>
      <trkpt lat="43.57469" lon="6.79576">
        <ele>209</ele>
        <time>2009-06-07T14:48:25Z</time>
      </trkpt>
      <trkpt lat="43.5748" lon="6.79597">
        <ele>209</ele>
        <time>2009-06-07T14:48:28Z</time>
      </trkpt>
      <trkpt lat="43.57489" lon="6.79618">
        <ele>209</ele>
        <time>2009-06-07T14:48:31Z</time>
      </trkpt>
      <trkpt lat="43.57497" lon="6.79636">
        <ele>209</ele>
        <time>2009-06-07T14:48:34Z</time>
      </trkpt>
      <trkpt lat="43.57507" lon="6.79654">
        <ele>209</ele>
        <time>2009-06-07T14:48:37Z</time>
      </trkpt>
      <trkpt lat="43.57516" lon="6.7967">
        <ele>209</ele>
        <time>2009-06-07T14:48:40Z</time>
      </trkpt>
      <trkpt lat="43.57552" lon="6.79671">
        <ele>208</ele>
        <time>2009-06-07T14:48:48Z</time>
      </trkpt>
      <trkpt lat="43.57566" lon="6.79659">
        <ele>207</ele>
        <time>2009-06-07T14:48:51Z</time>
      </trkpt>
      <trkpt lat="43.57578" lon="6.79658">
        <ele>205</ele>
        <time>2009-06-07T14:48:54Z</time>
      </trkpt>
      <trkpt lat="43.57578" lon="6.79669">
        <ele>203</ele>
        <time>2009-06-07T14:48:57Z</time>
      </trkpt>
      <trkpt lat="43.57584" lon="6.79689">
        <ele>205</ele>
        <time>2009-06-07T14:49:00Z</time>
      </trkpt>
      <trkpt lat="43.57586" lon="6.79707">
        <ele>206</ele>
        <time>2009-06-07T14:49:03Z</time>
      </trkpt>
      <trkpt lat="43.57591" lon="6.79725">
        <ele>207</ele>
        <time>2009-06-07T14:49:06Z</time>
      </trkpt>
      <trkpt lat="43.57598" lon="6.79743">
        <ele>208</ele>
        <time>2009-06-07T14:49:09Z</time>
      </trkpt>
      <trkpt lat="43.57614" lon="6.79767">
        <ele>209</ele>
        <time>2009-06-07T14:49:15Z</time>
      </trkpt>
      <trkpt lat="43.57626" lon="6.79773">
        <ele>210</ele>
        <time>2009-06-07T14:49:18Z</time>
      </trkpt>
      <trkpt lat="43.57639" lon="6.79777">
        <ele>210</ele>
        <time>2009-06-07T14:49:21Z</time>
      </trkpt>
      <trkpt lat="43.57654" lon="6.79779">
        <ele>210</ele>
        <time>2009-06-07T14:49:24Z</time>
      </trkpt>
      <trkpt lat="43.57668" lon="6.79781">
        <ele>209</ele>
        <time>2009-06-07T14:49:27Z</time>
      </trkpt>
      <trkpt lat="43.5768" lon="6.7979">
        <ele>211</ele>
        <time>2009-06-07T14:49:30Z</time>
      </trkpt>
      <trkpt lat="43.57681" lon="6.79802">
        <ele>210</ele>
        <time>2009-06-07T14:49:33Z</time>
      </trkpt>
      <trkpt lat="43.57679" lon="6.79817">
        <ele>210</ele>
        <time>2009-06-07T14:49:36Z</time>
      </trkpt>
      <trkpt lat="43.57676" lon="6.7983">
        <ele>210</ele>
        <time>2009-06-07T14:49:39Z</time>
      </trkpt>
      <trkpt lat="43.57681" lon="6.7987">
        <ele>211</ele>
        <time>2009-06-07T14:49:47Z</time>
      </trkpt>
      <trkpt lat="43.57686" lon="6.79882">
        <ele>211</ele>
        <time>2009-06-07T14:49:50Z</time>
      </trkpt>
      <trkpt lat="43.57697" lon="6.79892">
        <ele>212</ele>
        <time>2009-06-07T14:49:53Z</time>
      </trkpt>
      <trkpt lat="43.57707" lon="6.799">
        <ele>211</ele>
        <time>2009-06-07T14:49:56Z</time>
      </trkpt>
      <trkpt lat="43.57717" lon="6.79905">
        <ele>213</ele>
        <time>2009-06-07T14:49:59Z</time>
      </trkpt>
      <trkpt lat="43.57728" lon="6.79908">
        <ele>212</ele>
        <time>2009-06-07T14:50:02Z</time>
      </trkpt>
      <trkpt lat="43.57736" lon="6.7991">
        <ele>212</ele>
        <time>2009-06-07T14:50:05Z</time>
      </trkpt>
      <trkpt lat="43.57745" lon="6.79913">
        <ele>212</ele>
        <time>2009-06-07T14:50:08Z</time>
      </trkpt>
      <trkpt lat="43.57754" lon="6.79915">
        <ele>212</ele>
        <time>2009-06-07T14:50:11Z</time>
      </trkpt>
      <trkpt lat="43.57765" lon="6.79916">
        <ele>212</ele>
        <time>2009-06-07T14:50:14Z</time>
      </trkpt>
      <trkpt lat="43.57773" lon="6.79916">
        <ele>213</ele>
        <time>2009-06-07T14:50:17Z</time>
      </trkpt>
      <trkpt lat="43.57782" lon="6.79917">
        <ele>213</ele>
        <time>2009-06-07T14:50:20Z</time>
      </trkpt>
      <trkpt lat="43.57793" lon="6.7992">
        <ele>213</ele>
        <time>2009-06-07T14:50:22Z</time>
      </trkpt>
      <trkpt lat="43.57804" lon="6.79922">
        <ele>212</ele>
        <time>2009-06-07T14:50:26Z</time>
      </trkpt>
      <trkpt lat="43.57814" lon="6.79922">
        <ele>212</ele>
        <time>2009-06-07T14:50:29Z</time>
      </trkpt>
      <trkpt lat="43.57826" lon="6.79924">
        <ele>212</ele>
        <time>2009-06-07T14:50:32Z</time>
      </trkpt>
      <trkpt lat="43.57842" lon="6.79926">
        <ele>212</ele>
        <time>2009-06-07T14:50:35Z</time>
      </trkpt>
      <trkpt lat="43.5786" lon="6.79923">
        <ele>211</ele>
        <time>2009-06-07T14:50:38Z</time>
      </trkpt>
      <trkpt lat="43.57879" lon="6.79916">
        <ele>210</ele>
        <time>2009-06-07T14:50:41Z</time>
      </trkpt>
      <trkpt lat="43.57934" lon="6.79888">
        <ele>208</ele>
        <time>2009-06-07T14:50:49Z</time>
      </trkpt>
      <trkpt lat="43.57956" lon="6.79873">
        <ele>208</ele>
        <time>2009-06-07T14:50:52Z</time>
      </trkpt>
      <trkpt lat="43.57978" lon="6.79863">
        <ele>207</ele>
        <time>2009-06-07T14:50:55Z</time>
      </trkpt>
      <trkpt lat="43.58" lon="6.79853">
        <ele>206</ele>
        <time>2009-06-07T14:50:58Z</time>
      </trkpt>
      <trkpt lat="43.58018" lon="6.79836">
        <ele>205</ele>
        <time>2009-06-07T14:51:01Z</time>
      </trkpt>
      <trkpt lat="43.58035" lon="6.79817">
        <ele>203</ele>
        <time>2009-06-07T14:51:04Z</time>
      </trkpt>
      <trkpt lat="43.58051" lon="6.79792">
        <ele>201</ele>
        <time>2009-06-07T14:51:07Z</time>
      </trkpt>
      <trkpt lat="43.58059" lon="6.79765">
        <ele>200</ele>
        <time>2009-06-07T14:51:10Z</time>
      </trkpt>
      <trkpt lat="43.58072" lon="6.7971">
        <ele>199</ele>
        <time>2009-06-07T14:51:16Z</time>
      </trkpt>
      <trkpt lat="43.58073" lon="6.79689">
        <ele>200</ele>
        <time>2009-06-07T14:51:19Z</time>
      </trkpt>
      <trkpt lat="43.58074" lon="6.79672">
        <ele>199</ele>
        <time>2009-06-07T14:51:22Z</time>
      </trkpt>
      <trkpt lat="43.58068" lon="6.79658">
        <ele>199</ele>
        <time>2009-06-07T14:51:25Z</time>
      </trkpt>
      <trkpt lat="43.58061" lon="6.79642">
        <ele>200</ele>
        <time>2009-06-07T14:51:28Z</time>
      </trkpt>
      <trkpt lat="43.58052" lon="6.79625">
        <ele>200</ele>
        <time>2009-06-07T14:51:31Z</time>
      </trkpt>
      <trkpt lat="43.58038" lon="6.79607">
        <ele>199</ele>
        <time>2009-06-07T14:51:34Z</time>
      </trkpt>
      <trkpt lat="43.58022" lon="6.79592">
        <ele>200</ele>
        <time>2009-06-07T14:51:37Z</time>
      </trkpt>
      <trkpt lat="43.58008" lon="6.79579">
        <ele>201</ele>
        <time>2009-06-07T14:51:40Z</time>
      </trkpt>
      <trkpt lat="43.58001" lon="6.79547">
        <ele>201</ele>
        <time>2009-06-07T14:51:48Z</time>
      </trkpt>
      <trkpt lat="43.58014" lon="6.79536">
        <ele>199</ele>
        <time>2009-06-07T14:51:51Z</time>
      </trkpt>
      <trkpt lat="43.58027" lon="6.79522">
        <ele>197</ele>
        <time>2009-06-07T14:51:54Z</time>
      </trkpt>
      <trkpt lat="43.58032" lon="6.79503">
        <ele>198</ele>
        <time>2009-06-07T14:51:57Z</time>
      </trkpt>
      <trkpt lat="43.58032" lon="6.79481">
        <ele>199</ele>
        <time>2009-06-07T14:52:00Z</time>
      </trkpt>
      <trkpt lat="43.58026" lon="6.79455">
        <ele>198</ele>
        <time>2009-06-07T14:52:03Z</time>
      </trkpt>
      <trkpt lat="43.58019" lon="6.79428">
        <ele>198</ele>
        <time>2009-06-07T14:52:06Z</time>
      </trkpt>
      <trkpt lat="43.58019" lon="6.79406">
        <ele>198</ele>
        <time>2009-06-07T14:52:09Z</time>
      </trkpt>
      <trkpt lat="43.58042" lon="6.79413">
        <ele>199</ele>
        <time>2009-06-07T14:52:14Z</time>
      </trkpt>
      <trkpt lat="43.58056" lon="6.79425">
        <ele>198</ele>
        <time>2009-06-07T14:52:17Z</time>
      </trkpt>
      <trkpt lat="43.58069" lon="6.79439">
        <ele>199</ele>
        <time>2009-06-07T14:52:20Z</time>
      </trkpt>
      <trkpt lat="43.58081" lon="6.79451">
        <ele>199</ele>
        <time>2009-06-07T14:52:24Z</time>
      </trkpt>
      <trkpt lat="43.58088" lon="6.79462">
        <ele>199</ele>
        <time>2009-06-07T14:52:27Z</time>
      </trkpt>
      <trkpt lat="43.58095" lon="6.79474">
        <ele>198</ele>
        <time>2009-06-07T14:52:30Z</time>
      </trkpt>
      <trkpt lat="43.58103" lon="6.79482">
        <ele>199</ele>
        <time>2009-06-07T14:52:33Z</time>
      </trkpt>
      <trkpt lat="43.58108" lon="6.79489">
        <ele>199</ele>
        <time>2009-06-07T14:52:36Z</time>
      </trkpt>
      <trkpt lat="43.58114" lon="6.79494">
        <ele>199</ele>
        <time>2009-06-07T14:52:39Z</time>
      </trkpt>
      <trkpt lat="43.58137" lon="6.79505">
        <ele>201</ele>
        <time>2009-06-07T14:52:47Z</time>
      </trkpt>
      <trkpt lat="43.58142" lon="6.79507">
        <ele>203</ele>
        <time>2009-06-07T14:52:50Z</time>
      </trkpt>
      <trkpt lat="43.58147" lon="6.79511">
        <ele>204</ele>
        <time>2009-06-07T14:52:53Z</time>
      </trkpt>
      <trkpt lat="43.58152" lon="6.79512">
        <ele>205</ele>
        <time>2009-06-07T14:52:56Z</time>
      </trkpt>
      <trkpt lat="43.58158" lon="6.79512">
        <ele>206</ele>
        <time>2009-06-07T14:52:59Z</time>
      </trkpt>
      <trkpt lat="43.58164" lon="6.7951">
        <ele>206</ele>
        <time>2009-06-07T14:53:02Z</time>
      </trkpt>
      <trkpt lat="43.58169" lon="6.79507">
        <ele>206</ele>
        <time>2009-06-07T14:53:05Z</time>
      </trkpt>
      <trkpt lat="43.58174" lon="6.79504">
        <ele>206</ele>
        <time>2009-06-07T14:53:08Z</time>
      </trkpt>
      <trkpt lat="43.58179" lon="6.795">
        <ele>206</ele>
        <time>2009-06-07T14:53:11Z</time>
      </trkpt>
      <trkpt lat="43.58184" lon="6.79488">
        <ele>207</ele>
        <time>2009-06-07T14:53:17Z</time>
      </trkpt>
      <trkpt lat="43.58188" lon="6.79482">
        <ele>208</ele>
        <time>2009-06-07T14:53:20Z</time>
      </trkpt>
      <trkpt lat="43.58192" lon="6.79476">
        <ele>209</ele>
        <time>2009-06-07T14:53:23Z</time>
      </trkpt>
      <trkpt lat="43.58201" lon="6.7947">
        <ele>209</ele>
        <time>2009-06-07T14:53:29Z</time>
      </trkpt>
      <trkpt lat="43.58207" lon="6.79468">
        <ele>209</ele>
        <time>2009-06-07T14:53:32Z</time>
      </trkpt>
      <trkpt lat="43.58213" lon="6.79466">
        <ele>209</ele>
        <time>2009-06-07T14:53:35Z</time>
      </trkpt>
      <trkpt lat="43.58217" lon="6.79463">
        <ele>209</ele>
        <time>2009-06-07T14:53:38Z</time>
      </trkpt>
      <trkpt lat="43.58222" lon="6.7946">
        <ele>208</ele>
        <time>2009-06-07T14:53:41Z</time>
      </trkpt>
      <trkpt lat="43.5823" lon="6.79444">
        <ele>209</ele>
        <time>2009-06-07T14:53:49Z</time>
      </trkpt>
      <trkpt lat="43.58234" lon="6.79435">
        <ele>208</ele>
        <time>2009-06-07T14:53:52Z</time>
      </trkpt>
      <trkpt lat="43.58238" lon="6.79427">
        <ele>208</ele>
        <time>2009-06-07T14:53:55Z</time>
      </trkpt>
      <trkpt lat="43.58242" lon="6.79419">
        <ele>207</ele>
        <time>2009-06-07T14:53:58Z</time>
      </trkpt>
      <trkpt lat="43.58247" lon="6.79411">
        <ele>207</ele>
        <time>2009-06-07T14:54:01Z</time>
      </trkpt>
      <trkpt lat="43.58254" lon="6.79403">
        <ele>207</ele>
        <time>2009-06-07T14:54:04Z</time>
      </trkpt>
      <trkpt lat="43.58257" lon="6.79389">
        <ele>208</ele>
        <time>2009-06-07T14:54:07Z</time>
      </trkpt>
      <trkpt lat="43.58256" lon="6.79375">
        <ele>208</ele>
        <time>2009-06-07T14:54:10Z</time>
      </trkpt>
      <trkpt lat="43.58251" lon="6.79347">
        <ele>207</ele>
        <time>2009-06-07T14:54:16Z</time>
      </trkpt>
      <trkpt lat="43.58253" lon="6.79334">
        <ele>209</ele>
        <time>2009-06-07T14:54:19Z</time>
      </trkpt>
      <trkpt lat="43.58264" lon="6.79329">
        <ele>209</ele>
        <time>2009-06-07T14:54:22Z</time>
      </trkpt>
      <trkpt lat="43.58277" lon="6.79322">
        <ele>210</ele>
        <time>2009-06-07T14:54:25Z</time>
      </trkpt>
      <trkpt lat="43.58292" lon="6.79314">
        <ele>208</ele>
        <time>2009-06-07T14:54:28Z</time>
      </trkpt>
      <trkpt lat="43.58304" lon="6.793">
        <ele>206</ele>
        <time>2009-06-07T14:54:31Z</time>
      </trkpt>
      <trkpt lat="43.58311" lon="6.7928">
        <ele>205</ele>
        <time>2009-06-07T14:54:34Z</time>
      </trkpt>
      <trkpt lat="43.58312" lon="6.79261">
        <ele>205</ele>
        <time>2009-06-07T14:54:37Z</time>
      </trkpt>
      <trkpt lat="43.58306" lon="6.79244">
        <ele>205</ele>
        <time>2009-06-07T14:54:40Z</time>
      </trkpt>
      <trkpt lat="43.58278" lon="6.79225">
        <ele>204</ele>
        <time>2009-06-07T14:54:48Z</time>
      </trkpt>
      <trkpt lat="43.58264" lon="6.79227">
        <ele>203</ele>
        <time>2009-06-07T14:54:51Z</time>
      </trkpt>
      <trkpt lat="43.58247" lon="6.79229">
        <ele>203</ele>
        <time>2009-06-07T14:54:54Z</time>
      </trkpt>
      <trkpt lat="43.58237" lon="6.79219">
        <ele>203</ele>
        <time>2009-06-07T14:54:57Z</time>
      </trkpt>
      <trkpt lat="43.58234" lon="6.792">
        <ele>203</ele>
        <time>2009-06-07T14:55:00Z</time>
      </trkpt>
      <trkpt lat="43.58235" lon="6.79184">
        <ele>203</ele>
        <time>2009-06-07T14:55:03Z</time>
      </trkpt>
      <trkpt lat="43.5824" lon="6.79169">
        <ele>203</ele>
        <time>2009-06-07T14:55:06Z</time>
      </trkpt>
      <trkpt lat="43.5824" lon="6.79152">
        <ele>203</ele>
        <time>2009-06-07T14:55:09Z</time>
      </trkpt>
      <trkpt lat="43.5823" lon="6.79133">
        <ele>204</ele>
        <time>2009-06-07T14:55:15Z</time>
      </trkpt>
      <trkpt lat="43.5822" lon="6.79126">
        <ele>205</ele>
        <time>2009-06-07T14:55:18Z</time>
      </trkpt>
      <trkpt lat="43.5821" lon="6.79126">
        <ele>204</ele>
        <time>2009-06-07T14:55:21Z</time>
      </trkpt>
      <trkpt lat="43.58196" lon="6.79124">
        <ele>204</ele>
        <time>2009-06-07T14:55:24Z</time>
      </trkpt>
      <trkpt lat="43.58182" lon="6.79117">
        <ele>203</ele>
        <time>2009-06-07T14:55:27Z</time>
      </trkpt>
      <trkpt lat="43.58166" lon="6.79106">
        <ele>203</ele>
        <time>2009-06-07T14:55:30Z</time>
      </trkpt>
      <trkpt lat="43.58148" lon="6.79102">
        <ele>203</ele>
        <time>2009-06-07T14:55:33Z</time>
      </trkpt>
      <trkpt lat="43.5813" lon="6.79102">
        <ele>203</ele>
        <time>2009-06-07T14:55:36Z</time>
      </trkpt>
      <trkpt lat="43.58121" lon="6.79089">
        <ele>202</ele>
        <time>2009-06-07T14:55:39Z</time>
      </trkpt>
      <trkpt lat="43.58106" lon="6.79059">
        <ele>202</ele>
        <time>2009-06-07T14:55:47Z</time>
      </trkpt>
      <trkpt lat="43.58095" lon="6.79053">
        <ele>201</ele>
        <time>2009-06-07T14:55:50Z</time>
      </trkpt>
      <trkpt lat="43.58083" lon="6.79045">
        <ele>200</ele>
        <time>2009-06-07T14:55:52Z</time>
      </trkpt>
      <trkpt lat="43.58069" lon="6.79039">
        <ele>200</ele>
        <time>2009-06-07T14:55:56Z</time>
      </trkpt>
      <trkpt lat="43.58058" lon="6.79028">
        <ele>200</ele>
        <time>2009-06-07T14:55:59Z</time>
      </trkpt>
      <trkpt lat="43.58052" lon="6.79013">
        <ele>200</ele>
        <time>2009-06-07T14:56:02Z</time>
      </trkpt>
      <trkpt lat="43.5805" lon="6.79002">
        <ele>199</ele>
        <time>2009-06-07T14:56:05Z</time>
      </trkpt>
      <trkpt lat="43.58049" lon="6.78989">
        <ele>199</ele>
        <time>2009-06-07T14:56:08Z</time>
      </trkpt>
      <trkpt lat="43.58047" lon="6.78981">
        <ele>199</ele>
        <time>2009-06-07T14:56:11Z</time>
      </trkpt>
      <trkpt lat="43.58045" lon="6.78973">
        <ele>200</ele>
        <time>2009-06-07T14:56:14Z</time>
      </trkpt>
      <trkpt lat="43.58044" lon="6.78965">
        <ele>201</ele>
        <time>2009-06-07T14:56:17Z</time>
      </trkpt>
      <trkpt lat="43.58039" lon="6.78959">
        <ele>201</ele>
        <time>2009-06-07T14:56:20Z</time>
      </trkpt>
      <trkpt lat="43.58032" lon="6.78951">
        <ele>201</ele>
        <time>2009-06-07T14:56:22Z</time>
      </trkpt>
      <trkpt lat="43.58024" lon="6.78942">
        <ele>202</ele>
        <time>2009-06-07T14:56:26Z</time>
      </trkpt>
      <trkpt lat="43.58012" lon="6.78933">
        <ele>200</ele>
        <time>2009-06-07T14:56:29Z</time>
      </trkpt>
      <trkpt lat="43.58002" lon="6.78929">
        <ele>199</ele>
        <time>2009-06-07T14:56:32Z</time>
      </trkpt>
      <trkpt lat="43.57989" lon="6.78925">
        <ele>200</ele>
        <time>2009-06-07T14:56:35Z</time>
      </trkpt>
      <trkpt lat="43.57976" lon="6.7892">
        <ele>199</ele>
        <time>2009-06-07T14:56:38Z</time>
      </trkpt>
      <trkpt lat="43.57959" lon="6.78896">
        <ele>201</ele>
        <time>2009-06-07T14:56:41Z</time>
      </trkpt>
      <trkpt lat="43.57949" lon="6.78854">
        <ele>201</ele>
        <time>2009-06-07T14:56:49Z</time>
      </trkpt>
      <trkpt lat="43.57952" lon="6.78848">
        <ele>202</ele>
        <time>2009-06-07T14:56:50Z</time>
      </trkpt>
      <trkpt lat="43.57957" lon="6.78833">
        <ele>200</ele>
        <time>2009-06-07T14:56:53Z</time>
      </trkpt>
      <trkpt lat="43.57957" lon="6.78825">
        <ele>201</ele>
        <time>2009-06-07T14:56:54Z</time>
      </trkpt>
      <trkpt lat="43.57956" lon="6.78809">
        <ele>200</ele>
        <time>2009-06-07T14:56:57Z</time>
      </trkpt>
      <trkpt lat="43.57954" lon="6.78785">
        <ele>200</ele>
        <time>2009-06-07T14:57:01Z</time>
      </trkpt>
      <trkpt lat="43.57954" lon="6.78778">
        <ele>199</ele>
        <time>2009-06-07T14:57:02Z</time>
      </trkpt>
      <trkpt lat="43.57954" lon="6.78764">
        <ele>200</ele>
        <time>2009-06-07T14:57:05Z</time>
      </trkpt>
      <trkpt lat="43.57954" lon="6.78753">
        <ele>201</ele>
        <time>2009-06-07T14:57:06Z</time>
      </trkpt>
      <trkpt lat="43.57957" lon="6.78689">
        <ele>201</ele>
        <time>2009-06-07T14:57:15Z</time>
      </trkpt>
      <trkpt lat="43.57966" lon="6.78688">
        <ele>200</ele>
        <time>2009-06-07T14:57:18Z</time>
      </trkpt>
      <trkpt lat="43.57972" lon="6.78698">
        <ele>199</ele>
        <time>2009-06-07T14:57:21Z</time>
      </trkpt>
      <trkpt lat="43.57976" lon="6.7871">
        <ele>199</ele>
        <time>2009-06-07T14:57:24Z</time>
      </trkpt>
      <trkpt lat="43.5798" lon="6.78723">
        <ele>200</ele>
        <time>2009-06-07T14:57:27Z</time>
      </trkpt>
      <trkpt lat="43.57986" lon="6.78737">
        <ele>200</ele>
        <time>2009-06-07T14:57:30Z</time>
      </trkpt>
      <trkpt lat="43.57993" lon="6.78752">
        <ele>199</ele>
        <time>2009-06-07T14:57:32Z</time>
      </trkpt>
      <trkpt lat="43.58002" lon="6.78768">
        <ele>198</ele>
        <time>2009-06-07T14:57:35Z</time>
      </trkpt>
      <trkpt lat="43.5801" lon="6.78786">
        <ele>198</ele>
        <time>2009-06-07T14:57:39Z</time>
      </trkpt>
      <trkpt lat="43.58028" lon="6.78832">
        <ele>196</ele>
        <time>2009-06-07T14:57:47Z</time>
      </trkpt>
      <trkpt lat="43.58038" lon="6.78837">
        <ele>197</ele>
        <time>2009-06-07T14:57:49Z</time>
      </trkpt>
      <trkpt lat="43.58047" lon="6.78841">
        <ele>197</ele>
        <time>2009-06-07T14:57:52Z</time>
      </trkpt>
      <trkpt lat="43.58057" lon="6.78843">
        <ele>197</ele>
        <time>2009-06-07T14:57:56Z</time>
      </trkpt>
      <trkpt lat="43.58067" lon="6.78849">
        <ele>196</ele>
        <time>2009-06-07T14:57:59Z</time>
      </trkpt>
      <trkpt lat="43.58075" lon="6.78854">
        <ele>197</ele>
        <time>2009-06-07T14:58:02Z</time>
      </trkpt>
      <trkpt lat="43.58084" lon="6.78857">
        <ele>197</ele>
        <time>2009-06-07T14:58:05Z</time>
      </trkpt>
      <trkpt lat="43.58092" lon="6.78861">
        <ele>197</ele>
        <time>2009-06-07T14:58:08Z</time>
      </trkpt>
      <trkpt lat="43.58098" lon="6.78865">
        <ele>198</ele>
        <time>2009-06-07T14:58:11Z</time>
      </trkpt>
      <trkpt lat="43.58104" lon="6.7887">
        <ele>198</ele>
        <time>2009-06-07T14:58:14Z</time>
      </trkpt>
      <trkpt lat="43.5811" lon="6.78871">
        <ele>198</ele>
        <time>2009-06-07T14:58:17Z</time>
      </trkpt>
      <trkpt lat="43.58115" lon="6.78869">
        <ele>198</ele>
        <time>2009-06-07T14:58:20Z</time>
      </trkpt>
      <trkpt lat="43.58118" lon="6.78857">
        <ele>198</ele>
        <time>2009-06-07T14:58:26Z</time>
      </trkpt>
      <trkpt lat="43.5812" lon="6.78849">
        <ele>199</ele>
        <time>2009-06-07T14:58:29Z</time>
      </trkpt>
      <trkpt lat="43.5812" lon="6.78841">
        <ele>199</ele>
        <time>2009-06-07T14:58:31Z</time>
      </trkpt>
      <trkpt lat="43.58121" lon="6.78832">
        <ele>199</ele>
        <time>2009-06-07T14:58:34Z</time>
      </trkpt>
      <trkpt lat="43.58122" lon="6.78822">
        <ele>199</ele>
        <time>2009-06-07T14:58:38Z</time>
      </trkpt>
      <trkpt lat="43.58124" lon="6.78815">
        <ele>200</ele>
        <time>2009-06-07T14:58:41Z</time>
      </trkpt>
      <trkpt lat="43.58131" lon="6.78787">
        <ele>201</ele>
        <time>2009-06-07T14:58:49Z</time>
      </trkpt>
      <trkpt lat="43.58135" lon="6.78774">
        <ele>202</ele>
        <time>2009-06-07T14:58:52Z</time>
      </trkpt>
      <trkpt lat="43.5814" lon="6.7876">
        <ele>202</ele>
        <time>2009-06-07T14:58:55Z</time>
      </trkpt>
      <trkpt lat="43.58145" lon="6.78747">
        <ele>203</ele>
        <time>2009-06-07T14:58:58Z</time>
      </trkpt>
      <trkpt lat="43.58151" lon="6.78735">
        <ele>204</ele>
        <time>2009-06-07T14:59:01Z</time>
      </trkpt>
      <trkpt lat="43.58158" lon="6.78727">
        <ele>204</ele>
        <time>2009-06-07T14:59:04Z</time>
      </trkpt>
      <trkpt lat="43.58167" lon="6.78713">
        <ele>204</ele>
        <time>2009-06-07T14:59:07Z</time>
      </trkpt>
      <trkpt lat="43.58177" lon="6.78699">
        <ele>205</ele>
        <time>2009-06-07T14:59:10Z</time>
      </trkpt>
      <trkpt lat="43.58189" lon="6.78665">
        <ele>204</ele>
        <time>2009-06-07T14:59:16Z</time>
      </trkpt>
      <trkpt lat="43.58194" lon="6.78642">
        <ele>205</ele>
        <time>2009-06-07T14:59:19Z</time>
      </trkpt>
      <trkpt lat="43.58199" lon="6.78622">
        <ele>205</ele>
        <time>2009-06-07T14:59:22Z</time>
      </trkpt>
      <trkpt lat="43.58202" lon="6.786">
        <ele>204</ele>
        <time>2009-06-07T14:59:25Z</time>
      </trkpt>
      <trkpt lat="43.58207" lon="6.78576">
        <ele>203</ele>
        <time>2009-06-07T14:59:28Z</time>
      </trkpt>
      <trkpt lat="43.5821" lon="6.78555">
        <ele>203</ele>
        <time>2009-06-07T14:59:30Z</time>
      </trkpt>
      <trkpt lat="43.58212" lon="6.78535">
        <ele>204</ele>
        <time>2009-06-07T14:59:33Z</time>
      </trkpt>
      <trkpt lat="43.58215" lon="6.78514">
        <ele>204</ele>
        <time>2009-06-07T14:59:36Z</time>
      </trkpt>
      <trkpt lat="43.58214" lon="6.78495">
        <ele>204</ele>
        <time>2009-06-07T14:59:40Z</time>
      </trkpt>
      <trkpt lat="43.58211" lon="6.7845">
        <ele>206</ele>
        <time>2009-06-07T14:59:48Z</time>
      </trkpt>
      <trkpt lat="43.58213" lon="6.78441">
        <ele>207</ele>
        <time>2009-06-07T14:59:49Z</time>
      </trkpt>
      <trkpt lat="43.58225" lon="6.78424">
        <ele>210</ele>
        <time>2009-06-07T14:59:52Z</time>
      </trkpt>
      <trkpt lat="43.58231" lon="6.78423">
        <ele>211</ele>
        <time>2009-06-07T14:59:53Z</time>
      </trkpt>
      <trkpt lat="43.58242" lon="6.7842">
        <ele>213</ele>
        <time>2009-06-07T14:59:56Z</time>
      </trkpt>
      <trkpt lat="43.58248" lon="6.78421">
        <ele>213</ele>
        <time>2009-06-07T14:59:57Z</time>
      </trkpt>
      <trkpt lat="43.58262" lon="6.78415">
        <ele>212</ele>
        <time>2009-06-07T15:00:00Z</time>
      </trkpt>
      <trkpt lat="43.58268" lon="6.78412">
        <ele>211</ele>
        <time>2009-06-07T15:00:01Z</time>
      </trkpt>
      <trkpt lat="43.58276" lon="6.78399">
        <ele>210</ele>
        <time>2009-06-07T15:00:04Z</time>
      </trkpt>
      <trkpt lat="43.5828" lon="6.78384">
        <ele>209</ele>
        <time>2009-06-07T15:00:07Z</time>
      </trkpt>
      <trkpt lat="43.58276" lon="6.78345">
        <ele>208</ele>
        <time>2009-06-07T15:00:16Z</time>
      </trkpt>
      <trkpt lat="43.58272" lon="6.78324">
        <ele>208</ele>
        <time>2009-06-07T15:00:19Z</time>
      </trkpt>
      <trkpt lat="43.5827" lon="6.78315">
        <ele>207</ele>
        <time>2009-06-07T15:00:20Z</time>
      </trkpt>
      <trkpt lat="43.58267" lon="6.78296">
        <ele>206</ele>
        <time>2009-06-07T15:00:23Z</time>
      </trkpt>
      <trkpt lat="43.58268" lon="6.7829">
        <ele>207</ele>
        <time>2009-06-07T15:00:24Z</time>
      </trkpt>
      <trkpt lat="43.58264" lon="6.78266">
        <ele>206</ele>
        <time>2009-06-07T15:00:27Z</time>
      </trkpt>
      <trkpt lat="43.58262" lon="6.78256">
        <ele>206</ele>
        <time>2009-06-07T15:00:28Z</time>
      </trkpt>
      <trkpt lat="43.58262" lon="6.78237">
        <ele>206</ele>
        <time>2009-06-07T15:00:31Z</time>
      </trkpt>
      <trkpt lat="43.58262" lon="6.78228">
        <ele>206</ele>
        <time>2009-06-07T15:00:32Z</time>
      </trkpt>
      <trkpt lat="43.58274" lon="6.78178">
        <ele>208</ele>
        <time>2009-06-07T15:00:40Z</time>
      </trkpt>
      <trkpt lat="43.5828" lon="6.78171">
        <ele>209</ele>
        <time>2009-06-07T15:00:41Z</time>
      </trkpt>
      <trkpt lat="43.58287" lon="6.78154">
        <ele>208</ele>
        <time>2009-06-07T15:00:44Z</time>
      </trkpt>
      <trkpt lat="43.58289" lon="6.78147">
        <ele>207</ele>
        <time>2009-06-07T15:00:45Z</time>
      </trkpt>
      <trkpt lat="43.5829" lon="6.78128">
        <ele>207</ele>
        <time>2009-06-07T15:00:48Z</time>
      </trkpt>
      <trkpt lat="43.5829" lon="6.78121">
        <ele>206</ele>
        <time>2009-06-07T15:00:49Z</time>
      </trkpt>
      <trkpt lat="43.58285" lon="6.78106">
        <ele>206</ele>
        <time>2009-06-07T15:00:52Z</time>
      </trkpt>
      <trkpt lat="43.5828" lon="6.78097">
        <ele>205</ele>
        <time>2009-06-07T15:00:55Z</time>
      </trkpt>
      <trkpt lat="43.58268" lon="6.78093">
        <ele>204</ele>
        <time>2009-06-07T15:00:58Z</time>
      </trkpt>
      <trkpt lat="43.58261" lon="6.78084">
        <ele>204</ele>
        <time>2009-06-07T15:01:01Z</time>
      </trkpt>
      <trkpt lat="43.58254" lon="6.78053">
        <ele>207</ele>
        <time>2009-06-07T15:01:09Z</time>
      </trkpt>
      <trkpt lat="43.58254" lon="6.78044">
        <ele>208</ele>
        <time>2009-06-07T15:01:10Z</time>
      </trkpt>
      <trkpt lat="43.58252" lon="6.78027">
        <ele>209</ele>
        <time>2009-06-07T15:01:14Z</time>
      </trkpt>
      <trkpt lat="43.58245" lon="6.78013">
        <ele>207</ele>
        <time>2009-06-07T15:01:20Z</time>
      </trkpt>
      <trkpt lat="43.58236" lon="6.78">
        <ele>209</ele>
        <time>2009-06-07T15:01:23Z</time>
      </trkpt>
      <trkpt lat="43.58232" lon="6.77996">
        <ele>210</ele>
        <time>2009-06-07T15:01:24Z</time>
      </trkpt>
      <trkpt lat="43.58226" lon="6.77989">
        <ele>210</ele>
        <time>2009-06-07T15:01:27Z</time>
      </trkpt>
      <trkpt lat="43.58219" lon="6.77976">
        <ele>212</ele>
        <time>2009-06-07T15:01:31Z</time>
      </trkpt>
      <trkpt lat="43.58213" lon="6.77957">
        <ele>216</ele>
        <time>2009-06-07T15:01:40Z</time>
      </trkpt>
      <trkpt lat="43.5821" lon="6.7795">
        <ele>217</ele>
        <time>2009-06-07T15:01:41Z</time>
      </trkpt>
      <trkpt lat="43.58203" lon="6.77939">
        <ele>217</ele>
        <time>2009-06-07T15:01:44Z</time>
      </trkpt>
      <trkpt lat="43.58197" lon="6.77925">
        <ele>218</ele>
        <time>2009-06-07T15:01:48Z</time>
      </trkpt>
      <trkpt lat="43.58194" lon="6.77911">
        <ele>218</ele>
        <time>2009-06-07T15:01:54Z</time>
      </trkpt>
      <trkpt lat="43.58192" lon="6.77905">
        <ele>218</ele>
        <time>2009-06-07T15:01:55Z</time>
      </trkpt>
      <trkpt lat="43.58189" lon="6.77894">
        <ele>219</ele>
        <time>2009-06-07T15:01:58Z</time>
      </trkpt>
      <trkpt lat="43.58185" lon="6.7788">
        <ele>222</ele>
        <time>2009-06-07T15:02:01Z</time>
      </trkpt>
      <trkpt lat="43.58189" lon="6.77846">
        <ele>222</ele>
        <time>2009-06-07T15:02:09Z</time>
      </trkpt>
      <trkpt lat="43.58185" lon="6.77834">
        <ele>224</ele>
        <time>2009-06-07T15:02:10Z</time>
      </trkpt>
      <trkpt lat="43.58179" lon="6.7781">
        <ele>228</ele>
        <time>2009-06-07T15:02:14Z</time>
      </trkpt>
      <trkpt lat="43.58176" lon="6.7779">
        <ele>228</ele>
        <time>2009-06-07T15:02:17Z</time>
      </trkpt>
      <trkpt lat="43.58174" lon="6.77772">
        <ele>227</ele>
        <time>2009-06-07T15:02:20Z</time>
      </trkpt>
      <trkpt lat="43.58174" lon="6.77749">
        <ele>229</ele>
        <time>2009-06-07T15:02:23Z</time>
      </trkpt>
      <trkpt lat="43.58176" lon="6.7773">
        <ele>227</ele>
        <time>2009-06-07T15:02:26Z</time>
      </trkpt>
      <trkpt lat="43.5818" lon="6.77709">
        <ele>225</ele>
        <time>2009-06-07T15:02:29Z</time>
      </trkpt>
      <trkpt lat="43.58186" lon="6.77689">
        <ele>225</ele>
        <time>2009-06-07T15:02:32Z</time>
      </trkpt>
      <trkpt lat="43.5819" lon="6.77662">
        <ele>224</ele>
        <time>2009-06-07T15:02:35Z</time>
      </trkpt>
      <trkpt lat="43.58196" lon="6.77633">
        <ele>223</ele>
        <time>2009-06-07T15:02:38Z</time>
      </trkpt>
      <trkpt lat="43.58231" lon="6.77572">
        <ele>219</ele>
        <time>2009-06-07T15:02:46Z</time>
      </trkpt>
      <trkpt lat="43.58231" lon="6.77559">
        <ele>219</ele>
        <time>2009-06-07T15:02:47Z</time>
      </trkpt>
      <trkpt lat="43.5824" lon="6.7753">
        <ele>217</ele>
        <time>2009-06-07T15:02:50Z</time>
      </trkpt>
      <trkpt lat="43.58248" lon="6.775">
        <ele>216</ele>
        <time>2009-06-07T15:02:52Z</time>
      </trkpt>
      <trkpt lat="43.58258" lon="6.7747">
        <ele>215</ele>
        <time>2009-06-07T15:02:55Z</time>
      </trkpt>
      <trkpt lat="43.5826" lon="6.77443">
        <ele>211</ele>
        <time>2009-06-07T15:02:59Z</time>
      </trkpt>
      <trkpt lat="43.58255" lon="6.77422">
        <ele>211</ele>
        <time>2009-06-07T15:03:02Z</time>
      </trkpt>
      <trkpt lat="43.58243" lon="6.7741">
        <ele>209</ele>
        <time>2009-06-07T15:03:05Z</time>
      </trkpt>
      <trkpt lat="43.58234" lon="6.77393">
        <ele>208</ele>
        <time>2009-06-07T15:03:08Z</time>
      </trkpt>
      <trkpt lat="43.58235" lon="6.7738">
        <ele>208</ele>
        <time>2009-06-07T15:03:11Z</time>
      </trkpt>
      <trkpt lat="43.58244" lon="6.7737">
        <ele>208</ele>
        <time>2009-06-07T15:03:14Z</time>
      </trkpt>
      <trkpt lat="43.58254" lon="6.77362">
        <ele>208</ele>
        <time>2009-06-07T15:03:17Z</time>
      </trkpt>
      <trkpt lat="43.58263" lon="6.7735">
        <ele>209</ele>
        <time>2009-06-07T15:03:20Z</time>
      </trkpt>
      <trkpt lat="43.58269" lon="6.77336">
        <ele>209</ele>
        <time>2009-06-07T15:03:23Z</time>
      </trkpt>
      <trkpt lat="43.58275" lon="6.77322">
        <ele>208</ele>
        <time>2009-06-07T15:03:26Z</time>
      </trkpt>
      <trkpt lat="43.58277" lon="6.77311">
        <ele>209</ele>
        <time>2009-06-07T15:03:29Z</time>
      </trkpt>
      <trkpt lat="43.58279" lon="6.77299">
        <ele>209</ele>
        <time>2009-06-07T15:03:32Z</time>
      </trkpt>
      <trkpt lat="43.5827" lon="6.77281">
        <ele>207</ele>
        <time>2009-06-07T15:03:35Z</time>
      </trkpt>
      <trkpt lat="43.58265" lon="6.77277">
        <ele>205</ele>
        <time>2009-06-07T15:03:36Z</time>
      </trkpt>
      <trkpt lat="43.58259" lon="6.77268">
        <ele>203</ele>
        <time>2009-06-07T15:03:39Z</time>
      </trkpt>
      <trkpt lat="43.58233" lon="6.77253">
        <ele>202</ele>
        <time>2009-06-07T15:03:48Z</time>
      </trkpt>
      <trkpt lat="43.58229" lon="6.77248">
        <ele>202</ele>
        <time>2009-06-07T15:03:49Z</time>
      </trkpt>
      <trkpt lat="43.58213" lon="6.77243">
        <ele>200</ele>
        <time>2009-06-07T15:03:52Z</time>
      </trkpt>
      <trkpt lat="43.58205" lon="6.77242">
        <ele>199</ele>
        <time>2009-06-07T15:03:53Z</time>
      </trkpt>
      <trkpt lat="43.58193" lon="6.7724">
        <ele>198</ele>
        <time>2009-06-07T15:03:56Z</time>
      </trkpt>
      <trkpt lat="43.58184" lon="6.77238">
        <ele>198</ele>
        <time>2009-06-07T15:03:57Z</time>
      </trkpt>
      <trkpt lat="43.58169" lon="6.77237">
        <ele>199</ele>
        <time>2009-06-07T15:04:00Z</time>
      </trkpt>
      <trkpt lat="43.58152" lon="6.77237">
        <ele>197</ele>
        <time>2009-06-07T15:04:03Z</time>
      </trkpt>
      <trkpt lat="43.58143" lon="6.7724">
        <ele>198</ele>
        <time>2009-06-07T15:04:05Z</time>
      </trkpt>
      <trkpt lat="43.58137" lon="6.77238">
        <ele>198</ele>
        <time>2009-06-07T15:04:06Z</time>
      </trkpt>
      <trkpt lat="43.58112" lon="6.77231">
        <ele>200</ele>
        <time>2009-06-07T15:04:16Z</time>
      </trkpt>
      <trkpt lat="43.581" lon="6.77223">
        <ele>200</ele>
        <time>2009-06-07T15:04:19Z</time>
      </trkpt>
      <trkpt lat="43.58095" lon="6.77215">
        <ele>201</ele>
        <time>2009-06-07T15:04:20Z</time>
      </trkpt>
      <trkpt lat="43.58076" lon="6.77181">
        <ele>209</ele>
        <time>2009-06-07T15:04:23Z</time>
      </trkpt>
      <trkpt lat="43.58076" lon="6.77174">
        <ele>211</ele>
        <time>2009-06-07T15:04:24Z</time>
      </trkpt>
      <trkpt lat="43.58078" lon="6.77163">
        <ele>211</ele>
        <time>2009-06-07T15:04:27Z</time>
      </trkpt>
      <trkpt lat="43.58088" lon="6.77156">
        <ele>211</ele>
        <time>2009-06-07T15:04:30Z</time>
      </trkpt>
      <trkpt lat="43.58098" lon="6.77158">
        <ele>212</ele>
        <time>2009-06-07T15:04:33Z</time>
      </trkpt>
      <trkpt lat="43.58109" lon="6.77165">
        <ele>212</ele>
        <time>2009-06-07T15:04:36Z</time>
      </trkpt>
      <trkpt lat="43.58134" lon="6.77171">
        <ele>210</ele>
        <time>2009-06-07T15:04:44Z</time>
      </trkpt>
      <trkpt lat="43.58149" lon="6.7717">
        <ele>209</ele>
        <time>2009-06-07T15:04:48Z</time>
      </trkpt>
      <trkpt lat="43.58154" lon="6.7717">
        <ele>209</ele>
        <time>2009-06-07T15:04:49Z</time>
      </trkpt>
      <trkpt lat="43.58166" lon="6.77172">
        <ele>208</ele>
        <time>2009-06-07T15:04:52Z</time>
      </trkpt>
      <trkpt lat="43.58179" lon="6.77175">
        <ele>206</ele>
        <time>2009-06-07T15:04:55Z</time>
      </trkpt>
      <trkpt lat="43.58191" lon="6.7718">
        <ele>206</ele>
        <time>2009-06-07T15:04:58Z</time>
      </trkpt>
      <trkpt lat="43.58208" lon="6.77183">
        <ele>205</ele>
        <time>2009-06-07T15:05:01Z</time>
      </trkpt>
      <trkpt lat="43.58224" lon="6.77188">
        <ele>205</ele>
        <time>2009-06-07T15:05:05Z</time>
      </trkpt>
      <trkpt lat="43.58253" lon="6.7719">
        <ele>204</ele>
        <time>2009-06-07T15:05:14Z</time>
      </trkpt>
      <trkpt lat="43.58261" lon="6.77189">
        <ele>204</ele>
        <time>2009-06-07T15:05:17Z</time>
      </trkpt>
      <trkpt lat="43.58268" lon="6.77188">
        <ele>205</ele>
        <time>2009-06-07T15:05:20Z</time>
      </trkpt>
      <trkpt lat="43.58273" lon="6.77186">
        <ele>205</ele>
        <time>2009-06-07T15:05:23Z</time>
      </trkpt>
      <trkpt lat="43.58281" lon="6.77189">
        <ele>204</ele>
        <time>2009-06-07T15:05:26Z</time>
      </trkpt>
      <trkpt lat="43.5829" lon="6.77187">
        <ele>203</ele>
        <time>2009-06-07T15:05:32Z</time>
      </trkpt>
      <trkpt lat="43.58295" lon="6.77184">
        <ele>204</ele>
        <time>2009-06-07T15:05:35Z</time>
      </trkpt>
      <trkpt lat="43.58302" lon="6.77183">
        <ele>204</ele>
        <time>2009-06-07T15:05:38Z</time>
      </trkpt>
      <trkpt lat="43.58313" lon="6.77181">
        <ele>202</ele>
        <time>2009-06-07T15:05:46Z</time>
      </trkpt>
      <trkpt lat="43.58322" lon="6.77177">
        <ele>202</ele>
        <time>2009-06-07T15:05:50Z</time>
      </trkpt>
      <trkpt lat="43.58329" lon="6.77178">
        <ele>204</ele>
        <time>2009-06-07T15:05:53Z</time>
      </trkpt>
      <trkpt lat="43.58335" lon="6.77178">
        <ele>207</ele>
        <time>2009-06-07T15:05:56Z</time>
      </trkpt>
      <trkpt lat="43.58343" lon="6.77178">
        <ele>207</ele>
        <time>2009-06-07T15:05:59Z</time>
      </trkpt>
      <trkpt lat="43.5835" lon="6.77178">
        <ele>207</ele>
        <time>2009-06-07T15:06:02Z</time>
      </trkpt>
      <trkpt lat="43.58362" lon="6.77178">
        <ele>206</ele>
        <time>2009-06-07T15:06:05Z</time>
      </trkpt>
      <trkpt lat="43.58377" lon="6.77182">
        <ele>206</ele>
        <time>2009-06-07T15:06:08Z</time>
      </trkpt>
      <trkpt lat="43.58393" lon="6.77182">
        <ele>206</ele>
        <time>2009-06-07T15:06:11Z</time>
      </trkpt>
      <trkpt lat="43.58422" lon="6.77183">
        <ele>204</ele>
        <time>2009-06-07T15:06:15Z</time>
      </trkpt>
      <trkpt lat="43.58442" lon="6.77181">
        <ele>204</ele>
        <time>2009-06-07T15:06:18Z</time>
      </trkpt>
      <trkpt lat="43.58448" lon="6.77182">
        <ele>203</ele>
        <time>2009-06-07T15:06:19Z</time>
      </trkpt>
      <trkpt lat="43.58463" lon="6.7718">
        <ele>204</ele>
        <time>2009-06-07T15:06:22Z</time>
      </trkpt>
      <trkpt lat="43.58486" lon="6.77179">
        <ele>203</ele>
        <time>2009-06-07T15:06:26Z</time>
      </trkpt>
      <trkpt lat="43.58507" lon="6.77171">
        <ele>202</ele>
        <time>2009-06-07T15:06:29Z</time>
      </trkpt>
      <trkpt lat="43.58531" lon="6.77163">
        <ele>203</ele>
        <time>2009-06-07T15:06:32Z</time>
      </trkpt>
      <trkpt lat="43.58591" lon="6.77149">
        <ele>205</ele>
        <time>2009-06-07T15:06:41Z</time>
      </trkpt>
      <trkpt lat="43.58602" lon="6.77147">
        <ele>205</ele>
        <time>2009-06-07T15:06:42Z</time>
      </trkpt>
      <trkpt lat="43.58623" lon="6.77145">
        <ele>204</ele>
        <time>2009-06-07T15:06:45Z</time>
      </trkpt>
      <trkpt lat="43.58629" lon="6.77145">
        <ele>203</ele>
        <time>2009-06-07T15:06:46Z</time>
      </trkpt>
      <trkpt lat="43.58647" lon="6.7714">
        <ele>202</ele>
        <time>2009-06-07T15:06:49Z</time>
      </trkpt>
      <trkpt lat="43.58659" lon="6.7713">
        <ele>202</ele>
        <time>2009-06-07T15:06:51Z</time>
      </trkpt>
      <trkpt lat="43.58665" lon="6.77115">
        <ele>201</ele>
        <time>2009-06-07T15:06:55Z</time>
      </trkpt>
      <trkpt lat="43.58667" lon="6.77104">
        <ele>201</ele>
        <time>2009-06-07T15:06:58Z</time>
      </trkpt>
      <trkpt lat="43.58671" lon="6.77093">
        <ele>202</ele>
        <time>2009-06-07T15:07:01Z</time>
      </trkpt>
      <trkpt lat="43.5867" lon="6.77075">
        <ele>204</ele>
        <time>2009-06-07T15:07:15Z</time>
      </trkpt>
      <trkpt lat="43.58667" lon="6.77069">
        <ele>205</ele>
        <time>2009-06-07T15:07:21Z</time>
      </trkpt>
      <trkpt lat="43.58665" lon="6.77061">
        <ele>205</ele>
        <time>2009-06-07T15:07:27Z</time>
      </trkpt>
      <trkpt lat="43.58665" lon="6.77052">
        <ele>204</ele>
        <time>2009-06-07T15:07:33Z</time>
      </trkpt>
      <trkpt lat="43.58664" lon="6.77054">
        <ele>204</ele>
        <time>2009-06-07T15:08:02Z</time>
      </trkpt>
      <trkpt lat="43.58665" lon="6.77053">
        <ele>207</ele>
        <time>2009-06-07T15:08:26Z</time>
      </trkpt>
      <trkpt lat="43.58655" lon="6.77044">
        <ele>208</ele>
        <time>2009-06-07T15:08:29Z</time>
      </trkpt>
      <trkpt lat="43.58652" lon="6.77038">
        <ele>209</ele>
        <time>2009-06-07T15:08:31Z</time>
      </trkpt>
      <trkpt lat="43.58646" lon="6.77027">
        <ele>209</ele>
        <time>2009-06-07T15:08:38Z</time>
      </trkpt>
      <trkpt lat="43.58637" lon="6.77006">
        <ele>211</ele>
        <time>2009-06-07T15:08:49Z</time>
      </trkpt>
      <trkpt lat="43.58635" lon="6.76997">
        <ele>213</ele>
        <time>2009-06-07T15:08:55Z</time>
      </trkpt>
      <trkpt lat="43.5863" lon="6.76989">
        <ele>214</ele>
        <time>2009-06-07T15:09:01Z</time>
      </trkpt>
      <trkpt lat="43.58625" lon="6.76984">
        <ele>214</ele>
        <time>2009-06-07T15:09:07Z</time>
      </trkpt>
      <trkpt lat="43.58614" lon="6.76972">
        <ele>215</ele>
        <time>2009-06-07T15:09:16Z</time>
      </trkpt>
      <trkpt lat="43.58607" lon="6.76968">
        <ele>216</ele>
        <time>2009-06-07T15:09:22Z</time>
      </trkpt>
      <trkpt lat="43.58601" lon="6.76962">
        <ele>217</ele>
        <time>2009-06-07T15:09:28Z</time>
      </trkpt>
      <trkpt lat="43.58592" lon="6.76956">
        <ele>217</ele>
        <time>2009-06-07T15:09:35Z</time>
      </trkpt>
      <trkpt lat="43.58586" lon="6.76951">
        <ele>218</ele>
        <time>2009-06-07T15:09:39Z</time>
      </trkpt>
      <trkpt lat="43.58574" lon="6.76947">
        <ele>218</ele>
        <time>2009-06-07T15:09:49Z</time>
      </trkpt>
      <trkpt lat="43.58568" lon="6.76939">
        <ele>221</ele>
        <time>2009-06-07T15:09:54Z</time>
      </trkpt>
      <trkpt lat="43.58564" lon="6.76934">
        <ele>221</ele>
        <time>2009-06-07T15:09:58Z</time>
      </trkpt>
      <trkpt lat="43.58556" lon="6.76926">
        <ele>221</ele>
        <time>2009-06-07T15:10:05Z</time>
      </trkpt>
      <trkpt lat="43.58554" lon="6.76919">
        <ele>222</ele>
        <time>2009-06-07T15:10:09Z</time>
      </trkpt>
      <trkpt lat="43.58548" lon="6.7691">
        <ele>224</ele>
        <time>2009-06-07T15:10:16Z</time>
      </trkpt>
      <trkpt lat="43.58545" lon="6.76903">
        <ele>224</ele>
        <time>2009-06-07T15:10:22Z</time>
      </trkpt>
      <trkpt lat="43.58541" lon="6.76892">
        <ele>225</ele>
        <time>2009-06-07T15:10:26Z</time>
      </trkpt>
      <trkpt lat="43.58541" lon="6.76884">
        <ele>226</ele>
        <time>2009-06-07T15:10:30Z</time>
      </trkpt>
      <trkpt lat="43.58538" lon="6.76877">
        <ele>227</ele>
        <time>2009-06-07T15:10:31Z</time>
      </trkpt>
      <trkpt lat="43.58535" lon="6.76866">
        <ele>228</ele>
        <time>2009-06-07T15:10:35Z</time>
      </trkpt>
      <trkpt lat="43.58532" lon="6.76845">
        <ele>229</ele>
        <time>2009-06-07T15:10:44Z</time>
      </trkpt>
      <trkpt lat="43.58531" lon="6.76835">
        <ele>229</ele>
        <time>2009-06-07T15:10:48Z</time>
      </trkpt>
      <trkpt lat="43.58531" lon="6.76825">
        <ele>230</ele>
        <time>2009-06-07T15:10:51Z</time>
      </trkpt>
      <trkpt lat="43.5853" lon="6.76816">
        <ele>232</ele>
        <time>2009-06-07T15:10:56Z</time>
      </trkpt>
      <trkpt lat="43.58526" lon="6.76806">
        <ele>234</ele>
        <time>2009-06-07T15:11:00Z</time>
      </trkpt>
      <trkpt lat="43.58527" lon="6.76798">
        <ele>235</ele>
        <time>2009-06-07T15:11:04Z</time>
      </trkpt>
      <trkpt lat="43.58528" lon="6.76776">
        <ele>237</ele>
        <time>2009-06-07T15:11:14Z</time>
      </trkpt>
      <trkpt lat="43.58526" lon="6.76767">
        <ele>238</ele>
        <time>2009-06-07T15:11:18Z</time>
      </trkpt>
      <trkpt lat="43.58527" lon="6.7676">
        <ele>240</ele>
        <time>2009-06-07T15:11:22Z</time>
      </trkpt>
      <trkpt lat="43.58527" lon="6.76754">
        <ele>241</ele>
        <time>2009-06-07T15:11:26Z</time>
      </trkpt>
      <trkpt lat="43.58527" lon="6.76745">
        <ele>241</ele>
        <time>2009-06-07T15:11:32Z</time>
      </trkpt>
      <trkpt lat="43.58526" lon="6.76723">
        <ele>245</ele>
        <time>2009-06-07T15:11:42Z</time>
      </trkpt>
      <trkpt lat="43.58527" lon="6.76716">
        <ele>246</ele>
        <time>2009-06-07T15:11:46Z</time>
      </trkpt>
      <trkpt lat="43.58527" lon="6.76708">
        <ele>247</ele>
        <time>2009-06-07T15:11:51Z</time>
      </trkpt>
      <trkpt lat="43.58525" lon="6.76696">
        <ele>248</ele>
        <time>2009-06-07T15:11:58Z</time>
      </trkpt>
      <trkpt lat="43.58526" lon="6.76689">
        <ele>249</ele>
        <time>2009-06-07T15:12:02Z</time>
      </trkpt>
      <trkpt lat="43.58525" lon="6.76682">
        <ele>250</ele>
        <time>2009-06-07T15:12:03Z</time>
      </trkpt>
      <trkpt lat="43.58527" lon="6.76649">
        <ele>252</ele>
        <time>2009-06-07T15:12:17Z</time>
      </trkpt>
      <trkpt lat="43.58527" lon="6.7664">
        <ele>252</ele>
        <time>2009-06-07T15:12:21Z</time>
      </trkpt>
      <trkpt lat="43.58526" lon="6.76626">
        <ele>253</ele>
        <time>2009-06-07T15:12:28Z</time>
      </trkpt>
      <trkpt lat="43.58525" lon="6.7662">
        <ele>254</ele>
        <time>2009-06-07T15:12:29Z</time>
      </trkpt>
      <trkpt lat="43.58526" lon="6.76614">
        <ele>254</ele>
        <time>2009-06-07T15:12:32Z</time>
      </trkpt>
      <trkpt lat="43.58523" lon="6.76595">
        <ele>255</ele>
        <time>2009-06-07T15:12:41Z</time>
      </trkpt>
      <trkpt lat="43.58523" lon="6.76585">
        <ele>256</ele>
        <time>2009-06-07T15:12:45Z</time>
      </trkpt>
      <trkpt lat="43.58526" lon="6.76576">
        <ele>259</ele>
        <time>2009-06-07T15:12:49Z</time>
      </trkpt>
      <trkpt lat="43.58529" lon="6.76565">
        <ele>260</ele>
        <time>2009-06-07T15:12:55Z</time>
      </trkpt>
      <trkpt lat="43.58528" lon="6.76555">
        <ele>259</ele>
        <time>2009-06-07T15:13:01Z</time>
      </trkpt>
      <trkpt lat="43.58523" lon="6.76535">
        <ele>258</ele>
        <time>2009-06-07T15:13:15Z</time>
      </trkpt>
      <trkpt lat="43.58522" lon="6.76529">
        <ele>259</ele>
        <time>2009-06-07T15:13:18Z</time>
      </trkpt>
      <trkpt lat="43.5852" lon="6.76522">
        <ele>260</ele>
        <time>2009-06-07T15:13:21Z</time>
      </trkpt>
      <trkpt lat="43.58516" lon="6.76516">
        <ele>261</ele>
        <time>2009-06-07T15:13:24Z</time>
      </trkpt>
      <trkpt lat="43.5851" lon="6.7651">
        <ele>264</ele>
        <time>2009-06-07T15:13:27Z</time>
      </trkpt>
      <trkpt lat="43.58507" lon="6.76504">
        <ele>264</ele>
        <time>2009-06-07T15:13:30Z</time>
      </trkpt>
      <trkpt lat="43.585" lon="6.76496">
        <ele>265</ele>
        <time>2009-06-07T15:13:33Z</time>
      </trkpt>
      <trkpt lat="43.58496" lon="6.76492">
        <ele>266</ele>
        <time>2009-06-07T15:13:36Z</time>
      </trkpt>
      <trkpt lat="43.58491" lon="6.76487">
        <ele>265</ele>
        <time>2009-06-07T15:13:39Z</time>
      </trkpt>
      <trkpt lat="43.58479" lon="6.76477">
        <ele>266</ele>
        <time>2009-06-07T15:13:47Z</time>
      </trkpt>
      <trkpt lat="43.58472" lon="6.76473">
        <ele>267</ele>
        <time>2009-06-07T15:13:50Z</time>
      </trkpt>
      <trkpt lat="43.58465" lon="6.7647">
        <ele>267</ele>
        <time>2009-06-07T15:13:53Z</time>
      </trkpt>
      <trkpt lat="43.5846" lon="6.76467">
        <ele>267</ele>
        <time>2009-06-07T15:13:56Z</time>
      </trkpt>
      <trkpt lat="43.58453" lon="6.76464">
        <ele>266</ele>
        <time>2009-06-07T15:13:59Z</time>
      </trkpt>
      <trkpt lat="43.58445" lon="6.76458">
        <ele>265</ele>
        <time>2009-06-07T15:14:02Z</time>
      </trkpt>
      <trkpt lat="43.58437" lon="6.76452">
        <ele>264</ele>
        <time>2009-06-07T15:14:05Z</time>
      </trkpt>
      <trkpt lat="43.5843" lon="6.76447">
        <ele>264</ele>
        <time>2009-06-07T15:14:08Z</time>
      </trkpt>
      <trkpt lat="43.58423" lon="6.76439">
        <ele>265</ele>
        <time>2009-06-07T15:14:11Z</time>
      </trkpt>
      <trkpt lat="43.58408" lon="6.76424">
        <ele>266</ele>
        <time>2009-06-07T15:14:17Z</time>
      </trkpt>
      <trkpt lat="43.58399" lon="6.76417">
        <ele>266</ele>
        <time>2009-06-07T15:14:20Z</time>
      </trkpt>
      <trkpt lat="43.58392" lon="6.76411">
        <ele>266</ele>
        <time>2009-06-07T15:14:23Z</time>
      </trkpt>
      <trkpt lat="43.58385" lon="6.76404">
        <ele>266</ele>
        <time>2009-06-07T15:14:26Z</time>
      </trkpt>
      <trkpt lat="43.58376" lon="6.76395">
        <ele>266</ele>
        <time>2009-06-07T15:14:29Z</time>
      </trkpt>
      <trkpt lat="43.58358" lon="6.76384">
        <ele>265</ele>
        <time>2009-06-07T15:14:32Z</time>
      </trkpt>
      <trkpt lat="43.58347" lon="6.76376">
        <ele>265</ele>
        <time>2009-06-07T15:14:35Z</time>
      </trkpt>
      <trkpt lat="43.58339" lon="6.76371">
        <ele>265</ele>
        <time>2009-06-07T15:14:38Z</time>
      </trkpt>
      <trkpt lat="43.58325" lon="6.76359">
        <ele>263</ele>
        <time>2009-06-07T15:14:41Z</time>
      </trkpt>
      <trkpt lat="43.58301" lon="6.7633">
        <ele>265</ele>
        <time>2009-06-07T15:14:49Z</time>
      </trkpt>
      <trkpt lat="43.58296" lon="6.76319">
        <ele>266</ele>
        <time>2009-06-07T15:14:50Z</time>
      </trkpt>
      <trkpt lat="43.58287" lon="6.76309">
        <ele>267</ele>
        <time>2009-06-07T15:14:53Z</time>
      </trkpt>
      <trkpt lat="43.58281" lon="6.76302">
        <ele>268</ele>
        <time>2009-06-07T15:14:56Z</time>
      </trkpt>
      <trkpt lat="43.58275" lon="6.76293">
        <ele>269</ele>
        <time>2009-06-07T15:14:59Z</time>
      </trkpt>
      <trkpt lat="43.58271" lon="6.76286">
        <ele>269</ele>
        <time>2009-06-07T15:15:02Z</time>
      </trkpt>
      <trkpt lat="43.58268" lon="6.7628">
        <ele>269</ele>
        <time>2009-06-07T15:15:05Z</time>
      </trkpt>
      <trkpt lat="43.58266" lon="6.76274">
        <ele>269</ele>
        <time>2009-06-07T15:15:08Z</time>
      </trkpt>
      <trkpt lat="43.58265" lon="6.76268">
        <ele>269</ele>
        <time>2009-06-07T15:15:11Z</time>
      </trkpt>
      <trkpt lat="43.58261" lon="6.76259">
        <ele>270</ele>
        <time>2009-06-07T15:15:14Z</time>
      </trkpt>
      <trkpt lat="43.58258" lon="6.76252">
        <ele>271</ele>
        <time>2009-06-07T15:15:17Z</time>
      </trkpt>
      <trkpt lat="43.5826" lon="6.76243">
        <ele>272</ele>
        <time>2009-06-07T15:15:23Z</time>
      </trkpt>
      <trkpt lat="43.58263" lon="6.7624">
        <ele>271</ele>
        <time>2009-06-07T15:15:26Z</time>
      </trkpt>
      <trkpt lat="43.58269" lon="6.76237">
        <ele>272</ele>
        <time>2009-06-07T15:15:29Z</time>
      </trkpt>
      <trkpt lat="43.58275" lon="6.76234">
        <ele>271</ele>
        <time>2009-06-07T15:15:34Z</time>
      </trkpt>
      <trkpt lat="43.58279" lon="6.7623">
        <ele>271</ele>
        <time>2009-06-07T15:15:38Z</time>
      </trkpt>
      <trkpt lat="43.58281" lon="6.76213">
        <ele>272</ele>
        <time>2009-06-07T15:15:49Z</time>
      </trkpt>
      <trkpt lat="43.58275" lon="6.76212">
        <ele>272</ele>
        <time>2009-06-07T15:15:55Z</time>
      </trkpt>
      <trkpt lat="43.58267" lon="6.76211">
        <ele>274</ele>
        <time>2009-06-07T15:16:01Z</time>
      </trkpt>
      <trkpt lat="43.58258" lon="6.76209">
        <ele>277</ele>
        <time>2009-06-07T15:16:07Z</time>
      </trkpt>
      <trkpt lat="43.58253" lon="6.76208">
        <ele>277</ele>
        <time>2009-06-07T15:16:10Z</time>
      </trkpt>
      <trkpt lat="43.58247" lon="6.76201">
        <ele>278</ele>
        <time>2009-06-07T15:16:16Z</time>
      </trkpt>
      <trkpt lat="43.58244" lon="6.76192">
        <ele>279</ele>
        <time>2009-06-07T15:16:22Z</time>
      </trkpt>
      <trkpt lat="43.58245" lon="6.76183">
        <ele>280</ele>
        <time>2009-06-07T15:16:28Z</time>
      </trkpt>
      <trkpt lat="43.58247" lon="6.76175">
        <ele>282</ele>
        <time>2009-06-07T15:16:34Z</time>
      </trkpt>
      <trkpt lat="43.58254" lon="6.76167">
        <ele>283</ele>
        <time>2009-06-07T15:16:40Z</time>
      </trkpt>
      <trkpt lat="43.58259" lon="6.76153">
        <ele>285</ele>
        <time>2009-06-07T15:16:48Z</time>
      </trkpt>
      <trkpt lat="43.58259" lon="6.76143">
        <ele>286</ele>
        <time>2009-06-07T15:16:51Z</time>
      </trkpt>
      <trkpt lat="43.58261" lon="6.76136">
        <ele>286</ele>
        <time>2009-06-07T15:16:54Z</time>
      </trkpt>
      <trkpt lat="43.58262" lon="6.76125">
        <ele>288</ele>
        <time>2009-06-07T15:17:00Z</time>
      </trkpt>
      <trkpt lat="43.58265" lon="6.76116">
        <ele>289</ele>
        <time>2009-06-07T15:17:06Z</time>
      </trkpt>
      <trkpt lat="43.58272" lon="6.76099">
        <ele>290</ele>
        <time>2009-06-07T15:17:15Z</time>
      </trkpt>
      <trkpt lat="43.58276" lon="6.76088">
        <ele>292</ele>
        <time>2009-06-07T15:17:21Z</time>
      </trkpt>
      <trkpt lat="43.58278" lon="6.76078">
        <ele>293</ele>
        <time>2009-06-07T15:17:27Z</time>
      </trkpt>
      <trkpt lat="43.58279" lon="6.76068">
        <ele>294</ele>
        <time>2009-06-07T15:17:33Z</time>
      </trkpt>
      <trkpt lat="43.58281" lon="6.76059">
        <ele>296</ele>
        <time>2009-06-07T15:17:39Z</time>
      </trkpt>
      <trkpt lat="43.58283" lon="6.76053">
        <ele>296</ele>
        <time>2009-06-07T15:17:42Z</time>
      </trkpt>
      <trkpt lat="43.58286" lon="6.76037">
        <ele>297</ele>
        <time>2009-06-07T15:17:50Z</time>
      </trkpt>
      <trkpt lat="43.58289" lon="6.76025">
        <ele>299</ele>
        <time>2009-06-07T15:17:55Z</time>
      </trkpt>
      <trkpt lat="43.58287" lon="6.76019">
        <ele>301</ele>
        <time>2009-06-07T15:17:58Z</time>
      </trkpt>
      <trkpt lat="43.58288" lon="6.76011">
        <ele>301</ele>
        <time>2009-06-07T15:18:04Z</time>
      </trkpt>
      <trkpt lat="43.58288" lon="6.75999">
        <ele>301</ele>
        <time>2009-06-07T15:18:10Z</time>
      </trkpt>
      <trkpt lat="43.58288" lon="6.75989">
        <ele>303</ele>
        <time>2009-06-07T15:18:16Z</time>
      </trkpt>
      <trkpt lat="43.58288" lon="6.75978">
        <ele>303</ele>
        <time>2009-06-07T15:18:22Z</time>
      </trkpt>
      <trkpt lat="43.58289" lon="6.75968">
        <ele>303</ele>
        <time>2009-06-07T15:18:28Z</time>
      </trkpt>
      <trkpt lat="43.58289" lon="6.75961">
        <ele>304</ele>
        <time>2009-06-07T15:18:31Z</time>
      </trkpt>
      <trkpt lat="43.58289" lon="6.75955">
        <ele>305</ele>
        <time>2009-06-07T15:18:34Z</time>
      </trkpt>
      <trkpt lat="43.58289" lon="6.75944">
        <ele>305</ele>
        <time>2009-06-07T15:18:40Z</time>
      </trkpt>
      <trkpt lat="43.58289" lon="6.75927">
        <ele>306</ele>
        <time>2009-06-07T15:18:48Z</time>
      </trkpt>
      <trkpt lat="43.58288" lon="6.75919">
        <ele>308</ele>
        <time>2009-06-07T15:18:54Z</time>
      </trkpt>
      <trkpt lat="43.58288" lon="6.7591">
        <ele>310</ele>
        <time>2009-06-07T15:19:00Z</time>
      </trkpt>
      <trkpt lat="43.58286" lon="6.75903">
        <ele>311</ele>
        <time>2009-06-07T15:19:03Z</time>
      </trkpt>
      <trkpt lat="43.58283" lon="6.75897">
        <ele>312</ele>
        <time>2009-06-07T15:19:09Z</time>
      </trkpt>
      <trkpt lat="43.58284" lon="6.75888">
        <ele>311</ele>
        <time>2009-06-07T15:19:15Z</time>
      </trkpt>
      <trkpt lat="43.58283" lon="6.75879">
        <ele>312</ele>
        <time>2009-06-07T15:19:21Z</time>
      </trkpt>
      <trkpt lat="43.5828" lon="6.75867">
        <ele>314</ele>
        <time>2009-06-07T15:19:27Z</time>
      </trkpt>
      <trkpt lat="43.58279" lon="6.7586">
        <ele>315</ele>
        <time>2009-06-07T15:19:30Z</time>
      </trkpt>
      <trkpt lat="43.58276" lon="6.7585">
        <ele>317</ele>
        <time>2009-06-07T15:19:36Z</time>
      </trkpt>
      <trkpt lat="43.58274" lon="6.75834">
        <ele>318</ele>
        <time>2009-06-07T15:19:47Z</time>
      </trkpt>
      <trkpt lat="43.58273" lon="6.75827">
        <ele>319</ele>
        <time>2009-06-07T15:19:50Z</time>
      </trkpt>
      <trkpt lat="43.58271" lon="6.7582">
        <ele>319</ele>
        <time>2009-06-07T15:19:53Z</time>
      </trkpt>
      <trkpt lat="43.58273" lon="6.75813">
        <ele>320</ele>
        <time>2009-06-07T15:19:56Z</time>
      </trkpt>
      <trkpt lat="43.58273" lon="6.75803">
        <ele>319</ele>
        <time>2009-06-07T15:20:02Z</time>
      </trkpt>
      <trkpt lat="43.58275" lon="6.75793">
        <ele>321</ele>
        <time>2009-06-07T15:20:08Z</time>
      </trkpt>
      <trkpt lat="43.58274" lon="6.75776">
        <ele>323</ele>
        <time>2009-06-07T15:20:17Z</time>
      </trkpt>
      <trkpt lat="43.58279" lon="6.75765">
        <ele>324</ele>
        <time>2009-06-07T15:20:20Z</time>
      </trkpt>
      <trkpt lat="43.58282" lon="6.75755">
        <ele>325</ele>
        <time>2009-06-07T15:20:26Z</time>
      </trkpt>
      <trkpt lat="43.58284" lon="6.75746">
        <ele>325</ele>
        <time>2009-06-07T15:20:29Z</time>
      </trkpt>
      <trkpt lat="43.58284" lon="6.75735">
        <ele>327</ele>
        <time>2009-06-07T15:20:32Z</time>
      </trkpt>
      <trkpt lat="43.58284" lon="6.75724">
        <ele>329</ele>
        <time>2009-06-07T15:20:35Z</time>
      </trkpt>
      <trkpt lat="43.58282" lon="6.75717">
        <ele>331</ele>
        <time>2009-06-07T15:20:38Z</time>
      </trkpt>
      <trkpt lat="43.58281" lon="6.75693">
        <ele>331</ele>
        <time>2009-06-07T15:20:49Z</time>
      </trkpt>
      <trkpt lat="43.58278" lon="6.75687">
        <ele>331</ele>
        <time>2009-06-07T15:20:52Z</time>
      </trkpt>
      <trkpt lat="43.58277" lon="6.75681">
        <ele>331</ele>
        <time>2009-06-07T15:20:55Z</time>
      </trkpt>
      <trkpt lat="43.58275" lon="6.7567">
        <ele>332</ele>
        <time>2009-06-07T15:21:01Z</time>
      </trkpt>
      <trkpt lat="43.5827" lon="6.75658">
        <ele>333</ele>
        <time>2009-06-07T15:21:07Z</time>
      </trkpt>
      <trkpt lat="43.58269" lon="6.75643">
        <ele>333</ele>
        <time>2009-06-07T15:21:16Z</time>
      </trkpt>
      <trkpt lat="43.58268" lon="6.75634">
        <ele>333</ele>
        <time>2009-06-07T15:21:19Z</time>
      </trkpt>
      <trkpt lat="43.58264" lon="6.75628">
        <ele>332</ele>
        <time>2009-06-07T15:21:22Z</time>
      </trkpt>
      <trkpt lat="43.58262" lon="6.75621">
        <ele>331</ele>
        <time>2009-06-07T15:21:25Z</time>
      </trkpt>
      <trkpt lat="43.58263" lon="6.75613">
        <ele>332</ele>
        <time>2009-06-07T15:21:28Z</time>
      </trkpt>
      <trkpt lat="43.58265" lon="6.75604">
        <ele>331</ele>
        <time>2009-06-07T15:21:31Z</time>
      </trkpt>
      <trkpt lat="43.58264" lon="6.75594">
        <ele>331</ele>
        <time>2009-06-07T15:21:37Z</time>
      </trkpt>
      <trkpt lat="43.58263" lon="6.75587">
        <ele>332</ele>
        <time>2009-06-07T15:21:40Z</time>
      </trkpt>
      <trkpt lat="43.58264" lon="6.75567">
        <ele>331</ele>
        <time>2009-06-07T15:21:48Z</time>
      </trkpt>
      <trkpt lat="43.58266" lon="6.75559">
        <ele>332</ele>
        <time>2009-06-07T15:21:51Z</time>
      </trkpt>
      <trkpt lat="43.58267" lon="6.7555">
        <ele>332</ele>
        <time>2009-06-07T15:21:54Z</time>
      </trkpt>
      <trkpt lat="43.5827" lon="6.75542">
        <ele>331</ele>
        <time>2009-06-07T15:21:57Z</time>
      </trkpt>
      <trkpt lat="43.5827" lon="6.75531">
        <ele>330</ele>
        <time>2009-06-07T15:22:00Z</time>
      </trkpt>
      <trkpt lat="43.58269" lon="6.75518">
        <ele>332</ele>
        <time>2009-06-07T15:22:03Z</time>
      </trkpt>
      <trkpt lat="43.58269" lon="6.75506">
        <ele>332</ele>
        <time>2009-06-07T15:22:06Z</time>
      </trkpt>
      <trkpt lat="43.58271" lon="6.75494">
        <ele>333</ele>
        <time>2009-06-07T15:22:09Z</time>
      </trkpt>
      <trkpt lat="43.5828" lon="6.7547">
        <ele>332</ele>
        <time>2009-06-07T15:22:15Z</time>
      </trkpt>
      <trkpt lat="43.58282" lon="6.75457">
        <ele>333</ele>
        <time>2009-06-07T15:22:18Z</time>
      </trkpt>
      <trkpt lat="43.58284" lon="6.7544">
        <ele>333</ele>
        <time>2009-06-07T15:22:21Z</time>
      </trkpt>
      <trkpt lat="43.58283" lon="6.75426">
        <ele>333</ele>
        <time>2009-06-07T15:22:24Z</time>
      </trkpt>
      <trkpt lat="43.58287" lon="6.75411">
        <ele>333</ele>
        <time>2009-06-07T15:22:27Z</time>
      </trkpt>
      <trkpt lat="43.5829" lon="6.75394">
        <ele>332</ele>
        <time>2009-06-07T15:22:30Z</time>
      </trkpt>
      <trkpt lat="43.58292" lon="6.75373">
        <ele>332</ele>
        <time>2009-06-07T15:22:33Z</time>
      </trkpt>
      <trkpt lat="43.58292" lon="6.75351">
        <ele>332</ele>
        <time>2009-06-07T15:22:36Z</time>
      </trkpt>
      <trkpt lat="43.58293" lon="6.75329">
        <ele>331</ele>
        <time>2009-06-07T15:22:39Z</time>
      </trkpt>
      <trkpt lat="43.58303" lon="6.75275">
        <ele>329</ele>
        <time>2009-06-07T15:22:47Z</time>
      </trkpt>
      <trkpt lat="43.58301" lon="6.75255">
        <ele>328</ele>
        <time>2009-06-07T15:22:50Z</time>
      </trkpt>
      <trkpt lat="43.58298" lon="6.75243">
        <ele>326</ele>
        <time>2009-06-07T15:22:52Z</time>
      </trkpt>
      <trkpt lat="43.58294" lon="6.75225">
        <ele>326</ele>
        <time>2009-06-07T15:22:55Z</time>
      </trkpt>
      <trkpt lat="43.5829" lon="6.75213">
        <ele>326</ele>
        <time>2009-06-07T15:22:58Z</time>
      </trkpt>
      <trkpt lat="43.58288" lon="6.75202">
        <ele>324</ele>
        <time>2009-06-07T15:23:02Z</time>
      </trkpt>
      <trkpt lat="43.58281" lon="6.75191">
        <ele>322</ele>
        <time>2009-06-07T15:23:04Z</time>
      </trkpt>
      <trkpt lat="43.58271" lon="6.75179">
        <ele>321</ele>
        <time>2009-06-07T15:23:07Z</time>
      </trkpt>
      <trkpt lat="43.58264" lon="6.75159">
        <ele>320</ele>
        <time>2009-06-07T15:23:10Z</time>
      </trkpt>
      <trkpt lat="43.58253" lon="6.7511">
        <ele>318</ele>
        <time>2009-06-07T15:23:17Z</time>
      </trkpt>
      <trkpt lat="43.58248" lon="6.75079">
        <ele>318</ele>
        <time>2009-06-07T15:23:20Z</time>
      </trkpt>
      <trkpt lat="43.58246" lon="6.7505">
        <ele>318</ele>
        <time>2009-06-07T15:23:23Z</time>
      </trkpt>
      <trkpt lat="43.5824" lon="6.75022">
        <ele>319</ele>
        <time>2009-06-07T15:23:26Z</time>
      </trkpt>
      <trkpt lat="43.58238" lon="6.75006">
        <ele>318</ele>
        <time>2009-06-07T15:23:29Z</time>
      </trkpt>
      <trkpt lat="43.58237" lon="6.74989">
        <ele>318</ele>
        <time>2009-06-07T15:23:32Z</time>
      </trkpt>
      <trkpt lat="43.58231" lon="6.74973">
        <ele>317</ele>
        <time>2009-06-07T15:23:35Z</time>
      </trkpt>
      <trkpt lat="43.58224" lon="6.74959">
        <ele>318</ele>
        <time>2009-06-07T15:23:38Z</time>
      </trkpt>
      <trkpt lat="43.58214" lon="6.74946">
        <ele>317</ele>
        <time>2009-06-07T15:23:41Z</time>
      </trkpt>
      <trkpt lat="43.58195" lon="6.74924">
        <ele>317</ele>
        <time>2009-06-07T15:23:49Z</time>
      </trkpt>
      <trkpt lat="43.58187" lon="6.74916">
        <ele>316</ele>
        <time>2009-06-07T15:23:52Z</time>
      </trkpt>
      <trkpt lat="43.58182" lon="6.74904">
        <ele>316</ele>
        <time>2009-06-07T15:23:55Z</time>
      </trkpt>
      <trkpt lat="43.58174" lon="6.74889">
        <ele>314</ele>
        <time>2009-06-07T15:23:58Z</time>
      </trkpt>
      <trkpt lat="43.58166" lon="6.74874">
        <ele>312</ele>
        <time>2009-06-07T15:24:00Z</time>
      </trkpt>
      <trkpt lat="43.5816" lon="6.74864">
        <ele>312</ele>
        <time>2009-06-07T15:24:04Z</time>
      </trkpt>
      <trkpt lat="43.58154" lon="6.74848">
        <ele>314</ele>
        <time>2009-06-07T15:24:07Z</time>
      </trkpt>
      <trkpt lat="43.58147" lon="6.74835">
        <ele>313</ele>
        <time>2009-06-07T15:24:10Z</time>
      </trkpt>
      <trkpt lat="43.5814" lon="6.74808">
        <ele>314</ele>
        <time>2009-06-07T15:24:16Z</time>
      </trkpt>
      <trkpt lat="43.5814" lon="6.74793">
        <ele>314</ele>
        <time>2009-06-07T15:24:19Z</time>
      </trkpt>
      <trkpt lat="43.58139" lon="6.74772">
        <ele>316</ele>
        <time>2009-06-07T15:24:22Z</time>
      </trkpt>
      <trkpt lat="43.5814" lon="6.74752">
        <ele>316</ele>
        <time>2009-06-07T15:24:25Z</time>
      </trkpt>
      <trkpt lat="43.58136" lon="6.74728">
        <ele>313</ele>
        <time>2009-06-07T15:24:28Z</time>
      </trkpt>
      <trkpt lat="43.58132" lon="6.74711">
        <ele>313</ele>
        <time>2009-06-07T15:24:31Z</time>
      </trkpt>
      <trkpt lat="43.58123" lon="6.747">
        <ele>311</ele>
        <time>2009-06-07T15:24:34Z</time>
      </trkpt>
      <trkpt lat="43.58111" lon="6.74695">
        <ele>310</ele>
        <time>2009-06-07T15:24:37Z</time>
      </trkpt>
      <trkpt lat="43.58099" lon="6.74693">
        <ele>311</ele>
        <time>2009-06-07T15:24:40Z</time>
      </trkpt>
      <trkpt lat="43.58085" lon="6.74672">
        <ele>312</ele>
        <time>2009-06-07T15:24:48Z</time>
      </trkpt>
      <trkpt lat="43.58083" lon="6.74652">
        <ele>315</ele>
        <time>2009-06-07T15:24:51Z</time>
      </trkpt>
      <trkpt lat="43.58085" lon="6.74643">
        <ele>317</ele>
        <time>2009-06-07T15:24:54Z</time>
      </trkpt>
      <trkpt lat="43.58089" lon="6.74636">
        <ele>317</ele>
        <time>2009-06-07T15:24:57Z</time>
      </trkpt>
      <trkpt lat="43.58095" lon="6.7463">
        <ele>318</ele>
        <time>2009-06-07T15:25:00Z</time>
      </trkpt>
      <trkpt lat="43.58099" lon="6.74625">
        <ele>318</ele>
        <time>2009-06-07T15:25:03Z</time>
      </trkpt>
      <trkpt lat="43.58102" lon="6.74618">
        <ele>317</ele>
        <time>2009-06-07T15:25:06Z</time>
      </trkpt>
      <trkpt lat="43.58104" lon="6.7461">
        <ele>318</ele>
        <time>2009-06-07T15:25:09Z</time>
      </trkpt>
      <trkpt lat="43.58103" lon="6.74598">
        <ele>322</ele>
        <time>2009-06-07T15:25:15Z</time>
      </trkpt>
      <trkpt lat="43.58101" lon="6.74591">
        <ele>324</ele>
        <time>2009-06-07T15:25:18Z</time>
      </trkpt>
      <trkpt lat="43.58104" lon="6.74584">
        <ele>324</ele>
        <time>2009-06-07T15:25:21Z</time>
      </trkpt>
      <trkpt lat="43.58106" lon="6.74577">
        <ele>323</ele>
        <time>2009-06-07T15:25:24Z</time>
      </trkpt>
      <trkpt lat="43.58113" lon="6.74567">
        <ele>325</ele>
        <time>2009-06-07T15:25:30Z</time>
      </trkpt>
      <trkpt lat="43.58117" lon="6.74562">
        <ele>324</ele>
        <time>2009-06-07T15:25:33Z</time>
      </trkpt>
      <trkpt lat="43.5812" lon="6.74557">
        <ele>324</ele>
        <time>2009-06-07T15:25:36Z</time>
      </trkpt>
      <trkpt lat="43.58128" lon="6.74539">
        <ele>325</ele>
        <time>2009-06-07T15:25:47Z</time>
      </trkpt>
      <trkpt lat="43.58132" lon="6.74531">
        <ele>326</ele>
        <time>2009-06-07T15:25:53Z</time>
      </trkpt>
      <trkpt lat="43.58134" lon="6.74525">
        <ele>326</ele>
        <time>2009-06-07T15:25:56Z</time>
      </trkpt>
      <trkpt lat="43.58132" lon="6.74517">
        <ele>328</ele>
        <time>2009-06-07T15:25:59Z</time>
      </trkpt>
      <trkpt lat="43.58134" lon="6.74505">
        <ele>330</ele>
        <time>2009-06-07T15:26:05Z</time>
      </trkpt>
      <trkpt lat="43.58135" lon="6.74498">
        <ele>330</ele>
        <time>2009-06-07T15:26:08Z</time>
      </trkpt>
      <trkpt lat="43.58133" lon="6.74489">
        <ele>332</ele>
        <time>2009-06-07T15:26:14Z</time>
      </trkpt>
      <trkpt lat="43.58137" lon="6.74489">
        <ele>330</ele>
        <time>2009-06-07T15:26:36Z</time>
      </trkpt>
      <trkpt lat="43.58139" lon="6.74466">
        <ele>333</ele>
        <time>2009-06-07T15:27:05Z</time>
      </trkpt>
      <trkpt lat="43.58141" lon="6.74459">
        <ele>334</ele>
        <time>2009-06-07T15:27:08Z</time>
      </trkpt>
      <trkpt lat="43.58141" lon="6.74451">
        <ele>334</ele>
        <time>2009-06-07T15:27:11Z</time>
      </trkpt>
      <trkpt lat="43.58143" lon="6.74445">
        <ele>334</ele>
        <time>2009-06-07T15:27:14Z</time>
      </trkpt>
      <trkpt lat="43.58144" lon="6.74439">
        <ele>334</ele>
        <time>2009-06-07T15:27:17Z</time>
      </trkpt>
      <trkpt lat="43.5815" lon="6.74429">
        <ele>334</ele>
        <time>2009-06-07T15:27:20Z</time>
      </trkpt>
      <trkpt lat="43.5815" lon="6.74417">
        <ele>334</ele>
        <time>2009-06-07T15:27:23Z</time>
      </trkpt>
      <trkpt lat="43.58151" lon="6.74407">
        <ele>335</ele>
        <time>2009-06-07T15:27:26Z</time>
      </trkpt>
      <trkpt lat="43.58154" lon="6.74398">
        <ele>335</ele>
        <time>2009-06-07T15:27:29Z</time>
      </trkpt>
      <trkpt lat="43.58156" lon="6.74388">
        <ele>335</ele>
        <time>2009-06-07T15:27:32Z</time>
      </trkpt>
      <trkpt lat="43.58159" lon="6.74379">
        <ele>335</ele>
        <time>2009-06-07T15:27:35Z</time>
      </trkpt>
      <trkpt lat="43.5816" lon="6.74368">
        <ele>335</ele>
        <time>2009-06-07T15:27:38Z</time>
      </trkpt>
      <trkpt lat="43.58164" lon="6.7436">
        <ele>335</ele>
        <time>2009-06-07T15:27:41Z</time>
      </trkpt>
      <trkpt lat="43.58168" lon="6.74341">
        <ele>335</ele>
        <time>2009-06-07T15:27:49Z</time>
      </trkpt>
      <trkpt lat="43.58166" lon="6.74333">
        <ele>336</ele>
        <time>2009-06-07T15:27:52Z</time>
      </trkpt>
      <trkpt lat="43.58165" lon="6.74326">
        <ele>337</ele>
        <time>2009-06-07T15:27:55Z</time>
      </trkpt>
      <trkpt lat="43.58166" lon="6.74319">
        <ele>337</ele>
        <time>2009-06-07T15:27:58Z</time>
      </trkpt>
      <trkpt lat="43.58165" lon="6.74312">
        <ele>337</ele>
        <time>2009-06-07T15:28:01Z</time>
      </trkpt>
      <trkpt lat="43.58163" lon="6.74303">
        <ele>339</ele>
        <time>2009-06-07T15:28:04Z</time>
      </trkpt>
      <trkpt lat="43.58163" lon="6.74291">
        <ele>340</ele>
        <time>2009-06-07T15:28:10Z</time>
      </trkpt>
      <trkpt lat="43.58163" lon="6.7428">
        <ele>341</ele>
        <time>2009-06-07T15:28:16Z</time>
      </trkpt>
      <trkpt lat="43.58165" lon="6.74272">
        <ele>343</ele>
        <time>2009-06-07T15:28:19Z</time>
      </trkpt>
      <trkpt lat="43.58168" lon="6.74263">
        <ele>342</ele>
        <time>2009-06-07T15:28:25Z</time>
      </trkpt>
      <trkpt lat="43.58171" lon="6.74255">
        <ele>343</ele>
        <time>2009-06-07T15:28:28Z</time>
      </trkpt>
      <trkpt lat="43.58177" lon="6.74242">
        <ele>344</ele>
        <time>2009-06-07T15:28:31Z</time>
      </trkpt>
      <trkpt lat="43.58177" lon="6.74235">
        <ele>345</ele>
        <time>2009-06-07T15:28:34Z</time>
      </trkpt>
      <trkpt lat="43.58181" lon="6.7423">
        <ele>345</ele>
        <time>2009-06-07T15:28:37Z</time>
      </trkpt>
      <trkpt lat="43.58189" lon="6.74214">
        <ele>343</ele>
        <time>2009-06-07T15:28:48Z</time>
      </trkpt>
      <trkpt lat="43.58191" lon="6.74205">
        <ele>343</ele>
        <time>2009-06-07T15:28:52Z</time>
      </trkpt>
      <trkpt lat="43.58198" lon="6.74193">
        <ele>343</ele>
        <time>2009-06-07T15:28:56Z</time>
      </trkpt>
      <trkpt lat="43.58202" lon="6.74186">
        <ele>345</ele>
        <time>2009-06-07T15:28:59Z</time>
      </trkpt>
      <trkpt lat="43.58204" lon="6.74177">
        <ele>345</ele>
        <time>2009-06-07T15:29:02Z</time>
      </trkpt>
      <trkpt lat="43.58208" lon="6.74163">
        <ele>346</ele>
        <time>2009-06-07T15:29:07Z</time>
      </trkpt>
      <trkpt lat="43.58209" lon="6.74152">
        <ele>346</ele>
        <time>2009-06-07T15:29:11Z</time>
      </trkpt>
      <trkpt lat="43.58211" lon="6.74134">
        <ele>346</ele>
        <time>2009-06-07T15:29:15Z</time>
      </trkpt>
      <trkpt lat="43.58215" lon="6.7412">
        <ele>347</ele>
        <time>2009-06-07T15:29:18Z</time>
      </trkpt>
      <trkpt lat="43.58218" lon="6.74107">
        <ele>347</ele>
        <time>2009-06-07T15:29:21Z</time>
      </trkpt>
      <trkpt lat="43.5822" lon="6.74094">
        <ele>347</ele>
        <time>2009-06-07T15:29:24Z</time>
      </trkpt>
      <trkpt lat="43.58229" lon="6.74076">
        <ele>348</ele>
        <time>2009-06-07T15:29:27Z</time>
      </trkpt>
      <trkpt lat="43.58231" lon="6.7405">
        <ele>349</ele>
        <time>2009-06-07T15:29:31Z</time>
      </trkpt>
      <trkpt lat="43.58233" lon="6.74039">
        <ele>350</ele>
        <time>2009-06-07T15:29:32Z</time>
      </trkpt>
      <trkpt lat="43.5824" lon="6.7402">
        <ele>350</ele>
        <time>2009-06-07T15:29:35Z</time>
      </trkpt>
      <trkpt lat="43.58254" lon="6.73957">
        <ele>350</ele>
        <time>2009-06-07T15:29:43Z</time>
      </trkpt>
      <trkpt lat="43.58257" lon="6.73944">
        <ele>348</ele>
        <time>2009-06-07T15:29:44Z</time>
      </trkpt>
      <trkpt lat="43.58258" lon="6.73903">
        <ele>349</ele>
        <time>2009-06-07T15:29:47Z</time>
      </trkpt>
      <trkpt lat="43.58256" lon="6.73892">
        <ele>349</ele>
        <time>2009-06-07T15:29:48Z</time>
      </trkpt>
      <trkpt lat="43.58248" lon="6.73863">
        <ele>348</ele>
        <time>2009-06-07T15:29:51Z</time>
      </trkpt>
      <trkpt lat="43.58235" lon="6.73835">
        <ele>346</ele>
        <time>2009-06-07T15:29:54Z</time>
      </trkpt>
      <trkpt lat="43.58228" lon="6.73826">
        <ele>345</ele>
        <time>2009-06-07T15:29:55Z</time>
      </trkpt>
      <trkpt lat="43.58207" lon="6.73796">
        <ele>344</ele>
        <time>2009-06-07T15:29:58Z</time>
      </trkpt>
      <trkpt lat="43.58183" lon="6.7376">
        <ele>344</ele>
        <time>2009-06-07T15:30:01Z</time>
      </trkpt>
      <trkpt lat="43.58163" lon="6.73731">
        <ele>342</ele>
        <time>2009-06-07T15:30:04Z</time>
      </trkpt>
      <trkpt lat="43.58129" lon="6.73619">
        <ele>334</ele>
        <time>2009-06-07T15:30:15Z</time>
      </trkpt>
      <trkpt lat="43.58118" lon="6.73589">
        <ele>332</ele>
        <time>2009-06-07T15:30:18Z</time>
      </trkpt>
      <trkpt lat="43.58105" lon="6.73557">
        <ele>331</ele>
        <time>2009-06-07T15:30:21Z</time>
      </trkpt>
      <trkpt lat="43.58088" lon="6.73533">
        <ele>329</ele>
        <time>2009-06-07T15:30:24Z</time>
      </trkpt>
      <trkpt lat="43.58074" lon="6.73506">
        <ele>329</ele>
        <time>2009-06-07T15:30:27Z</time>
      </trkpt>
      <trkpt lat="43.58067" lon="6.73482">
        <ele>329</ele>
        <time>2009-06-07T15:30:30Z</time>
      </trkpt>
      <trkpt lat="43.58057" lon="6.73454">
        <ele>330</ele>
        <time>2009-06-07T15:30:33Z</time>
      </trkpt>
      <trkpt lat="43.58046" lon="6.73429">
        <ele>328</ele>
        <time>2009-06-07T15:30:35Z</time>
      </trkpt>
      <trkpt lat="43.58036" lon="6.73407">
        <ele>328</ele>
        <time>2009-06-07T15:30:38Z</time>
      </trkpt>
      <trkpt lat="43.58017" lon="6.73356">
        <ele>326</ele>
        <time>2009-06-07T15:30:47Z</time>
      </trkpt>
      <trkpt lat="43.58007" lon="6.73345">
        <ele>322</ele>
        <time>2009-06-07T15:30:48Z</time>
      </trkpt>
      <trkpt lat="43.57993" lon="6.73327">
        <ele>321</ele>
        <time>2009-06-07T15:30:51Z</time>
      </trkpt>
      <trkpt lat="43.57989" lon="6.73322">
        <ele>320</ele>
        <time>2009-06-07T15:30:52Z</time>
      </trkpt>
      <trkpt lat="43.57979" lon="6.73304">
        <ele>323</ele>
        <time>2009-06-07T15:30:55Z</time>
      </trkpt>
      <trkpt lat="43.57973" lon="6.73293">
        <ele>326</ele>
        <time>2009-06-07T15:30:56Z</time>
      </trkpt>
      <trkpt lat="43.57963" lon="6.7328">
        <ele>328</ele>
        <time>2009-06-07T15:30:59Z</time>
      </trkpt>
      <trkpt lat="43.57958" lon="6.73271">
        <ele>327</ele>
        <time>2009-06-07T15:31:02Z</time>
      </trkpt>
      <trkpt lat="43.57948" lon="6.7326">
        <ele>329</ele>
        <time>2009-06-07T15:31:05Z</time>
      </trkpt>
      <trkpt lat="43.57943" lon="6.73252">
        <ele>327</ele>
        <time>2009-06-07T15:31:08Z</time>
      </trkpt>
      <trkpt lat="43.57929" lon="6.73238">
        <ele>327</ele>
        <time>2009-06-07T15:31:16Z</time>
      </trkpt>
      <trkpt lat="43.57923" lon="6.73231">
        <ele>329</ele>
        <time>2009-06-07T15:31:19Z</time>
      </trkpt>
      <trkpt lat="43.57917" lon="6.73225">
        <ele>331</ele>
        <time>2009-06-07T15:31:23Z</time>
      </trkpt>
      <trkpt lat="43.57912" lon="6.7322">
        <ele>331</ele>
        <time>2009-06-07T15:31:26Z</time>
      </trkpt>
      <trkpt lat="43.57906" lon="6.73212">
        <ele>333</ele>
        <time>2009-06-07T15:31:29Z</time>
      </trkpt>
      <trkpt lat="43.57899" lon="6.73203">
        <ele>335</ele>
        <time>2009-06-07T15:31:32Z</time>
      </trkpt>
      <trkpt lat="43.57893" lon="6.73194">
        <ele>335</ele>
        <time>2009-06-07T15:31:35Z</time>
      </trkpt>
      <trkpt lat="43.57875" lon="6.73176">
        <ele>339</ele>
        <time>2009-06-07T15:31:46Z</time>
      </trkpt>
      <trkpt lat="43.57867" lon="6.73165">
        <ele>339</ele>
        <time>2009-06-07T15:31:50Z</time>
      </trkpt>
      <trkpt lat="43.57863" lon="6.73162">
        <ele>339</ele>
        <time>2009-06-07T15:31:51Z</time>
      </trkpt>
      <trkpt lat="43.57857" lon="6.73156">
        <ele>339</ele>
        <time>2009-06-07T15:31:54Z</time>
      </trkpt>
      <trkpt lat="43.5785" lon="6.73145">
        <ele>338</ele>
        <time>2009-06-07T15:31:57Z</time>
      </trkpt>
      <trkpt lat="43.57845" lon="6.73141">
        <ele>337</ele>
        <time>2009-06-07T15:32:00Z</time>
      </trkpt>
      <trkpt lat="43.5784" lon="6.73136">
        <ele>337</ele>
        <time>2009-06-07T15:32:03Z</time>
      </trkpt>
      <trkpt lat="43.57835" lon="6.7313">
        <ele>338</ele>
        <time>2009-06-07T15:32:06Z</time>
      </trkpt>
      <trkpt lat="43.57824" lon="6.73122">
        <ele>338</ele>
        <time>2009-06-07T15:32:15Z</time>
      </trkpt>
      <trkpt lat="43.57818" lon="6.73118">
        <ele>338</ele>
        <time>2009-06-07T15:32:18Z</time>
      </trkpt>
      <trkpt lat="43.57809" lon="6.73108">
        <ele>337</ele>
        <time>2009-06-07T15:32:21Z</time>
      </trkpt>
      <trkpt lat="43.57802" lon="6.73104">
        <ele>336</ele>
        <time>2009-06-07T15:32:24Z</time>
      </trkpt>
      <trkpt lat="43.57797" lon="6.73098">
        <ele>336</ele>
        <time>2009-06-07T15:32:27Z</time>
      </trkpt>
      <trkpt lat="43.57787" lon="6.73083">
        <ele>337</ele>
        <time>2009-06-07T15:32:31Z</time>
      </trkpt>
      <trkpt lat="43.57782" lon="6.73075">
        <ele>335</ele>
        <time>2009-06-07T15:32:34Z</time>
      </trkpt>
      <trkpt lat="43.57777" lon="6.7307">
        <ele>335</ele>
        <time>2009-06-07T15:32:37Z</time>
      </trkpt>
      <trkpt lat="43.57771" lon="6.7306">
        <ele>335</ele>
        <time>2009-06-07T15:32:40Z</time>
      </trkpt>
      <trkpt lat="43.5776" lon="6.73046">
        <ele>334</ele>
        <time>2009-06-07T15:32:48Z</time>
      </trkpt>
      <trkpt lat="43.57755" lon="6.73041">
        <ele>334</ele>
        <time>2009-06-07T15:32:52Z</time>
      </trkpt>
      <trkpt lat="43.57748" lon="6.73031">
        <ele>335</ele>
        <time>2009-06-07T15:32:57Z</time>
      </trkpt>
      <trkpt lat="43.57739" lon="6.73018">
        <ele>337</ele>
        <time>2009-06-07T15:33:01Z</time>
      </trkpt>
      <trkpt lat="43.57735" lon="6.73015">
        <ele>337</ele>
        <time>2009-06-07T15:33:04Z</time>
      </trkpt>
      <trkpt lat="43.57716" lon="6.72981">
        <ele>337</ele>
        <time>2009-06-07T15:33:15Z</time>
      </trkpt>
      <trkpt lat="43.57711" lon="6.72975">
        <ele>337</ele>
        <time>2009-06-07T15:33:18Z</time>
      </trkpt>
      <trkpt lat="43.57705" lon="6.72969">
        <ele>337</ele>
        <time>2009-06-07T15:33:22Z</time>
      </trkpt>
      <trkpt lat="43.57699" lon="6.7296">
        <ele>337</ele>
        <time>2009-06-07T15:33:26Z</time>
      </trkpt>
      <trkpt lat="43.57694" lon="6.72952">
        <ele>338</ele>
        <time>2009-06-07T15:33:30Z</time>
      </trkpt>
      <trkpt lat="43.57677" lon="6.72935">
        <ele>341</ele>
        <time>2009-06-07T15:33:40Z</time>
      </trkpt>
      <trkpt lat="43.57672" lon="6.72928">
        <ele>342</ele>
        <time>2009-06-07T15:33:41Z</time>
      </trkpt>
      <trkpt lat="43.57662" lon="6.72922">
        <ele>341</ele>
        <time>2009-06-07T15:33:45Z</time>
      </trkpt>
      <trkpt lat="43.57657" lon="6.72919">
        <ele>341</ele>
        <time>2009-06-07T15:33:48Z</time>
      </trkpt>
      <trkpt lat="43.57652" lon="6.72912">
        <ele>341</ele>
        <time>2009-06-07T15:33:52Z</time>
      </trkpt>
      <trkpt lat="43.5765" lon="6.72904">
        <ele>340</ele>
        <time>2009-06-07T15:33:56Z</time>
      </trkpt>
      <trkpt lat="43.57644" lon="6.729">
        <ele>340</ele>
        <time>2009-06-07T15:33:57Z</time>
      </trkpt>
      <trkpt lat="43.57633" lon="6.72885">
        <ele>340</ele>
        <time>2009-06-07T15:34:06Z</time>
      </trkpt>
      <trkpt lat="43.57629" lon="6.72881">
        <ele>339</ele>
        <time>2009-06-07T15:34:10Z</time>
      </trkpt>
      <trkpt lat="43.57623" lon="6.72873">
        <ele>339</ele>
        <time>2009-06-07T15:34:11Z</time>
      </trkpt>
      <trkpt lat="43.57616" lon="6.72856">
        <ele>343</ele>
        <time>2009-06-07T15:34:15Z</time>
      </trkpt>
      <trkpt lat="43.57613" lon="6.7284">
        <ele>347</ele>
        <time>2009-06-07T15:34:18Z</time>
      </trkpt>
      <trkpt lat="43.57615" lon="6.72834">
        <ele>349</ele>
        <time>2009-06-07T15:34:19Z</time>
      </trkpt>
      <trkpt lat="43.57618" lon="6.72827">
        <ele>350</ele>
        <time>2009-06-07T15:34:22Z</time>
      </trkpt>
      <trkpt lat="43.5762" lon="6.7282">
        <ele>351</ele>
        <time>2009-06-07T15:34:25Z</time>
      </trkpt>
      <trkpt lat="43.57625" lon="6.72812">
        <ele>351</ele>
        <time>2009-06-07T15:34:28Z</time>
      </trkpt>
      <trkpt lat="43.57634" lon="6.72803">
        <ele>350</ele>
        <time>2009-06-07T15:34:31Z</time>
      </trkpt>
      <trkpt lat="43.57639" lon="6.72793">
        <ele>349</ele>
        <time>2009-06-07T15:34:34Z</time>
      </trkpt>
      <trkpt lat="43.57643" lon="6.72785">
        <ele>349</ele>
        <time>2009-06-07T15:34:37Z</time>
      </trkpt>
      <trkpt lat="43.57654" lon="6.72763">
        <ele>351</ele>
        <time>2009-06-07T15:34:45Z</time>
      </trkpt>
      <trkpt lat="43.57657" lon="6.72753">
        <ele>355</ele>
        <time>2009-06-07T15:34:48Z</time>
      </trkpt>
      <trkpt lat="43.57661" lon="6.72744">
        <ele>356</ele>
        <time>2009-06-07T15:34:51Z</time>
      </trkpt>
      <trkpt lat="43.57667" lon="6.72735">
        <ele>353</ele>
        <time>2009-06-07T15:34:53Z</time>
      </trkpt>
      <trkpt lat="43.57671" lon="6.72725">
        <ele>352</ele>
        <time>2009-06-07T15:34:56Z</time>
      </trkpt>
      <trkpt lat="43.57673" lon="6.72716">
        <ele>352</ele>
        <time>2009-06-07T15:35:00Z</time>
      </trkpt>
      <trkpt lat="43.57677" lon="6.72707">
        <ele>353</ele>
        <time>2009-06-07T15:35:03Z</time>
      </trkpt>
      <trkpt lat="43.57682" lon="6.72697">
        <ele>352</ele>
        <time>2009-06-07T15:35:06Z</time>
      </trkpt>
      <trkpt lat="43.57684" lon="6.72688">
        <ele>353</ele>
        <time>2009-06-07T15:35:08Z</time>
      </trkpt>
      <trkpt lat="43.57689" lon="6.72672">
        <ele>354</ele>
        <time>2009-06-07T15:35:15Z</time>
      </trkpt>
      <trkpt lat="43.57689" lon="6.72663">
        <ele>354</ele>
        <time>2009-06-07T15:35:18Z</time>
      </trkpt>
      <trkpt lat="43.57692" lon="6.72656">
        <ele>355</ele>
        <time>2009-06-07T15:35:24Z</time>
      </trkpt>
      <trkpt lat="43.57693" lon="6.72649">
        <ele>349</ele>
        <time>2009-06-07T15:35:36Z</time>
      </trkpt>
      <trkpt lat="43.57691" lon="6.72642">
        <ele>348</ele>
        <time>2009-06-07T15:35:42Z</time>
      </trkpt>
      <trkpt lat="43.57699" lon="6.72643">
        <ele>350</ele>
        <time>2009-06-07T15:35:50Z</time>
      </trkpt>
      <trkpt lat="43.57696" lon="6.72646">
        <ele>348</ele>
        <time>2009-06-07T15:35:57Z</time>
      </trkpt>
    </trkseg>
  </trk>
</gpx>